<?xml version='1.0' encoding='UTF-8'?><gpx version="1.1" creator="JPX - https://github.com/jenetics/jpx" xmlns="http://www.topografix.com/GPX/1/1"><trk><trkseg><trkpt lat="43.4792302" lon="11.6185111"><ele>233.00000000000003</ele><time>2026-04-11T07:55:09.708Z</time></trkpt><trkpt lat="43.4792623" lon="11.618592"><ele>233.0</ele><time>2026-04-11T07:55:17.7Z</time></trkpt><trkpt lat="43.4792801" lon="11.6184925"><ele>233.0</ele><time>2026-04-11T07:56:11.704Z</time></trkpt><trkpt lat="43.4793065" lon="11.6183495"><ele>233.0</ele><time>2026-04-11T07:57:37.705Z</time></trkpt><trkpt lat="43.4792321" lon="11.6183465"><ele>233.00000000000003</ele><time>2026-04-11T07:58:30.689Z</time></trkpt><trkpt lat="43.4791583" lon="11.6183061"><ele>233.0</ele><time>2026-04-11T08:04:14.682Z</time></trkpt><trkpt lat="43.4790922" lon="11.6182996"><ele>233.0</ele><time>2026-04-11T08:04:17.7Z</time></trkpt><trkpt lat="43.4790085" lon="11.6182464"><ele>233.0</ele><time>2026-04-11T08:04:20.646Z</time></trkpt><trkpt lat="43.4788957" lon="11.6179605"><ele>233.0</ele><time>2026-04-11T08:04:22.7Z</time></trkpt><trkpt lat="43.4788434" lon="11.6178321"><ele>233.0</ele><time>2026-04-11T08:04:24.703Z</time></trkpt><trkpt lat="43.4788044" lon="11.61775"><ele>233.14285714285717</ele><time>2026-04-11T08:04:26.706Z</time></trkpt><trkpt lat="43.4787692" lon="11.6176768"><ele>233.28571428571428</ele><time>2026-04-11T08:04:29.702Z</time></trkpt><trkpt lat="43.4787382" lon="11.6175714"><ele>233.42857142857144</ele><time>2026-04-11T08:04:33.731Z</time></trkpt><trkpt lat="43.4787814" lon="11.6175056"><ele>233.57142857142858</ele><time>2026-04-11T08:04:35.701Z</time></trkpt><trkpt lat="43.4788318" lon="11.617444"><ele>233.71428571428572</ele><time>2026-04-11T08:04:37.776Z</time></trkpt><trkpt lat="43.4788757" lon="11.6173626"><ele>233.85714285714286</ele><time>2026-04-11T08:04:39.702Z</time></trkpt><trkpt lat="43.4789259" lon="11.6172837"><ele>234.0</ele><time>2026-04-11T08:04:41.708Z</time></trkpt><trkpt lat="43.4789781" lon="11.6172063"><ele>234.0</ele><time>2026-04-11T08:04:43.732Z</time></trkpt><trkpt lat="43.4790249" lon="11.6171398"><ele>234.0</ele><time>2026-04-11T08:04:45.701Z</time></trkpt><trkpt lat="43.4791012" lon="11.6171094"><ele>234.0</ele><time>2026-04-11T08:04:48.716Z</time></trkpt><trkpt lat="43.47903" lon="11.6170925"><ele>234.0</ele><time>2026-04-11T08:04:58.735Z</time></trkpt><trkpt lat="43.4790417" lon="11.6172333"><ele>234.0</ele><time>2026-04-11T08:05:00.703Z</time></trkpt><trkpt lat="43.4790317" lon="11.6173267"><ele>234.0</ele><time>2026-04-11T08:05:06.703Z</time></trkpt><trkpt lat="43.479065" lon="11.6175217"><ele>234.0</ele><time>2026-04-11T08:05:39.701Z</time></trkpt><trkpt lat="43.4789983" lon="11.6175267"><ele>234.00000000000003</ele><time>2026-04-11T08:14:18.699Z</time></trkpt><trkpt lat="43.4790017" lon="11.6176183"><ele>234.0</ele><time>2026-04-11T08:14:23.702Z</time></trkpt><trkpt lat="43.4790367" lon="11.6176983"><ele>234.0</ele><time>2026-04-11T08:14:26.702Z</time></trkpt><trkpt lat="43.4790767" lon="11.617775"><ele>234.00000000000003</ele><time>2026-04-11T08:14:29.7Z</time></trkpt><trkpt lat="43.4791317" lon="11.617835"><ele>234.0</ele><time>2026-04-11T08:14:32.7Z</time></trkpt><trkpt lat="43.4791833" lon="11.6178867"><ele>234.0</ele><time>2026-04-11T08:14:35.7Z</time></trkpt><trkpt lat="43.47924" lon="11.6179433"><ele>233.83333333333334</ele><time>2026-04-11T08:14:39.699Z</time></trkpt><trkpt lat="43.4793167" lon="11.61801"><ele>233.66666666666669</ele><time>2026-04-11T08:14:53.701Z</time></trkpt><trkpt lat="43.4794017" lon="11.6180433"><ele>233.5</ele><time>2026-04-11T08:14:57.699Z</time></trkpt><trkpt lat="43.4794667" lon="11.6180633"><ele>233.33333333333334</ele><time>2026-04-11T08:15:00.696Z</time></trkpt><trkpt lat="43.4795383" lon="11.6180683"><ele>233.16666666666669</ele><time>2026-04-11T08:15:06.701Z</time></trkpt><trkpt lat="43.4796083" lon="11.6180783"><ele>233.0</ele><time>2026-04-11T08:15:09.701Z</time></trkpt><trkpt lat="43.4796883" lon="11.6180933"><ele>230.16666666666669</ele><time>2026-04-11T08:15:12.7Z</time></trkpt><trkpt lat="43.4797683" lon="11.6181217"><ele>227.33333333333334</ele><time>2026-04-11T08:15:15.701Z</time></trkpt><trkpt lat="43.4798467" lon="11.6181783"><ele>224.5</ele><time>2026-04-11T08:15:18.703Z</time></trkpt><trkpt lat="43.47991" lon="11.6182533"><ele>221.66666666666669</ele><time>2026-04-11T08:15:21.701Z</time></trkpt><trkpt lat="43.4799483" lon="11.618325"><ele>218.83333333333334</ele><time>2026-04-11T08:15:23.701Z</time></trkpt><trkpt lat="43.4800033" lon="11.61839"><ele>216.0</ele><time>2026-04-11T08:15:26.744Z</time></trkpt><trkpt lat="43.4800617" lon="11.6184783"><ele>216.0</ele><time>2026-04-11T08:15:45.701Z</time></trkpt><trkpt lat="43.4800633" lon="11.6186033"><ele>216.00000000000003</ele><time>2026-04-11T08:18:23.7Z</time></trkpt><trkpt lat="43.4800567" lon="11.618745"><ele>216.00000000000003</ele><time>2026-04-11T08:18:25.7Z</time></trkpt><trkpt lat="43.4800583" lon="11.6188683"><ele>216.0</ele><time>2026-04-11T08:18:26.702Z</time></trkpt><trkpt lat="43.4800633" lon="11.6190083"><ele>216.0</ele><time>2026-04-11T08:18:27.699Z</time></trkpt><trkpt lat="43.4800683" lon="11.6191483"><ele>216.0</ele><time>2026-04-11T08:18:28.701Z</time></trkpt><trkpt lat="43.480075" lon="11.6192817"><ele>216.00000000000003</ele><time>2026-04-11T08:18:29.699Z</time></trkpt><trkpt lat="43.48007" lon="11.619415"><ele>216.00000000000003</ele><time>2026-04-11T08:18:30.702Z</time></trkpt><trkpt lat="43.4800533" lon="11.6195467"><ele>216.0</ele><time>2026-04-11T08:18:31.7Z</time></trkpt><trkpt lat="43.4800217" lon="11.61967"><ele>216.0</ele><time>2026-04-11T08:18:32.703Z</time></trkpt><trkpt lat="43.479985" lon="11.619795"><ele>215.8</ele><time>2026-04-11T08:18:33.702Z</time></trkpt><trkpt lat="43.4799417" lon="11.6199183"><ele>215.60000000000002</ele><time>2026-04-11T08:18:34.701Z</time></trkpt><trkpt lat="43.47989" lon="11.6200283"><ele>215.4</ele><time>2026-04-11T08:18:35.701Z</time></trkpt><trkpt lat="43.4798283" lon="11.6201317"><ele>215.2</ele><time>2026-04-11T08:18:36.699Z</time></trkpt><trkpt lat="43.4797533" lon="11.620225"><ele>215.0</ele><time>2026-04-11T08:18:37.699Z</time></trkpt><trkpt lat="43.47967" lon="11.6203033"><ele>215.6</ele><time>2026-04-11T08:18:38.7Z</time></trkpt><trkpt lat="43.479575" lon="11.62034"><ele>216.2</ele><time>2026-04-11T08:18:39.7Z</time></trkpt><trkpt lat="43.4794617" lon="11.6203367"><ele>216.8</ele><time>2026-04-11T08:18:40.699Z</time></trkpt><trkpt lat="43.4793533" lon="11.620305"><ele>217.4</ele><time>2026-04-11T08:18:41.701Z</time></trkpt><trkpt lat="43.4792467" lon="11.62027"><ele>218.0</ele><time>2026-04-11T08:18:42.701Z</time></trkpt><trkpt lat="43.4791367" lon="11.62024"><ele>219.00000000000003</ele><time>2026-04-11T08:18:43.701Z</time></trkpt><trkpt lat="43.479045" lon="11.620215"><ele>220.0</ele><time>2026-04-11T08:18:44.7Z</time></trkpt><trkpt lat="43.4789633" lon="11.6201833"><ele>221.0</ele><time>2026-04-11T08:18:45.7Z</time></trkpt><trkpt lat="43.478885" lon="11.6201517"><ele>222.0</ele><time>2026-04-11T08:18:46.697Z</time></trkpt><trkpt lat="43.478815" lon="11.62012"><ele>223.00000000000003</ele><time>2026-04-11T08:18:47.7Z</time></trkpt><trkpt lat="43.4787433" lon="11.6200917"><ele>224.0</ele><time>2026-04-11T08:18:48.699Z</time></trkpt><trkpt lat="43.4786783" lon="11.6200517"><ele>224.00000000000003</ele><time>2026-04-11T08:18:49.699Z</time></trkpt><trkpt lat="43.4786133" lon="11.61999"><ele>224.0</ele><time>2026-04-11T08:18:50.7Z</time></trkpt><trkpt lat="43.4785517" lon="11.6199133"><ele>224.0</ele><time>2026-04-11T08:18:51.7Z</time></trkpt><trkpt lat="43.4784967" lon="11.6198217"><ele>224.0</ele><time>2026-04-11T08:18:52.699Z</time></trkpt><trkpt lat="43.4784433" lon="11.6197233"><ele>224.00000000000003</ele><time>2026-04-11T08:18:53.7Z</time></trkpt><trkpt lat="43.4784" lon="11.6196117"><ele>224.0</ele><time>2026-04-11T08:18:54.701Z</time></trkpt><trkpt lat="43.47836" lon="11.6194783"><ele>226.5</ele><time>2026-04-11T08:18:55.701Z</time></trkpt><trkpt lat="43.4783317" lon="11.619325"><ele>229.0</ele><time>2026-04-11T08:18:56.7Z</time></trkpt><trkpt lat="43.478305" lon="11.6191583"><ele>231.5</ele><time>2026-04-11T08:18:57.701Z</time></trkpt><trkpt lat="43.4782833" lon="11.6189783"><ele>234.0</ele><time>2026-04-11T08:18:58.699Z</time></trkpt><trkpt lat="43.4782767" lon="11.6188"><ele>235.0</ele><time>2026-04-11T08:18:59.7Z</time></trkpt><trkpt lat="43.478285" lon="11.6186333"><ele>236.0</ele><time>2026-04-11T08:19:00.7Z</time></trkpt><trkpt lat="43.4783167" lon="11.6184667"><ele>237.0</ele><time>2026-04-11T08:19:01.701Z</time></trkpt><trkpt lat="43.4783667" lon="11.618325"><ele>238.0</ele><time>2026-04-11T08:19:02.702Z</time></trkpt><trkpt lat="43.4784317" lon="11.6181867"><ele>238.0</ele><time>2026-04-11T08:19:03.699Z</time></trkpt><trkpt lat="43.4784983" lon="11.6180583"><ele>238.0</ele><time>2026-04-11T08:19:04.7Z</time></trkpt><trkpt lat="43.4785567" lon="11.61795"><ele>238.0</ele><time>2026-04-11T08:19:05.7Z</time></trkpt><trkpt lat="43.4786133" lon="11.6178433"><ele>238.0</ele><time>2026-04-11T08:19:06.701Z</time></trkpt><trkpt lat="43.4786667" lon="11.6177317"><ele>238.0</ele><time>2026-04-11T08:19:07.7Z</time></trkpt><trkpt lat="43.478725" lon="11.6176183"><ele>237.2</ele><time>2026-04-11T08:19:08.701Z</time></trkpt><trkpt lat="43.47878" lon="11.6174983"><ele>236.4</ele><time>2026-04-11T08:19:09.7Z</time></trkpt><trkpt lat="43.4788367" lon="11.6173783"><ele>235.59999999999997</ele><time>2026-04-11T08:19:10.7Z</time></trkpt><trkpt lat="43.4789017" lon="11.6172667"><ele>234.79999999999998</ele><time>2026-04-11T08:19:11.701Z</time></trkpt><trkpt lat="43.47898" lon="11.6171633"><ele>234.0</ele><time>2026-04-11T08:19:12.7Z</time></trkpt><trkpt lat="43.479055" lon="11.617055"><ele>235.6</ele><time>2026-04-11T08:19:13.701Z</time></trkpt><trkpt lat="43.47912" lon="11.6169367"><ele>237.2</ele><time>2026-04-11T08:19:14.7Z</time></trkpt><trkpt lat="43.4791683" lon="11.6168117"><ele>238.79999999999998</ele><time>2026-04-11T08:19:15.699Z</time></trkpt><trkpt lat="43.4792067" lon="11.6166883"><ele>240.39999999999998</ele><time>2026-04-11T08:19:16.7Z</time></trkpt><trkpt lat="43.47924" lon="11.6165683"><ele>242.0</ele><time>2026-04-11T08:19:17.7Z</time></trkpt><trkpt lat="43.4792683" lon="11.6164583"><ele>242.0</ele><time>2026-04-11T08:19:18.7Z</time></trkpt><trkpt lat="43.4792967" lon="11.6163717"><ele>242.0</ele><time>2026-04-11T08:19:19.7Z</time></trkpt><trkpt lat="43.4793317" lon="11.6162383"><ele>242.0</ele><time>2026-04-11T08:19:21.699Z</time></trkpt><trkpt lat="43.47929" lon="11.6160867"><ele>242.0</ele><time>2026-04-11T08:19:23.7Z</time></trkpt><trkpt lat="43.4792267" lon="11.6160033"><ele>242.0</ele><time>2026-04-11T08:19:24.7Z</time></trkpt><trkpt lat="43.4791483" lon="11.61593"><ele>241.39999999999998</ele><time>2026-04-11T08:19:25.7Z</time></trkpt><trkpt lat="43.4790683" lon="11.6158683"><ele>240.79999999999998</ele><time>2026-04-11T08:19:26.701Z</time></trkpt><trkpt lat="43.479" lon="11.6158133"><ele>240.2</ele><time>2026-04-11T08:19:27.7Z</time></trkpt><trkpt lat="43.4789383" lon="11.61576"><ele>239.6</ele><time>2026-04-11T08:19:28.701Z</time></trkpt><trkpt lat="43.47887" lon="11.61565"><ele>239.0</ele><time>2026-04-11T08:19:30.701Z</time></trkpt><trkpt lat="43.4788933" lon="11.61549"><ele>239.0</ele><time>2026-04-11T08:19:32.701Z</time></trkpt><trkpt lat="43.4789533" lon="11.615395"><ele>238.99999999999997</ele><time>2026-04-11T08:19:33.7Z</time></trkpt><trkpt lat="43.479025" lon="11.6152767"><ele>238.99999999999997</ele><time>2026-04-11T08:19:34.7Z</time></trkpt><trkpt lat="43.4791" lon="11.6151517"><ele>239.0</ele><time>2026-04-11T08:19:35.7Z</time></trkpt><trkpt lat="43.4791783" lon="11.6150183"><ele>239.0</ele><time>2026-04-11T08:19:36.699Z</time></trkpt><trkpt lat="43.47926" lon="11.6148983"><ele>239.39999999999998</ele><time>2026-04-11T08:19:37.699Z</time></trkpt><trkpt lat="43.4793417" lon="11.6147833"><ele>239.79999999999998</ele><time>2026-04-11T08:19:38.702Z</time></trkpt><trkpt lat="43.4794267" lon="11.6146733"><ele>240.20000000000002</ele><time>2026-04-11T08:19:39.699Z</time></trkpt><trkpt lat="43.47951" lon="11.61457"><ele>240.60000000000002</ele><time>2026-04-11T08:19:40.7Z</time></trkpt><trkpt lat="43.4795883" lon="11.61449"><ele>241.0</ele><time>2026-04-11T08:19:41.7Z</time></trkpt><trkpt lat="43.4796633" lon="11.6144067"><ele>241.0</ele><time>2026-04-11T08:19:42.7Z</time></trkpt><trkpt lat="43.4797367" lon="11.614305"><ele>241.00000000000003</ele><time>2026-04-11T08:19:43.703Z</time></trkpt><trkpt lat="43.4798" lon="11.614205"><ele>241.00000000000003</ele><time>2026-04-11T08:19:44.7Z</time></trkpt><trkpt lat="43.4798517" lon="11.6141117"><ele>241.0</ele><time>2026-04-11T08:19:45.699Z</time></trkpt><trkpt lat="43.4798917" lon="11.614025"><ele>241.0</ele><time>2026-04-11T08:19:46.7Z</time></trkpt><trkpt lat="43.4799" lon="11.6138767"><ele>241.0</ele><time>2026-04-11T08:19:48.7Z</time></trkpt><trkpt lat="43.479855" lon="11.613805"><ele>241.00000000000003</ele><time>2026-04-11T08:19:49.7Z</time></trkpt><trkpt lat="43.479785" lon="11.6137317"><ele>241.00000000000003</ele><time>2026-04-11T08:19:50.701Z</time></trkpt><trkpt lat="43.4797067" lon="11.6136533"><ele>241.0</ele><time>2026-04-11T08:19:51.701Z</time></trkpt><trkpt lat="43.4796167" lon="11.61356"><ele>241.0</ele><time>2026-04-11T08:19:52.7Z</time></trkpt><trkpt lat="43.47953" lon="11.6134667"><ele>242.0</ele><time>2026-04-11T08:19:53.699Z</time></trkpt><trkpt lat="43.479465" lon="11.6133783"><ele>243.00000000000003</ele><time>2026-04-11T08:19:54.7Z</time></trkpt><trkpt lat="43.4794267" lon="11.6132917"><ele>244.00000000000003</ele><time>2026-04-11T08:19:55.701Z</time></trkpt><trkpt lat="43.4793833" lon="11.613145"><ele>245.0</ele><time>2026-04-11T08:19:57.699Z</time></trkpt><trkpt lat="43.47933" lon="11.613"><ele>246.0</ele><time>2026-04-11T08:19:59.7Z</time></trkpt><trkpt lat="43.4792383" lon="11.6128883"><ele>246.00000000000003</ele><time>2026-04-11T08:20:01.7Z</time></trkpt><trkpt lat="43.4791733" lon="11.6128617"><ele>246.0</ele><time>2026-04-11T08:20:02.702Z</time></trkpt><trkpt lat="43.4791" lon="11.6128733"><ele>246.00000000000003</ele><time>2026-04-11T08:20:03.701Z</time></trkpt><trkpt lat="43.4790283" lon="11.612895"><ele>246.00000000000003</ele><time>2026-04-11T08:20:04.701Z</time></trkpt><trkpt lat="43.47896" lon="11.6128933"><ele>246.0</ele><time>2026-04-11T08:20:05.7Z</time></trkpt><trkpt lat="43.4788917" lon="11.6128517"><ele>246.00000000000003</ele><time>2026-04-11T08:20:06.699Z</time></trkpt><trkpt lat="43.4788333" lon="11.61277"><ele>246.00000000000003</ele><time>2026-04-11T08:20:07.7Z</time></trkpt><trkpt lat="43.4787783" lon="11.612635"><ele>242.5</ele><time>2026-04-11T08:20:08.701Z</time></trkpt><trkpt lat="43.4787033" lon="11.6125033"><ele>239.0</ele><time>2026-04-11T08:20:09.7Z</time></trkpt><trkpt lat="43.478625" lon="11.6123733"><ele>235.5</ele><time>2026-04-11T08:20:10.7Z</time></trkpt><trkpt lat="43.4785483" lon="11.61223"><ele>232.0</ele><time>2026-04-11T08:20:11.702Z</time></trkpt><trkpt lat="43.47847" lon="11.6120817"><ele>230.25</ele><time>2026-04-11T08:20:12.694Z</time></trkpt><trkpt lat="43.4784" lon="11.61193"><ele>228.5</ele><time>2026-04-11T08:20:13.699Z</time></trkpt><trkpt lat="43.47834" lon="11.611775"><ele>226.75</ele><time>2026-04-11T08:20:14.701Z</time></trkpt><trkpt lat="43.4782883" lon="11.6116267"><ele>225.0</ele><time>2026-04-11T08:20:15.7Z</time></trkpt><trkpt lat="43.4782433" lon="11.6114967"><ele>225.0</ele><time>2026-04-11T08:20:16.7Z</time></trkpt><trkpt lat="43.4781933" lon="11.6114083"><ele>225.0</ele><time>2026-04-11T08:20:17.7Z</time></trkpt><trkpt lat="43.4781317" lon="11.6113417"><ele>225.0</ele><time>2026-04-11T08:20:18.7Z</time></trkpt><trkpt lat="43.478065" lon="11.6113083"><ele>225.0</ele><time>2026-04-11T08:20:19.701Z</time></trkpt><trkpt lat="43.4779717" lon="11.6112517"><ele>225.0</ele><time>2026-04-11T08:20:21.702Z</time></trkpt><trkpt lat="43.4779533" lon="11.6111367"><ele>225.0</ele><time>2026-04-11T08:20:23.701Z</time></trkpt><trkpt lat="43.47804" lon="11.6110433"><ele>225.42857142857144</ele><time>2026-04-11T08:21:20.701Z</time></trkpt><trkpt lat="43.478095" lon="11.611"><ele>225.85714285714286</ele><time>2026-04-11T08:21:21.7Z</time></trkpt><trkpt lat="43.4781483" lon="11.6109417"><ele>226.28571428571428</ele><time>2026-04-11T08:21:22.699Z</time></trkpt><trkpt lat="43.4781883" lon="11.610865"><ele>226.71428571428572</ele><time>2026-04-11T08:21:23.704Z</time></trkpt><trkpt lat="43.4782233" lon="11.6107783"><ele>227.1428571428571</ele><time>2026-04-11T08:21:24.699Z</time></trkpt><trkpt lat="43.4782433" lon="11.610685"><ele>227.57142857142856</ele><time>2026-04-11T08:21:25.7Z</time></trkpt><trkpt lat="43.4782533" lon="11.6105733"><ele>228.0</ele><time>2026-04-11T08:21:26.7Z</time></trkpt><trkpt lat="43.4782617" lon="11.6104467"><ele>229.8</ele><time>2026-04-11T08:21:27.701Z</time></trkpt><trkpt lat="43.4782733" lon="11.6103067"><ele>231.60000000000002</ele><time>2026-04-11T08:21:28.699Z</time></trkpt><trkpt lat="43.47829" lon="11.6101733"><ele>233.39999999999998</ele><time>2026-04-11T08:21:29.702Z</time></trkpt><trkpt lat="43.4783067" lon="11.6100567"><ele>235.2</ele><time>2026-04-11T08:21:30.701Z</time></trkpt><trkpt lat="43.47833" lon="11.609945"><ele>237.0</ele><time>2026-04-11T08:21:31.7Z</time></trkpt><trkpt lat="43.478365" lon="11.609825"><ele>237.0</ele><time>2026-04-11T08:21:32.701Z</time></trkpt><trkpt lat="43.47841" lon="11.609705"><ele>237.0</ele><time>2026-04-11T08:21:33.7Z</time></trkpt><trkpt lat="43.4784617" lon="11.6095767"><ele>237.0</ele><time>2026-04-11T08:21:34.701Z</time></trkpt><trkpt lat="43.478515" lon="11.6094467"><ele>237.0</ele><time>2026-04-11T08:21:35.697Z</time></trkpt><trkpt lat="43.478565" lon="11.6093233"><ele>237.0</ele><time>2026-04-11T08:21:36.702Z</time></trkpt><trkpt lat="43.4786167" lon="11.6092067"><ele>238.2</ele><time>2026-04-11T08:21:37.701Z</time></trkpt><trkpt lat="43.4786683" lon="11.6090917"><ele>239.39999999999998</ele><time>2026-04-11T08:21:38.701Z</time></trkpt><trkpt lat="43.4787133" lon="11.6089717"><ele>240.60000000000002</ele><time>2026-04-11T08:21:39.702Z</time></trkpt><trkpt lat="43.47875" lon="11.60884"><ele>241.8</ele><time>2026-04-11T08:21:40.702Z</time></trkpt><trkpt lat="43.4787767" lon="11.6086933"><ele>243.0</ele><time>2026-04-11T08:21:41.699Z</time></trkpt><trkpt lat="43.4787967" lon="11.6085483"><ele>244.4</ele><time>2026-04-11T08:21:42.7Z</time></trkpt><trkpt lat="43.4788117" lon="11.6084133"><ele>245.8</ele><time>2026-04-11T08:21:43.7Z</time></trkpt><trkpt lat="43.478825" lon="11.6082783"><ele>247.2</ele><time>2026-04-11T08:21:44.701Z</time></trkpt><trkpt lat="43.4788417" lon="11.608145"><ele>248.6</ele><time>2026-04-11T08:21:45.7Z</time></trkpt><trkpt lat="43.47886" lon="11.6080117"><ele>250.0</ele><time>2026-04-11T08:21:46.7Z</time></trkpt><trkpt lat="43.4788783" lon="11.60789"><ele>250.33333333333331</ele><time>2026-04-11T08:21:47.707Z</time></trkpt><trkpt lat="43.4788933" lon="11.6077733"><ele>250.66666666666666</ele><time>2026-04-11T08:21:48.7Z</time></trkpt><trkpt lat="43.4789067" lon="11.60766"><ele>251.0</ele><time>2026-04-11T08:21:49.699Z</time></trkpt><trkpt lat="43.4789183" lon="11.6075633"><ele>251.33333333333331</ele><time>2026-04-11T08:21:50.696Z</time></trkpt><trkpt lat="43.478935" lon="11.6074417"><ele>251.66666666666666</ele><time>2026-04-11T08:21:52.728Z</time></trkpt><trkpt lat="43.4789433" lon="11.6073517"><ele>252.0</ele><time>2026-04-11T08:21:55.702Z</time></trkpt><trkpt lat="43.4789917" lon="11.6072267"><ele>252.0</ele><time>2026-04-11T08:22:56.698Z</time></trkpt><trkpt lat="43.4790533" lon="11.6071767"><ele>252.0</ele><time>2026-04-11T08:22:57.7Z</time></trkpt><trkpt lat="43.4791333" lon="11.6071133"><ele>252.0</ele><time>2026-04-11T08:22:58.7Z</time></trkpt><trkpt lat="43.4792233" lon="11.6070167"><ele>252.0</ele><time>2026-04-11T08:22:59.701Z</time></trkpt><trkpt lat="43.47931" lon="11.6068867"><ele>252.0</ele><time>2026-04-11T08:23:00.7Z</time></trkpt><trkpt lat="43.47939" lon="11.6067433"><ele>251.75</ele><time>2026-04-11T08:23:01.699Z</time></trkpt><trkpt lat="43.479465" lon="11.6065817"><ele>251.5</ele><time>2026-04-11T08:23:02.701Z</time></trkpt><trkpt lat="43.47953" lon="11.6064183"><ele>251.25</ele><time>2026-04-11T08:23:03.699Z</time></trkpt><trkpt lat="43.4795833" lon="11.606265"><ele>251.0</ele><time>2026-04-11T08:23:04.7Z</time></trkpt><trkpt lat="43.4796233" lon="11.6061233"><ele>251.0</ele><time>2026-04-11T08:23:05.7Z</time></trkpt><trkpt lat="43.479665" lon="11.6059783"><ele>251.00000000000003</ele><time>2026-04-11T08:23:06.702Z</time></trkpt><trkpt lat="43.4797083" lon="11.60583"><ele>251.00000000000003</ele><time>2026-04-11T08:23:07.7Z</time></trkpt><trkpt lat="43.4797533" lon="11.6056883"><ele>251.0</ele><time>2026-04-11T08:23:08.705Z</time></trkpt><trkpt lat="43.4797917" lon="11.605565"><ele>251.0</ele><time>2026-04-11T08:23:09.699Z</time></trkpt><trkpt lat="43.4798233" lon="11.6054567"><ele>251.00000000000003</ele><time>2026-04-11T08:23:10.7Z</time></trkpt><trkpt lat="43.47986" lon="11.6053517"><ele>251.0</ele><time>2026-04-11T08:23:11.7Z</time></trkpt><trkpt lat="43.4798983" lon="11.6052567"><ele>251.0</ele><time>2026-04-11T08:23:12.7Z</time></trkpt><trkpt lat="43.4799333" lon="11.6051683"><ele>251.0</ele><time>2026-04-11T08:23:13.699Z</time></trkpt><trkpt lat="43.4799717" lon="11.6050883"><ele>251.00000000000003</ele><time>2026-04-11T08:23:14.7Z</time></trkpt><trkpt lat="43.4800183" lon="11.6050217"><ele>251.0</ele><time>2026-04-11T08:23:15.701Z</time></trkpt><trkpt lat="43.4801133" lon="11.604935"><ele>251.00000000000003</ele><time>2026-04-11T08:23:17.702Z</time></trkpt><trkpt lat="43.4801883" lon="11.6048833"><ele>251.0</ele><time>2026-04-11T08:23:19.701Z</time></trkpt><trkpt lat="43.4802483" lon="11.6047983"><ele>251.0</ele><time>2026-04-11T08:23:22.7Z</time></trkpt><trkpt lat="43.4802317" lon="11.6046717"><ele>251.0</ele><time>2026-04-11T08:41:41.7Z</time></trkpt><trkpt lat="43.4802033" lon="11.60454"><ele>251.00000000000003</ele><time>2026-04-11T08:41:43.7Z</time></trkpt><trkpt lat="43.480195" lon="11.6044283"><ele>251.0</ele><time>2026-04-11T08:41:44.705Z</time></trkpt><trkpt lat="43.4801933" lon="11.6043183"><ele>251.00000000000003</ele><time>2026-04-11T08:41:45.7Z</time></trkpt><trkpt lat="43.480185" lon="11.6042117"><ele>251.0</ele><time>2026-04-11T08:41:46.7Z</time></trkpt><trkpt lat="43.4801733" lon="11.60411"><ele>251.0</ele><time>2026-04-11T08:41:47.701Z</time></trkpt><trkpt lat="43.4801617" lon="11.6040067"><ele>251.0</ele><time>2026-04-11T08:41:48.702Z</time></trkpt><trkpt lat="43.48015" lon="11.6039033"><ele>251.00000000000003</ele><time>2026-04-11T08:41:49.702Z</time></trkpt><trkpt lat="43.480145" lon="11.6037983"><ele>251.0</ele><time>2026-04-11T08:41:50.703Z</time></trkpt><trkpt lat="43.4801433" lon="11.6036883"><ele>251.0</ele><time>2026-04-11T08:41:51.701Z</time></trkpt><trkpt lat="43.4801483" lon="11.60356"><ele>251.00000000000003</ele><time>2026-04-11T08:41:52.701Z</time></trkpt><trkpt lat="43.480165" lon="11.6034417"><ele>251.00000000000003</ele><time>2026-04-11T08:41:53.702Z</time></trkpt><trkpt lat="43.480195" lon="11.6033233"><ele>251.0</ele><time>2026-04-11T08:41:54.703Z</time></trkpt><trkpt lat="43.48023" lon="11.6031917"><ele>251.0</ele><time>2026-04-11T08:41:55.698Z</time></trkpt><trkpt lat="43.4802633" lon="11.60306"><ele>251.00000000000003</ele><time>2026-04-11T08:41:56.701Z</time></trkpt><trkpt lat="43.4802883" lon="11.6029367"><ele>251.0</ele><time>2026-04-11T08:41:57.7Z</time></trkpt><trkpt lat="43.4803183" lon="11.6028233"><ele>251.0</ele><time>2026-04-11T08:41:58.7Z</time></trkpt><trkpt lat="43.4803467" lon="11.6027183"><ele>251.0</ele><time>2026-04-11T08:41:59.702Z</time></trkpt><trkpt lat="43.4803817" lon="11.6026167"><ele>251.00000000000003</ele><time>2026-04-11T08:42:00.702Z</time></trkpt><trkpt lat="43.4804217" lon="11.6025167"><ele>251.0</ele><time>2026-04-11T08:42:01.701Z</time></trkpt><trkpt lat="43.480465" lon="11.6024133"><ele>250.16666666666669</ele><time>2026-04-11T08:42:02.702Z</time></trkpt><trkpt lat="43.4805067" lon="11.602305"><ele>249.33333333333334</ele><time>2026-04-11T08:42:03.701Z</time></trkpt><trkpt lat="43.480545" lon="11.6021983"><ele>248.5</ele><time>2026-04-11T08:42:04.701Z</time></trkpt><trkpt lat="43.4805833" lon="11.6020967"><ele>247.66666666666669</ele><time>2026-04-11T08:42:05.702Z</time></trkpt><trkpt lat="43.480625" lon="11.602"><ele>246.83333333333334</ele><time>2026-04-11T08:42:06.702Z</time></trkpt><trkpt lat="43.4806633" lon="11.60191"><ele>246.0</ele><time>2026-04-11T08:42:07.702Z</time></trkpt><trkpt lat="43.4807" lon="11.6018283"><ele>244.8</ele><time>2026-04-11T08:42:08.701Z</time></trkpt><trkpt lat="43.4807433" lon="11.6016867"><ele>243.60000000000002</ele><time>2026-04-11T08:42:10.7Z</time></trkpt><trkpt lat="43.480715" lon="11.60155"><ele>242.4</ele><time>2026-04-11T08:42:12.702Z</time></trkpt><trkpt lat="43.480585" lon="11.6015017"><ele>241.2</ele><time>2026-04-11T08:42:14.702Z</time></trkpt><trkpt lat="43.4805067" lon="11.6014883"><ele>240.0</ele><time>2026-04-11T08:42:15.701Z</time></trkpt><trkpt lat="43.4804317" lon="11.6014683"><ele>240.0</ele><time>2026-04-11T08:42:16.702Z</time></trkpt><trkpt lat="43.4803667" lon="11.601435"><ele>240.0</ele><time>2026-04-11T08:42:17.7Z</time></trkpt><trkpt lat="43.4802783" lon="11.60133"><ele>240.0</ele><time>2026-04-11T08:42:19.7Z</time></trkpt><trkpt lat="43.48028" lon="11.6011583"><ele>240.0</ele><time>2026-04-11T08:42:21.699Z</time></trkpt><trkpt lat="43.4803217" lon="11.6010383"><ele>240.0</ele><time>2026-04-11T08:42:22.7Z</time></trkpt><trkpt lat="43.48037" lon="11.6009033"><ele>239.5</ele><time>2026-04-11T08:42:23.702Z</time></trkpt><trkpt lat="43.4804233" lon="11.600745"><ele>239.0</ele><time>2026-04-11T08:42:24.7Z</time></trkpt><trkpt lat="43.4804833" lon="11.60057"><ele>238.5</ele><time>2026-04-11T08:42:25.7Z</time></trkpt><trkpt lat="43.4805417" lon="11.6003917"><ele>238.0</ele><time>2026-04-11T08:42:26.701Z</time></trkpt><trkpt lat="43.4805967" lon="11.6002067"><ele>240.33333333333331</ele><time>2026-04-11T08:42:27.702Z</time></trkpt><trkpt lat="43.4806533" lon="11.6000167"><ele>242.66666666666669</ele><time>2026-04-11T08:42:28.7Z</time></trkpt><trkpt lat="43.4807133" lon="11.599825"><ele>245.0</ele><time>2026-04-11T08:42:29.7Z</time></trkpt><trkpt lat="43.4807717" lon="11.5996333"><ele>246.25</ele><time>2026-04-11T08:42:30.702Z</time></trkpt><trkpt lat="43.4808283" lon="11.5994517"><ele>247.5</ele><time>2026-04-11T08:42:31.701Z</time></trkpt><trkpt lat="43.4808833" lon="11.59928"><ele>248.75</ele><time>2026-04-11T08:42:32.702Z</time></trkpt><trkpt lat="43.4809317" lon="11.5991267"><ele>250.0</ele><time>2026-04-11T08:42:33.701Z</time></trkpt><trkpt lat="43.480975" lon="11.59899"><ele>250.0</ele><time>2026-04-11T08:42:34.701Z</time></trkpt><trkpt lat="43.4810017" lon="11.5988567"><ele>250.0</ele><time>2026-04-11T08:42:35.702Z</time></trkpt><trkpt lat="43.48101" lon="11.5987183"><ele>250.0</ele><time>2026-04-11T08:42:36.703Z</time></trkpt><trkpt lat="43.4809983" lon="11.5985733"><ele>250.0</ele><time>2026-04-11T08:42:37.702Z</time></trkpt><trkpt lat="43.480975" lon="11.5984333"><ele>250.0</ele><time>2026-04-11T08:42:38.702Z</time></trkpt><trkpt lat="43.4809517" lon="11.598305"><ele>250.16666666666666</ele><time>2026-04-11T08:42:39.701Z</time></trkpt><trkpt lat="43.4809333" lon="11.59819"><ele>250.33333333333331</ele><time>2026-04-11T08:42:40.701Z</time></trkpt><trkpt lat="43.4809267" lon="11.5980867"><ele>250.5</ele><time>2026-04-11T08:42:41.701Z</time></trkpt><trkpt lat="43.4809317" lon="11.5979933"><ele>250.66666666666669</ele><time>2026-04-11T08:42:42.701Z</time></trkpt><trkpt lat="43.48096" lon="11.5978783"><ele>250.83333333333334</ele><time>2026-04-11T08:42:44.701Z</time></trkpt><trkpt lat="43.48102" lon="11.5978083"><ele>251.0</ele><time>2026-04-11T08:42:48.7Z</time></trkpt><trkpt lat="43.481095" lon="11.597845"><ele>251.0</ele><time>2026-04-11T08:42:50.702Z</time></trkpt><trkpt lat="43.481165" lon="11.5979067"><ele>251.00000000000003</ele><time>2026-04-11T08:42:52.701Z</time></trkpt><trkpt lat="43.48124" lon="11.597875"><ele>251.00000000000003</ele><time>2026-04-11T08:42:55.703Z</time></trkpt><trkpt lat="43.4813267" lon="11.59775"><ele>251.0</ele><time>2026-04-11T08:42:57.701Z</time></trkpt><trkpt lat="43.4814" lon="11.5976717"><ele>251.0</ele><time>2026-04-11T08:42:58.699Z</time></trkpt><trkpt lat="43.4814867" lon="11.5975783"><ele>251.8</ele><time>2026-04-11T08:42:59.701Z</time></trkpt><trkpt lat="43.4815683" lon="11.597495"><ele>252.60000000000002</ele><time>2026-04-11T08:43:00.702Z</time></trkpt><trkpt lat="43.481645" lon="11.5974117"><ele>253.4</ele><time>2026-04-11T08:43:01.702Z</time></trkpt><trkpt lat="43.4817183" lon="11.5973117"><ele>254.2</ele><time>2026-04-11T08:43:02.703Z</time></trkpt><trkpt lat="43.4817867" lon="11.5972083"><ele>255.0</ele><time>2026-04-11T08:43:03.703Z</time></trkpt><trkpt lat="43.481845" lon="11.597115"><ele>255.0</ele><time>2026-04-11T08:43:04.701Z</time></trkpt><trkpt lat="43.4818883" lon="11.5970233"><ele>255.0</ele><time>2026-04-11T08:43:05.702Z</time></trkpt><trkpt lat="43.4819283" lon="11.5969333"><ele>255.0</ele><time>2026-04-11T08:43:06.702Z</time></trkpt><trkpt lat="43.4819733" lon="11.596855"><ele>255.0</ele><time>2026-04-11T08:43:07.702Z</time></trkpt><trkpt lat="43.4820317" lon="11.5967817"><ele>255.0</ele><time>2026-04-11T08:43:08.702Z</time></trkpt><trkpt lat="43.4821" lon="11.59671"><ele>255.0</ele><time>2026-04-11T08:43:09.7Z</time></trkpt><trkpt lat="43.4821767" lon="11.5966383"><ele>255.16666666666666</ele><time>2026-04-11T08:43:10.701Z</time></trkpt><trkpt lat="43.4822467" lon="11.5965567"><ele>255.33333333333331</ele><time>2026-04-11T08:43:11.701Z</time></trkpt><trkpt lat="43.4823033" lon="11.5964667"><ele>255.5</ele><time>2026-04-11T08:43:12.702Z</time></trkpt><trkpt lat="43.48235" lon="11.5963783"><ele>255.66666666666666</ele><time>2026-04-11T08:43:13.701Z</time></trkpt><trkpt lat="43.4823933" lon="11.596295"><ele>255.83333333333331</ele><time>2026-04-11T08:43:14.702Z</time></trkpt><trkpt lat="43.482445" lon="11.59623"><ele>256.0</ele><time>2026-04-11T08:43:15.701Z</time></trkpt><trkpt lat="43.4825117" lon="11.5961333"><ele>255.99999999999997</ele><time>2026-04-11T08:43:17.699Z</time></trkpt><trkpt lat="43.48248" lon="11.5959967"><ele>256.0</ele><time>2026-04-11T08:43:19.7Z</time></trkpt><trkpt lat="43.482435" lon="11.59589"><ele>256.0</ele><time>2026-04-11T08:43:20.701Z</time></trkpt><trkpt lat="43.4823933" lon="11.59578"><ele>256.0</ele><time>2026-04-11T08:43:21.701Z</time></trkpt><trkpt lat="43.482345" lon="11.5956867"><ele>255.99999999999997</ele><time>2026-04-11T08:43:22.701Z</time></trkpt><trkpt lat="43.4823" lon="11.5956233"><ele>256.0</ele><time>2026-04-11T08:43:23.7Z</time></trkpt><trkpt lat="43.48217" lon="11.5955733"><ele>255.99999999999997</ele><time>2026-04-11T08:43:25.701Z</time></trkpt><trkpt lat="43.4820833" lon="11.595585"><ele>256.0</ele><time>2026-04-11T08:43:26.702Z</time></trkpt><trkpt lat="43.4819967" lon="11.5956083"><ele>256.0</ele><time>2026-04-11T08:43:27.702Z</time></trkpt><trkpt lat="43.4819133" lon="11.5956167"><ele>256.0</ele><time>2026-04-11T08:43:28.701Z</time></trkpt><trkpt lat="43.4818433" lon="11.5956183"><ele>255.99999999999997</ele><time>2026-04-11T08:43:29.701Z</time></trkpt><trkpt lat="43.4817433" lon="11.5956467"><ele>256.0</ele><time>2026-04-11T08:43:31.7Z</time></trkpt><trkpt lat="43.4816583" lon="11.59562"><ele>256.0</ele><time>2026-04-11T08:43:33.699Z</time></trkpt><trkpt lat="43.48158" lon="11.5954817"><ele>256.0</ele><time>2026-04-11T08:43:35.701Z</time></trkpt><trkpt lat="43.48155" lon="11.5953383"><ele>256.0</ele><time>2026-04-11T08:43:36.7Z</time></trkpt><trkpt lat="43.48151" lon="11.5951783"><ele>256.0</ele><time>2026-04-11T08:43:37.7Z</time></trkpt><trkpt lat="43.48146" lon="11.59502"><ele>256.25</ele><time>2026-04-11T08:43:38.703Z</time></trkpt><trkpt lat="43.481415" lon="11.594865"><ele>256.5</ele><time>2026-04-11T08:43:39.702Z</time></trkpt><trkpt lat="43.4813683" lon="11.59471"><ele>256.75</ele><time>2026-04-11T08:43:40.701Z</time></trkpt><trkpt lat="43.48132" lon="11.5945583"><ele>257.0</ele><time>2026-04-11T08:43:41.701Z</time></trkpt><trkpt lat="43.481275" lon="11.5944183"><ele>257.2</ele><time>2026-04-11T08:43:42.7Z</time></trkpt><trkpt lat="43.4812333" lon="11.594295"><ele>257.4</ele><time>2026-04-11T08:43:43.7Z</time></trkpt><trkpt lat="43.48119" lon="11.5941783"><ele>257.6</ele><time>2026-04-11T08:43:44.701Z</time></trkpt><trkpt lat="43.4811483" lon="11.5940567"><ele>257.8</ele><time>2026-04-11T08:43:45.699Z</time></trkpt><trkpt lat="43.4811" lon="11.593925"><ele>258.0</ele><time>2026-04-11T08:43:46.7Z</time></trkpt><trkpt lat="43.4810417" lon="11.593775"><ele>258.25</ele><time>2026-04-11T08:43:47.7Z</time></trkpt><trkpt lat="43.48098" lon="11.5936067"><ele>258.5</ele><time>2026-04-11T08:43:48.701Z</time></trkpt><trkpt lat="43.4809167" lon="11.5934283"><ele>258.75</ele><time>2026-04-11T08:43:49.7Z</time></trkpt><trkpt lat="43.480855" lon="11.5932517"><ele>259.0</ele><time>2026-04-11T08:43:50.703Z</time></trkpt><trkpt lat="43.4807967" lon="11.593085"><ele>259.0</ele><time>2026-04-11T08:43:51.701Z</time></trkpt><trkpt lat="43.4807383" lon="11.592915"><ele>259.0</ele><time>2026-04-11T08:43:52.699Z</time></trkpt><trkpt lat="43.480675" lon="11.5927433"><ele>259.0</ele><time>2026-04-11T08:43:53.701Z</time></trkpt><trkpt lat="43.480615" lon="11.5925717"><ele>259.0</ele><time>2026-04-11T08:43:54.701Z</time></trkpt><trkpt lat="43.4805517" lon="11.5924017"><ele>259.0</ele><time>2026-04-11T08:43:55.701Z</time></trkpt><trkpt lat="43.4804917" lon="11.5922333"><ele>259.0</ele><time>2026-04-11T08:43:56.701Z</time></trkpt><trkpt lat="43.480435" lon="11.5920733"><ele>259.0</ele><time>2026-04-11T08:43:57.699Z</time></trkpt><trkpt lat="43.4803817" lon="11.5919217"><ele>259.0</ele><time>2026-04-11T08:43:58.697Z</time></trkpt><trkpt lat="43.4803267" lon="11.5917667"><ele>259.0</ele><time>2026-04-11T08:43:59.701Z</time></trkpt><trkpt lat="43.4802717" lon="11.5916133"><ele>259.0</ele><time>2026-04-11T08:44:00.701Z</time></trkpt><trkpt lat="43.4802233" lon="11.5914767"><ele>259.0</ele><time>2026-04-11T08:44:01.7Z</time></trkpt><trkpt lat="43.4801833" lon="11.5913567"><ele>259.0</ele><time>2026-04-11T08:44:02.701Z</time></trkpt><trkpt lat="43.4801483" lon="11.5912583"><ele>259.0</ele><time>2026-04-11T08:44:03.701Z</time></trkpt><trkpt lat="43.4800917" lon="11.5911333"><ele>258.8</ele><time>2026-04-11T08:44:05.699Z</time></trkpt><trkpt lat="43.4800233" lon="11.5911017"><ele>258.59999999999997</ele><time>2026-04-11T08:44:07.7Z</time></trkpt><trkpt lat="43.4798967" lon="11.5911233"><ele>258.4</ele><time>2026-04-11T08:44:09.7Z</time></trkpt><trkpt lat="43.47983" lon="11.5911317"><ele>258.2</ele><time>2026-04-11T08:44:10.701Z</time></trkpt><trkpt lat="43.4797067" lon="11.5910583"><ele>258.0</ele><time>2026-04-11T08:44:12.7Z</time></trkpt><trkpt lat="43.4796383" lon="11.5909817"><ele>258.25</ele><time>2026-04-11T08:44:13.701Z</time></trkpt><trkpt lat="43.4795583" lon="11.59088"><ele>258.5</ele><time>2026-04-11T08:44:14.702Z</time></trkpt><trkpt lat="43.4794633" lon="11.59076"><ele>258.75</ele><time>2026-04-11T08:44:15.701Z</time></trkpt><trkpt lat="43.47935" lon="11.59062"><ele>259.0</ele><time>2026-04-11T08:44:16.7Z</time></trkpt><trkpt lat="43.4792233" lon="11.5904683"><ele>259.0</ele><time>2026-04-11T08:44:17.701Z</time></trkpt><trkpt lat="43.4790833" lon="11.590305"><ele>259.0</ele><time>2026-04-11T08:44:18.699Z</time></trkpt><trkpt lat="43.4789383" lon="11.590135"><ele>259.0</ele><time>2026-04-11T08:44:19.7Z</time></trkpt><trkpt lat="43.4788" lon="11.58997"><ele>259.66666666666663</ele><time>2026-04-11T08:44:20.702Z</time></trkpt><trkpt lat="43.4786767" lon="11.5898217"><ele>260.3333333333333</ele><time>2026-04-11T08:44:21.7Z</time></trkpt><trkpt lat="43.4785583" lon="11.5896817"><ele>261.0</ele><time>2026-04-11T08:44:22.7Z</time></trkpt><trkpt lat="43.4784417" lon="11.5895417"><ele>261.3333333333333</ele><time>2026-04-11T08:44:23.7Z</time></trkpt><trkpt lat="43.4783233" lon="11.5893983"><ele>261.66666666666663</ele><time>2026-04-11T08:44:24.702Z</time></trkpt><trkpt lat="43.478205" lon="11.5892567"><ele>262.0</ele><time>2026-04-11T08:44:25.699Z</time></trkpt><trkpt lat="43.47809" lon="11.5891183"><ele>262.0</ele><time>2026-04-11T08:44:26.701Z</time></trkpt><trkpt lat="43.4779883" lon="11.588995"><ele>262.0</ele><time>2026-04-11T08:44:27.7Z</time></trkpt><trkpt lat="43.477895" lon="11.5888817"><ele>262.0</ele><time>2026-04-11T08:44:28.7Z</time></trkpt><trkpt lat="43.4778117" lon="11.5887783"><ele>262.0</ele><time>2026-04-11T08:44:29.7Z</time></trkpt><trkpt lat="43.4777367" lon="11.5886883"><ele>262.2</ele><time>2026-04-11T08:44:30.7Z</time></trkpt><trkpt lat="43.4776617" lon="11.5886167"><ele>262.4</ele><time>2026-04-11T08:44:31.699Z</time></trkpt><trkpt lat="43.4775867" lon="11.5885467"><ele>262.6</ele><time>2026-04-11T08:44:32.702Z</time></trkpt><trkpt lat="43.47751" lon="11.5884583"><ele>262.8</ele><time>2026-04-11T08:44:33.7Z</time></trkpt><trkpt lat="43.47743" lon="11.588355"><ele>263.0</ele><time>2026-04-11T08:44:34.701Z</time></trkpt><trkpt lat="43.47735" lon="11.5882467"><ele>263.0</ele><time>2026-04-11T08:44:35.7Z</time></trkpt><trkpt lat="43.4772633" lon="11.5881367"><ele>263.0</ele><time>2026-04-11T08:44:36.7Z</time></trkpt><trkpt lat="43.4771683" lon="11.5880233"><ele>263.0</ele><time>2026-04-11T08:44:37.7Z</time></trkpt><trkpt lat="43.4770717" lon="11.58791"><ele>263.0</ele><time>2026-04-11T08:44:38.702Z</time></trkpt><trkpt lat="43.4769733" lon="11.5877967"><ele>263.25</ele><time>2026-04-11T08:44:39.702Z</time></trkpt><trkpt lat="43.47688" lon="11.587685"><ele>263.5</ele><time>2026-04-11T08:44:40.7Z</time></trkpt><trkpt lat="43.4767933" lon="11.5875783"><ele>263.75</ele><time>2026-04-11T08:44:41.7Z</time></trkpt><trkpt lat="43.476705" lon="11.587475"><ele>264.0</ele><time>2026-04-11T08:44:42.701Z</time></trkpt><trkpt lat="43.4766117" lon="11.5873617"><ele>264.0</ele><time>2026-04-11T08:44:43.699Z</time></trkpt><trkpt lat="43.4765117" lon="11.58724"><ele>264.0</ele><time>2026-04-11T08:44:44.706Z</time></trkpt><trkpt lat="43.47641" lon="11.58712"><ele>264.0</ele><time>2026-04-11T08:44:45.701Z</time></trkpt><trkpt lat="43.4763183" lon="11.587005"><ele>264.0</ele><time>2026-04-11T08:44:46.701Z</time></trkpt><trkpt lat="43.4762367" lon="11.5869033"><ele>264.2</ele><time>2026-04-11T08:44:47.7Z</time></trkpt><trkpt lat="43.4761533" lon="11.5867983"><ele>264.4</ele><time>2026-04-11T08:44:48.702Z</time></trkpt><trkpt lat="43.4760683" lon="11.5866917"><ele>264.6</ele><time>2026-04-11T08:44:49.701Z</time></trkpt><trkpt lat="43.4759883" lon="11.586595"><ele>264.8</ele><time>2026-04-11T08:44:50.702Z</time></trkpt><trkpt lat="43.4759067" lon="11.586495"><ele>265.0</ele><time>2026-04-11T08:44:51.701Z</time></trkpt><trkpt lat="43.47582" lon="11.58639"><ele>265.0</ele><time>2026-04-11T08:44:52.701Z</time></trkpt><trkpt lat="43.4757317" lon="11.5862867"><ele>265.0</ele><time>2026-04-11T08:44:53.701Z</time></trkpt><trkpt lat="43.4756467" lon="11.58619"><ele>265.0</ele><time>2026-04-11T08:44:54.7Z</time></trkpt><trkpt lat="43.4755683" lon="11.5860983"><ele>265.0</ele><time>2026-04-11T08:44:55.701Z</time></trkpt><trkpt lat="43.4754933" lon="11.5860083"><ele>265.0</ele><time>2026-04-11T08:44:56.702Z</time></trkpt><trkpt lat="43.47542" lon="11.5859183"><ele>265.3333333333333</ele><time>2026-04-11T08:44:57.701Z</time></trkpt><trkpt lat="43.47535" lon="11.5858317"><ele>265.66666666666663</ele><time>2026-04-11T08:44:58.701Z</time></trkpt><trkpt lat="43.4752917" lon="11.5857567"><ele>266.0</ele><time>2026-04-11T08:44:59.7Z</time></trkpt><trkpt lat="43.475245" lon="11.585695"><ele>266.3333333333333</ele><time>2026-04-11T08:45:00.7Z</time></trkpt><trkpt lat="43.4751767" lon="11.5856117"><ele>266.6666666666667</ele><time>2026-04-11T08:45:02.701Z</time></trkpt><trkpt lat="43.4750633" lon="11.5855667"><ele>267.0</ele><time>2026-04-11T08:45:04.7Z</time></trkpt><trkpt lat="43.4749733" lon="11.5855567"><ele>267.0</ele><time>2026-04-11T08:45:05.7Z</time></trkpt><trkpt lat="43.4748633" lon="11.5855517"><ele>267.0</ele><time>2026-04-11T08:45:06.7Z</time></trkpt><trkpt lat="43.4747367" lon="11.5855483"><ele>267.0</ele><time>2026-04-11T08:45:07.699Z</time></trkpt><trkpt lat="43.4746067" lon="11.58555"><ele>267.0</ele><time>2026-04-11T08:45:08.701Z</time></trkpt><trkpt lat="43.4744817" lon="11.5855483"><ele>267.6</ele><time>2026-04-11T08:45:09.7Z</time></trkpt><trkpt lat="43.47436" lon="11.5855367"><ele>268.2</ele><time>2026-04-11T08:45:10.7Z</time></trkpt><trkpt lat="43.4742617" lon="11.5855233"><ele>268.8</ele><time>2026-04-11T08:45:11.702Z</time></trkpt><trkpt lat="43.4741917" lon="11.5855117"><ele>269.4</ele><time>2026-04-11T08:45:12.7Z</time></trkpt><trkpt lat="43.474095" lon="11.5855"><ele>270.0</ele><time>2026-04-11T08:45:14.7Z</time></trkpt><trkpt lat="43.4740283" lon="11.585495"><ele>270.0</ele><time>2026-04-11T08:45:16.699Z</time></trkpt><trkpt lat="43.4739567" lon="11.5854833"><ele>270.0</ele><time>2026-04-11T08:45:21.7Z</time></trkpt><trkpt lat="43.473885" lon="11.58541"><ele>270.0</ele><time>2026-04-11T08:45:27.703Z</time></trkpt><trkpt lat="43.47393" lon="11.5852133"><ele>270.0</ele><time>2026-04-11T08:45:29.7Z</time></trkpt><trkpt lat="43.4739733" lon="11.58508"><ele>270.0</ele><time>2026-04-11T08:45:30.699Z</time></trkpt><trkpt lat="43.47402" lon="11.5849467"><ele>269.75</ele><time>2026-04-11T08:45:31.701Z</time></trkpt><trkpt lat="43.4740667" lon="11.5848167"><ele>269.5</ele><time>2026-04-11T08:45:32.701Z</time></trkpt><trkpt lat="43.47412" lon="11.584675"><ele>269.25</ele><time>2026-04-11T08:45:33.7Z</time></trkpt><trkpt lat="43.474175" lon="11.584535"><ele>269.0</ele><time>2026-04-11T08:45:34.699Z</time></trkpt><trkpt lat="43.4742333" lon="11.5843933"><ele>269.0</ele><time>2026-04-11T08:45:35.701Z</time></trkpt><trkpt lat="43.4742933" lon="11.5842483"><ele>269.0</ele><time>2026-04-11T08:45:36.702Z</time></trkpt><trkpt lat="43.4743567" lon="11.5841033"><ele>269.0</ele><time>2026-04-11T08:45:37.7Z</time></trkpt><trkpt lat="43.4744233" lon="11.5839517"><ele>269.0</ele><time>2026-04-11T08:45:38.701Z</time></trkpt><trkpt lat="43.4744933" lon="11.5837883"><ele>268.6666666666667</ele><time>2026-04-11T08:45:39.701Z</time></trkpt><trkpt lat="43.4745667" lon="11.58362"><ele>268.3333333333333</ele><time>2026-04-11T08:45:40.701Z</time></trkpt><trkpt lat="43.474645" lon="11.5834433"><ele>268.0</ele><time>2026-04-11T08:45:41.7Z</time></trkpt><trkpt lat="43.47473" lon="11.5832583"><ele>268.0</ele><time>2026-04-11T08:45:42.701Z</time></trkpt><trkpt lat="43.4748217" lon="11.5830633"><ele>268.0</ele><time>2026-04-11T08:45:43.711Z</time></trkpt><trkpt lat="43.4749183" lon="11.5828583"><ele>268.0</ele><time>2026-04-11T08:45:44.702Z</time></trkpt><trkpt lat="43.4750183" lon="11.5826433"><ele>269.0</ele><time>2026-04-11T08:45:45.7Z</time></trkpt><trkpt lat="43.475115" lon="11.5824333"><ele>270.0</ele><time>2026-04-11T08:45:46.7Z</time></trkpt><trkpt lat="43.4752017" lon="11.5822433"><ele>271.0</ele><time>2026-04-11T08:45:47.7Z</time></trkpt><trkpt lat="43.4752817" lon="11.58207"><ele>272.3333333333333</ele><time>2026-04-11T08:45:48.702Z</time></trkpt><trkpt lat="43.4753633" lon="11.5818967"><ele>273.6666666666667</ele><time>2026-04-11T08:45:49.701Z</time></trkpt><trkpt lat="43.4754467" lon="11.5817133"><ele>275.0</ele><time>2026-04-11T08:45:50.702Z</time></trkpt><trkpt lat="43.47553" lon="11.58153"><ele>273.5</ele><time>2026-04-11T08:45:51.7Z</time></trkpt><trkpt lat="43.4756083" lon="11.5813617"><ele>272.0</ele><time>2026-04-11T08:45:52.701Z</time></trkpt><trkpt lat="43.4756817" lon="11.5812033"><ele>270.5</ele><time>2026-04-11T08:45:53.7Z</time></trkpt><trkpt lat="43.4757567" lon="11.5810417"><ele>269.0</ele><time>2026-04-11T08:45:54.7Z</time></trkpt><trkpt lat="43.4758383" lon="11.5808667"><ele>269.0</ele><time>2026-04-11T08:45:55.702Z</time></trkpt><trkpt lat="43.4759233" lon="11.5806833"><ele>269.0</ele><time>2026-04-11T08:45:56.7Z</time></trkpt><trkpt lat="43.47601" lon="11.5804967"><ele>269.0</ele><time>2026-04-11T08:45:57.7Z</time></trkpt><trkpt lat="43.4760917" lon="11.5803133"><ele>269.0</ele><time>2026-04-11T08:45:58.701Z</time></trkpt><trkpt lat="43.4761767" lon="11.5801333"><ele>269.0</ele><time>2026-04-11T08:45:59.7Z</time></trkpt><trkpt lat="43.4762567" lon="11.579955"><ele>269.0</ele><time>2026-04-11T08:46:00.701Z</time></trkpt><trkpt lat="43.476335" lon="11.579785"><ele>269.0</ele><time>2026-04-11T08:46:01.7Z</time></trkpt><trkpt lat="43.47641" lon="11.5796233"><ele>269.0</ele><time>2026-04-11T08:46:02.701Z</time></trkpt><trkpt lat="43.476485" lon="11.5794583"><ele>269.0</ele><time>2026-04-11T08:46:03.7Z</time></trkpt><trkpt lat="43.4765583" lon="11.5792917"><ele>269.0</ele><time>2026-04-11T08:46:04.702Z</time></trkpt><trkpt lat="43.476635" lon="11.5791283"><ele>268.75</ele><time>2026-04-11T08:46:05.701Z</time></trkpt><trkpt lat="43.47671" lon="11.578965"><ele>268.5</ele><time>2026-04-11T08:46:06.7Z</time></trkpt><trkpt lat="43.4767833" lon="11.5788017"><ele>268.25</ele><time>2026-04-11T08:46:07.701Z</time></trkpt><trkpt lat="43.4768567" lon="11.5786367"><ele>268.0</ele><time>2026-04-11T08:46:08.702Z</time></trkpt><trkpt lat="43.47693" lon="11.57847"><ele>268.25</ele><time>2026-04-11T08:46:09.701Z</time></trkpt><trkpt lat="43.477005" lon="11.5783067"><ele>268.5</ele><time>2026-04-11T08:46:10.702Z</time></trkpt><trkpt lat="43.477075" lon="11.578145"><ele>268.75</ele><time>2026-04-11T08:46:11.7Z</time></trkpt><trkpt lat="43.4771433" lon="11.5779783"><ele>269.0</ele><time>2026-04-11T08:46:12.7Z</time></trkpt><trkpt lat="43.4772067" lon="11.577805"><ele>269.33333333333337</ele><time>2026-04-11T08:46:13.703Z</time></trkpt><trkpt lat="43.477265" lon="11.5776217"><ele>269.6666666666667</ele><time>2026-04-11T08:46:14.701Z</time></trkpt><trkpt lat="43.4773167" lon="11.577425"><ele>270.0</ele><time>2026-04-11T08:46:15.7Z</time></trkpt><trkpt lat="43.4773567" lon="11.57722"><ele>270.3333333333333</ele><time>2026-04-11T08:46:16.7Z</time></trkpt><trkpt lat="43.4773967" lon="11.5770017"><ele>270.66666666666663</ele><time>2026-04-11T08:46:17.697Z</time></trkpt><trkpt lat="43.4774317" lon="11.5767667"><ele>271.0</ele><time>2026-04-11T08:46:18.7Z</time></trkpt><trkpt lat="43.477455" lon="11.5765317"><ele>271.0</ele><time>2026-04-11T08:46:19.701Z</time></trkpt><trkpt lat="43.4774667" lon="11.5763133"><ele>271.0</ele><time>2026-04-11T08:46:20.701Z</time></trkpt><trkpt lat="43.4774717" lon="11.5761133"><ele>271.0</ele><time>2026-04-11T08:46:21.7Z</time></trkpt><trkpt lat="43.47747" lon="11.5759267"><ele>271.0</ele><time>2026-04-11T08:46:22.7Z</time></trkpt><trkpt lat="43.4774667" lon="11.575745"><ele>270.3333333333333</ele><time>2026-04-11T08:46:23.7Z</time></trkpt><trkpt lat="43.4774633" lon="11.57555"><ele>269.6666666666667</ele><time>2026-04-11T08:46:24.7Z</time></trkpt><trkpt lat="43.477455" lon="11.57534"><ele>269.0</ele><time>2026-04-11T08:46:25.7Z</time></trkpt><trkpt lat="43.4774483" lon="11.5751217"><ele>268.25</ele><time>2026-04-11T08:46:26.697Z</time></trkpt><trkpt lat="43.4774433" lon="11.5749133"><ele>267.5</ele><time>2026-04-11T08:46:27.7Z</time></trkpt><trkpt lat="43.4774383" lon="11.5747217"><ele>266.75</ele><time>2026-04-11T08:46:28.702Z</time></trkpt><trkpt lat="43.4774367" lon="11.5745467"><ele>266.0</ele><time>2026-04-11T08:46:29.7Z</time></trkpt><trkpt lat="43.4774433" lon="11.5743817"><ele>266.0</ele><time>2026-04-11T08:46:30.7Z</time></trkpt><trkpt lat="43.4774583" lon="11.5742133"><ele>266.0</ele><time>2026-04-11T08:46:31.7Z</time></trkpt><trkpt lat="43.4774867" lon="11.57403"><ele>266.0</ele><time>2026-04-11T08:46:32.702Z</time></trkpt><trkpt lat="43.4775283" lon="11.5738333"><ele>266.0</ele><time>2026-04-11T08:46:33.7Z</time></trkpt><trkpt lat="43.4775867" lon="11.5736267"><ele>266.0</ele><time>2026-04-11T08:46:34.7Z</time></trkpt><trkpt lat="43.4776567" lon="11.5734183"><ele>266.0</ele><time>2026-04-11T08:46:35.7Z</time></trkpt><trkpt lat="43.477725" lon="11.5732233"><ele>266.0</ele><time>2026-04-11T08:46:36.701Z</time></trkpt><trkpt lat="43.4777967" lon="11.5730333"><ele>266.0</ele><time>2026-04-11T08:46:37.701Z</time></trkpt><trkpt lat="43.4778667" lon="11.5728417"><ele>266.0</ele><time>2026-04-11T08:46:38.702Z</time></trkpt><trkpt lat="43.47794" lon="11.5726383"><ele>266.0</ele><time>2026-04-11T08:46:39.7Z</time></trkpt><trkpt lat="43.4780167" lon="11.57243"><ele>266.0</ele><time>2026-04-11T08:46:40.701Z</time></trkpt><trkpt lat="43.47809" lon="11.5722333"><ele>266.0</ele><time>2026-04-11T08:46:41.7Z</time></trkpt><trkpt lat="43.4781533" lon="11.5720567"><ele>266.0</ele><time>2026-04-11T08:46:42.703Z</time></trkpt><trkpt lat="43.4782117" lon="11.57189"><ele>266.0</ele><time>2026-04-11T08:46:43.7Z</time></trkpt><trkpt lat="43.4782733" lon="11.571715"><ele>266.0</ele><time>2026-04-11T08:46:44.701Z</time></trkpt><trkpt lat="43.4783333" lon="11.5715317"><ele>266.0</ele><time>2026-04-11T08:46:45.7Z</time></trkpt><trkpt lat="43.4783933" lon="11.57134"><ele>266.0</ele><time>2026-04-11T08:46:46.701Z</time></trkpt><trkpt lat="43.4784517" lon="11.57114"><ele>267.33333333333337</ele><time>2026-04-11T08:46:47.701Z</time></trkpt><trkpt lat="43.4785033" lon="11.5709317"><ele>268.6666666666667</ele><time>2026-04-11T08:46:48.701Z</time></trkpt><trkpt lat="43.47855" lon="11.5707067"><ele>270.0</ele><time>2026-04-11T08:46:49.701Z</time></trkpt><trkpt lat="43.4785867" lon="11.5704783"><ele>270.0</ele><time>2026-04-11T08:46:50.702Z</time></trkpt><trkpt lat="43.47861" lon="11.5702583"><ele>270.0</ele><time>2026-04-11T08:46:51.702Z</time></trkpt><trkpt lat="43.478625" lon="11.57005"><ele>270.0</ele><time>2026-04-11T08:46:52.702Z</time></trkpt><trkpt lat="43.478635" lon="11.5698567"><ele>270.0</ele><time>2026-04-11T08:46:53.702Z</time></trkpt><trkpt lat="43.478645" lon="11.5696833"><ele>270.0</ele><time>2026-04-11T08:46:54.701Z</time></trkpt><trkpt lat="43.478655" lon="11.5695167"><ele>270.0</ele><time>2026-04-11T08:46:55.7Z</time></trkpt><trkpt lat="43.4786617" lon="11.5693583"><ele>270.0</ele><time>2026-04-11T08:46:56.701Z</time></trkpt><trkpt lat="43.478665" lon="11.5692017"><ele>270.4</ele><time>2026-04-11T08:46:57.702Z</time></trkpt><trkpt lat="43.47867" lon="11.569055"><ele>270.8</ele><time>2026-04-11T08:46:58.701Z</time></trkpt><trkpt lat="43.478675" lon="11.5689167"><ele>271.2</ele><time>2026-04-11T08:46:59.699Z</time></trkpt><trkpt lat="43.47868" lon="11.56878"><ele>271.6</ele><time>2026-04-11T08:47:00.7Z</time></trkpt><trkpt lat="43.4786933" lon="11.5686367"><ele>272.0</ele><time>2026-04-11T08:47:01.7Z</time></trkpt><trkpt lat="43.4787033" lon="11.5684867"><ele>272.5</ele><time>2026-04-11T08:47:02.702Z</time></trkpt><trkpt lat="43.4787117" lon="11.568335"><ele>273.0</ele><time>2026-04-11T08:47:03.702Z</time></trkpt><trkpt lat="43.4787183" lon="11.5681717"><ele>273.5</ele><time>2026-04-11T08:47:04.7Z</time></trkpt><trkpt lat="43.4787217" lon="11.5680017"><ele>274.0</ele><time>2026-04-11T08:47:05.7Z</time></trkpt><trkpt lat="43.478725" lon="11.5678167"><ele>274.25</ele><time>2026-04-11T08:47:06.701Z</time></trkpt><trkpt lat="43.4787217" lon="11.5676217"><ele>274.5</ele><time>2026-04-11T08:47:07.7Z</time></trkpt><trkpt lat="43.4787083" lon="11.5674167"><ele>274.75</ele><time>2026-04-11T08:47:08.701Z</time></trkpt><trkpt lat="43.4786867" lon="11.5672067"><ele>275.0</ele><time>2026-04-11T08:47:09.701Z</time></trkpt><trkpt lat="43.478655" lon="11.5669967"><ele>274.33333333333337</ele><time>2026-04-11T08:47:10.702Z</time></trkpt><trkpt lat="43.4786117" lon="11.5667833"><ele>273.6666666666667</ele><time>2026-04-11T08:47:11.701Z</time></trkpt><trkpt lat="43.4785583" lon="11.5665733"><ele>273.0</ele><time>2026-04-11T08:47:12.702Z</time></trkpt><trkpt lat="43.4784933" lon="11.56637"><ele>272.0</ele><time>2026-04-11T08:47:13.7Z</time></trkpt><trkpt lat="43.4784167" lon="11.5661583"><ele>271.0</ele><time>2026-04-11T08:47:14.704Z</time></trkpt><trkpt lat="43.478335" lon="11.565945"><ele>270.0</ele><time>2026-04-11T08:47:15.7Z</time></trkpt><trkpt lat="43.47825" lon="11.5657317"><ele>270.0</ele><time>2026-04-11T08:47:16.701Z</time></trkpt><trkpt lat="43.478165" lon="11.5655133"><ele>270.0</ele><time>2026-04-11T08:47:17.701Z</time></trkpt><trkpt lat="43.4780817" lon="11.5652983"><ele>270.0</ele><time>2026-04-11T08:47:18.7Z</time></trkpt><trkpt lat="43.4780033" lon="11.5650917"><ele>270.0</ele><time>2026-04-11T08:47:19.701Z</time></trkpt><trkpt lat="43.4779283" lon="11.564895"><ele>270.0</ele><time>2026-04-11T08:47:20.704Z</time></trkpt><trkpt lat="43.4778583" lon="11.5647017"><ele>270.0</ele><time>2026-04-11T08:47:21.702Z</time></trkpt><trkpt lat="43.4777883" lon="11.5645"><ele>270.0</ele><time>2026-04-11T08:47:22.701Z</time></trkpt><trkpt lat="43.4777167" lon="11.5642783"><ele>270.0</ele><time>2026-04-11T08:47:23.696Z</time></trkpt><trkpt lat="43.477645" lon="11.564055"><ele>270.0</ele><time>2026-04-11T08:47:24.702Z</time></trkpt><trkpt lat="43.4775783" lon="11.5638417"><ele>268.0</ele><time>2026-04-11T08:47:25.702Z</time></trkpt><trkpt lat="43.477515" lon="11.5636317"><ele>266.0</ele><time>2026-04-11T08:47:26.702Z</time></trkpt><trkpt lat="43.4774483" lon="11.5634267"><ele>264.0</ele><time>2026-04-11T08:47:27.702Z</time></trkpt><trkpt lat="43.4773817" lon="11.5632167"><ele>264.0</ele><time>2026-04-11T08:47:28.7Z</time></trkpt><trkpt lat="43.4773183" lon="11.5629967"><ele>264.0</ele><time>2026-04-11T08:47:29.7Z</time></trkpt><trkpt lat="43.4772633" lon="11.56278"><ele>264.0</ele><time>2026-04-11T08:47:30.701Z</time></trkpt><trkpt lat="43.4772233" lon="11.5625783"><ele>263.5</ele><time>2026-04-11T08:47:31.7Z</time></trkpt><trkpt lat="43.477195" lon="11.5623817"><ele>263.0</ele><time>2026-04-11T08:47:32.709Z</time></trkpt><trkpt lat="43.47718" lon="11.5621867"><ele>262.5</ele><time>2026-04-11T08:47:33.7Z</time></trkpt><trkpt lat="43.4771783" lon="11.5619817"><ele>262.0</ele><time>2026-04-11T08:47:34.7Z</time></trkpt><trkpt lat="43.4771933" lon="11.5617717"><ele>262.0</ele><time>2026-04-11T08:47:35.7Z</time></trkpt><trkpt lat="43.4772183" lon="11.5615583"><ele>262.0</ele><time>2026-04-11T08:47:36.7Z</time></trkpt><trkpt lat="43.47725" lon="11.5613717"><ele>262.0</ele><time>2026-04-11T08:47:37.7Z</time></trkpt><trkpt lat="43.4772917" lon="11.5612017"><ele>262.0</ele><time>2026-04-11T08:47:38.701Z</time></trkpt><trkpt lat="43.4773367" lon="11.5610483"><ele>262.0</ele><time>2026-04-11T08:47:39.7Z</time></trkpt><trkpt lat="43.47738" lon="11.5609133"><ele>262.0</ele><time>2026-04-11T08:47:40.701Z</time></trkpt><trkpt lat="43.4774267" lon="11.5607817"><ele>262.0</ele><time>2026-04-11T08:47:41.701Z</time></trkpt><trkpt lat="43.4774767" lon="11.5606517"><ele>262.0</ele><time>2026-04-11T08:47:42.701Z</time></trkpt><trkpt lat="43.477525" lon="11.5605183"><ele>262.0</ele><time>2026-04-11T08:47:43.699Z</time></trkpt><trkpt lat="43.4775883" lon="11.5604017"><ele>262.25</ele><time>2026-04-11T08:47:44.701Z</time></trkpt><trkpt lat="43.4776783" lon="11.560315"><ele>262.5</ele><time>2026-04-11T08:47:45.7Z</time></trkpt><trkpt lat="43.477785" lon="11.56027"><ele>262.75</ele><time>2026-04-11T08:47:46.701Z</time></trkpt><trkpt lat="43.4779117" lon="11.5602633"><ele>263.0</ele><time>2026-04-11T08:47:47.701Z</time></trkpt><trkpt lat="43.47805" lon="11.56029"><ele>263.33333333333337</ele><time>2026-04-11T08:47:48.701Z</time></trkpt><trkpt lat="43.4781967" lon="11.5603417"><ele>263.6666666666667</ele><time>2026-04-11T08:47:49.7Z</time></trkpt><trkpt lat="43.4783483" lon="11.5603967"><ele>264.0</ele><time>2026-04-11T08:47:50.703Z</time></trkpt><trkpt lat="43.4784983" lon="11.5604467"><ele>264.0</ele><time>2026-04-11T08:47:51.7Z</time></trkpt><trkpt lat="43.4786333" lon="11.56049"><ele>264.0</ele><time>2026-04-11T08:47:52.7Z</time></trkpt><trkpt lat="43.4787583" lon="11.5605317"><ele>264.0</ele><time>2026-04-11T08:47:53.702Z</time></trkpt><trkpt lat="43.4788767" lon="11.5605683"><ele>264.0</ele><time>2026-04-11T08:47:54.704Z</time></trkpt><trkpt lat="43.4789817" lon="11.5606033"><ele>263.8333333333333</ele><time>2026-04-11T08:47:55.702Z</time></trkpt><trkpt lat="43.4790733" lon="11.5606333"><ele>263.6666666666667</ele><time>2026-04-11T08:47:56.701Z</time></trkpt><trkpt lat="43.4791467" lon="11.56066"><ele>263.5</ele><time>2026-04-11T08:47:57.699Z</time></trkpt><trkpt lat="43.47921" lon="11.5606767"><ele>263.33333333333337</ele><time>2026-04-11T08:47:58.7Z</time></trkpt><trkpt lat="43.4793133" lon="11.5606217"><ele>263.1666666666667</ele><time>2026-04-11T08:48:00.702Z</time></trkpt><trkpt lat="43.4793583" lon="11.5605317"><ele>263.0</ele><time>2026-04-11T08:48:01.701Z</time></trkpt><trkpt lat="43.4794083" lon="11.5604217"><ele>264.4</ele><time>2026-04-11T08:48:02.701Z</time></trkpt><trkpt lat="43.4794617" lon="11.5603067"><ele>265.8</ele><time>2026-04-11T08:48:03.701Z</time></trkpt><trkpt lat="43.4795117" lon="11.5602017"><ele>267.2</ele><time>2026-04-11T08:48:04.7Z</time></trkpt><trkpt lat="43.4795667" lon="11.5601267"><ele>268.6</ele><time>2026-04-11T08:48:05.7Z</time></trkpt><trkpt lat="43.4796767" lon="11.5601"><ele>270.0</ele><time>2026-04-11T08:48:07.7Z</time></trkpt><trkpt lat="43.47976" lon="11.560155"><ele>270.8333333333333</ele><time>2026-04-11T08:48:09.701Z</time></trkpt><trkpt lat="43.4798233" lon="11.56019"><ele>271.6666666666667</ele><time>2026-04-11T08:48:11.702Z</time></trkpt><trkpt lat="43.4799217" lon="11.5602317"><ele>272.5</ele><time>2026-04-11T08:49:46.701Z</time></trkpt><trkpt lat="43.4799983" lon="11.5601967"><ele>273.33333333333337</ele><time>2026-04-11T08:49:49.699Z</time></trkpt><trkpt lat="43.4799383" lon="11.56023"><ele>274.1666666666667</ele><time>2026-04-11T08:50:40.7Z</time></trkpt><trkpt lat="43.4798733" lon="11.5602083"><ele>275.0</ele><time>2026-04-11T08:50:42.702Z</time></trkpt><trkpt lat="43.4798017" lon="11.5601683"><ele>275.0</ele><time>2026-04-11T08:50:44.702Z</time></trkpt><trkpt lat="43.4797283" lon="11.5601283"><ele>275.0</ele><time>2026-04-11T08:50:46.7Z</time></trkpt><trkpt lat="43.47965" lon="11.56011"><ele>275.0</ele><time>2026-04-11T08:50:48.7Z</time></trkpt><trkpt lat="43.4795633" lon="11.5601767"><ele>275.0</ele><time>2026-04-11T08:50:50.701Z</time></trkpt><trkpt lat="43.4794933" lon="11.5602917"><ele>275.0</ele><time>2026-04-11T08:50:52.699Z</time></trkpt><trkpt lat="43.47943" lon="11.5604033"><ele>273.0</ele><time>2026-04-11T08:50:54.7Z</time></trkpt><trkpt lat="43.47937" lon="11.560495"><ele>271.0</ele><time>2026-04-11T08:50:56.702Z</time></trkpt><trkpt lat="43.479325" lon="11.5605767"><ele>269.0</ele><time>2026-04-11T08:50:58.7Z</time></trkpt><trkpt lat="43.47924" lon="11.5606283"><ele>267.0</ele><time>2026-04-11T08:51:00.697Z</time></trkpt><trkpt lat="43.47917" lon="11.5606133"><ele>265.0</ele><time>2026-04-11T08:51:01.701Z</time></trkpt><trkpt lat="43.4790783" lon="11.5605833"><ele>263.0</ele><time>2026-04-11T08:51:02.702Z</time></trkpt><trkpt lat="43.4789767" lon="11.5605467"><ele>263.0</ele><time>2026-04-11T08:51:03.701Z</time></trkpt><trkpt lat="43.4788717" lon="11.560515"><ele>263.0</ele><time>2026-04-11T08:51:04.7Z</time></trkpt><trkpt lat="43.4787767" lon="11.5604867"><ele>263.0</ele><time>2026-04-11T08:51:05.701Z</time></trkpt><trkpt lat="43.4786767" lon="11.56046"><ele>263.0</ele><time>2026-04-11T08:51:06.7Z</time></trkpt><trkpt lat="43.4785783" lon="11.5604267"><ele>263.0</ele><time>2026-04-11T08:51:07.699Z</time></trkpt><trkpt lat="43.47848" lon="11.5603883"><ele>263.8</ele><time>2026-04-11T08:51:08.701Z</time></trkpt><trkpt lat="43.478385" lon="11.560355"><ele>264.6</ele><time>2026-04-11T08:51:09.699Z</time></trkpt><trkpt lat="43.4782983" lon="11.560325"><ele>265.4</ele><time>2026-04-11T08:51:10.7Z</time></trkpt><trkpt lat="43.478215" lon="11.560295"><ele>266.2</ele><time>2026-04-11T08:51:11.7Z</time></trkpt><trkpt lat="43.47812" lon="11.56026"><ele>267.0</ele><time>2026-04-11T08:51:12.699Z</time></trkpt><trkpt lat="43.4780017" lon="11.560225"><ele>266.2</ele><time>2026-04-11T08:51:13.699Z</time></trkpt><trkpt lat="43.4778833" lon="11.5602067"><ele>265.4</ele><time>2026-04-11T08:51:14.701Z</time></trkpt><trkpt lat="43.4777783" lon="11.5602167"><ele>264.6</ele><time>2026-04-11T08:51:15.701Z</time></trkpt><trkpt lat="43.4776817" lon="11.5602517"><ele>263.8</ele><time>2026-04-11T08:51:16.7Z</time></trkpt><trkpt lat="43.4776017" lon="11.5603117"><ele>263.0</ele><time>2026-04-11T08:51:17.7Z</time></trkpt><trkpt lat="43.4775367" lon="11.5603783"><ele>263.0</ele><time>2026-04-11T08:51:18.702Z</time></trkpt><trkpt lat="43.4774767" lon="11.5604367"><ele>263.0</ele><time>2026-04-11T08:51:19.7Z</time></trkpt><trkpt lat="43.4774167" lon="11.5604717"><ele>263.0</ele><time>2026-04-11T08:51:20.707Z</time></trkpt><trkpt lat="43.477285" lon="11.5604133"><ele>263.0</ele><time>2026-04-11T08:51:22.701Z</time></trkpt><trkpt lat="43.4772117" lon="11.5603167"><ele>263.0</ele><time>2026-04-11T08:51:23.701Z</time></trkpt><trkpt lat="43.4771367" lon="11.56019"><ele>262.75</ele><time>2026-04-11T08:51:24.702Z</time></trkpt><trkpt lat="43.4770517" lon="11.560045"><ele>262.5</ele><time>2026-04-11T08:51:25.703Z</time></trkpt><trkpt lat="43.4769583" lon="11.559895"><ele>262.25</ele><time>2026-04-11T08:51:26.703Z</time></trkpt><trkpt lat="43.4768533" lon="11.5597383"><ele>262.0</ele><time>2026-04-11T08:51:27.701Z</time></trkpt><trkpt lat="43.4767333" lon="11.5595917"><ele>262.66666666666663</ele><time>2026-04-11T08:51:28.699Z</time></trkpt><trkpt lat="43.4765967" lon="11.5594583"><ele>263.3333333333333</ele><time>2026-04-11T08:51:29.7Z</time></trkpt><trkpt lat="43.4764617" lon="11.55934"><ele>264.0</ele><time>2026-04-11T08:51:30.701Z</time></trkpt><trkpt lat="43.47633" lon="11.5592417"><ele>263.75</ele><time>2026-04-11T08:51:31.7Z</time></trkpt><trkpt lat="43.476205" lon="11.5591517"><ele>263.5</ele><time>2026-04-11T08:51:32.702Z</time></trkpt><trkpt lat="43.4760867" lon="11.5590667"><ele>263.25</ele><time>2026-04-11T08:51:33.701Z</time></trkpt><trkpt lat="43.4759667" lon="11.5589767"><ele>263.0</ele><time>2026-04-11T08:51:34.702Z</time></trkpt><trkpt lat="43.47585" lon="11.5588967"><ele>263.0</ele><time>2026-04-11T08:51:35.699Z</time></trkpt><trkpt lat="43.4757367" lon="11.5588183"><ele>263.0</ele><time>2026-04-11T08:51:36.701Z</time></trkpt><trkpt lat="43.4756217" lon="11.5587417"><ele>263.0</ele><time>2026-04-11T08:51:37.7Z</time></trkpt><trkpt lat="43.4755067" lon="11.5586617"><ele>263.0</ele><time>2026-04-11T08:51:38.696Z</time></trkpt><trkpt lat="43.4753983" lon="11.5585833"><ele>264.25</ele><time>2026-04-11T08:51:39.701Z</time></trkpt><trkpt lat="43.4752933" lon="11.5585083"><ele>265.5</ele><time>2026-04-11T08:51:40.7Z</time></trkpt><trkpt lat="43.4751817" lon="11.55843"><ele>266.75</ele><time>2026-04-11T08:51:41.694Z</time></trkpt><trkpt lat="43.47507" lon="11.558355"><ele>268.0</ele><time>2026-04-11T08:51:42.699Z</time></trkpt><trkpt lat="43.4749633" lon="11.5582767"><ele>268.0</ele><time>2026-04-11T08:51:43.7Z</time></trkpt><trkpt lat="43.4748583" lon="11.5582017"><ele>268.0</ele><time>2026-04-11T08:51:44.701Z</time></trkpt><trkpt lat="43.4747533" lon="11.55813"><ele>268.0</ele><time>2026-04-11T08:51:45.702Z</time></trkpt><trkpt lat="43.4746467" lon="11.55806"><ele>268.0</ele><time>2026-04-11T08:51:46.701Z</time></trkpt><trkpt lat="43.4745383" lon="11.558"><ele>269.0</ele><time>2026-04-11T08:51:47.7Z</time></trkpt><trkpt lat="43.4744233" lon="11.5579583"><ele>270.0</ele><time>2026-04-11T08:51:48.702Z</time></trkpt><trkpt lat="43.4742967" lon="11.5579367"><ele>271.0</ele><time>2026-04-11T08:51:49.7Z</time></trkpt><trkpt lat="43.4741683" lon="11.5579267"><ele>272.0</ele><time>2026-04-11T08:51:50.701Z</time></trkpt><trkpt lat="43.4740417" lon="11.5579233"><ele>272.0</ele><time>2026-04-11T08:51:51.7Z</time></trkpt><trkpt lat="43.4739133" lon="11.5579233"><ele>272.0</ele><time>2026-04-11T08:51:52.701Z</time></trkpt><trkpt lat="43.4737833" lon="11.557925"><ele>272.0</ele><time>2026-04-11T08:51:53.702Z</time></trkpt><trkpt lat="43.4736533" lon="11.5579233"><ele>272.0</ele><time>2026-04-11T08:51:54.701Z</time></trkpt><trkpt lat="43.47353" lon="11.557925"><ele>271.75</ele><time>2026-04-11T08:51:55.7Z</time></trkpt><trkpt lat="43.473405" lon="11.5579233"><ele>271.5</ele><time>2026-04-11T08:51:56.7Z</time></trkpt><trkpt lat="43.4732817" lon="11.5579117"><ele>271.25</ele><time>2026-04-11T08:51:57.701Z</time></trkpt><trkpt lat="43.4731583" lon="11.557875"><ele>271.0</ele><time>2026-04-11T08:51:58.701Z</time></trkpt><trkpt lat="43.4730333" lon="11.55781"><ele>271.0</ele><time>2026-04-11T08:51:59.701Z</time></trkpt><trkpt lat="43.472905" lon="11.5577233"><ele>271.0</ele><time>2026-04-11T08:52:00.7Z</time></trkpt><trkpt lat="43.4727817" lon="11.5576367"><ele>271.0</ele><time>2026-04-11T08:52:01.701Z</time></trkpt><trkpt lat="43.4726667" lon="11.5575567"><ele>271.0</ele><time>2026-04-11T08:52:02.702Z</time></trkpt><trkpt lat="43.4725517" lon="11.5574717"><ele>271.0</ele><time>2026-04-11T08:52:03.701Z</time></trkpt><trkpt lat="43.4724367" lon="11.5573817"><ele>271.0</ele><time>2026-04-11T08:52:04.701Z</time></trkpt><trkpt lat="43.4723283" lon="11.5572833"><ele>271.0</ele><time>2026-04-11T08:52:05.703Z</time></trkpt><trkpt lat="43.472225" lon="11.557175"><ele>271.0</ele><time>2026-04-11T08:52:06.7Z</time></trkpt><trkpt lat="43.4721183" lon="11.5570633"><ele>272.3333333333333</ele><time>2026-04-11T08:52:07.701Z</time></trkpt><trkpt lat="43.4720033" lon="11.5569383"><ele>273.6666666666667</ele><time>2026-04-11T08:52:08.703Z</time></trkpt><trkpt lat="43.4718783" lon="11.5568"><ele>275.0</ele><time>2026-04-11T08:52:09.698Z</time></trkpt><trkpt lat="43.4717433" lon="11.5566517"><ele>275.0</ele><time>2026-04-11T08:52:10.7Z</time></trkpt><trkpt lat="43.4716117" lon="11.5565083"><ele>275.0</ele><time>2026-04-11T08:52:11.7Z</time></trkpt><trkpt lat="43.47149" lon="11.5563783"><ele>275.0</ele><time>2026-04-11T08:52:12.699Z</time></trkpt><trkpt lat="43.471375" lon="11.556255"><ele>275.0</ele><time>2026-04-11T08:52:13.7Z</time></trkpt><trkpt lat="43.471265" lon="11.5561383"><ele>275.0</ele><time>2026-04-11T08:52:14.702Z</time></trkpt><trkpt lat="43.4711583" lon="11.556025"><ele>275.0</ele><time>2026-04-11T08:52:15.7Z</time></trkpt><trkpt lat="43.47104" lon="11.555915"><ele>275.0</ele><time>2026-04-11T08:52:16.7Z</time></trkpt><trkpt lat="43.47091" lon="11.5558217"><ele>275.0</ele><time>2026-04-11T08:52:17.699Z</time></trkpt><trkpt lat="43.4707717" lon="11.55574"><ele>275.0</ele><time>2026-04-11T08:52:18.702Z</time></trkpt><trkpt lat="43.4706333" lon="11.555685"><ele>275.0</ele><time>2026-04-11T08:52:19.7Z</time></trkpt><trkpt lat="43.47049" lon="11.555655"><ele>275.0</ele><time>2026-04-11T08:52:20.703Z</time></trkpt><trkpt lat="43.4703367" lon="11.5556567"><ele>277.0</ele><time>2026-04-11T08:52:21.701Z</time></trkpt><trkpt lat="43.47017" lon="11.5556783"><ele>279.0</ele><time>2026-04-11T08:52:22.7Z</time></trkpt><trkpt lat="43.470005" lon="11.5557"><ele>281.0</ele><time>2026-04-11T08:52:23.702Z</time></trkpt><trkpt lat="43.4698433" lon="11.5557233"><ele>281.0</ele><time>2026-04-11T08:52:24.701Z</time></trkpt><trkpt lat="43.46968" lon="11.5557467"><ele>281.0</ele><time>2026-04-11T08:52:25.704Z</time></trkpt><trkpt lat="43.46953" lon="11.55577"><ele>281.0</ele><time>2026-04-11T08:52:26.703Z</time></trkpt><trkpt lat="43.469385" lon="11.55579"><ele>282.25</ele><time>2026-04-11T08:52:27.701Z</time></trkpt><trkpt lat="43.469245" lon="11.5558233"><ele>283.5</ele><time>2026-04-11T08:52:28.7Z</time></trkpt><trkpt lat="43.4691083" lon="11.555865"><ele>284.75</ele><time>2026-04-11T08:52:29.7Z</time></trkpt><trkpt lat="43.468975" lon="11.5559117"><ele>286.0</ele><time>2026-04-11T08:52:30.7Z</time></trkpt><trkpt lat="43.468845" lon="11.5559533"><ele>287.0</ele><time>2026-04-11T08:52:31.701Z</time></trkpt><trkpt lat="43.4687133" lon="11.5559933"><ele>288.0</ele><time>2026-04-11T08:52:32.701Z</time></trkpt><trkpt lat="43.4685833" lon="11.5560367"><ele>289.0</ele><time>2026-04-11T08:52:33.7Z</time></trkpt><trkpt lat="43.4684483" lon="11.5560817"><ele>290.0</ele><time>2026-04-11T08:52:34.7Z</time></trkpt><trkpt lat="43.4683117" lon="11.556125"><ele>290.0</ele><time>2026-04-11T08:52:35.7Z</time></trkpt><trkpt lat="43.4681833" lon="11.55617"><ele>290.0</ele><time>2026-04-11T08:52:36.7Z</time></trkpt><trkpt lat="43.468065" lon="11.5562117"><ele>290.0</ele><time>2026-04-11T08:52:37.701Z</time></trkpt><trkpt lat="43.4679467" lon="11.5562467"><ele>290.0</ele><time>2026-04-11T08:52:38.702Z</time></trkpt><trkpt lat="43.4678333" lon="11.55628"><ele>288.5</ele><time>2026-04-11T08:52:39.699Z</time></trkpt><trkpt lat="43.4677167" lon="11.5563117"><ele>287.0</ele><time>2026-04-11T08:52:40.7Z</time></trkpt><trkpt lat="43.4676" lon="11.5563467"><ele>285.5</ele><time>2026-04-11T08:52:41.699Z</time></trkpt><trkpt lat="43.4674767" lon="11.5563833"><ele>284.0</ele><time>2026-04-11T08:52:42.701Z</time></trkpt><trkpt lat="43.4673433" lon="11.5564283"><ele>284.0</ele><time>2026-04-11T08:52:43.7Z</time></trkpt><trkpt lat="43.467205" lon="11.5564783"><ele>284.0</ele><time>2026-04-11T08:52:44.701Z</time></trkpt><trkpt lat="43.467065" lon="11.5565217"><ele>284.0</ele><time>2026-04-11T08:52:45.7Z</time></trkpt><trkpt lat="43.4669283" lon="11.5565533"><ele>284.0</ele><time>2026-04-11T08:52:46.7Z</time></trkpt><trkpt lat="43.46679" lon="11.5565683"><ele>284.25</ele><time>2026-04-11T08:52:47.7Z</time></trkpt><trkpt lat="43.46665" lon="11.5565567"><ele>284.5</ele><time>2026-04-11T08:52:48.701Z</time></trkpt><trkpt lat="43.4665067" lon="11.5565217"><ele>284.75</ele><time>2026-04-11T08:52:49.701Z</time></trkpt><trkpt lat="43.466365" lon="11.5564667"><ele>285.0</ele><time>2026-04-11T08:52:50.702Z</time></trkpt><trkpt lat="43.46622" lon="11.55639"><ele>285.6666666666667</ele><time>2026-04-11T08:52:51.701Z</time></trkpt><trkpt lat="43.4660733" lon="11.5562933"><ele>286.33333333333337</ele><time>2026-04-11T08:52:52.701Z</time></trkpt><trkpt lat="43.4659283" lon="11.5561917"><ele>287.0</ele><time>2026-04-11T08:52:53.702Z</time></trkpt><trkpt lat="43.465785" lon="11.5560967"><ele>290.33333333333337</ele><time>2026-04-11T08:52:54.702Z</time></trkpt><trkpt lat="43.4656433" lon="11.556005"><ele>293.6666666666667</ele><time>2026-04-11T08:52:55.7Z</time></trkpt><trkpt lat="43.4655017" lon="11.5559217"><ele>297.0</ele><time>2026-04-11T08:52:56.702Z</time></trkpt><trkpt lat="43.4653683" lon="11.5558467"><ele>297.0</ele><time>2026-04-11T08:52:57.701Z</time></trkpt><trkpt lat="43.4652383" lon="11.5557817"><ele>297.0</ele><time>2026-04-11T08:52:58.7Z</time></trkpt><trkpt lat="43.4651067" lon="11.555735"><ele>297.0</ele><time>2026-04-11T08:52:59.701Z</time></trkpt><trkpt lat="43.464975" lon="11.5557033"><ele>297.0</ele><time>2026-04-11T08:53:00.699Z</time></trkpt><trkpt lat="43.4648433" lon="11.555695"><ele>297.0</ele><time>2026-04-11T08:53:01.7Z</time></trkpt><trkpt lat="43.4647067" lon="11.5557233"><ele>297.0</ele><time>2026-04-11T08:53:02.7Z</time></trkpt><trkpt lat="43.4645633" lon="11.555765"><ele>297.0</ele><time>2026-04-11T08:53:03.699Z</time></trkpt><trkpt lat="43.4644233" lon="11.5558067"><ele>297.0</ele><time>2026-04-11T08:53:04.698Z</time></trkpt><trkpt lat="43.4642817" lon="11.5558467"><ele>296.5</ele><time>2026-04-11T08:53:05.701Z</time></trkpt><trkpt lat="43.4641417" lon="11.5558667"><ele>296.0</ele><time>2026-04-11T08:53:06.699Z</time></trkpt><trkpt lat="43.4640017" lon="11.5558617"><ele>295.5</ele><time>2026-04-11T08:53:07.699Z</time></trkpt><trkpt lat="43.46386" lon="11.5558317"><ele>295.0</ele><time>2026-04-11T08:53:08.7Z</time></trkpt><trkpt lat="43.463725" lon="11.55579"><ele>296.0</ele><time>2026-04-11T08:53:09.7Z</time></trkpt><trkpt lat="43.46359" lon="11.5557533"><ele>297.0</ele><time>2026-04-11T08:53:10.699Z</time></trkpt><trkpt lat="43.46346" lon="11.5557267"><ele>298.0</ele><time>2026-04-11T08:53:11.699Z</time></trkpt><trkpt lat="43.46334" lon="11.5557067"><ele>299.0</ele><time>2026-04-11T08:53:12.699Z</time></trkpt><trkpt lat="43.4632317" lon="11.555695"><ele>299.0</ele><time>2026-04-11T08:53:13.7Z</time></trkpt><trkpt lat="43.4631383" lon="11.5556783"><ele>299.0</ele><time>2026-04-11T08:53:14.701Z</time></trkpt><trkpt lat="43.4630567" lon="11.5556717"><ele>299.0</ele><time>2026-04-11T08:53:15.696Z</time></trkpt><trkpt lat="43.4629867" lon="11.555675"><ele>299.0</ele><time>2026-04-11T08:53:16.699Z</time></trkpt><trkpt lat="43.4628783" lon="11.55572"><ele>299.0</ele><time>2026-04-11T08:53:18.702Z</time></trkpt><trkpt lat="43.4627817" lon="11.5557517"><ele>299.5</ele><time>2026-04-11T08:53:20.703Z</time></trkpt><trkpt lat="43.4626933" lon="11.55576"><ele>300.0</ele><time>2026-04-11T08:53:22.7Z</time></trkpt><trkpt lat="43.4626033" lon="11.5557717"><ele>300.5</ele><time>2026-04-11T08:53:25.7Z</time></trkpt><trkpt lat="43.4625317" lon="11.55579"><ele>301.0</ele><time>2026-04-11T08:53:27.7Z</time></trkpt><trkpt lat="43.4624233" lon="11.5558433"><ele>301.5</ele><time>2026-04-11T08:53:29.701Z</time></trkpt><trkpt lat="43.4623567" lon="11.5558717"><ele>302.0</ele><time>2026-04-11T08:53:30.699Z</time></trkpt><trkpt lat="43.4622917" lon="11.55589"><ele>302.0</ele><time>2026-04-11T08:53:31.699Z</time></trkpt><trkpt lat="43.4621733" lon="11.5559083"><ele>302.0</ele><time>2026-04-11T08:53:33.7Z</time></trkpt><trkpt lat="43.46206" lon="11.5558783"><ele>302.0</ele><time>2026-04-11T08:53:35.7Z</time></trkpt><trkpt lat="43.46195" lon="11.5557883"><ele>302.0</ele><time>2026-04-11T08:53:37.7Z</time></trkpt><trkpt lat="43.461895" lon="11.55574"><ele>302.0</ele><time>2026-04-11T08:53:38.701Z</time></trkpt><trkpt lat="43.46184" lon="11.55569"><ele>302.1666666666667</ele><time>2026-04-11T08:53:39.7Z</time></trkpt><trkpt lat="43.4617833" lon="11.5556467"><ele>302.33333333333337</ele><time>2026-04-11T08:53:40.699Z</time></trkpt><trkpt lat="43.46168" lon="11.5556033"><ele>302.5</ele><time>2026-04-11T08:53:42.7Z</time></trkpt><trkpt lat="43.4615683" lon="11.5556183"><ele>302.6666666666667</ele><time>2026-04-11T08:53:44.701Z</time></trkpt><trkpt lat="43.4615033" lon="11.5556383"><ele>302.8333333333333</ele><time>2026-04-11T08:53:45.7Z</time></trkpt><trkpt lat="43.461425" lon="11.555655"><ele>303.0</ele><time>2026-04-11T08:53:46.701Z</time></trkpt><trkpt lat="43.4613333" lon="11.5556867"><ele>304.8333333333333</ele><time>2026-04-11T08:53:47.7Z</time></trkpt><trkpt lat="43.4612417" lon="11.5557183"><ele>306.6666666666667</ele><time>2026-04-11T08:53:48.701Z</time></trkpt><trkpt lat="43.4611617" lon="11.5557517"><ele>308.5</ele><time>2026-04-11T08:53:49.7Z</time></trkpt><trkpt lat="43.461085" lon="11.55578"><ele>310.33333333333337</ele><time>2026-04-11T08:53:50.701Z</time></trkpt><trkpt lat="43.46102" lon="11.5558067"><ele>312.1666666666667</ele><time>2026-04-11T08:53:51.7Z</time></trkpt><trkpt lat="43.4609133" lon="11.555795"><ele>314.0</ele><time>2026-04-11T08:53:53.7Z</time></trkpt><trkpt lat="43.4608217" lon="11.555705"><ele>314.0</ele><time>2026-04-11T08:53:55.7Z</time></trkpt><trkpt lat="43.460745" lon="11.5556017"><ele>314.0</ele><time>2026-04-11T08:53:57.7Z</time></trkpt><trkpt lat="43.4607317" lon="11.5554983"><ele>314.0</ele><time>2026-04-11T08:53:59.7Z</time></trkpt><trkpt lat="43.46078" lon="11.5555767"><ele>314.0</ele><time>2026-04-11T08:57:52.7Z</time></trkpt><trkpt lat="43.4608283" lon="11.55565"><ele>314.0</ele><time>2026-04-11T08:57:55.7Z</time></trkpt><trkpt lat="43.4608867" lon="11.55571"><ele>314.0</ele><time>2026-04-11T08:57:58.699Z</time></trkpt><trkpt lat="43.4608017" lon="11.5557167"><ele>313.99999999999994</ele><time>2026-04-11T09:00:13.701Z</time></trkpt><trkpt lat="43.4607467" lon="11.5556467"><ele>314.0</ele><time>2026-04-11T09:00:15.699Z</time></trkpt><trkpt lat="43.4607367" lon="11.555555"><ele>314.0</ele><time>2026-04-11T09:00:18.701Z</time></trkpt><trkpt lat="43.4607383" lon="11.5554617"><ele>314.0</ele><time>2026-04-11T09:00:21.696Z</time></trkpt><trkpt lat="43.4606733" lon="11.5554517"><ele>314.0</ele><time>2026-04-11T09:00:24.698Z</time></trkpt><trkpt lat="43.4606267" lon="11.5555333"><ele>313.99999999999994</ele><time>2026-04-11T09:00:26.7Z</time></trkpt><trkpt lat="43.4605917" lon="11.5556117"><ele>314.0</ele><time>2026-04-11T09:00:28.7Z</time></trkpt><trkpt lat="43.4605633" lon="11.555725"><ele>313.99999999999994</ele><time>2026-04-11T09:00:31.703Z</time></trkpt><trkpt lat="43.46057" lon="11.5556383"><ele>314.0</ele><time>2026-04-11T09:07:29.697Z</time></trkpt><trkpt lat="43.4606183" lon="11.5555533"><ele>314.0</ele><time>2026-04-11T09:07:33.7Z</time></trkpt><trkpt lat="43.460665" lon="11.555485"><ele>314.0</ele><time>2026-04-11T09:07:37.699Z</time></trkpt><trkpt lat="43.4607233" lon="11.555415"><ele>314.0</ele><time>2026-04-11T09:07:41.698Z</time></trkpt><trkpt lat="43.460785" lon="11.5554483"><ele>313.99999999999994</ele><time>2026-04-11T09:07:46.7Z</time></trkpt><trkpt lat="43.4607767" lon="11.5555583"><ele>314.0</ele><time>2026-04-11T09:07:51.699Z</time></trkpt><trkpt lat="43.4608217" lon="11.5556583"><ele>313.99999999999994</ele><time>2026-04-11T09:07:55.701Z</time></trkpt><trkpt lat="43.4608783" lon="11.5556967"><ele>314.0</ele><time>2026-04-11T09:07:57.7Z</time></trkpt><trkpt lat="43.4609367" lon="11.5557367"><ele>314.0</ele><time>2026-04-11T09:07:59.7Z</time></trkpt><trkpt lat="43.461" lon="11.5557667"><ele>314.0</ele><time>2026-04-11T09:08:01.701Z</time></trkpt><trkpt lat="43.4610633" lon="11.5557533"><ele>314.0</ele><time>2026-04-11T09:08:03.701Z</time></trkpt><trkpt lat="43.4611283" lon="11.55574"><ele>313.99999999999994</ele><time>2026-04-11T09:08:05.7Z</time></trkpt><trkpt lat="43.4611933" lon="11.555725"><ele>314.0</ele><time>2026-04-11T09:08:07.699Z</time></trkpt><trkpt lat="43.46127" lon="11.5556983"><ele>312.4285714285714</ele><time>2026-04-11T09:08:09.7Z</time></trkpt><trkpt lat="43.4613333" lon="11.5556583"><ele>310.85714285714283</ele><time>2026-04-11T09:08:11.7Z</time></trkpt><trkpt lat="43.4614117" lon="11.5556367"><ele>309.2857142857143</ele><time>2026-04-11T09:08:14.702Z</time></trkpt><trkpt lat="43.461475" lon="11.5556433"><ele>307.71428571428567</ele><time>2026-04-11T09:08:17.701Z</time></trkpt><trkpt lat="43.4615517" lon="11.5556417"><ele>306.1428571428571</ele><time>2026-04-11T09:10:34.7Z</time></trkpt><trkpt lat="43.4616217" lon="11.5556117"><ele>304.57142857142856</ele><time>2026-04-11T09:10:37.699Z</time></trkpt><trkpt lat="43.4617067" lon="11.5556083"><ele>303.0</ele><time>2026-04-11T09:10:40.701Z</time></trkpt><trkpt lat="43.4618033" lon="11.5556683"><ele>303.0</ele><time>2026-04-11T09:10:42.7Z</time></trkpt><trkpt lat="43.461865" lon="11.5557233"><ele>303.0</ele><time>2026-04-11T09:10:43.703Z</time></trkpt><trkpt lat="43.4619283" lon="11.5557783"><ele>303.0</ele><time>2026-04-11T09:10:44.701Z</time></trkpt><trkpt lat="43.4619967" lon="11.5558233"><ele>303.0</ele><time>2026-04-11T09:10:45.701Z</time></trkpt><trkpt lat="43.462075" lon="11.555855"><ele>303.0</ele><time>2026-04-11T09:10:46.701Z</time></trkpt><trkpt lat="43.4621533" lon="11.55587"><ele>303.0</ele><time>2026-04-11T09:10:47.702Z</time></trkpt><trkpt lat="43.46224" lon="11.55587"><ele>302.8</ele><time>2026-04-11T09:10:48.702Z</time></trkpt><trkpt lat="43.462335" lon="11.5558517"><ele>302.6</ele><time>2026-04-11T09:10:49.697Z</time></trkpt><trkpt lat="43.46243" lon="11.5558183"><ele>302.4</ele><time>2026-04-11T09:10:50.702Z</time></trkpt><trkpt lat="43.4625217" lon="11.5557867"><ele>302.2</ele><time>2026-04-11T09:10:51.704Z</time></trkpt><trkpt lat="43.4626067" lon="11.5557717"><ele>302.0</ele><time>2026-04-11T09:10:52.702Z</time></trkpt><trkpt lat="43.4626817" lon="11.5557567"><ele>302.0</ele><time>2026-04-11T09:10:53.7Z</time></trkpt><trkpt lat="43.4627617" lon="11.555735"><ele>302.0</ele><time>2026-04-11T09:10:54.702Z</time></trkpt><trkpt lat="43.4628517" lon="11.5557083"><ele>302.0</ele><time>2026-04-11T09:10:55.7Z</time></trkpt><trkpt lat="43.46296" lon="11.5556883"><ele>302.0</ele><time>2026-04-11T09:10:56.702Z</time></trkpt><trkpt lat="43.463095" lon="11.5556917"><ele>302.0</ele><time>2026-04-11T09:10:57.701Z</time></trkpt><trkpt lat="43.4632533" lon="11.555715"><ele>301.0</ele><time>2026-04-11T09:10:58.702Z</time></trkpt><trkpt lat="43.463435" lon="11.555755"><ele>300.0</ele><time>2026-04-11T09:10:59.702Z</time></trkpt><trkpt lat="43.4636283" lon="11.5558067"><ele>299.0</ele><time>2026-04-11T09:11:00.702Z</time></trkpt><trkpt lat="43.4638217" lon="11.5558567"><ele>297.6666666666667</ele><time>2026-04-11T09:11:01.698Z</time></trkpt><trkpt lat="43.4639933" lon="11.5558933"><ele>296.3333333333333</ele><time>2026-04-11T09:11:02.703Z</time></trkpt><trkpt lat="43.4641583" lon="11.555905"><ele>295.0</ele><time>2026-04-11T09:11:03.7Z</time></trkpt><trkpt lat="43.464325" lon="11.5558833"><ele>295.0</ele><time>2026-04-11T09:11:04.7Z</time></trkpt><trkpt lat="43.4644917" lon="11.555835"><ele>295.0</ele><time>2026-04-11T09:11:05.701Z</time></trkpt><trkpt lat="43.4646467" lon="11.5557833"><ele>295.0</ele><time>2026-04-11T09:11:06.701Z</time></trkpt><trkpt lat="43.464795" lon="11.555745"><ele>295.5</ele><time>2026-04-11T09:11:07.701Z</time></trkpt><trkpt lat="43.46494" lon="11.55573"><ele>296.0</ele><time>2026-04-11T09:11:08.701Z</time></trkpt><trkpt lat="43.4650767" lon="11.5557467"><ele>296.5</ele><time>2026-04-11T09:11:09.702Z</time></trkpt><trkpt lat="43.46521" lon="11.5557983"><ele>297.0</ele><time>2026-04-11T09:11:10.702Z</time></trkpt><trkpt lat="43.4653417" lon="11.5558617"><ele>298.25</ele><time>2026-04-11T09:11:11.701Z</time></trkpt><trkpt lat="43.4654717" lon="11.5559283"><ele>299.5</ele><time>2026-04-11T09:11:12.702Z</time></trkpt><trkpt lat="43.4656" lon="11.556005"><ele>300.75</ele><time>2026-04-11T09:11:13.702Z</time></trkpt><trkpt lat="43.4657283" lon="11.5560883"><ele>302.0</ele><time>2026-04-11T09:11:14.701Z</time></trkpt><trkpt lat="43.4658583" lon="11.5561717"><ele>298.25</ele><time>2026-04-11T09:11:15.702Z</time></trkpt><trkpt lat="43.4659883" lon="11.5562533"><ele>294.5</ele><time>2026-04-11T09:11:16.701Z</time></trkpt><trkpt lat="43.4661167" lon="11.5563367"><ele>290.75</ele><time>2026-04-11T09:11:17.702Z</time></trkpt><trkpt lat="43.4662383" lon="11.5564217"><ele>287.0</ele><time>2026-04-11T09:11:18.701Z</time></trkpt><trkpt lat="43.46636" lon="11.5564917"><ele>286.5</ele><time>2026-04-11T09:11:19.7Z</time></trkpt><trkpt lat="43.466485" lon="11.55654"><ele>286.0</ele><time>2026-04-11T09:11:20.698Z</time></trkpt><trkpt lat="43.4666133" lon="11.55657"><ele>285.5</ele><time>2026-04-11T09:11:21.702Z</time></trkpt><trkpt lat="43.4667467" lon="11.5565917"><ele>285.0</ele><time>2026-04-11T09:11:22.699Z</time></trkpt><trkpt lat="43.4668867" lon="11.556595"><ele>285.0</ele><time>2026-04-11T09:11:23.702Z</time></trkpt><trkpt lat="43.4670367" lon="11.556565"><ele>285.0</ele><time>2026-04-11T09:11:24.7Z</time></trkpt><trkpt lat="43.4672" lon="11.5565133"><ele>285.0</ele><time>2026-04-11T09:11:25.7Z</time></trkpt><trkpt lat="43.4673767" lon="11.5564483"><ele>284.6666666666667</ele><time>2026-04-11T09:11:26.702Z</time></trkpt><trkpt lat="43.4675633" lon="11.55639"><ele>284.33333333333337</ele><time>2026-04-11T09:11:27.701Z</time></trkpt><trkpt lat="43.46776" lon="11.55633"><ele>284.0</ele><time>2026-04-11T09:11:28.701Z</time></trkpt><trkpt lat="43.4679633" lon="11.55627"><ele>282.6666666666667</ele><time>2026-04-11T09:11:29.697Z</time></trkpt><trkpt lat="43.468155" lon="11.5562083"><ele>281.3333333333333</ele><time>2026-04-11T09:11:30.7Z</time></trkpt><trkpt lat="43.46833" lon="11.5561517"><ele>280.0</ele><time>2026-04-11T09:11:31.7Z</time></trkpt><trkpt lat="43.4685" lon="11.556095"><ele>282.0</ele><time>2026-04-11T09:11:32.701Z</time></trkpt><trkpt lat="43.46867" lon="11.5560417"><ele>284.0</ele><time>2026-04-11T09:11:33.7Z</time></trkpt><trkpt lat="43.4688383" lon="11.5559883"><ele>286.0</ele><time>2026-04-11T09:11:34.701Z</time></trkpt><trkpt lat="43.469005" lon="11.555935"><ele>286.0</ele><time>2026-04-11T09:11:35.7Z</time></trkpt><trkpt lat="43.46917" lon="11.5558783"><ele>286.0</ele><time>2026-04-11T09:11:36.707Z</time></trkpt><trkpt lat="43.4693383" lon="11.5558283"><ele>286.0</ele><time>2026-04-11T09:11:37.701Z</time></trkpt><trkpt lat="43.4695117" lon="11.5557917"><ele>284.3333333333333</ele><time>2026-04-11T09:11:38.701Z</time></trkpt><trkpt lat="43.4696883" lon="11.55576"><ele>282.6666666666667</ele><time>2026-04-11T09:11:39.701Z</time></trkpt><trkpt lat="43.4698633" lon="11.5557333"><ele>281.0</ele><time>2026-04-11T09:11:40.701Z</time></trkpt><trkpt lat="43.47004" lon="11.5557017"><ele>281.0</ele><time>2026-04-11T09:11:41.701Z</time></trkpt><trkpt lat="43.4702083" lon="11.5556767"><ele>281.0</ele><time>2026-04-11T09:11:42.701Z</time></trkpt><trkpt lat="43.4703717" lon="11.5556683"><ele>281.0</ele><time>2026-04-11T09:11:43.7Z</time></trkpt><trkpt lat="43.470525" lon="11.55568"><ele>279.0</ele><time>2026-04-11T09:11:44.701Z</time></trkpt><trkpt lat="43.4706783" lon="11.5557183"><ele>277.0</ele><time>2026-04-11T09:11:45.701Z</time></trkpt><trkpt lat="43.4708267" lon="11.55579"><ele>275.0</ele><time>2026-04-11T09:11:46.701Z</time></trkpt><trkpt lat="43.4709733" lon="11.5558917"><ele>275.0</ele><time>2026-04-11T09:11:47.7Z</time></trkpt><trkpt lat="43.4711217" lon="11.5560217"><ele>275.0</ele><time>2026-04-11T09:11:48.702Z</time></trkpt><trkpt lat="43.4712783" lon="11.5561783"><ele>275.0</ele><time>2026-04-11T09:11:49.701Z</time></trkpt><trkpt lat="43.4714367" lon="11.5563483"><ele>275.0</ele><time>2026-04-11T09:11:50.702Z</time></trkpt><trkpt lat="43.4715917" lon="11.5565183"><ele>275.0</ele><time>2026-04-11T09:11:51.701Z</time></trkpt><trkpt lat="43.4717433" lon="11.5566833"><ele>275.0</ele><time>2026-04-11T09:11:52.703Z</time></trkpt><trkpt lat="43.4718917" lon="11.5568433"><ele>275.0</ele><time>2026-04-11T09:11:53.702Z</time></trkpt><trkpt lat="43.4720317" lon="11.5569983"><ele>275.0</ele><time>2026-04-11T09:11:54.7Z</time></trkpt><trkpt lat="43.47217" lon="11.5571483"><ele>275.0</ele><time>2026-04-11T09:11:55.702Z</time></trkpt><trkpt lat="43.4723083" lon="11.55729"><ele>273.6666666666667</ele><time>2026-04-11T09:11:56.702Z</time></trkpt><trkpt lat="43.4724533" lon="11.5574233"><ele>272.3333333333333</ele><time>2026-04-11T09:11:57.701Z</time></trkpt><trkpt lat="43.4726117" lon="11.557545"><ele>271.0</ele><time>2026-04-11T09:11:58.7Z</time></trkpt><trkpt lat="43.4727783" lon="11.55766"><ele>271.0</ele><time>2026-04-11T09:11:59.7Z</time></trkpt><trkpt lat="43.47294" lon="11.5577683"><ele>271.0</ele><time>2026-04-11T09:12:00.697Z</time></trkpt><trkpt lat="43.4730883" lon="11.5578617"><ele>271.0</ele><time>2026-04-11T09:12:01.7Z</time></trkpt><trkpt lat="43.4732383" lon="11.5579267"><ele>271.0</ele><time>2026-04-11T09:12:02.701Z</time></trkpt><trkpt lat="43.4734033" lon="11.557955"><ele>271.0</ele><time>2026-04-11T09:12:03.7Z</time></trkpt><trkpt lat="43.4735817" lon="11.5579583"><ele>271.0</ele><time>2026-04-11T09:12:04.701Z</time></trkpt><trkpt lat="43.47377" lon="11.5579567"><ele>271.3333333333333</ele><time>2026-04-11T09:12:05.7Z</time></trkpt><trkpt lat="43.4739583" lon="11.5579583"><ele>271.6666666666667</ele><time>2026-04-11T09:12:06.7Z</time></trkpt><trkpt lat="43.4741383" lon="11.5579617"><ele>272.0</ele><time>2026-04-11T09:12:07.7Z</time></trkpt><trkpt lat="43.4743067" lon="11.557965"><ele>272.0</ele><time>2026-04-11T09:12:08.702Z</time></trkpt><trkpt lat="43.4744533" lon="11.55799"><ele>272.0</ele><time>2026-04-11T09:12:09.7Z</time></trkpt><trkpt lat="43.4745967" lon="11.558055"><ele>272.0</ele><time>2026-04-11T09:12:10.701Z</time></trkpt><trkpt lat="43.474745" lon="11.558155"><ele>270.6666666666667</ele><time>2026-04-11T09:12:11.701Z</time></trkpt><trkpt lat="43.4749" lon="11.5582733"><ele>269.3333333333333</ele><time>2026-04-11T09:12:12.7Z</time></trkpt><trkpt lat="43.4750567" lon="11.5583833"><ele>268.0</ele><time>2026-04-11T09:12:13.701Z</time></trkpt><trkpt lat="43.4752117" lon="11.5584883"><ele>268.0</ele><time>2026-04-11T09:12:14.7Z</time></trkpt><trkpt lat="43.4753617" lon="11.5585917"><ele>268.0</ele><time>2026-04-11T09:12:15.701Z</time></trkpt><trkpt lat="43.4755133" lon="11.5586967"><ele>268.0</ele><time>2026-04-11T09:12:16.7Z</time></trkpt><trkpt lat="43.4756633" lon="11.5588"><ele>266.3333333333333</ele><time>2026-04-11T09:12:17.701Z</time></trkpt><trkpt lat="43.47581" lon="11.5589017"><ele>264.6666666666667</ele><time>2026-04-11T09:12:18.7Z</time></trkpt><trkpt lat="43.4759533" lon="11.5589983"><ele>263.0</ele><time>2026-04-11T09:12:19.702Z</time></trkpt><trkpt lat="43.476095" lon="11.5590967"><ele>263.0</ele><time>2026-04-11T09:12:20.701Z</time></trkpt><trkpt lat="43.4762333" lon="11.5591983"><ele>263.0</ele><time>2026-04-11T09:12:21.701Z</time></trkpt><trkpt lat="43.476365" lon="11.5593"><ele>263.0</ele><time>2026-04-11T09:12:22.703Z</time></trkpt><trkpt lat="43.4764933" lon="11.5594"><ele>263.25</ele><time>2026-04-11T09:12:23.699Z</time></trkpt><trkpt lat="43.4766167" lon="11.5595067"><ele>263.5</ele><time>2026-04-11T09:12:24.701Z</time></trkpt><trkpt lat="43.476725" lon="11.55962"><ele>263.75</ele><time>2026-04-11T09:12:25.701Z</time></trkpt><trkpt lat="43.4768183" lon="11.5597417"><ele>264.0</ele><time>2026-04-11T09:12:26.702Z</time></trkpt><trkpt lat="43.4768967" lon="11.5598633"><ele>263.8</ele><time>2026-04-11T09:12:27.701Z</time></trkpt><trkpt lat="43.476965" lon="11.5599783"><ele>263.59999999999997</ele><time>2026-04-11T09:12:28.7Z</time></trkpt><trkpt lat="43.4770317" lon="11.56009"><ele>263.4</ele><time>2026-04-11T09:12:29.7Z</time></trkpt><trkpt lat="43.4771017" lon="11.560205"><ele>263.2</ele><time>2026-04-11T09:12:30.701Z</time></trkpt><trkpt lat="43.4771717" lon="11.5603133"><ele>263.0</ele><time>2026-04-11T09:12:31.701Z</time></trkpt><trkpt lat="43.47723" lon="11.5604117"><ele>262.8</ele><time>2026-04-11T09:12:32.701Z</time></trkpt><trkpt lat="43.4772817" lon="11.56051"><ele>262.6</ele><time>2026-04-11T09:12:33.701Z</time></trkpt><trkpt lat="43.4773233" lon="11.5606133"><ele>262.4</ele><time>2026-04-11T09:12:34.7Z</time></trkpt><trkpt lat="43.4773517" lon="11.560735"><ele>262.2</ele><time>2026-04-11T09:12:35.699Z</time></trkpt><trkpt lat="43.4773533" lon="11.5608783"><ele>262.0</ele><time>2026-04-11T09:12:36.7Z</time></trkpt><trkpt lat="43.4773267" lon="11.56104"><ele>261.5</ele><time>2026-04-11T09:12:37.702Z</time></trkpt><trkpt lat="43.4772817" lon="11.5612183"><ele>261.0</ele><time>2026-04-11T09:12:38.701Z</time></trkpt><trkpt lat="43.4772433" lon="11.5613933"><ele>260.5</ele><time>2026-04-11T09:12:39.702Z</time></trkpt><trkpt lat="43.4772133" lon="11.5615533"><ele>260.0</ele><time>2026-04-11T09:12:40.701Z</time></trkpt><trkpt lat="43.47719" lon="11.5617"><ele>260.0</ele><time>2026-04-11T09:12:41.699Z</time></trkpt><trkpt lat="43.4771717" lon="11.5618433"><ele>260.0</ele><time>2026-04-11T09:12:42.701Z</time></trkpt><trkpt lat="43.477155" lon="11.5619717"><ele>260.0</ele><time>2026-04-11T09:12:43.701Z</time></trkpt><trkpt lat="43.4771267" lon="11.56207"><ele>260.0</ele><time>2026-04-11T09:12:44.701Z</time></trkpt><trkpt lat="43.477075" lon="11.56215"><ele>260.0</ele><time>2026-04-11T09:12:45.702Z</time></trkpt><trkpt lat="43.4770167" lon="11.5622"><ele>260.0</ele><time>2026-04-11T09:12:46.701Z</time></trkpt><trkpt lat="43.476945" lon="11.5622533"><ele>261.1666666666667</ele><time>2026-04-11T09:12:47.7Z</time></trkpt><trkpt lat="43.4768633" lon="11.562325"><ele>262.33333333333337</ele><time>2026-04-11T09:12:48.701Z</time></trkpt><trkpt lat="43.4767833" lon="11.5623983"><ele>263.5</ele><time>2026-04-11T09:12:49.702Z</time></trkpt><trkpt lat="43.4767067" lon="11.562455"><ele>264.6666666666667</ele><time>2026-04-11T09:12:50.702Z</time></trkpt><trkpt lat="43.4766417" lon="11.5624967"><ele>265.8333333333333</ele><time>2026-04-11T09:12:51.701Z</time></trkpt><trkpt lat="43.47658" lon="11.56252"><ele>267.0</ele><time>2026-04-11T09:12:52.7Z</time></trkpt><trkpt lat="43.47647" lon="11.5625167"><ele>267.0</ele><time>2026-04-11T09:12:54.7Z</time></trkpt><trkpt lat="43.4763933" lon="11.5624783"><ele>267.0</ele><time>2026-04-11T09:12:56.703Z</time></trkpt><trkpt lat="43.4762967" lon="11.56244"><ele>267.0</ele><time>2026-04-11T09:13:20.702Z</time></trkpt><trkpt lat="43.47622" lon="11.5624067"><ele>267.0</ele><time>2026-04-11T09:13:21.702Z</time></trkpt><trkpt lat="43.47613" lon="11.5623783"><ele>267.0</ele><time>2026-04-11T09:13:22.701Z</time></trkpt><trkpt lat="43.4760333" lon="11.562365"><ele>269.75</ele><time>2026-04-11T09:13:23.702Z</time></trkpt><trkpt lat="43.475925" lon="11.5623717"><ele>272.5</ele><time>2026-04-11T09:13:24.7Z</time></trkpt><trkpt lat="43.4758117" lon="11.5624033"><ele>275.25</ele><time>2026-04-11T09:13:25.702Z</time></trkpt><trkpt lat="43.475695" lon="11.5624683"><ele>278.0</ele><time>2026-04-11T09:13:26.701Z</time></trkpt><trkpt lat="43.475565" lon="11.5625417"><ele>278.0</ele><time>2026-04-11T09:13:27.7Z</time></trkpt><trkpt lat="43.4754383" lon="11.5625867"><ele>278.0</ele><time>2026-04-11T09:13:28.701Z</time></trkpt><trkpt lat="43.4753367" lon="11.562585"><ele>278.0</ele><time>2026-04-11T09:13:29.7Z</time></trkpt><trkpt lat="43.475245" lon="11.56258"><ele>278.0</ele><time>2026-04-11T09:13:30.701Z</time></trkpt><trkpt lat="43.4751583" lon="11.5625883"><ele>278.0</ele><time>2026-04-11T09:13:31.7Z</time></trkpt><trkpt lat="43.4750767" lon="11.5626083"><ele>280.0</ele><time>2026-04-11T09:13:32.701Z</time></trkpt><trkpt lat="43.4749883" lon="11.5626333"><ele>282.0</ele><time>2026-04-11T09:13:33.701Z</time></trkpt><trkpt lat="43.4748883" lon="11.5626567"><ele>284.0</ele><time>2026-04-11T09:13:34.7Z</time></trkpt><trkpt lat="43.474785" lon="11.562685"><ele>286.0</ele><time>2026-04-11T09:13:35.7Z</time></trkpt><trkpt lat="43.474695" lon="11.5627133"><ele>288.0</ele><time>2026-04-11T09:13:36.701Z</time></trkpt><trkpt lat="43.474615" lon="11.5627417"><ele>292.0</ele><time>2026-04-11T09:13:37.701Z</time></trkpt><trkpt lat="43.4745367" lon="11.56277"><ele>296.0</ele><time>2026-04-11T09:13:38.703Z</time></trkpt><trkpt lat="43.4744683" lon="11.5628067"><ele>300.0</ele><time>2026-04-11T09:13:39.702Z</time></trkpt><trkpt lat="43.4744067" lon="11.5628417"><ele>304.0</ele><time>2026-04-11T09:13:40.701Z</time></trkpt><trkpt lat="43.4743167" lon="11.56292"><ele>308.0</ele><time>2026-04-11T09:13:42.701Z</time></trkpt><trkpt lat="43.4743017" lon="11.5630217"><ele>312.0</ele><time>2026-04-11T09:13:44.702Z</time></trkpt><trkpt lat="43.4743933" lon="11.563105"><ele>312.8</ele><time>2026-04-11T09:13:46.699Z</time></trkpt><trkpt lat="43.4744683" lon="11.5631333"><ele>313.6</ele><time>2026-04-11T09:13:47.703Z</time></trkpt><trkpt lat="43.4745533" lon="11.5631733"><ele>314.40000000000003</ele><time>2026-04-11T09:13:48.701Z</time></trkpt><trkpt lat="43.4746483" lon="11.5632167"><ele>315.2</ele><time>2026-04-11T09:13:49.7Z</time></trkpt><trkpt lat="43.474755" lon="11.5632533"><ele>316.0</ele><time>2026-04-11T09:13:50.703Z</time></trkpt><trkpt lat="43.474865" lon="11.5632917"><ele>314.0</ele><time>2026-04-11T09:13:51.699Z</time></trkpt><trkpt lat="43.4749733" lon="11.5633183"><ele>312.0</ele><time>2026-04-11T09:13:52.701Z</time></trkpt><trkpt lat="43.475065" lon="11.5633367"><ele>310.0</ele><time>2026-04-11T09:13:53.7Z</time></trkpt><trkpt lat="43.47514" lon="11.563365"><ele>308.0</ele><time>2026-04-11T09:13:54.701Z</time></trkpt><trkpt lat="43.475205" lon="11.5634167"><ele>306.0</ele><time>2026-04-11T09:13:55.701Z</time></trkpt><trkpt lat="43.4752683" lon="11.5634867"><ele>304.0</ele><time>2026-04-11T09:13:56.702Z</time></trkpt><trkpt lat="43.4753417" lon="11.5635683"><ele>304.0</ele><time>2026-04-11T09:13:57.701Z</time></trkpt><trkpt lat="43.475425" lon="11.5636633"><ele>304.0</ele><time>2026-04-11T09:13:58.702Z</time></trkpt><trkpt lat="43.475505" lon="11.5637583"><ele>304.0</ele><time>2026-04-11T09:13:59.7Z</time></trkpt><trkpt lat="43.47557" lon="11.5638383"><ele>304.0</ele><time>2026-04-11T09:14:00.701Z</time></trkpt><trkpt lat="43.475615" lon="11.5639017"><ele>304.0</ele><time>2026-04-11T09:14:01.701Z</time></trkpt><trkpt lat="43.4756333" lon="11.5640483"><ele>306.0</ele><time>2026-04-11T09:14:03.701Z</time></trkpt><trkpt lat="43.4756133" lon="11.5641967"><ele>308.0</ele><time>2026-04-11T09:14:05.702Z</time></trkpt><trkpt lat="43.4755517" lon="11.5642767"><ele>310.0</ele><time>2026-04-11T09:14:07.7Z</time></trkpt><trkpt lat="43.4754867" lon="11.56427"><ele>312.0</ele><time>2026-04-11T09:14:08.702Z</time></trkpt><trkpt lat="43.475345" lon="11.5642417"><ele>314.0</ele><time>2026-04-11T09:14:10.701Z</time></trkpt><trkpt lat="43.4752583" lon="11.5642317"><ele>314.8</ele><time>2026-04-11T09:14:11.701Z</time></trkpt><trkpt lat="43.47516" lon="11.5642167"><ele>315.59999999999997</ele><time>2026-04-11T09:14:12.701Z</time></trkpt><trkpt lat="43.4750533" lon="11.564205"><ele>316.4</ele><time>2026-04-11T09:14:13.701Z</time></trkpt><trkpt lat="43.4749433" lon="11.5642"><ele>317.2</ele><time>2026-04-11T09:14:14.703Z</time></trkpt><trkpt lat="43.4748283" lon="11.5641933"><ele>318.0</ele><time>2026-04-11T09:14:15.701Z</time></trkpt><trkpt lat="43.4747233" lon="11.5641867"><ele>318.0</ele><time>2026-04-11T09:14:16.703Z</time></trkpt><trkpt lat="43.4746217" lon="11.564175"><ele>318.0</ele><time>2026-04-11T09:14:17.7Z</time></trkpt><trkpt lat="43.4745217" lon="11.5641617"><ele>318.0</ele><time>2026-04-11T09:14:18.701Z</time></trkpt><trkpt lat="43.4744233" lon="11.564145"><ele>318.0</ele><time>2026-04-11T09:14:19.703Z</time></trkpt><trkpt lat="43.4743383" lon="11.564125"><ele>318.0</ele><time>2026-04-11T09:14:20.703Z</time></trkpt><trkpt lat="43.474265" lon="11.5641167"><ele>318.6666666666667</ele><time>2026-04-11T09:14:21.702Z</time></trkpt><trkpt lat="43.4742017" lon="11.5641283"><ele>319.3333333333333</ele><time>2026-04-11T09:14:22.702Z</time></trkpt><trkpt lat="43.4740883" lon="11.56417"><ele>320.0</ele><time>2026-04-11T09:14:24.702Z</time></trkpt><trkpt lat="43.4740167" lon="11.564155"><ele>320.66666666666663</ele><time>2026-04-11T09:14:25.7Z</time></trkpt><trkpt lat="43.4739533" lon="11.564125"><ele>321.3333333333333</ele><time>2026-04-11T09:14:26.701Z</time></trkpt><trkpt lat="43.4738267" lon="11.5641167"><ele>322.0</ele><time>2026-04-11T09:14:28.702Z</time></trkpt><trkpt lat="43.4737183" lon="11.5641183"><ele>322.0</ele><time>2026-04-11T09:14:30.701Z</time></trkpt><trkpt lat="43.4736183" lon="11.56403"><ele>322.0</ele><time>2026-04-11T09:14:32.702Z</time></trkpt><trkpt lat="43.47358" lon="11.56396"><ele>322.0</ele><time>2026-04-11T09:14:33.7Z</time></trkpt><trkpt lat="43.4735417" lon="11.5638767"><ele>322.0</ele><time>2026-04-11T09:14:34.701Z</time></trkpt><trkpt lat="43.4734967" lon="11.5638"><ele>322.0</ele><time>2026-04-11T09:14:35.701Z</time></trkpt><trkpt lat="43.47345" lon="11.56374"><ele>322.0</ele><time>2026-04-11T09:14:36.701Z</time></trkpt><trkpt lat="43.473345" lon="11.5636433"><ele>324.40000000000003</ele><time>2026-04-11T09:14:38.703Z</time></trkpt><trkpt lat="43.4732883" lon="11.5635983"><ele>326.8</ele><time>2026-04-11T09:14:39.701Z</time></trkpt><trkpt lat="43.47319" lon="11.5635"><ele>329.2</ele><time>2026-04-11T09:14:41.701Z</time></trkpt><trkpt lat="43.473105" lon="11.5634233"><ele>331.6</ele><time>2026-04-11T09:14:43.702Z</time></trkpt><trkpt lat="43.47301" lon="11.563355"><ele>334.0</ele><time>2026-04-11T09:14:45.703Z</time></trkpt><trkpt lat="43.47292" lon="11.5632417"><ele>335.66666666666663</ele><time>2026-04-11T09:14:47.703Z</time></trkpt><trkpt lat="43.4728733" lon="11.5631833"><ele>337.3333333333333</ele><time>2026-04-11T09:14:48.702Z</time></trkpt><trkpt lat="43.4727617" lon="11.5631283"><ele>339.0</ele><time>2026-04-11T09:14:50.703Z</time></trkpt><trkpt lat="43.4726967" lon="11.5631183"><ele>340.6666666666667</ele><time>2026-04-11T09:14:51.7Z</time></trkpt><trkpt lat="43.4726283" lon="11.5631183"><ele>342.33333333333337</ele><time>2026-04-11T09:14:52.702Z</time></trkpt><trkpt lat="43.472565" lon="11.56313"><ele>344.0</ele><time>2026-04-11T09:14:53.701Z</time></trkpt><trkpt lat="43.4724833" lon="11.5631817"><ele>344.0</ele><time>2026-04-11T09:14:55.701Z</time></trkpt><trkpt lat="43.4724" lon="11.5631933"><ele>344.0</ele><time>2026-04-11T09:14:57.7Z</time></trkpt><trkpt lat="43.4722933" lon="11.563105"><ele>344.0</ele><time>2026-04-11T09:14:59.702Z</time></trkpt><trkpt lat="43.472235" lon="11.56298"><ele>344.0</ele><time>2026-04-11T09:15:01.7Z</time></trkpt><trkpt lat="43.4721883" lon="11.5628833"><ele>344.0</ele><time>2026-04-11T09:15:03.7Z</time></trkpt><trkpt lat="43.472075" lon="11.5628233"><ele>348.0</ele><time>2026-04-11T09:15:05.701Z</time></trkpt><trkpt lat="43.471995" lon="11.5628033"><ele>352.0</ele><time>2026-04-11T09:15:06.701Z</time></trkpt><trkpt lat="43.4719083" lon="11.5627717"><ele>356.0</ele><time>2026-04-11T09:15:07.7Z</time></trkpt><trkpt lat="43.4718217" lon="11.5627383"><ele>360.0</ele><time>2026-04-11T09:15:08.701Z</time></trkpt><trkpt lat="43.4717317" lon="11.56272"><ele>364.0</ele><time>2026-04-11T09:15:09.701Z</time></trkpt><trkpt lat="43.4716517" lon="11.56271"><ele>368.0</ele><time>2026-04-11T09:15:10.702Z</time></trkpt><trkpt lat="43.471575" lon="11.5627183"><ele>368.0</ele><time>2026-04-11T09:15:11.701Z</time></trkpt><trkpt lat="43.4714967" lon="11.5627583"><ele>368.0</ele><time>2026-04-11T09:15:12.702Z</time></trkpt><trkpt lat="43.471425" lon="11.5628017"><ele>368.0</ele><time>2026-04-11T09:15:13.701Z</time></trkpt><trkpt lat="43.47136" lon="11.562825"><ele>368.0</ele><time>2026-04-11T09:15:14.703Z</time></trkpt><trkpt lat="43.4712917" lon="11.562855"><ele>368.0</ele><time>2026-04-11T09:15:15.701Z</time></trkpt><trkpt lat="43.471215" lon="11.5628767"><ele>368.0</ele><time>2026-04-11T09:15:16.703Z</time></trkpt><trkpt lat="43.4711383" lon="11.56288"><ele>365.6666666666667</ele><time>2026-04-11T09:15:17.703Z</time></trkpt><trkpt lat="43.47106" lon="11.562885"><ele>363.33333333333337</ele><time>2026-04-11T09:15:18.703Z</time></trkpt><trkpt lat="43.4709817" lon="11.56291"><ele>361.0</ele><time>2026-04-11T09:15:19.7Z</time></trkpt><trkpt lat="43.4709117" lon="11.56294"><ele>358.6666666666667</ele><time>2026-04-11T09:15:20.702Z</time></trkpt><trkpt lat="43.4708367" lon="11.5629567"><ele>356.3333333333333</ele><time>2026-04-11T09:15:21.701Z</time></trkpt><trkpt lat="43.4707533" lon="11.5629483"><ele>354.0</ele><time>2026-04-11T09:15:22.7Z</time></trkpt><trkpt lat="43.470675" lon="11.56293"><ele>354.0</ele><time>2026-04-11T09:15:23.702Z</time></trkpt><trkpt lat="43.4706083" lon="11.562925"><ele>354.0</ele><time>2026-04-11T09:15:24.702Z</time></trkpt><trkpt lat="43.4705" lon="11.5629867"><ele>354.0</ele><time>2026-04-11T09:15:26.703Z</time></trkpt><trkpt lat="43.4704483" lon="11.56304"><ele>354.0</ele><time>2026-04-11T09:15:27.702Z</time></trkpt><trkpt lat="43.4703917" lon="11.5630983"><ele>354.0</ele><time>2026-04-11T09:15:28.701Z</time></trkpt><trkpt lat="43.4703333" lon="11.56315"><ele>354.0</ele><time>2026-04-11T09:15:29.701Z</time></trkpt><trkpt lat="43.4702717" lon="11.5631867"><ele>355.8333333333333</ele><time>2026-04-11T09:15:30.701Z</time></trkpt><trkpt lat="43.47021" lon="11.56321"><ele>357.6666666666667</ele><time>2026-04-11T09:15:31.701Z</time></trkpt><trkpt lat="43.4701417" lon="11.56322"><ele>359.5</ele><time>2026-04-11T09:15:32.701Z</time></trkpt><trkpt lat="43.4700783" lon="11.5632283"><ele>361.33333333333337</ele><time>2026-04-11T09:15:33.701Z</time></trkpt><trkpt lat="43.4699667" lon="11.5632683"><ele>363.1666666666667</ele><time>2026-04-11T09:15:35.702Z</time></trkpt><trkpt lat="43.4699017" lon="11.5633033"><ele>365.0</ele><time>2026-04-11T09:15:36.701Z</time></trkpt><trkpt lat="43.4698333" lon="11.5633517"><ele>365.0</ele><time>2026-04-11T09:15:37.702Z</time></trkpt><trkpt lat="43.4697633" lon="11.563395"><ele>365.0</ele><time>2026-04-11T09:15:38.701Z</time></trkpt><trkpt lat="43.4696883" lon="11.56342"><ele>365.0</ele><time>2026-04-11T09:15:39.702Z</time></trkpt><trkpt lat="43.4696183" lon="11.563435"><ele>365.0</ele><time>2026-04-11T09:15:40.7Z</time></trkpt><trkpt lat="43.4695" lon="11.56349"><ele>365.0</ele><time>2026-04-11T09:15:42.701Z</time></trkpt><trkpt lat="43.4693983" lon="11.56352"><ele>364.28571428571433</ele><time>2026-04-11T09:15:44.703Z</time></trkpt><trkpt lat="43.46933" lon="11.563495"><ele>363.57142857142856</ele><time>2026-04-11T09:15:46.7Z</time></trkpt><trkpt lat="43.4692583" lon="11.5634683"><ele>362.8571428571429</ele><time>2026-04-11T09:15:48.701Z</time></trkpt><trkpt lat="43.4691783" lon="11.5634867"><ele>362.14285714285717</ele><time>2026-04-11T09:15:50.702Z</time></trkpt><trkpt lat="43.4691167" lon="11.5635267"><ele>361.42857142857144</ele><time>2026-04-11T09:15:52.702Z</time></trkpt><trkpt lat="43.469085" lon="11.5636383"><ele>360.7142857142857</ele><time>2026-04-11T09:15:55.702Z</time></trkpt><trkpt lat="43.4691017" lon="11.5637267"><ele>360.0</ele><time>2026-04-11T09:15:57.701Z</time></trkpt><trkpt lat="43.46911" lon="11.5638283"><ele>359.4</ele><time>2026-04-11T09:15:59.702Z</time></trkpt><trkpt lat="43.4690867" lon="11.5639533"><ele>358.8</ele><time>2026-04-11T09:16:01.7Z</time></trkpt><trkpt lat="43.4690683" lon="11.564055"><ele>358.20000000000005</ele><time>2026-04-11T09:16:03.7Z</time></trkpt><trkpt lat="43.4690817" lon="11.5641867"><ele>357.6</ele><time>2026-04-11T09:16:05.7Z</time></trkpt><trkpt lat="43.4691117" lon="11.56436"><ele>357.0</ele><time>2026-04-11T09:16:07.701Z</time></trkpt><trkpt lat="43.4691333" lon="11.5644633"><ele>357.6</ele><time>2026-04-11T09:16:08.702Z</time></trkpt><trkpt lat="43.46916" lon="11.5645733"><ele>358.20000000000005</ele><time>2026-04-11T09:16:09.7Z</time></trkpt><trkpt lat="43.4691967" lon="11.5646733"><ele>358.8</ele><time>2026-04-11T09:16:10.701Z</time></trkpt><trkpt lat="43.4692367" lon="11.5647833"><ele>359.4</ele><time>2026-04-11T09:16:11.701Z</time></trkpt><trkpt lat="43.4692767" lon="11.5649083"><ele>360.0</ele><time>2026-04-11T09:16:12.7Z</time></trkpt><trkpt lat="43.4693117" lon="11.5650433"><ele>360.0</ele><time>2026-04-11T09:16:13.701Z</time></trkpt><trkpt lat="43.4693467" lon="11.5651767"><ele>360.0</ele><time>2026-04-11T09:16:14.7Z</time></trkpt><trkpt lat="43.4693933" lon="11.5653083"><ele>360.0</ele><time>2026-04-11T09:16:15.701Z</time></trkpt><trkpt lat="43.4694433" lon="11.5654317"><ele>360.0</ele><time>2026-04-11T09:16:16.701Z</time></trkpt><trkpt lat="43.469485" lon="11.565545"><ele>360.0</ele><time>2026-04-11T09:16:17.701Z</time></trkpt><trkpt lat="43.4695167" lon="11.565665"><ele>361.3333333333333</ele><time>2026-04-11T09:16:18.702Z</time></trkpt><trkpt lat="43.469545" lon="11.565785"><ele>362.6666666666667</ele><time>2026-04-11T09:16:19.701Z</time></trkpt><trkpt lat="43.46956" lon="11.565905"><ele>364.0</ele><time>2026-04-11T09:16:20.7Z</time></trkpt><trkpt lat="43.4695633" lon="11.56602"><ele>365.33333333333337</ele><time>2026-04-11T09:16:21.702Z</time></trkpt><trkpt lat="43.46956" lon="11.566125"><ele>366.6666666666667</ele><time>2026-04-11T09:16:22.702Z</time></trkpt><trkpt lat="43.46957" lon="11.56624"><ele>368.0</ele><time>2026-04-11T09:16:23.703Z</time></trkpt><trkpt lat="43.4695917" lon="11.5663667"><ele>369.4</ele><time>2026-04-11T09:16:24.702Z</time></trkpt><trkpt lat="43.4696067" lon="11.5664933"><ele>370.79999999999995</ele><time>2026-04-11T09:16:25.701Z</time></trkpt><trkpt lat="43.4696133" lon="11.566635"><ele>372.2</ele><time>2026-04-11T09:16:26.703Z</time></trkpt><trkpt lat="43.4696133" lon="11.5667917"><ele>373.6</ele><time>2026-04-11T09:16:27.702Z</time></trkpt><trkpt lat="43.4696117" lon="11.566945"><ele>375.0</ele><time>2026-04-11T09:16:28.702Z</time></trkpt><trkpt lat="43.469615" lon="11.5671"><ele>366.5</ele><time>2026-04-11T09:16:29.701Z</time></trkpt><trkpt lat="43.4696283" lon="11.5672633"><ele>358.0</ele><time>2026-04-11T09:16:30.701Z</time></trkpt><trkpt lat="43.4696483" lon="11.5674233"><ele>349.5</ele><time>2026-04-11T09:16:31.701Z</time></trkpt><trkpt lat="43.4696817" lon="11.5675783"><ele>341.0</ele><time>2026-04-11T09:16:32.702Z</time></trkpt><trkpt lat="43.469715" lon="11.5677217"><ele>341.0</ele><time>2026-04-11T09:16:33.7Z</time></trkpt><trkpt lat="43.4697467" lon="11.5678517"><ele>341.0</ele><time>2026-04-11T09:16:34.702Z</time></trkpt><trkpt lat="43.46978" lon="11.5679733"><ele>341.0</ele><time>2026-04-11T09:16:35.699Z</time></trkpt><trkpt lat="43.4698" lon="11.56809"><ele>341.0</ele><time>2026-04-11T09:16:36.701Z</time></trkpt><trkpt lat="43.469805" lon="11.5682083"><ele>341.0</ele><time>2026-04-11T09:16:37.702Z</time></trkpt><trkpt lat="43.469805" lon="11.5683183"><ele>341.0</ele><time>2026-04-11T09:16:38.701Z</time></trkpt><trkpt lat="43.469805" lon="11.5684267"><ele>342.0</ele><time>2026-04-11T09:16:39.701Z</time></trkpt><trkpt lat="43.469815" lon="11.5685417"><ele>343.0</ele><time>2026-04-11T09:16:40.7Z</time></trkpt><trkpt lat="43.4698367" lon="11.5686633"><ele>344.0</ele><time>2026-04-11T09:16:41.701Z</time></trkpt><trkpt lat="43.4698683" lon="11.5687983"><ele>345.0</ele><time>2026-04-11T09:16:42.701Z</time></trkpt><trkpt lat="43.4698917" lon="11.568945"><ele>346.0</ele><time>2026-04-11T09:16:43.701Z</time></trkpt><trkpt lat="43.4699083" lon="11.5690917"><ele>347.20000000000005</ele><time>2026-04-11T09:16:44.701Z</time></trkpt><trkpt lat="43.4699317" lon="11.56923"><ele>348.40000000000003</ele><time>2026-04-11T09:16:45.701Z</time></trkpt><trkpt lat="43.4699533" lon="11.5693567"><ele>349.6</ele><time>2026-04-11T09:16:46.702Z</time></trkpt><trkpt lat="43.46999" lon="11.56947"><ele>350.8</ele><time>2026-04-11T09:16:47.701Z</time></trkpt><trkpt lat="43.47004" lon="11.5695867"><ele>352.0</ele><time>2026-04-11T09:16:48.701Z</time></trkpt><trkpt lat="43.47011" lon="11.5697033"><ele>353.20000000000005</ele><time>2026-04-11T09:16:49.701Z</time></trkpt><trkpt lat="43.470185" lon="11.569815"><ele>354.4</ele><time>2026-04-11T09:16:50.703Z</time></trkpt><trkpt lat="43.4702583" lon="11.5699317"><ele>355.6</ele><time>2026-04-11T09:16:51.703Z</time></trkpt><trkpt lat="43.47032" lon="11.5700417"><ele>356.79999999999995</ele><time>2026-04-11T09:16:52.7Z</time></trkpt><trkpt lat="43.4703717" lon="11.5701517"><ele>358.0</ele><time>2026-04-11T09:16:53.701Z</time></trkpt><trkpt lat="43.4703983" lon="11.5702533"><ele>358.0</ele><time>2026-04-11T09:16:54.701Z</time></trkpt><trkpt lat="43.4704033" lon="11.570345"><ele>358.0</ele><time>2026-04-11T09:16:56.702Z</time></trkpt><trkpt lat="43.4702767" lon="11.5703483"><ele>358.0</ele><time>2026-04-11T09:16:59.701Z</time></trkpt><trkpt lat="43.4702083" lon="11.57037"><ele>358.0</ele><time>2026-04-11T09:17:00.703Z</time></trkpt><trkpt lat="43.47014" lon="11.570405"><ele>358.0</ele><time>2026-04-11T09:17:01.7Z</time></trkpt><trkpt lat="43.47007" lon="11.5704367"><ele>358.0</ele><time>2026-04-11T09:17:02.7Z</time></trkpt><trkpt lat="43.4699933" lon="11.57045"><ele>358.0</ele><time>2026-04-11T09:17:03.7Z</time></trkpt><trkpt lat="43.4699117" lon="11.5704367"><ele>358.0</ele><time>2026-04-11T09:17:04.7Z</time></trkpt><trkpt lat="43.4698333" lon="11.5703767"><ele>358.0</ele><time>2026-04-11T09:17:05.7Z</time></trkpt><trkpt lat="43.4697567" lon="11.570275"><ele>358.0</ele><time>2026-04-11T09:17:06.701Z</time></trkpt><trkpt lat="43.46967" lon="11.5701717"><ele>358.0</ele><time>2026-04-11T09:17:07.7Z</time></trkpt><trkpt lat="43.4695767" lon="11.5700733"><ele>362.25</ele><time>2026-04-11T09:17:08.701Z</time></trkpt><trkpt lat="43.469475" lon="11.5699667"><ele>366.5</ele><time>2026-04-11T09:17:09.7Z</time></trkpt><trkpt lat="43.4693717" lon="11.5698633"><ele>370.75</ele><time>2026-04-11T09:17:10.701Z</time></trkpt><trkpt lat="43.4692867" lon="11.5697767"><ele>375.0</ele><time>2026-04-11T09:17:11.701Z</time></trkpt><trkpt lat="43.4692067" lon="11.56971"><ele>375.0</ele><time>2026-04-11T09:17:12.7Z</time></trkpt><trkpt lat="43.4691267" lon="11.56966"><ele>375.0</ele><time>2026-04-11T09:17:13.701Z</time></trkpt><trkpt lat="43.46904" lon="11.5696167"><ele>375.0</ele><time>2026-04-11T09:17:14.702Z</time></trkpt><trkpt lat="43.4689533" lon="11.5695817"><ele>375.0</ele><time>2026-04-11T09:17:15.7Z</time></trkpt><trkpt lat="43.468865" lon="11.5695483"><ele>375.0</ele><time>2026-04-11T09:17:16.699Z</time></trkpt><trkpt lat="43.4687767" lon="11.5695167"><ele>379.1666666666667</ele><time>2026-04-11T09:17:17.699Z</time></trkpt><trkpt lat="43.4686933" lon="11.5694833"><ele>383.33333333333337</ele><time>2026-04-11T09:17:18.703Z</time></trkpt><trkpt lat="43.4686233" lon="11.5694567"><ele>387.5</ele><time>2026-04-11T09:17:19.701Z</time></trkpt><trkpt lat="43.4685183" lon="11.5694617"><ele>391.6666666666667</ele><time>2026-04-11T09:17:21.701Z</time></trkpt><trkpt lat="43.46846" lon="11.5695767"><ele>395.83333333333337</ele><time>2026-04-11T09:17:23.702Z</time></trkpt><trkpt lat="43.4684517" lon="11.56967"><ele>400.0</ele><time>2026-04-11T09:17:24.7Z</time></trkpt><trkpt lat="43.4684567" lon="11.56979"><ele>400.00000000000006</ele><time>2026-04-11T09:17:25.701Z</time></trkpt><trkpt lat="43.4684683" lon="11.5699167"><ele>400.0</ele><time>2026-04-11T09:17:26.701Z</time></trkpt><trkpt lat="43.4684767" lon="11.5700467"><ele>400.0</ele><time>2026-04-11T09:17:27.7Z</time></trkpt><trkpt lat="43.46848" lon="11.5701583"><ele>400.0</ele><time>2026-04-11T09:17:28.7Z</time></trkpt><trkpt lat="43.4684717" lon="11.5702717"><ele>400.00000000000006</ele><time>2026-04-11T09:17:29.7Z</time></trkpt><trkpt lat="43.4684367" lon="11.5703867"><ele>400.0</ele><time>2026-04-11T09:17:30.699Z</time></trkpt><trkpt lat="43.468395" lon="11.57048"><ele>398.33333333333337</ele><time>2026-04-11T09:17:31.701Z</time></trkpt><trkpt lat="43.46835" lon="11.570555"><ele>396.6666666666667</ele><time>2026-04-11T09:17:32.701Z</time></trkpt><trkpt lat="43.4682867" lon="11.5706083"><ele>395.0</ele><time>2026-04-11T09:17:33.7Z</time></trkpt><trkpt lat="43.4682" lon="11.570625"><ele>393.33333333333337</ele><time>2026-04-11T09:17:34.702Z</time></trkpt><trkpt lat="43.468115" lon="11.5706217"><ele>391.6666666666667</ele><time>2026-04-11T09:17:35.7Z</time></trkpt><trkpt lat="43.468035" lon="11.570615"><ele>390.0</ele><time>2026-04-11T09:17:36.7Z</time></trkpt><trkpt lat="43.46797" lon="11.5706167"><ele>394.4</ele><time>2026-04-11T09:17:37.701Z</time></trkpt><trkpt lat="43.467875" lon="11.57068"><ele>398.8</ele><time>2026-04-11T09:17:39.701Z</time></trkpt><trkpt lat="43.4678283" lon="11.5708067"><ele>403.20000000000005</ele><time>2026-04-11T09:17:41.701Z</time></trkpt><trkpt lat="43.4677917" lon="11.5709717"><ele>407.6</ele><time>2026-04-11T09:17:43.7Z</time></trkpt><trkpt lat="43.4677517" lon="11.5710667"><ele>412.0</ele><time>2026-04-11T09:17:44.702Z</time></trkpt><trkpt lat="43.4677" lon="11.5711833"><ele>411.33333333333337</ele><time>2026-04-11T09:17:45.701Z</time></trkpt><trkpt lat="43.4676383" lon="11.5712717"><ele>410.6666666666667</ele><time>2026-04-11T09:17:46.701Z</time></trkpt><trkpt lat="43.4675867" lon="11.571355"><ele>410.0</ele><time>2026-04-11T09:17:47.701Z</time></trkpt><trkpt lat="43.46756" lon="11.57144"><ele>409.33333333333337</ele><time>2026-04-11T09:17:48.702Z</time></trkpt><trkpt lat="43.4675433" lon="11.57153"><ele>408.6666666666667</ele><time>2026-04-11T09:17:49.702Z</time></trkpt><trkpt lat="43.4675567" lon="11.571625"><ele>408.0</ele><time>2026-04-11T09:17:50.706Z</time></trkpt><trkpt lat="43.4675967" lon="11.571725"><ele>408.0</ele><time>2026-04-11T09:17:51.702Z</time></trkpt><trkpt lat="43.46767" lon="11.57183"><ele>408.0</ele><time>2026-04-11T09:17:52.702Z</time></trkpt><trkpt lat="43.4677017" lon="11.57193"><ele>408.0</ele><time>2026-04-11T09:17:53.703Z</time></trkpt><trkpt lat="43.4677283" lon="11.5720517"><ele>408.0</ele><time>2026-04-11T09:17:54.701Z</time></trkpt><trkpt lat="43.4677367" lon="11.572165"><ele>408.0</ele><time>2026-04-11T09:17:55.7Z</time></trkpt><trkpt lat="43.4677283" lon="11.5722633"><ele>408.0</ele><time>2026-04-11T09:17:56.701Z</time></trkpt><trkpt lat="43.4676983" lon="11.5723483"><ele>408.0</ele><time>2026-04-11T09:17:57.7Z</time></trkpt><trkpt lat="43.4676467" lon="11.572425"><ele>408.0</ele><time>2026-04-11T09:17:58.7Z</time></trkpt><trkpt lat="43.4675817" lon="11.5724983"><ele>408.0</ele><time>2026-04-11T09:17:59.7Z</time></trkpt><trkpt lat="43.4675183" lon="11.5725517"><ele>408.0</ele><time>2026-04-11T09:18:00.7Z</time></trkpt><trkpt lat="43.4674583" lon="11.5725867"><ele>408.0</ele><time>2026-04-11T09:18:01.702Z</time></trkpt><trkpt lat="43.4673867" lon="11.5725967"><ele>408.0</ele><time>2026-04-11T09:18:02.702Z</time></trkpt><trkpt lat="43.4672933" lon="11.57259"><ele>408.0</ele><time>2026-04-11T09:18:03.7Z</time></trkpt><trkpt lat="43.467185" lon="11.5725567"><ele>408.0</ele><time>2026-04-11T09:18:04.7Z</time></trkpt><trkpt lat="43.4670833" lon="11.57252"><ele>408.0</ele><time>2026-04-11T09:18:05.7Z</time></trkpt><trkpt lat="43.4669883" lon="11.5724767"><ele>408.0</ele><time>2026-04-11T09:18:06.7Z</time></trkpt><trkpt lat="43.4668967" lon="11.5724283"><ele>408.0</ele><time>2026-04-11T09:18:07.7Z</time></trkpt><trkpt lat="43.4668233" lon="11.5723783"><ele>408.4</ele><time>2026-04-11T09:18:08.702Z</time></trkpt><trkpt lat="43.4667567" lon="11.5723417"><ele>408.79999999999995</ele><time>2026-04-11T09:18:09.702Z</time></trkpt><trkpt lat="43.4666633" lon="11.57233"><ele>409.2</ele><time>2026-04-11T09:18:11.7Z</time></trkpt><trkpt lat="43.4665667" lon="11.572375"><ele>409.6</ele><time>2026-04-11T09:18:13.701Z</time></trkpt><trkpt lat="43.4664883" lon="11.5724683"><ele>410.0</ele><time>2026-04-11T09:18:15.698Z</time></trkpt><trkpt lat="43.4664517" lon="11.5725883"><ele>409.99999999999994</ele><time>2026-04-11T09:18:17.701Z</time></trkpt><trkpt lat="43.4664367" lon="11.5726733"><ele>410.0</ele><time>2026-04-11T09:18:18.7Z</time></trkpt><trkpt lat="43.46643" lon="11.5727717"><ele>410.0</ele><time>2026-04-11T09:18:19.7Z</time></trkpt><trkpt lat="43.4664283" lon="11.5728683"><ele>410.0</ele><time>2026-04-11T09:18:20.702Z</time></trkpt><trkpt lat="43.4664" lon="11.5730183"><ele>409.99999999999994</ele><time>2026-04-11T09:18:22.701Z</time></trkpt><trkpt lat="43.4663283" lon="11.5730833"><ele>410.0</ele><time>2026-04-11T09:18:24.7Z</time></trkpt><trkpt lat="43.4661967" lon="11.5730217"><ele>410.0</ele><time>2026-04-11T09:18:26.7Z</time></trkpt><trkpt lat="43.4661167" lon="11.5729383"><ele>410.0</ele><time>2026-04-11T09:18:27.7Z</time></trkpt><trkpt lat="43.4660367" lon="11.5728367"><ele>410.0</ele><time>2026-04-11T09:18:28.702Z</time></trkpt><trkpt lat="43.4659533" lon="11.5727217"><ele>410.0</ele><time>2026-04-11T09:18:29.7Z</time></trkpt><trkpt lat="43.4658667" lon="11.5725883"><ele>412.2</ele><time>2026-04-11T09:18:30.7Z</time></trkpt><trkpt lat="43.465795" lon="11.57246"><ele>414.4</ele><time>2026-04-11T09:18:31.701Z</time></trkpt><trkpt lat="43.4657383" lon="11.572355"><ele>416.6</ele><time>2026-04-11T09:18:32.701Z</time></trkpt><trkpt lat="43.465685" lon="11.5722783"><ele>418.8</ele><time>2026-04-11T09:18:33.702Z</time></trkpt><trkpt lat="43.4656183" lon="11.5722217"><ele>421.0</ele><time>2026-04-11T09:18:34.7Z</time></trkpt><trkpt lat="43.4655333" lon="11.5721717"><ele>422.20000000000005</ele><time>2026-04-11T09:18:35.705Z</time></trkpt><trkpt lat="43.46544" lon="11.57212"><ele>423.40000000000003</ele><time>2026-04-11T09:18:36.7Z</time></trkpt><trkpt lat="43.465335" lon="11.572065"><ele>424.6</ele><time>2026-04-11T09:18:37.7Z</time></trkpt><trkpt lat="43.4652267" lon="11.57202"><ele>425.8</ele><time>2026-04-11T09:18:38.702Z</time></trkpt><trkpt lat="43.4651283" lon="11.5719917"><ele>427.0</ele><time>2026-04-11T09:18:39.702Z</time></trkpt><trkpt lat="43.4650317" lon="11.5719917"><ele>427.00000000000006</ele><time>2026-04-11T09:18:40.7Z</time></trkpt><trkpt lat="43.4649333" lon="11.5720167"><ele>427.0</ele><time>2026-04-11T09:18:41.7Z</time></trkpt><trkpt lat="43.4648433" lon="11.5720533"><ele>427.0</ele><time>2026-04-11T09:18:42.701Z</time></trkpt><trkpt lat="43.4647617" lon="11.572075"><ele>427.0</ele><time>2026-04-11T09:18:43.701Z</time></trkpt><trkpt lat="43.464685" lon="11.57209"><ele>427.00000000000006</ele><time>2026-04-11T09:18:44.701Z</time></trkpt><trkpt lat="43.46462" lon="11.5721067"><ele>427.0</ele><time>2026-04-11T09:18:45.7Z</time></trkpt><trkpt lat="43.4645583" lon="11.57214"><ele>429.6</ele><time>2026-04-11T09:18:46.701Z</time></trkpt><trkpt lat="43.464495" lon="11.5721967"><ele>432.20000000000005</ele><time>2026-04-11T09:18:47.701Z</time></trkpt><trkpt lat="43.4644267" lon="11.572275"><ele>434.8</ele><time>2026-04-11T09:18:48.7Z</time></trkpt><trkpt lat="43.4643567" lon="11.5723733"><ele>437.4</ele><time>2026-04-11T09:18:49.701Z</time></trkpt><trkpt lat="43.4642833" lon="11.572475"><ele>440.0</ele><time>2026-04-11T09:18:50.7Z</time></trkpt><trkpt lat="43.46422" lon="11.572555"><ele>439.99999999999994</ele><time>2026-04-11T09:18:51.7Z</time></trkpt><trkpt lat="43.4641683" lon="11.57261"><ele>440.0</ele><time>2026-04-11T09:18:52.7Z</time></trkpt><trkpt lat="43.4640917" lon="11.5727267"><ele>440.0</ele><time>2026-04-11T09:18:54.701Z</time></trkpt><trkpt lat="43.46402" lon="11.57284"><ele>440.0</ele><time>2026-04-11T09:18:56.702Z</time></trkpt><trkpt lat="43.46398" lon="11.5729133"><ele>439.99999999999994</ele><time>2026-04-11T09:18:57.7Z</time></trkpt><trkpt lat="43.4639333" lon="11.5729967"><ele>440.0</ele><time>2026-04-11T09:18:58.702Z</time></trkpt><trkpt lat="43.463885" lon="11.5730783"><ele>438.8</ele><time>2026-04-11T09:18:59.7Z</time></trkpt><trkpt lat="43.4638283" lon="11.573155"><ele>437.6</ele><time>2026-04-11T09:19:00.699Z</time></trkpt><trkpt lat="43.4637733" lon="11.5732217"><ele>436.4</ele><time>2026-04-11T09:19:01.7Z</time></trkpt><trkpt lat="43.4636983" lon="11.57332"><ele>435.2</ele><time>2026-04-11T09:19:03.699Z</time></trkpt><trkpt lat="43.4637983" lon="11.57319"><ele>434.0</ele><time>2026-04-11T09:19:25.701Z</time></trkpt><trkpt lat="43.4638517" lon="11.5731033"><ele>433.99999999999994</ele><time>2026-04-11T09:19:26.701Z</time></trkpt><trkpt lat="43.4639" lon="11.5730217"><ele>434.0</ele><time>2026-04-11T09:19:27.7Z</time></trkpt><trkpt lat="43.4639433" lon="11.5729483"><ele>434.0</ele><time>2026-04-11T09:19:28.7Z</time></trkpt><trkpt lat="43.4640183" lon="11.5728183"><ele>434.0</ele><time>2026-04-11T09:19:30.701Z</time></trkpt><trkpt lat="43.4640733" lon="11.57273"><ele>433.99999999999994</ele><time>2026-04-11T09:19:32.703Z</time></trkpt><trkpt lat="43.4640983" lon="11.5726433"><ele>434.0</ele><time>2026-04-11T09:19:36.704Z</time></trkpt><trkpt lat="43.464015" lon="11.5726317"><ele>434.99999999999994</ele><time>2026-04-11T09:19:39.701Z</time></trkpt><trkpt lat="43.4639467" lon="11.572595"><ele>436.0</ele><time>2026-04-11T09:19:41.701Z</time></trkpt><trkpt lat="43.4638467" lon="11.5725067"><ele>437.0</ele><time>2026-04-11T09:19:43.701Z</time></trkpt><trkpt lat="43.46378" lon="11.5724717"><ele>438.0</ele><time>2026-04-11T09:19:44.702Z</time></trkpt><trkpt lat="43.4637033" lon="11.572465"><ele>438.99999999999994</ele><time>2026-04-11T09:19:45.7Z</time></trkpt><trkpt lat="43.4636333" lon="11.572485"><ele>440.0</ele><time>2026-04-11T09:19:46.701Z</time></trkpt><trkpt lat="43.4635717" lon="11.572525"><ele>440.8</ele><time>2026-04-11T09:19:47.7Z</time></trkpt><trkpt lat="43.463455" lon="11.5725967"><ele>441.6</ele><time>2026-04-11T09:19:49.701Z</time></trkpt><trkpt lat="43.46339" lon="11.57262"><ele>442.4</ele><time>2026-04-11T09:19:50.703Z</time></trkpt><trkpt lat="43.4633" lon="11.5726917"><ele>443.2</ele><time>2026-04-11T09:19:52.698Z</time></trkpt><trkpt lat="43.4632517" lon="11.5728133"><ele>444.0</ele><time>2026-04-11T09:19:54.701Z</time></trkpt><trkpt lat="43.4631983" lon="11.572865"><ele>444.5</ele><time>2026-04-11T09:19:56.702Z</time></trkpt><trkpt lat="43.4631317" lon="11.5729783"><ele>445.0</ele><time>2026-04-11T09:19:59.703Z</time></trkpt><trkpt lat="43.4631" lon="11.5730633"><ele>445.5</ele><time>2026-04-11T09:20:00.7Z</time></trkpt><trkpt lat="43.4630667" lon="11.5731533"><ele>446.0</ele><time>2026-04-11T09:20:01.7Z</time></trkpt><trkpt lat="43.463035" lon="11.5732333"><ele>446.5</ele><time>2026-04-11T09:20:02.701Z</time></trkpt><trkpt lat="43.4629733" lon="11.573375"><ele>447.0</ele><time>2026-04-11T09:20:04.701Z</time></trkpt><trkpt lat="43.4628833" lon="11.57351"><ele>447.85714285714283</ele><time>2026-04-11T09:20:06.701Z</time></trkpt><trkpt lat="43.4628283" lon="11.573575"><ele>448.71428571428567</ele><time>2026-04-11T09:20:07.7Z</time></trkpt><trkpt lat="43.4627717" lon="11.5736233"><ele>449.57142857142856</ele><time>2026-04-11T09:20:08.701Z</time></trkpt><trkpt lat="43.4627067" lon="11.573645"><ele>450.4285714285714</ele><time>2026-04-11T09:20:09.699Z</time></trkpt><trkpt lat="43.4626367" lon="11.5736467"><ele>451.2857142857143</ele><time>2026-04-11T09:20:10.701Z</time></trkpt><trkpt lat="43.4625667" lon="11.57364"><ele>452.14285714285705</ele><time>2026-04-11T09:20:11.702Z</time></trkpt><trkpt lat="43.4624983" lon="11.5736267"><ele>452.99999999999994</ele><time>2026-04-11T09:20:12.701Z</time></trkpt><trkpt lat="43.4624383" lon="11.5735917"><ele>453.0</ele><time>2026-04-11T09:20:13.701Z</time></trkpt><trkpt lat="43.4623817" lon="11.5735183"><ele>453.0</ele><time>2026-04-11T09:20:14.703Z</time></trkpt><trkpt lat="43.4623317" lon="11.5734283"><ele>453.0</ele><time>2026-04-11T09:20:15.7Z</time></trkpt><trkpt lat="43.46228" lon="11.5733367"><ele>453.0</ele><time>2026-04-11T09:20:16.7Z</time></trkpt><trkpt lat="43.4622367" lon="11.57326"><ele>453.0</ele><time>2026-04-11T09:20:17.7Z</time></trkpt><trkpt lat="43.4621517" lon="11.5731967"><ele>453.0</ele><time>2026-04-11T09:20:19.7Z</time></trkpt><trkpt lat="43.4620917" lon="11.5732283"><ele>452.59999999999997</ele><time>2026-04-11T09:20:20.701Z</time></trkpt><trkpt lat="43.4619817" lon="11.5732883"><ele>452.19999999999993</ele><time>2026-04-11T09:20:22.7Z</time></trkpt><trkpt lat="43.46188" lon="11.573305"><ele>451.8</ele><time>2026-04-11T09:20:24.699Z</time></trkpt><trkpt lat="43.4618183" lon="11.57341"><ele>451.4</ele><time>2026-04-11T09:20:26.702Z</time></trkpt><trkpt lat="43.4617983" lon="11.57354"><ele>451.0</ele><time>2026-04-11T09:20:28.701Z</time></trkpt><trkpt lat="43.4617067" lon="11.573615"><ele>451.00000000000006</ele><time>2026-04-11T09:21:00.7Z</time></trkpt><trkpt lat="43.4615917" lon="11.57367"><ele>451.0</ele><time>2026-04-11T09:21:02.701Z</time></trkpt><trkpt lat="43.4614867" lon="11.57376"><ele>451.0</ele><time>2026-04-11T09:21:04.701Z</time></trkpt><trkpt lat="43.4614367" lon="11.573815"><ele>451.0</ele><time>2026-04-11T09:21:05.701Z</time></trkpt><trkpt lat="43.4613833" lon="11.5738667"><ele>451.00000000000006</ele><time>2026-04-11T09:21:06.701Z</time></trkpt><trkpt lat="43.4613283" lon="11.57392"><ele>451.0</ele><time>2026-04-11T09:21:07.7Z</time></trkpt><trkpt lat="43.4612767" lon="11.5739767"><ele>448.50000000000006</ele><time>2026-04-11T09:21:08.701Z</time></trkpt><trkpt lat="43.4612217" lon="11.5740283"><ele>446.0</ele><time>2026-04-11T09:21:09.701Z</time></trkpt><trkpt lat="43.46116" lon="11.5740583"><ele>443.5</ele><time>2026-04-11T09:21:10.701Z</time></trkpt><trkpt lat="43.46105" lon="11.5741267"><ele>441.0</ele><time>2026-04-11T09:21:12.701Z</time></trkpt><trkpt lat="43.4610117" lon="11.5742133"><ele>438.50000000000006</ele><time>2026-04-11T09:21:13.701Z</time></trkpt><trkpt lat="43.4609767" lon="11.5743167"><ele>436.0</ele><time>2026-04-11T09:21:14.701Z</time></trkpt><trkpt lat="43.46093" lon="11.5744017"><ele>436.00000000000006</ele><time>2026-04-11T09:21:15.701Z</time></trkpt><trkpt lat="43.4608617" lon="11.5744583"><ele>436.0</ele><time>2026-04-11T09:21:16.701Z</time></trkpt><trkpt lat="43.4607917" lon="11.5744733"><ele>436.0</ele><time>2026-04-11T09:21:17.701Z</time></trkpt><trkpt lat="43.46072" lon="11.5744717"><ele>436.0</ele><time>2026-04-11T09:21:18.7Z</time></trkpt><trkpt lat="43.4606333" lon="11.57448"><ele>436.00000000000006</ele><time>2026-04-11T09:21:19.701Z</time></trkpt><trkpt lat="43.4605283" lon="11.57449"><ele>436.0</ele><time>2026-04-11T09:21:20.702Z</time></trkpt><trkpt lat="43.4604283" lon="11.5744933"><ele>436.0</ele><time>2026-04-11T09:21:21.703Z</time></trkpt><trkpt lat="43.4603267" lon="11.5745"><ele>436.0</ele><time>2026-04-11T09:21:22.696Z</time></trkpt><trkpt lat="43.4602167" lon="11.57451"><ele>436.0</ele><time>2026-04-11T09:21:23.7Z</time></trkpt><trkpt lat="43.4601083" lon="11.5745217"><ele>436.0</ele><time>2026-04-11T09:21:24.698Z</time></trkpt><trkpt lat="43.4600067" lon="11.5745367"><ele>436.0</ele><time>2026-04-11T09:21:25.701Z</time></trkpt><trkpt lat="43.459905" lon="11.5745667"><ele>436.00000000000006</ele><time>2026-04-11T09:21:26.701Z</time></trkpt><trkpt lat="43.45981" lon="11.5746167"><ele>436.0</ele><time>2026-04-11T09:21:27.699Z</time></trkpt><trkpt lat="43.4597217" lon="11.5746717"><ele>436.0</ele><time>2026-04-11T09:21:28.702Z</time></trkpt><trkpt lat="43.459645" lon="11.574725"><ele>436.0</ele><time>2026-04-11T09:21:29.701Z</time></trkpt><trkpt lat="43.459575" lon="11.5747767"><ele>436.00000000000006</ele><time>2026-04-11T09:21:30.7Z</time></trkpt><trkpt lat="43.459505" lon="11.574835"><ele>436.0</ele><time>2026-04-11T09:21:31.7Z</time></trkpt><trkpt lat="43.4594217" lon="11.5748883"><ele>438.0</ele><time>2026-04-11T09:21:32.701Z</time></trkpt><trkpt lat="43.459335" lon="11.5749183"><ele>440.0</ele><time>2026-04-11T09:21:33.701Z</time></trkpt><trkpt lat="43.459245" lon="11.5749167"><ele>442.0</ele><time>2026-04-11T09:21:34.701Z</time></trkpt><trkpt lat="43.4591533" lon="11.5749067"><ele>444.0</ele><time>2026-04-11T09:21:35.701Z</time></trkpt><trkpt lat="43.459055" lon="11.5748983"><ele>446.0</ele><time>2026-04-11T09:21:36.703Z</time></trkpt><trkpt lat="43.4589483" lon="11.57488"><ele>446.0</ele><time>2026-04-11T09:21:37.7Z</time></trkpt><trkpt lat="43.4588283" lon="11.5748617"><ele>446.0</ele><time>2026-04-11T09:21:38.7Z</time></trkpt><trkpt lat="43.458705" lon="11.574835"><ele>446.0</ele><time>2026-04-11T09:21:39.701Z</time></trkpt><trkpt lat="43.4585917" lon="11.5748033"><ele>446.0</ele><time>2026-04-11T09:21:40.7Z</time></trkpt><trkpt lat="43.4585067" lon="11.5747683"><ele>447.16666666666663</ele><time>2026-04-11T09:21:41.702Z</time></trkpt><trkpt lat="43.4584317" lon="11.574735"><ele>448.3333333333333</ele><time>2026-04-11T09:21:42.702Z</time></trkpt><trkpt lat="43.4583683" lon="11.574715"><ele>449.5</ele><time>2026-04-11T09:21:43.701Z</time></trkpt><trkpt lat="43.45824" lon="11.5747683"><ele>450.66666666666663</ele><time>2026-04-11T09:21:45.701Z</time></trkpt><trkpt lat="43.4581867" lon="11.57485"><ele>451.8333333333333</ele><time>2026-04-11T09:21:46.7Z</time></trkpt><trkpt lat="43.45815" lon="11.57496"><ele>453.0</ele><time>2026-04-11T09:21:47.701Z</time></trkpt><trkpt lat="43.4581133" lon="11.5750617"><ele>453.0</ele><time>2026-04-11T09:21:48.702Z</time></trkpt><trkpt lat="43.4580767" lon="11.57517"><ele>453.0</ele><time>2026-04-11T09:21:49.701Z</time></trkpt><trkpt lat="43.45804" lon="11.57529"><ele>453.0</ele><time>2026-04-11T09:21:50.701Z</time></trkpt><trkpt lat="43.4580033" lon="11.5754133"><ele>453.0</ele><time>2026-04-11T09:21:51.701Z</time></trkpt><trkpt lat="43.4579667" lon="11.57552"><ele>453.0</ele><time>2026-04-11T09:21:52.701Z</time></trkpt><trkpt lat="43.457925" lon="11.5756083"><ele>453.0</ele><time>2026-04-11T09:21:53.7Z</time></trkpt><trkpt lat="43.457885" lon="11.57568"><ele>455.3333333333333</ele><time>2026-04-11T09:21:54.7Z</time></trkpt><trkpt lat="43.4578283" lon="11.57572"><ele>457.66666666666663</ele><time>2026-04-11T09:21:55.704Z</time></trkpt><trkpt lat="43.4577183" lon="11.575745"><ele>460.0</ele><time>2026-04-11T09:21:57.702Z</time></trkpt><trkpt lat="43.4576567" lon="11.575725"><ele>462.3333333333333</ele><time>2026-04-11T09:21:58.701Z</time></trkpt><trkpt lat="43.4575933" lon="11.5756967"><ele>464.66666666666663</ele><time>2026-04-11T09:21:59.701Z</time></trkpt><trkpt lat="43.4575233" lon="11.575685"><ele>467.0</ele><time>2026-04-11T09:22:00.702Z</time></trkpt><trkpt lat="43.45745" lon="11.5757033"><ele>466.99999999999994</ele><time>2026-04-11T09:22:01.701Z</time></trkpt><trkpt lat="43.457375" lon="11.5757367"><ele>467.0</ele><time>2026-04-11T09:22:02.702Z</time></trkpt><trkpt lat="43.4572967" lon="11.5757733"><ele>467.0</ele><time>2026-04-11T09:22:03.7Z</time></trkpt><trkpt lat="43.4572167" lon="11.575815"><ele>467.0</ele><time>2026-04-11T09:22:04.701Z</time></trkpt><trkpt lat="43.4571317" lon="11.5758483"><ele>466.99999999999994</ele><time>2026-04-11T09:22:05.702Z</time></trkpt><trkpt lat="43.45704" lon="11.57588"><ele>467.0</ele><time>2026-04-11T09:22:06.703Z</time></trkpt><trkpt lat="43.4569583" lon="11.5759033"><ele>466.3333333333333</ele><time>2026-04-11T09:22:07.703Z</time></trkpt><trkpt lat="43.4568967" lon="11.575945"><ele>465.66666666666663</ele><time>2026-04-11T09:22:08.703Z</time></trkpt><trkpt lat="43.4568383" lon="11.57602"><ele>465.0</ele><time>2026-04-11T09:22:09.702Z</time></trkpt><trkpt lat="43.4567783" lon="11.5761217"><ele>464.33333333333337</ele><time>2026-04-11T09:22:10.701Z</time></trkpt><trkpt lat="43.4567217" lon="11.5762317"><ele>463.6666666666667</ele><time>2026-04-11T09:22:11.702Z</time></trkpt><trkpt lat="43.456665" lon="11.5763367"><ele>463.0</ele><time>2026-04-11T09:22:12.701Z</time></trkpt><trkpt lat="43.4566167" lon="11.5764433"><ele>463.0</ele><time>2026-04-11T09:22:13.7Z</time></trkpt><trkpt lat="43.4565667" lon="11.5765433"><ele>462.99999999999994</ele><time>2026-04-11T09:22:14.702Z</time></trkpt><trkpt lat="43.45651" lon="11.5766483"><ele>462.99999999999994</ele><time>2026-04-11T09:22:15.702Z</time></trkpt><trkpt lat="43.4564467" lon="11.5767833"><ele>463.0</ele><time>2026-04-11T09:22:16.701Z</time></trkpt><trkpt lat="43.4563867" lon="11.5769317"><ele>463.0</ele><time>2026-04-11T09:22:17.701Z</time></trkpt><trkpt lat="43.45633" lon="11.57706"><ele>462.83333333333337</ele><time>2026-04-11T09:22:18.702Z</time></trkpt><trkpt lat="43.4562733" lon="11.5771533"><ele>462.6666666666667</ele><time>2026-04-11T09:22:19.7Z</time></trkpt><trkpt lat="43.456215" lon="11.5772183"><ele>462.5</ele><time>2026-04-11T09:22:20.702Z</time></trkpt><trkpt lat="43.4561533" lon="11.5772617"><ele>462.33333333333337</ele><time>2026-04-11T09:22:21.702Z</time></trkpt><trkpt lat="43.45609" lon="11.577295"><ele>462.1666666666667</ele><time>2026-04-11T09:22:22.702Z</time></trkpt><trkpt lat="43.45603" lon="11.5773217"><ele>462.0</ele><time>2026-04-11T09:22:23.701Z</time></trkpt><trkpt lat="43.4559417" lon="11.5773767"><ele>462.0</ele><time>2026-04-11T09:22:25.702Z</time></trkpt><trkpt lat="43.4558417" lon="11.5774517"><ele>462.0</ele><time>2026-04-11T09:22:27.701Z</time></trkpt><trkpt lat="43.4557767" lon="11.5774967"><ele>462.0</ele><time>2026-04-11T09:22:28.701Z</time></trkpt><trkpt lat="43.4557033" lon="11.5775433"><ele>462.0</ele><time>2026-04-11T09:22:29.701Z</time></trkpt><trkpt lat="43.4556267" lon="11.57758"><ele>462.0</ele><time>2026-04-11T09:22:30.702Z</time></trkpt><trkpt lat="43.4555533" lon="11.5775983"><ele>462.0</ele><time>2026-04-11T09:22:31.702Z</time></trkpt><trkpt lat="43.455485" lon="11.577595"><ele>462.1666666666667</ele><time>2026-04-11T09:22:32.701Z</time></trkpt><trkpt lat="43.4554183" lon="11.5775933"><ele>462.33333333333337</ele><time>2026-04-11T09:22:33.7Z</time></trkpt><trkpt lat="43.4553117" lon="11.577655"><ele>462.5</ele><time>2026-04-11T09:22:35.702Z</time></trkpt><trkpt lat="43.45526" lon="11.5777183"><ele>462.6666666666667</ele><time>2026-04-11T09:22:36.702Z</time></trkpt><trkpt lat="43.45521" lon="11.577795"><ele>462.83333333333337</ele><time>2026-04-11T09:22:37.702Z</time></trkpt><trkpt lat="43.4551517" lon="11.577865"><ele>463.0</ele><time>2026-04-11T09:22:38.702Z</time></trkpt><trkpt lat="43.4550933" lon="11.5779133"><ele>463.0</ele><time>2026-04-11T09:22:39.701Z</time></trkpt><trkpt lat="43.455045" lon="11.57797"><ele>462.99999999999994</ele><time>2026-04-11T09:22:40.701Z</time></trkpt><trkpt lat="43.4550033" lon="11.5780383"><ele>462.99999999999994</ele><time>2026-04-11T09:22:41.701Z</time></trkpt><trkpt lat="43.454925" lon="11.57817"><ele>463.0</ele><time>2026-04-11T09:22:43.701Z</time></trkpt><trkpt lat="43.4548433" lon="11.57828"><ele>463.0</ele><time>2026-04-11T09:22:45.702Z</time></trkpt><trkpt lat="43.45475" lon="11.5783767"><ele>463.00000000000006</ele><time>2026-04-11T09:22:47.702Z</time></trkpt><trkpt lat="43.45463" lon="11.5784"><ele>463.0</ele><time>2026-04-11T09:22:49.702Z</time></trkpt><trkpt lat="43.4545667" lon="11.5784117"><ele>463.0</ele><time>2026-04-11T09:22:50.703Z</time></trkpt><trkpt lat="43.4545" lon="11.5784467"><ele>463.0</ele><time>2026-04-11T09:22:51.703Z</time></trkpt><trkpt lat="43.45443" lon="11.5784933"><ele>463.00000000000006</ele><time>2026-04-11T09:22:52.703Z</time></trkpt><trkpt lat="43.4543517" lon="11.5785517"><ele>463.0</ele><time>2026-04-11T09:22:53.701Z</time></trkpt><trkpt lat="43.4542667" lon="11.5786233"><ele>460.25</ele><time>2026-04-11T09:22:54.701Z</time></trkpt><trkpt lat="43.4541683" lon="11.5787017"><ele>457.5</ele><time>2026-04-11T09:22:55.701Z</time></trkpt><trkpt lat="43.454065" lon="11.57877"><ele>454.75</ele><time>2026-04-11T09:22:56.701Z</time></trkpt><trkpt lat="43.4539633" lon="11.5788433"><ele>452.0</ele><time>2026-04-11T09:22:57.7Z</time></trkpt><trkpt lat="43.4538667" lon="11.578935"><ele>452.8</ele><time>2026-04-11T09:22:58.7Z</time></trkpt><trkpt lat="43.4537767" lon="11.579025"><ele>453.6</ele><time>2026-04-11T09:22:59.701Z</time></trkpt><trkpt lat="43.4536933" lon="11.5790983"><ele>454.40000000000003</ele><time>2026-04-11T09:23:00.7Z</time></trkpt><trkpt lat="43.453605" lon="11.5791683"><ele>455.20000000000005</ele><time>2026-04-11T09:23:01.7Z</time></trkpt><trkpt lat="43.453495" lon="11.5792383"><ele>456.0</ele><time>2026-04-11T09:23:02.702Z</time></trkpt><trkpt lat="43.4533617" lon="11.5793133"><ele>456.0</ele><time>2026-04-11T09:23:03.702Z</time></trkpt><trkpt lat="43.4532133" lon="11.579405"><ele>456.0</ele><time>2026-04-11T09:23:04.701Z</time></trkpt><trkpt lat="43.4530683" lon="11.5794933"><ele>456.0</ele><time>2026-04-11T09:23:05.699Z</time></trkpt><trkpt lat="43.4529283" lon="11.5795733"><ele>454.25</ele><time>2026-04-11T09:23:06.701Z</time></trkpt><trkpt lat="43.452795" lon="11.57965"><ele>452.5</ele><time>2026-04-11T09:23:07.7Z</time></trkpt><trkpt lat="43.4526733" lon="11.5797217"><ele>450.75</ele><time>2026-04-11T09:23:08.702Z</time></trkpt><trkpt lat="43.4525567" lon="11.5797883"><ele>449.0</ele><time>2026-04-11T09:23:09.701Z</time></trkpt><trkpt lat="43.4524467" lon="11.5798533"><ele>449.0</ele><time>2026-04-11T09:23:10.7Z</time></trkpt><trkpt lat="43.4523467" lon="11.5799133"><ele>449.0</ele><time>2026-04-11T09:23:11.702Z</time></trkpt><trkpt lat="43.4522483" lon="11.5799667"><ele>449.0</ele><time>2026-04-11T09:23:12.7Z</time></trkpt><trkpt lat="43.4521617" lon="11.58001"><ele>449.0</ele><time>2026-04-11T09:23:13.701Z</time></trkpt><trkpt lat="43.452095" lon="11.5800467"><ele>449.0</ele><time>2026-04-11T09:23:14.701Z</time></trkpt><trkpt lat="43.4520283" lon="11.5801517"><ele>449.0</ele><time>2026-04-11T09:23:16.701Z</time></trkpt><trkpt lat="43.4520567" lon="11.5803033"><ele>449.0</ele><time>2026-04-11T09:23:18.703Z</time></trkpt><trkpt lat="43.45212" lon="11.5804183"><ele>449.0</ele><time>2026-04-11T09:23:20.702Z</time></trkpt><trkpt lat="43.4521233" lon="11.5805417"><ele>449.0</ele><time>2026-04-11T09:23:23.703Z</time></trkpt><trkpt lat="43.4520617" lon="11.5805817"><ele>449.0</ele><time>2026-04-11T09:23:25.701Z</time></trkpt><trkpt lat="43.4519183" lon="11.5805783"><ele>448.6</ele><time>2026-04-11T09:23:27.7Z</time></trkpt><trkpt lat="43.451815" lon="11.5806067"><ele>448.2</ele><time>2026-04-11T09:23:28.701Z</time></trkpt><trkpt lat="43.451715" lon="11.580655"><ele>447.80000000000007</ele><time>2026-04-11T09:23:29.7Z</time></trkpt><trkpt lat="43.451615" lon="11.580725"><ele>447.40000000000003</ele><time>2026-04-11T09:23:30.702Z</time></trkpt><trkpt lat="43.4515067" lon="11.580805"><ele>447.0</ele><time>2026-04-11T09:23:31.703Z</time></trkpt><trkpt lat="43.4514" lon="11.580885"><ele>447.0</ele><time>2026-04-11T09:23:32.702Z</time></trkpt><trkpt lat="43.4513067" lon="11.5809667"><ele>447.0</ele><time>2026-04-11T09:23:33.696Z</time></trkpt><trkpt lat="43.451235" lon="11.581055"><ele>447.0</ele><time>2026-04-11T09:23:34.696Z</time></trkpt><trkpt lat="43.4511883" lon="11.5811533"><ele>447.0</ele><time>2026-04-11T09:23:35.697Z</time></trkpt><trkpt lat="43.451155" lon="11.5812533"><ele>447.0</ele><time>2026-04-11T09:23:36.701Z</time></trkpt><trkpt lat="43.451135" lon="11.5813467"><ele>447.0</ele><time>2026-04-11T09:23:37.702Z</time></trkpt><trkpt lat="43.45113" lon="11.5814367"><ele>449.5</ele><time>2026-04-11T09:23:38.703Z</time></trkpt><trkpt lat="43.4511433" lon="11.5815333"><ele>452.0</ele><time>2026-04-11T09:23:39.702Z</time></trkpt><trkpt lat="43.4511667" lon="11.58164"><ele>454.5</ele><time>2026-04-11T09:23:40.701Z</time></trkpt><trkpt lat="43.45119" lon="11.5817483"><ele>457.0</ele><time>2026-04-11T09:23:41.701Z</time></trkpt><trkpt lat="43.451205" lon="11.581845"><ele>459.5</ele><time>2026-04-11T09:23:42.702Z</time></trkpt><trkpt lat="43.4511633" lon="11.5819767"><ele>462.0</ele><time>2026-04-11T09:23:44.702Z</time></trkpt><trkpt lat="43.4510367" lon="11.5819383"><ele>462.0</ele><time>2026-04-11T09:23:46.7Z</time></trkpt><trkpt lat="43.450965" lon="11.5818683"><ele>462.00000000000006</ele><time>2026-04-11T09:23:47.702Z</time></trkpt><trkpt lat="43.4508917" lon="11.5818133"><ele>462.00000000000006</ele><time>2026-04-11T09:23:48.702Z</time></trkpt><trkpt lat="43.4508067" lon="11.581775"><ele>462.0</ele><time>2026-04-11T09:23:49.701Z</time></trkpt><trkpt lat="43.4507117" lon="11.5817667"><ele>462.0</ele><time>2026-04-11T09:23:50.702Z</time></trkpt><trkpt lat="43.4506033" lon="11.5817767"><ele>462.0</ele><time>2026-04-11T09:23:51.702Z</time></trkpt><trkpt lat="43.4504883" lon="11.5817967"><ele>462.0</ele><time>2026-04-11T09:23:52.7Z</time></trkpt><trkpt lat="43.4503733" lon="11.5818167"><ele>462.0</ele><time>2026-04-11T09:23:53.702Z</time></trkpt><trkpt lat="43.4502617" lon="11.58183"><ele>462.0</ele><time>2026-04-11T09:23:54.703Z</time></trkpt><trkpt lat="43.4501483" lon="11.5818433"><ele>461.6</ele><time>2026-04-11T09:23:55.7Z</time></trkpt><trkpt lat="43.4500433" lon="11.581865"><ele>461.20000000000005</ele><time>2026-04-11T09:23:56.706Z</time></trkpt><trkpt lat="43.4499467" lon="11.5819017"><ele>460.8</ele><time>2026-04-11T09:23:57.701Z</time></trkpt><trkpt lat="43.4498467" lon="11.5819617"><ele>460.4</ele><time>2026-04-11T09:23:58.701Z</time></trkpt><trkpt lat="43.449735" lon="11.582035"><ele>460.0</ele><time>2026-04-11T09:23:59.701Z</time></trkpt><trkpt lat="43.4496217" lon="11.58211"><ele>461.75</ele><time>2026-04-11T09:24:00.7Z</time></trkpt><trkpt lat="43.44951" lon="11.582185"><ele>463.5</ele><time>2026-04-11T09:24:01.702Z</time></trkpt><trkpt lat="43.449415" lon="11.5822717"><ele>465.25</ele><time>2026-04-11T09:24:02.702Z</time></trkpt><trkpt lat="43.4493383" lon="11.5823767"><ele>467.0</ele><time>2026-04-11T09:24:03.7Z</time></trkpt><trkpt lat="43.44928" lon="11.5825"><ele>467.0</ele><time>2026-04-11T09:24:04.701Z</time></trkpt><trkpt lat="43.449235" lon="11.5826367"><ele>467.00000000000006</ele><time>2026-04-11T09:24:05.7Z</time></trkpt><trkpt lat="43.4491983" lon="11.5827667"><ele>467.00000000000006</ele><time>2026-04-11T09:24:06.7Z</time></trkpt><trkpt lat="43.4491683" lon="11.5828633"><ele>467.0</ele><time>2026-04-11T09:24:07.701Z</time></trkpt><trkpt lat="43.449095" lon="11.5829933"><ele>467.0</ele><time>2026-04-11T09:24:09.702Z</time></trkpt><trkpt lat="43.4489667" lon="11.58303"><ele>466.8333333333333</ele><time>2026-04-11T09:24:11.702Z</time></trkpt><trkpt lat="43.4488933" lon="11.5830417"><ele>466.66666666666663</ele><time>2026-04-11T09:24:12.703Z</time></trkpt><trkpt lat="43.44882" lon="11.5830667"><ele>466.5</ele><time>2026-04-11T09:24:13.702Z</time></trkpt><trkpt lat="43.44874" lon="11.583095"><ele>466.33333333333337</ele><time>2026-04-11T09:24:14.702Z</time></trkpt><trkpt lat="43.4486533" lon="11.583125"><ele>466.1666666666667</ele><time>2026-04-11T09:24:15.701Z</time></trkpt><trkpt lat="43.4485683" lon="11.58315"><ele>466.0</ele><time>2026-04-11T09:24:16.701Z</time></trkpt><trkpt lat="43.448485" lon="11.58318"><ele>468.8</ele><time>2026-04-11T09:24:17.702Z</time></trkpt><trkpt lat="43.44841" lon="11.5832083"><ele>471.6</ele><time>2026-04-11T09:24:18.702Z</time></trkpt><trkpt lat="43.4483417" lon="11.5832317"><ele>474.4</ele><time>2026-04-11T09:24:19.701Z</time></trkpt><trkpt lat="43.4482217" lon="11.5832667"><ele>477.2</ele><time>2026-04-11T09:24:21.702Z</time></trkpt><trkpt lat="43.4481" lon="11.583305"><ele>480.0</ele><time>2026-04-11T09:24:23.702Z</time></trkpt><trkpt lat="43.4480283" lon="11.5833417"><ele>482.0</ele><time>2026-04-11T09:24:24.702Z</time></trkpt><trkpt lat="43.4479483" lon="11.58339"><ele>484.0</ele><time>2026-04-11T09:24:25.702Z</time></trkpt><trkpt lat="43.4478667" lon="11.58344"><ele>486.0</ele><time>2026-04-11T09:24:26.703Z</time></trkpt><trkpt lat="43.447785" lon="11.583485"><ele>488.0</ele><time>2026-04-11T09:24:27.703Z</time></trkpt><trkpt lat="43.4477033" lon="11.5835217"><ele>490.0</ele><time>2026-04-11T09:24:28.701Z</time></trkpt><trkpt lat="43.447615" lon="11.5835467"><ele>492.0</ele><time>2026-04-11T09:24:29.703Z</time></trkpt><trkpt lat="43.44751" lon="11.5835717"><ele>492.0</ele><time>2026-04-11T09:24:30.702Z</time></trkpt><trkpt lat="43.4473983" lon="11.583605"><ele>492.00000000000006</ele><time>2026-04-11T09:24:31.702Z</time></trkpt><trkpt lat="43.44729" lon="11.5836533"><ele>492.00000000000006</ele><time>2026-04-11T09:24:32.702Z</time></trkpt><trkpt lat="43.44719" lon="11.583705"><ele>492.0</ele><time>2026-04-11T09:24:33.702Z</time></trkpt><trkpt lat="43.4471017" lon="11.583755"><ele>492.0</ele><time>2026-04-11T09:24:34.701Z</time></trkpt><trkpt lat="43.4470117" lon="11.5837883"><ele>489.20000000000005</ele><time>2026-04-11T09:24:35.701Z</time></trkpt><trkpt lat="43.446915" lon="11.583805"><ele>486.40000000000003</ele><time>2026-04-11T09:24:36.701Z</time></trkpt><trkpt lat="43.4468217" lon="11.5838167"><ele>483.59999999999997</ele><time>2026-04-11T09:24:37.702Z</time></trkpt><trkpt lat="43.4467333" lon="11.583835"><ele>480.79999999999995</ele><time>2026-04-11T09:24:38.704Z</time></trkpt><trkpt lat="43.4466483" lon="11.5838633"><ele>478.0</ele><time>2026-04-11T09:24:39.702Z</time></trkpt><trkpt lat="43.4465633" lon="11.5838933"><ele>478.0</ele><time>2026-04-11T09:24:40.701Z</time></trkpt><trkpt lat="43.446475" lon="11.5839017"><ele>477.99999999999994</ele><time>2026-04-11T09:24:41.702Z</time></trkpt><trkpt lat="43.4463817" lon="11.5838783"><ele>477.99999999999994</ele><time>2026-04-11T09:24:42.702Z</time></trkpt><trkpt lat="43.4462783" lon="11.58382"><ele>478.0</ele><time>2026-04-11T09:24:43.702Z</time></trkpt><trkpt lat="43.4461733" lon="11.5837567"><ele>478.0</ele><time>2026-04-11T09:24:44.703Z</time></trkpt><trkpt lat="43.4460667" lon="11.5836983"><ele>480.5</ele><time>2026-04-11T09:24:45.701Z</time></trkpt><trkpt lat="43.44595" lon="11.5836417"><ele>483.0</ele><time>2026-04-11T09:24:46.702Z</time></trkpt><trkpt lat="43.4458367" lon="11.5835867"><ele>485.5</ele><time>2026-04-11T09:24:47.705Z</time></trkpt><trkpt lat="43.445735" lon="11.5835283"><ele>488.0</ele><time>2026-04-11T09:24:48.702Z</time></trkpt><trkpt lat="43.44564" lon="11.583465"><ele>488.0</ele><time>2026-04-11T09:24:49.701Z</time></trkpt><trkpt lat="43.44554" lon="11.5833867"><ele>487.99999999999994</ele><time>2026-04-11T09:24:50.703Z</time></trkpt><trkpt lat="43.445445" lon="11.5833"><ele>487.99999999999994</ele><time>2026-04-11T09:24:51.704Z</time></trkpt><trkpt lat="43.4453667" lon="11.583225"><ele>488.0</ele><time>2026-04-11T09:24:52.702Z</time></trkpt><trkpt lat="43.4453" lon="11.5831683"><ele>488.0</ele><time>2026-04-11T09:24:53.704Z</time></trkpt><trkpt lat="43.4452333" lon="11.5831383"><ele>487.4</ele><time>2026-04-11T09:24:54.703Z</time></trkpt><trkpt lat="43.4451533" lon="11.5831433"><ele>486.79999999999995</ele><time>2026-04-11T09:24:55.702Z</time></trkpt><trkpt lat="43.4450683" lon="11.58321"><ele>486.2</ele><time>2026-04-11T09:24:56.703Z</time></trkpt><trkpt lat="43.4449917" lon="11.5832883"><ele>485.6</ele><time>2026-04-11T09:24:57.704Z</time></trkpt><trkpt lat="43.4449083" lon="11.5833633"><ele>485.0</ele><time>2026-04-11T09:24:58.702Z</time></trkpt><trkpt lat="43.444815" lon="11.5834317"><ele>485.0</ele><time>2026-04-11T09:24:59.703Z</time></trkpt><trkpt lat="43.4447233" lon="11.5835067"><ele>485.0</ele><time>2026-04-11T09:25:00.703Z</time></trkpt><trkpt lat="43.4446367" lon="11.58357"><ele>485.0</ele><time>2026-04-11T09:25:01.701Z</time></trkpt><trkpt lat="43.4445583" lon="11.58361"><ele>485.0</ele><time>2026-04-11T09:25:02.703Z</time></trkpt><trkpt lat="43.444475" lon="11.5836233"><ele>485.0</ele><time>2026-04-11T09:25:03.701Z</time></trkpt><trkpt lat="43.4443833" lon="11.5836083"><ele>486.8</ele><time>2026-04-11T09:25:04.7Z</time></trkpt><trkpt lat="43.4442883" lon="11.5835833"><ele>488.6</ele><time>2026-04-11T09:25:05.702Z</time></trkpt><trkpt lat="43.4441833" lon="11.5835633"><ele>490.4</ele><time>2026-04-11T09:25:06.702Z</time></trkpt><trkpt lat="43.4440667" lon="11.5835683"><ele>492.2</ele><time>2026-04-11T09:25:07.702Z</time></trkpt><trkpt lat="43.443945" lon="11.5835767"><ele>494.0</ele><time>2026-04-11T09:25:08.703Z</time></trkpt><trkpt lat="43.4438317" lon="11.5835817"><ele>495.0</ele><time>2026-04-11T09:25:09.702Z</time></trkpt><trkpt lat="43.4437233" lon="11.5835717"><ele>496.0</ele><time>2026-04-11T09:25:10.701Z</time></trkpt><trkpt lat="43.4436167" lon="11.5835583"><ele>497.0</ele><time>2026-04-11T09:25:11.702Z</time></trkpt><trkpt lat="43.4435017" lon="11.5835583"><ele>498.0</ele><time>2026-04-11T09:25:12.703Z</time></trkpt><trkpt lat="43.4433833" lon="11.5835783"><ele>498.0</ele><time>2026-04-11T09:25:13.702Z</time></trkpt><trkpt lat="43.4432617" lon="11.5835983"><ele>497.99999999999994</ele><time>2026-04-11T09:25:14.704Z</time></trkpt><trkpt lat="43.443155" lon="11.5836017"><ele>497.99999999999994</ele><time>2026-04-11T09:25:15.701Z</time></trkpt><trkpt lat="43.4430533" lon="11.583595"><ele>498.0</ele><time>2026-04-11T09:25:16.7Z</time></trkpt><trkpt lat="43.4429583" lon="11.5835883"><ele>498.0</ele><time>2026-04-11T09:25:17.703Z</time></trkpt><trkpt lat="43.4428633" lon="11.5835767"><ele>496.79999999999995</ele><time>2026-04-11T09:25:18.701Z</time></trkpt><trkpt lat="43.4427633" lon="11.5835583"><ele>495.59999999999997</ele><time>2026-04-11T09:25:19.702Z</time></trkpt><trkpt lat="43.4426583" lon="11.5835517"><ele>494.40000000000003</ele><time>2026-04-11T09:25:20.703Z</time></trkpt><trkpt lat="43.4425633" lon="11.5835667"><ele>493.20000000000005</ele><time>2026-04-11T09:25:21.703Z</time></trkpt><trkpt lat="43.442475" lon="11.5836017"><ele>492.0</ele><time>2026-04-11T09:25:22.702Z</time></trkpt><trkpt lat="43.4423933" lon="11.5836267"><ele>492.0</ele><time>2026-04-11T09:25:23.703Z</time></trkpt><trkpt lat="43.4423117" lon="11.5836183"><ele>492.00000000000006</ele><time>2026-04-11T09:25:24.703Z</time></trkpt><trkpt lat="43.4422267" lon="11.5835667"><ele>492.00000000000006</ele><time>2026-04-11T09:25:25.704Z</time></trkpt><trkpt lat="43.4421383" lon="11.5834983"><ele>492.0</ele><time>2026-04-11T09:25:26.706Z</time></trkpt><trkpt lat="43.442055" lon="11.58342"><ele>492.0</ele><time>2026-04-11T09:25:27.702Z</time></trkpt><trkpt lat="43.4419767" lon="11.5833583"><ele>490.6</ele><time>2026-04-11T09:25:28.701Z</time></trkpt><trkpt lat="43.4418967" lon="11.5833167"><ele>489.20000000000005</ele><time>2026-04-11T09:25:29.701Z</time></trkpt><trkpt lat="43.4418033" lon="11.583305"><ele>487.8</ele><time>2026-04-11T09:25:30.703Z</time></trkpt><trkpt lat="43.4417117" lon="11.5833517"><ele>486.4</ele><time>2026-04-11T09:25:31.702Z</time></trkpt><trkpt lat="43.4416217" lon="11.5834083"><ele>485.0</ele><time>2026-04-11T09:25:32.703Z</time></trkpt><trkpt lat="43.4415367" lon="11.5834633"><ele>485.0</ele><time>2026-04-11T09:25:33.704Z</time></trkpt><trkpt lat="43.441455" lon="11.5835017"><ele>485.0</ele><time>2026-04-11T09:25:34.702Z</time></trkpt><trkpt lat="43.441365" lon="11.5835017"><ele>485.0</ele><time>2026-04-11T09:25:35.702Z</time></trkpt><trkpt lat="43.4412583" lon="11.5834667"><ele>485.0</ele><time>2026-04-11T09:25:36.701Z</time></trkpt><trkpt lat="43.4411583" lon="11.5834233"><ele>485.0</ele><time>2026-04-11T09:25:37.701Z</time></trkpt><trkpt lat="43.4410767" lon="11.5833717"><ele>483.2</ele><time>2026-04-11T09:25:38.703Z</time></trkpt><trkpt lat="43.4410117" lon="11.5833133"><ele>481.4</ele><time>2026-04-11T09:25:39.701Z</time></trkpt><trkpt lat="43.4409583" lon="11.5832467"><ele>479.6</ele><time>2026-04-11T09:25:40.701Z</time></trkpt><trkpt lat="43.440875" lon="11.5831233"><ele>477.8</ele><time>2026-04-11T09:25:42.702Z</time></trkpt><trkpt lat="43.440765" lon="11.5830433"><ele>476.0</ele><time>2026-04-11T09:25:44.703Z</time></trkpt><trkpt lat="43.4406867" lon="11.5830333"><ele>476.0</ele><time>2026-04-11T09:25:45.701Z</time></trkpt><trkpt lat="43.4405933" lon="11.5830417"><ele>476.0</ele><time>2026-04-11T09:25:46.702Z</time></trkpt><trkpt lat="43.4404833" lon="11.58307"><ele>476.0</ele><time>2026-04-11T09:25:47.701Z</time></trkpt><trkpt lat="43.4403617" lon="11.5831333"><ele>476.0</ele><time>2026-04-11T09:25:48.702Z</time></trkpt><trkpt lat="43.4402517" lon="11.5831983"><ele>476.0</ele><time>2026-04-11T09:25:49.7Z</time></trkpt><trkpt lat="43.4401517" lon="11.5832717"><ele>476.0</ele><time>2026-04-11T09:25:50.702Z</time></trkpt><trkpt lat="43.4400533" lon="11.583365"><ele>476.0</ele><time>2026-04-11T09:25:51.701Z</time></trkpt><trkpt lat="43.439965" lon="11.583475"><ele>476.0</ele><time>2026-04-11T09:25:52.7Z</time></trkpt><trkpt lat="43.4398817" lon="11.5836133"><ele>476.5</ele><time>2026-04-11T09:25:53.7Z</time></trkpt><trkpt lat="43.4398017" lon="11.5837617"><ele>477.0</ele><time>2026-04-11T09:25:54.701Z</time></trkpt><trkpt lat="43.4397283" lon="11.5839067"><ele>477.5</ele><time>2026-04-11T09:25:55.7Z</time></trkpt><trkpt lat="43.4396633" lon="11.5840383"><ele>478.0</ele><time>2026-04-11T09:25:56.701Z</time></trkpt><trkpt lat="43.4396083" lon="11.58417"><ele>478.0</ele><time>2026-04-11T09:25:57.7Z</time></trkpt><trkpt lat="43.4395517" lon="11.5843017"><ele>477.99999999999994</ele><time>2026-04-11T09:25:58.7Z</time></trkpt><trkpt lat="43.4394933" lon="11.5844233"><ele>477.99999999999994</ele><time>2026-04-11T09:25:59.7Z</time></trkpt><trkpt lat="43.43943" lon="11.584535"><ele>478.0</ele><time>2026-04-11T09:26:00.7Z</time></trkpt><trkpt lat="43.4393633" lon="11.5846333"><ele>478.0</ele><time>2026-04-11T09:26:01.701Z</time></trkpt><trkpt lat="43.4393033" lon="11.5847183"><ele>476.79999999999995</ele><time>2026-04-11T09:26:02.702Z</time></trkpt><trkpt lat="43.4392333" lon="11.5847967"><ele>475.59999999999997</ele><time>2026-04-11T09:26:03.7Z</time></trkpt><trkpt lat="43.43917" lon="11.5848833"><ele>474.40000000000003</ele><time>2026-04-11T09:26:04.701Z</time></trkpt><trkpt lat="43.4391167" lon="11.584985"><ele>473.20000000000005</ele><time>2026-04-11T09:26:05.7Z</time></trkpt><trkpt lat="43.43908" lon="11.5850983"><ele>472.0</ele><time>2026-04-11T09:26:06.7Z</time></trkpt><trkpt lat="43.43906" lon="11.5852217"><ele>470.20000000000005</ele><time>2026-04-11T09:26:07.701Z</time></trkpt><trkpt lat="43.4390467" lon="11.5853533"><ele>468.40000000000003</ele><time>2026-04-11T09:26:08.702Z</time></trkpt><trkpt lat="43.4390333" lon="11.5854833"><ele>466.59999999999997</ele><time>2026-04-11T09:26:09.7Z</time></trkpt><trkpt lat="43.4390167" lon="11.58561"><ele>464.79999999999995</ele><time>2026-04-11T09:26:10.7Z</time></trkpt><trkpt lat="43.4389867" lon="11.585735"><ele>463.0</ele><time>2026-04-11T09:26:11.7Z</time></trkpt><trkpt lat="43.4389433" lon="11.5858633"><ele>463.0</ele><time>2026-04-11T09:26:12.7Z</time></trkpt><trkpt lat="43.43889" lon="11.5859833"><ele>462.99999999999994</ele><time>2026-04-11T09:26:13.7Z</time></trkpt><trkpt lat="43.4388417" lon="11.586095"><ele>462.99999999999994</ele><time>2026-04-11T09:26:14.701Z</time></trkpt><trkpt lat="43.4388" lon="11.5862017"><ele>463.0</ele><time>2026-04-11T09:26:15.701Z</time></trkpt><trkpt lat="43.4387683" lon="11.5863133"><ele>463.0</ele><time>2026-04-11T09:26:16.7Z</time></trkpt><trkpt lat="43.43874" lon="11.586425"><ele>462.0</ele><time>2026-04-11T09:26:17.7Z</time></trkpt><trkpt lat="43.438715" lon="11.5865467"><ele>460.99999999999994</ele><time>2026-04-11T09:26:18.7Z</time></trkpt><trkpt lat="43.4386983" lon="11.5866867"><ele>459.99999999999994</ele><time>2026-04-11T09:26:19.701Z</time></trkpt><trkpt lat="43.4386833" lon="11.58683"><ele>459.0</ele><time>2026-04-11T09:26:20.703Z</time></trkpt><trkpt lat="43.4386683" lon="11.5869683"><ele>458.0</ele><time>2026-04-11T09:26:21.7Z</time></trkpt><trkpt lat="43.438655" lon="11.5871017"><ele>457.79999999999995</ele><time>2026-04-11T09:26:22.699Z</time></trkpt><trkpt lat="43.4386467" lon="11.5872217"><ele>457.59999999999997</ele><time>2026-04-11T09:26:23.701Z</time></trkpt><trkpt lat="43.4386533" lon="11.587335"><ele>457.40000000000003</ele><time>2026-04-11T09:26:24.7Z</time></trkpt><trkpt lat="43.4386783" lon="11.58745"><ele>457.20000000000005</ele><time>2026-04-11T09:26:25.701Z</time></trkpt><trkpt lat="43.43873" lon="11.5875667"><ele>457.0</ele><time>2026-04-11T09:26:26.701Z</time></trkpt><trkpt lat="43.4387883" lon="11.58769"><ele>456.6</ele><time>2026-04-11T09:26:27.701Z</time></trkpt><trkpt lat="43.4388433" lon="11.5878167"><ele>456.20000000000005</ele><time>2026-04-11T09:26:28.701Z</time></trkpt><trkpt lat="43.4388883" lon="11.5879483"><ele>455.8</ele><time>2026-04-11T09:26:29.701Z</time></trkpt><trkpt lat="43.4389217" lon="11.5880767"><ele>455.4</ele><time>2026-04-11T09:26:30.7Z</time></trkpt><trkpt lat="43.4389417" lon="11.5881933"><ele>455.0</ele><time>2026-04-11T09:26:31.7Z</time></trkpt><trkpt lat="43.43895" lon="11.5883283"><ele>455.0</ele><time>2026-04-11T09:26:32.701Z</time></trkpt><trkpt lat="43.4389467" lon="11.5884617"><ele>455.0</ele><time>2026-04-11T09:26:33.7Z</time></trkpt><trkpt lat="43.4389333" lon="11.5886017"><ele>455.0</ele><time>2026-04-11T09:26:34.702Z</time></trkpt><trkpt lat="43.4389067" lon="11.5887333"><ele>455.0</ele><time>2026-04-11T09:26:35.7Z</time></trkpt><trkpt lat="43.4388733" lon="11.5888467"><ele>455.0</ele><time>2026-04-11T09:26:36.701Z</time></trkpt><trkpt lat="43.4388467" lon="11.5889467"><ele>455.49999999999994</ele><time>2026-04-11T09:26:37.7Z</time></trkpt><trkpt lat="43.4388333" lon="11.5890483"><ele>456.0</ele><time>2026-04-11T09:26:38.702Z</time></trkpt><trkpt lat="43.4388367" lon="11.5891433"><ele>456.5</ele><time>2026-04-11T09:26:39.696Z</time></trkpt><trkpt lat="43.4388417" lon="11.58923"><ele>457.0</ele><time>2026-04-11T09:26:40.7Z</time></trkpt><trkpt lat="43.4387917" lon="11.5894"><ele>457.49999999999994</ele><time>2026-04-11T09:26:42.702Z</time></trkpt><trkpt lat="43.438725" lon="11.5894567"><ele>458.0</ele><time>2026-04-11T09:26:43.702Z</time></trkpt><trkpt lat="43.438655" lon="11.5894717"><ele>459.66666666666663</ele><time>2026-04-11T09:26:44.703Z</time></trkpt><trkpt lat="43.4385867" lon="11.5894717"><ele>461.3333333333333</ele><time>2026-04-11T09:26:45.702Z</time></trkpt><trkpt lat="43.438515" lon="11.589465"><ele>463.0</ele><time>2026-04-11T09:26:46.701Z</time></trkpt><trkpt lat="43.43843" lon="11.5894833"><ele>464.66666666666663</ele><time>2026-04-11T09:26:47.703Z</time></trkpt><trkpt lat="43.438345" lon="11.5895117"><ele>466.3333333333333</ele><time>2026-04-11T09:26:48.703Z</time></trkpt><trkpt lat="43.43827" lon="11.5895467"><ele>468.0</ele><time>2026-04-11T09:26:49.701Z</time></trkpt><trkpt lat="43.438205" lon="11.58959"><ele>468.8571428571429</ele><time>2026-04-11T09:26:50.704Z</time></trkpt><trkpt lat="43.4381483" lon="11.5896467"><ele>469.7142857142858</ele><time>2026-04-11T09:26:51.702Z</time></trkpt><trkpt lat="43.438105" lon="11.5897217"><ele>470.57142857142856</ele><time>2026-04-11T09:26:52.701Z</time></trkpt><trkpt lat="43.4380683" lon="11.589805"><ele>471.42857142857144</ele><time>2026-04-11T09:26:53.701Z</time></trkpt><trkpt lat="43.4380283" lon="11.589885"><ele>472.2857142857143</ele><time>2026-04-11T09:26:54.701Z</time></trkpt><trkpt lat="43.4379733" lon="11.58995"><ele>473.1428571428571</ele><time>2026-04-11T09:26:55.702Z</time></trkpt><trkpt lat="43.4378933" lon="11.589995"><ele>473.99999999999994</ele><time>2026-04-11T09:26:56.702Z</time></trkpt><trkpt lat="43.437785" lon="11.5900483"><ele>470.5</ele><time>2026-04-11T09:26:57.701Z</time></trkpt><trkpt lat="43.4376633" lon="11.59011"><ele>467.0</ele><time>2026-04-11T09:26:58.701Z</time></trkpt><trkpt lat="43.4375267" lon="11.5901733"><ele>463.5</ele><time>2026-04-11T09:26:59.702Z</time></trkpt><trkpt lat="43.4373833" lon="11.5902383"><ele>460.0</ele><time>2026-04-11T09:27:00.702Z</time></trkpt><trkpt lat="43.4372483" lon="11.590295"><ele>458.6</ele><time>2026-04-11T09:27:01.701Z</time></trkpt><trkpt lat="43.43712" lon="11.5903483"><ele>457.2</ele><time>2026-04-11T09:27:02.699Z</time></trkpt><trkpt lat="43.4370083" lon="11.5903983"><ele>455.79999999999995</ele><time>2026-04-11T09:27:03.702Z</time></trkpt><trkpt lat="43.4369167" lon="11.590435"><ele>454.4</ele><time>2026-04-11T09:27:04.7Z</time></trkpt><trkpt lat="43.436825" lon="11.5904633"><ele>453.0</ele><time>2026-04-11T09:27:05.702Z</time></trkpt><trkpt lat="43.4367333" lon="11.5905067"><ele>453.0</ele><time>2026-04-11T09:27:06.702Z</time></trkpt><trkpt lat="43.4366367" lon="11.5905767"><ele>452.99999999999994</ele><time>2026-04-11T09:27:07.701Z</time></trkpt><trkpt lat="43.43655" lon="11.5906483"><ele>452.99999999999994</ele><time>2026-04-11T09:27:08.702Z</time></trkpt><trkpt lat="43.436465" lon="11.59072"><ele>453.0</ele><time>2026-04-11T09:27:09.696Z</time></trkpt><trkpt lat="43.43639" lon="11.5907917"><ele>453.0</ele><time>2026-04-11T09:27:10.701Z</time></trkpt><trkpt lat="43.4363117" lon="11.590865"><ele>451.79999999999995</ele><time>2026-04-11T09:27:11.703Z</time></trkpt><trkpt lat="43.4362217" lon="11.5909567"><ele>450.59999999999997</ele><time>2026-04-11T09:27:12.7Z</time></trkpt><trkpt lat="43.4361317" lon="11.5910483"><ele>449.40000000000003</ele><time>2026-04-11T09:27:13.701Z</time></trkpt><trkpt lat="43.4360483" lon="11.59113"><ele>448.20000000000005</ele><time>2026-04-11T09:27:14.702Z</time></trkpt><trkpt lat="43.435965" lon="11.5912067"><ele>447.0</ele><time>2026-04-11T09:27:15.701Z</time></trkpt><trkpt lat="43.435875" lon="11.5912783"><ele>446.8</ele><time>2026-04-11T09:27:16.7Z</time></trkpt><trkpt lat="43.4357867" lon="11.59135"><ele>446.6</ele><time>2026-04-11T09:27:17.7Z</time></trkpt><trkpt lat="43.4357" lon="11.59143"><ele>446.40000000000003</ele><time>2026-04-11T09:27:18.702Z</time></trkpt><trkpt lat="43.4356167" lon="11.5915183"><ele>446.20000000000005</ele><time>2026-04-11T09:27:19.702Z</time></trkpt><trkpt lat="43.4355333" lon="11.591605"><ele>446.0</ele><time>2026-04-11T09:27:20.702Z</time></trkpt><trkpt lat="43.4354567" lon="11.5916917"><ele>443.6</ele><time>2026-04-11T09:27:21.702Z</time></trkpt><trkpt lat="43.4353833" lon="11.59178"><ele>441.20000000000005</ele><time>2026-04-11T09:27:22.702Z</time></trkpt><trkpt lat="43.43531" lon="11.5918767"><ele>438.79999999999995</ele><time>2026-04-11T09:27:23.703Z</time></trkpt><trkpt lat="43.4352383" lon="11.591985"><ele>436.4</ele><time>2026-04-11T09:27:24.704Z</time></trkpt><trkpt lat="43.4351667" lon="11.5921083"><ele>434.0</ele><time>2026-04-11T09:27:25.702Z</time></trkpt><trkpt lat="43.43509" lon="11.59225"><ele>434.0</ele><time>2026-04-11T09:27:26.703Z</time></trkpt><trkpt lat="43.4350117" lon="11.5924"><ele>434.0</ele><time>2026-04-11T09:27:27.702Z</time></trkpt><trkpt lat="43.4349383" lon="11.5925567"><ele>434.0</ele><time>2026-04-11T09:27:28.701Z</time></trkpt><trkpt lat="43.4348583" lon="11.592725"><ele>434.0</ele><time>2026-04-11T09:27:29.702Z</time></trkpt><trkpt lat="43.43477" lon="11.5929067"><ele>432.0</ele><time>2026-04-11T09:27:30.703Z</time></trkpt><trkpt lat="43.4346733" lon="11.5930917"><ele>430.0</ele><time>2026-04-11T09:27:31.703Z</time></trkpt><trkpt lat="43.4345833" lon="11.5932683"><ele>428.0</ele><time>2026-04-11T09:27:32.708Z</time></trkpt><trkpt lat="43.4344967" lon="11.5934383"><ele>427.25</ele><time>2026-04-11T09:27:33.701Z</time></trkpt><trkpt lat="43.4344117" lon="11.593605"><ele>426.5</ele><time>2026-04-11T09:27:34.703Z</time></trkpt><trkpt lat="43.4343233" lon="11.5937633"><ele>425.75</ele><time>2026-04-11T09:27:35.703Z</time></trkpt><trkpt lat="43.4342317" lon="11.5939067"><ele>425.0</ele><time>2026-04-11T09:27:36.702Z</time></trkpt><trkpt lat="43.434135" lon="11.5940383"><ele>425.8</ele><time>2026-04-11T09:27:37.704Z</time></trkpt><trkpt lat="43.4340433" lon="11.5941533"><ele>426.6</ele><time>2026-04-11T09:27:38.702Z</time></trkpt><trkpt lat="43.43396" lon="11.5942533"><ele>427.4</ele><time>2026-04-11T09:27:39.702Z</time></trkpt><trkpt lat="43.4338767" lon="11.594345"><ele>428.2</ele><time>2026-04-11T09:27:40.701Z</time></trkpt><trkpt lat="43.4337917" lon="11.5944317"><ele>429.0</ele><time>2026-04-11T09:27:41.702Z</time></trkpt><trkpt lat="43.4337017" lon="11.5945183"><ele>429.6</ele><time>2026-04-11T09:27:42.704Z</time></trkpt><trkpt lat="43.43361" lon="11.594605"><ele>430.2</ele><time>2026-04-11T09:27:43.702Z</time></trkpt><trkpt lat="43.4335233" lon="11.5946783"><ele>430.80000000000007</ele><time>2026-04-11T09:27:44.705Z</time></trkpt><trkpt lat="43.4334417" lon="11.5947483"><ele>431.40000000000003</ele><time>2026-04-11T09:27:45.702Z</time></trkpt><trkpt lat="43.4333683" lon="11.5948267"><ele>432.0</ele><time>2026-04-11T09:27:46.702Z</time></trkpt><trkpt lat="43.4333083" lon="11.5949167"><ele>432.0</ele><time>2026-04-11T09:27:47.701Z</time></trkpt><trkpt lat="43.4332767" lon="11.5950033"><ele>432.0</ele><time>2026-04-11T09:27:48.702Z</time></trkpt><trkpt lat="43.4332483" lon="11.59509"><ele>432.0</ele><time>2026-04-11T09:27:49.702Z</time></trkpt><trkpt lat="43.4332117" lon="11.59518"><ele>432.0</ele><time>2026-04-11T09:27:50.702Z</time></trkpt><trkpt lat="43.433155" lon="11.5952867"><ele>432.0</ele><time>2026-04-11T09:27:51.7Z</time></trkpt><trkpt lat="43.4330917" lon="11.595415"><ele>432.0</ele><time>2026-04-11T09:27:52.701Z</time></trkpt><trkpt lat="43.4330317" lon="11.595545"><ele>431.6</ele><time>2026-04-11T09:27:53.705Z</time></trkpt><trkpt lat="43.4329767" lon="11.5956583"><ele>431.20000000000005</ele><time>2026-04-11T09:27:54.703Z</time></trkpt><trkpt lat="43.4329217" lon="11.5957617"><ele>430.8</ele><time>2026-04-11T09:27:55.704Z</time></trkpt><trkpt lat="43.4328533" lon="11.5958617"><ele>430.4</ele><time>2026-04-11T09:27:56.702Z</time></trkpt><trkpt lat="43.432775" lon="11.5959617"><ele>430.0</ele><time>2026-04-11T09:27:57.702Z</time></trkpt><trkpt lat="43.4327017" lon="11.5960567"><ele>430.0</ele><time>2026-04-11T09:27:58.701Z</time></trkpt><trkpt lat="43.4326333" lon="11.59614"><ele>430.0</ele><time>2026-04-11T09:27:59.702Z</time></trkpt><trkpt lat="43.4325733" lon="11.5962083"><ele>430.0</ele><time>2026-04-11T09:28:00.702Z</time></trkpt><trkpt lat="43.432515" lon="11.5962617"><ele>430.0</ele><time>2026-04-11T09:28:01.702Z</time></trkpt><trkpt lat="43.4324517" lon="11.5962967"><ele>430.0</ele><time>2026-04-11T09:28:02.703Z</time></trkpt><trkpt lat="43.432385" lon="11.5963217"><ele>430.0</ele><time>2026-04-11T09:28:03.702Z</time></trkpt><trkpt lat="43.4323233" lon="11.59634"><ele>430.0</ele><time>2026-04-11T09:28:04.701Z</time></trkpt><trkpt lat="43.4322217" lon="11.59641"><ele>428.50000000000006</ele><time>2026-04-11T09:28:06.701Z</time></trkpt><trkpt lat="43.4321167" lon="11.5964533"><ele>427.0</ele><time>2026-04-11T09:28:08.703Z</time></trkpt><trkpt lat="43.4320433" lon="11.59646"><ele>425.5</ele><time>2026-04-11T09:28:09.702Z</time></trkpt><trkpt lat="43.4319583" lon="11.5964783"><ele>424.0</ele><time>2026-04-11T09:28:10.701Z</time></trkpt><trkpt lat="43.43187" lon="11.5965067"><ele>422.50000000000006</ele><time>2026-04-11T09:28:11.703Z</time></trkpt><trkpt lat="43.4317867" lon="11.5965317"><ele>421.0</ele><time>2026-04-11T09:28:12.703Z</time></trkpt><trkpt lat="43.43172" lon="11.5965667"><ele>421.00000000000006</ele><time>2026-04-11T09:28:13.702Z</time></trkpt><trkpt lat="43.431665" lon="11.5966183"><ele>421.0</ele><time>2026-04-11T09:28:14.703Z</time></trkpt><trkpt lat="43.4316283" lon="11.5966917"><ele>421.0</ele><time>2026-04-11T09:28:15.701Z</time></trkpt><trkpt lat="43.431525" lon="11.5967817"><ele>421.0</ele><time>2026-04-11T09:28:17.702Z</time></trkpt><trkpt lat="43.43146" lon="11.596795"><ele>421.00000000000006</ele><time>2026-04-11T09:28:18.702Z</time></trkpt><trkpt lat="43.43136" lon="11.59686"><ele>421.0</ele><time>2026-04-11T09:28:20.702Z</time></trkpt><trkpt lat="43.4312867" lon="11.5968783"><ele>418.6</ele><time>2026-04-11T09:28:22.702Z</time></trkpt><trkpt lat="43.4311917" lon="11.5968517"><ele>416.20000000000005</ele><time>2026-04-11T09:28:24.703Z</time></trkpt><trkpt lat="43.431095" lon="11.5969367"><ele>413.79999999999995</ele><time>2026-04-11T09:28:26.703Z</time></trkpt><trkpt lat="43.43101" lon="11.59705"><ele>411.4</ele><time>2026-04-11T09:28:28.702Z</time></trkpt><trkpt lat="43.4309117" lon="11.5971"><ele>409.0</ele><time>2026-04-11T09:28:30.703Z</time></trkpt><trkpt lat="43.4307983" lon="11.597075"><ele>409.00000000000006</ele><time>2026-04-11T09:28:32.703Z</time></trkpt><trkpt lat="43.4307417" lon="11.597035"><ele>409.0</ele><time>2026-04-11T09:28:33.703Z</time></trkpt><trkpt lat="43.4306233" lon="11.596965"><ele>409.0</ele><time>2026-04-11T09:28:35.702Z</time></trkpt><trkpt lat="43.4305517" lon="11.5969383"><ele>409.0</ele><time>2026-04-11T09:28:36.703Z</time></trkpt><trkpt lat="43.43047" lon="11.5969183"><ele>409.00000000000006</ele><time>2026-04-11T09:28:37.702Z</time></trkpt><trkpt lat="43.4303917" lon="11.5968967"><ele>409.0</ele><time>2026-04-11T09:28:38.704Z</time></trkpt><trkpt lat="43.4303217" lon="11.59688"><ele>406.83333333333337</ele><time>2026-04-11T09:28:39.703Z</time></trkpt><trkpt lat="43.4302567" lon="11.5968783"><ele>404.6666666666667</ele><time>2026-04-11T09:28:40.703Z</time></trkpt><trkpt lat="43.4301533" lon="11.5969133"><ele>402.5</ele><time>2026-04-11T09:28:42.704Z</time></trkpt><trkpt lat="43.43005" lon="11.596985"><ele>400.33333333333337</ele><time>2026-04-11T09:28:44.704Z</time></trkpt><trkpt lat="43.4299817" lon="11.596995"><ele>398.1666666666667</ele><time>2026-04-11T09:28:45.704Z</time></trkpt><trkpt lat="43.4298983" lon="11.59699"><ele>396.0</ele><time>2026-04-11T09:28:46.702Z</time></trkpt><trkpt lat="43.429815" lon="11.5969867"><ele>396.0</ele><time>2026-04-11T09:28:47.702Z</time></trkpt><trkpt lat="43.4297433" lon="11.5970017"><ele>396.0</ele><time>2026-04-11T09:28:48.701Z</time></trkpt><trkpt lat="43.4296833" lon="11.5970317"><ele>396.0</ele><time>2026-04-11T09:28:49.701Z</time></trkpt><trkpt lat="43.4296233" lon="11.5970583"><ele>396.0</ele><time>2026-04-11T09:28:50.701Z</time></trkpt><trkpt lat="43.4295567" lon="11.59707"><ele>396.0</ele><time>2026-04-11T09:28:51.701Z</time></trkpt><trkpt lat="43.42948" lon="11.5970567"><ele>396.0</ele><time>2026-04-11T09:28:52.702Z</time></trkpt><trkpt lat="43.4294017" lon="11.5970233"><ele>396.0</ele><time>2026-04-11T09:28:53.701Z</time></trkpt><trkpt lat="43.4293283" lon="11.596985"><ele>394.8</ele><time>2026-04-11T09:28:54.702Z</time></trkpt><trkpt lat="43.4292617" lon="11.5969483"><ele>393.6</ele><time>2026-04-11T09:28:55.701Z</time></trkpt><trkpt lat="43.4291583" lon="11.5968767"><ele>392.4</ele><time>2026-04-11T09:28:57.704Z</time></trkpt><trkpt lat="43.4290783" lon="11.5967933"><ele>391.2</ele><time>2026-04-11T09:28:59.7Z</time></trkpt><trkpt lat="43.4290017" lon="11.596675"><ele>390.0</ele><time>2026-04-11T09:29:01.701Z</time></trkpt><trkpt lat="43.4289117" lon="11.5965633"><ele>390.0</ele><time>2026-04-11T09:29:03.703Z</time></trkpt><trkpt lat="43.42886" lon="11.596505"><ele>390.0</ele><time>2026-04-11T09:29:04.7Z</time></trkpt><trkpt lat="43.4288083" lon="11.596445"><ele>390.0</ele><time>2026-04-11T09:29:05.702Z</time></trkpt><trkpt lat="43.428755" lon="11.5963817"><ele>390.0</ele><time>2026-04-11T09:29:06.702Z</time></trkpt><trkpt lat="43.428705" lon="11.5963167"><ele>390.0</ele><time>2026-04-11T09:29:07.701Z</time></trkpt><trkpt lat="43.4286283" lon="11.59621"><ele>390.0</ele><time>2026-04-11T09:29:09.702Z</time></trkpt><trkpt lat="43.4285533" lon="11.5960933"><ele>387.3333333333333</ele><time>2026-04-11T09:29:11.701Z</time></trkpt><trkpt lat="43.4284833" lon="11.5959817"><ele>384.6666666666667</ele><time>2026-04-11T09:29:13.702Z</time></trkpt><trkpt lat="43.4284317" lon="11.595865"><ele>382.0</ele><time>2026-04-11T09:29:15.701Z</time></trkpt><trkpt lat="43.428415" lon="11.5957683"><ele>379.33333333333337</ele><time>2026-04-11T09:29:17.701Z</time></trkpt><trkpt lat="43.4284" lon="11.5956483"><ele>376.6666666666667</ele><time>2026-04-11T09:29:20.701Z</time></trkpt><trkpt lat="43.4283733" lon="11.5955533"><ele>374.0</ele><time>2026-04-11T09:29:22.702Z</time></trkpt><trkpt lat="43.4282983" lon="11.59545"><ele>374.0</ele><time>2026-04-11T09:29:24.702Z</time></trkpt><trkpt lat="43.4282417" lon="11.59538"><ele>374.0</ele><time>2026-04-11T09:29:26.707Z</time></trkpt><trkpt lat="43.4281883" lon="11.5953017"><ele>374.0</ele><time>2026-04-11T09:29:28.703Z</time></trkpt><trkpt lat="43.4281433" lon="11.5952283"><ele>374.0</ele><time>2026-04-11T09:29:30.703Z</time></trkpt><trkpt lat="43.4281133" lon="11.5951283"><ele>374.0</ele><time>2026-04-11T09:29:33.706Z</time></trkpt><trkpt lat="43.4280933" lon="11.5950067"><ele>374.0</ele><time>2026-04-11T09:29:36.702Z</time></trkpt><trkpt lat="43.4280417" lon="11.5949233"><ele>369.4</ele><time>2026-04-11T09:29:38.702Z</time></trkpt><trkpt lat="43.427945" lon="11.5948567"><ele>364.79999999999995</ele><time>2026-04-11T09:29:40.7Z</time></trkpt><trkpt lat="43.4278317" lon="11.59488"><ele>360.20000000000005</ele><time>2026-04-11T09:29:42.703Z</time></trkpt><trkpt lat="43.4277533" lon="11.5949183"><ele>355.6</ele><time>2026-04-11T09:29:44.701Z</time></trkpt><trkpt lat="43.4276817" lon="11.5949567"><ele>351.0</ele><time>2026-04-11T09:29:47.702Z</time></trkpt><trkpt lat="43.4275867" lon="11.5949883"><ele>351.0</ele><time>2026-04-11T09:29:50.701Z</time></trkpt><trkpt lat="43.427525" lon="11.59502"><ele>351.0</ele><time>2026-04-11T09:29:51.7Z</time></trkpt><trkpt lat="43.4274567" lon="11.5950683"><ele>351.0</ele><time>2026-04-11T09:29:52.7Z</time></trkpt><trkpt lat="43.4274" lon="11.5951133"><ele>351.0</ele><time>2026-04-11T09:29:53.702Z</time></trkpt><trkpt lat="43.4272933" lon="11.5951933"><ele>351.0</ele><time>2026-04-11T09:29:55.704Z</time></trkpt><trkpt lat="43.4272317" lon="11.5952283"><ele>351.0</ele><time>2026-04-11T09:29:56.705Z</time></trkpt><trkpt lat="43.4271533" lon="11.5952567"><ele>350.5</ele><time>2026-04-11T09:29:57.702Z</time></trkpt><trkpt lat="43.4270683" lon="11.595285"><ele>350.0</ele><time>2026-04-11T09:29:58.702Z</time></trkpt><trkpt lat="43.4269933" lon="11.595315"><ele>349.5</ele><time>2026-04-11T09:29:59.703Z</time></trkpt><trkpt lat="43.42693" lon="11.5953433"><ele>349.0</ele><time>2026-04-11T09:30:00.706Z</time></trkpt><trkpt lat="43.4268217" lon="11.595395"><ele>348.5</ele><time>2026-04-11T09:30:02.701Z</time></trkpt><trkpt lat="43.4267333" lon="11.5954117"><ele>348.0</ele><time>2026-04-11T09:30:04.7Z</time></trkpt><trkpt lat="43.4266717" lon="11.595355"><ele>346.7142857142857</ele><time>2026-04-11T09:30:07.701Z</time></trkpt><trkpt lat="43.4266233" lon="11.59528"><ele>345.42857142857144</ele><time>2026-04-11T09:30:10.701Z</time></trkpt><trkpt lat="43.42657" lon="11.5952167"><ele>344.1428571428571</ele><time>2026-04-11T09:30:12.702Z</time></trkpt><trkpt lat="43.4265167" lon="11.5951533"><ele>342.8571428571429</ele><time>2026-04-11T09:30:15.701Z</time></trkpt><trkpt lat="43.4264783" lon="11.5950733"><ele>341.5714285714286</ele><time>2026-04-11T09:30:18.7Z</time></trkpt><trkpt lat="43.4264283" lon="11.594995"><ele>340.2857142857143</ele><time>2026-04-11T09:30:20.702Z</time></trkpt><trkpt lat="43.42638" lon="11.5949067"><ele>339.0</ele><time>2026-04-11T09:30:23.7Z</time></trkpt><trkpt lat="43.426335" lon="11.5948183"><ele>336.0</ele><time>2026-04-11T09:30:26.704Z</time></trkpt><trkpt lat="43.426295" lon="11.59473"><ele>333.0</ele><time>2026-04-11T09:30:28.704Z</time></trkpt><trkpt lat="43.4262333" lon="11.5946233"><ele>330.0</ele><time>2026-04-11T09:30:30.703Z</time></trkpt><trkpt lat="43.4261617" lon="11.5945133"><ele>327.0</ele><time>2026-04-11T09:30:32.703Z</time></trkpt><trkpt lat="43.4260733" lon="11.5944233"><ele>324.0</ele><time>2026-04-11T09:30:34.701Z</time></trkpt><trkpt lat="43.4260017" lon="11.5943767"><ele>322.6666666666667</ele><time>2026-04-11T09:30:36.702Z</time></trkpt><trkpt lat="43.42593" lon="11.5943533"><ele>321.3333333333333</ele><time>2026-04-11T09:30:39.702Z</time></trkpt><trkpt lat="43.425885" lon="11.5942617"><ele>320.0</ele><time>2026-04-11T09:30:42.701Z</time></trkpt><trkpt lat="43.425865" lon="11.59417"><ele>318.66666666666663</ele><time>2026-04-11T09:30:44.701Z</time></trkpt><trkpt lat="43.425825" lon="11.594075"><ele>317.3333333333333</ele><time>2026-04-11T09:30:46.7Z</time></trkpt><trkpt lat="43.4257583" lon="11.5940083"><ele>316.0</ele><time>2026-04-11T09:30:48.702Z</time></trkpt><trkpt lat="43.4256917" lon="11.5939633"><ele>316.0</ele><time>2026-04-11T09:30:52.7Z</time></trkpt><trkpt lat="43.4257283" lon="11.5938617"><ele>316.0</ele><time>2026-04-11T09:30:55.7Z</time></trkpt><trkpt lat="43.4257917" lon="11.593815"><ele>316.0</ele><time>2026-04-11T09:30:56.702Z</time></trkpt><trkpt lat="43.425875" lon="11.5937633"><ele>316.0</ele><time>2026-04-11T09:30:57.702Z</time></trkpt><trkpt lat="43.4259767" lon="11.5937133"><ele>316.0</ele><time>2026-04-11T09:30:58.697Z</time></trkpt><trkpt lat="43.4261033" lon="11.5936883"><ele>315.75</ele><time>2026-04-11T09:30:59.702Z</time></trkpt><trkpt lat="43.42624" lon="11.59367"><ele>315.5</ele><time>2026-04-11T09:31:00.702Z</time></trkpt><trkpt lat="43.4263783" lon="11.5936467"><ele>315.25</ele><time>2026-04-11T09:31:01.7Z</time></trkpt><trkpt lat="43.4264967" lon="11.5936083"><ele>315.0</ele><time>2026-04-11T09:31:02.701Z</time></trkpt><trkpt lat="43.4265867" lon="11.593545"><ele>315.0</ele><time>2026-04-11T09:31:03.701Z</time></trkpt><trkpt lat="43.4266433" lon="11.5934783"><ele>315.0</ele><time>2026-04-11T09:31:04.7Z</time></trkpt><trkpt lat="43.4266867" lon="11.5934067"><ele>315.0</ele><time>2026-04-11T09:31:05.702Z</time></trkpt><trkpt lat="43.4267267" lon="11.5933167"><ele>315.0</ele><time>2026-04-11T09:31:07.7Z</time></trkpt><trkpt lat="43.4267633" lon="11.5932067"><ele>315.0</ele><time>2026-04-11T09:33:30.7Z</time></trkpt><trkpt lat="43.426785" lon="11.59306"><ele>315.0</ele><time>2026-04-11T09:33:32.701Z</time></trkpt><trkpt lat="43.4268117" lon="11.5929483"><ele>313.6</ele><time>2026-04-11T09:33:33.7Z</time></trkpt><trkpt lat="43.4268517" lon="11.5928233"><ele>312.2</ele><time>2026-04-11T09:33:34.698Z</time></trkpt><trkpt lat="43.426905" lon="11.5926917"><ele>310.8</ele><time>2026-04-11T09:33:35.699Z</time></trkpt><trkpt lat="43.426965" lon="11.5925633"><ele>309.4</ele><time>2026-04-11T09:33:36.699Z</time></trkpt><trkpt lat="43.4270317" lon="11.5924467"><ele>308.0</ele><time>2026-04-11T09:33:37.699Z</time></trkpt><trkpt lat="43.4270817" lon="11.59233"><ele>308.0</ele><time>2026-04-11T09:33:38.7Z</time></trkpt><trkpt lat="43.4271067" lon="11.5922233"><ele>308.0</ele><time>2026-04-11T09:33:39.7Z</time></trkpt><trkpt lat="43.4271133" lon="11.5921083"><ele>308.0</ele><time>2026-04-11T09:33:40.699Z</time></trkpt><trkpt lat="43.4271317" lon="11.5920083"><ele>308.0</ele><time>2026-04-11T09:33:41.701Z</time></trkpt><trkpt lat="43.427175" lon="11.5919383"><ele>308.0</ele><time>2026-04-11T09:33:42.699Z</time></trkpt><trkpt lat="43.427245" lon="11.5918867"><ele>308.0</ele><time>2026-04-11T09:33:43.7Z</time></trkpt><trkpt lat="43.4273367" lon="11.591835"><ele>309.5</ele><time>2026-04-11T09:33:44.701Z</time></trkpt><trkpt lat="43.4274283" lon="11.5917767"><ele>311.0</ele><time>2026-04-11T09:33:45.701Z</time></trkpt><trkpt lat="43.4275367" lon="11.5917167"><ele>312.5</ele><time>2026-04-11T09:33:46.699Z</time></trkpt><trkpt lat="43.4276483" lon="11.5916533"><ele>314.0</ele><time>2026-04-11T09:33:47.699Z</time></trkpt><trkpt lat="43.4277617" lon="11.5915933"><ele>314.0</ele><time>2026-04-11T09:33:48.7Z</time></trkpt><trkpt lat="43.4278683" lon="11.5915233"><ele>314.0</ele><time>2026-04-11T09:33:49.7Z</time></trkpt><trkpt lat="43.4279717" lon="11.591445"><ele>314.0</ele><time>2026-04-11T09:33:50.701Z</time></trkpt><trkpt lat="43.4280683" lon="11.5913717"><ele>314.0</ele><time>2026-04-11T09:33:51.7Z</time></trkpt><trkpt lat="43.4281683" lon="11.591305"><ele>313.2</ele><time>2026-04-11T09:33:52.699Z</time></trkpt><trkpt lat="43.4282683" lon="11.5912633"><ele>312.4</ele><time>2026-04-11T09:33:53.701Z</time></trkpt><trkpt lat="43.42837" lon="11.591245"><ele>311.6</ele><time>2026-04-11T09:33:54.7Z</time></trkpt><trkpt lat="43.42846" lon="11.5912267"><ele>310.8</ele><time>2026-04-11T09:33:55.7Z</time></trkpt><trkpt lat="43.4285383" lon="11.5911867"><ele>310.0</ele><time>2026-04-11T09:33:56.7Z</time></trkpt><trkpt lat="43.4286033" lon="11.5911233"><ele>310.0</ele><time>2026-04-11T09:33:57.701Z</time></trkpt><trkpt lat="43.4286417" lon="11.5910367"><ele>310.0</ele><time>2026-04-11T09:33:58.7Z</time></trkpt><trkpt lat="43.42866" lon="11.5909167"><ele>310.0</ele><time>2026-04-11T09:33:59.7Z</time></trkpt><trkpt lat="43.428665" lon="11.5907617"><ele>310.0</ele><time>2026-04-11T09:34:00.699Z</time></trkpt><trkpt lat="43.4286617" lon="11.5905733"><ele>310.0</ele><time>2026-04-11T09:34:01.699Z</time></trkpt><trkpt lat="43.4286633" lon="11.59037"><ele>309.0</ele><time>2026-04-11T09:34:02.7Z</time></trkpt><trkpt lat="43.4286717" lon="11.590175"><ele>308.0</ele><time>2026-04-11T09:34:03.699Z</time></trkpt><trkpt lat="43.4286783" lon="11.5900017"><ele>307.0</ele><time>2026-04-11T09:34:04.701Z</time></trkpt><trkpt lat="43.4286783" lon="11.5898417"><ele>306.0</ele><time>2026-04-11T09:34:05.7Z</time></trkpt><trkpt lat="43.4286667" lon="11.5897183"><ele>306.0</ele><time>2026-04-11T09:34:06.7Z</time></trkpt><trkpt lat="43.42865" lon="11.58963"><ele>306.0</ele><time>2026-04-11T09:34:07.699Z</time></trkpt><trkpt lat="43.4286267" lon="11.5895433"><ele>306.0</ele><time>2026-04-11T09:34:09.7Z</time></trkpt><trkpt lat="43.428605" lon="11.5894467"><ele>306.0</ele><time>2026-04-11T09:34:12.701Z</time></trkpt><trkpt lat="43.428625" lon="11.5892883"><ele>306.0</ele><time>2026-04-11T09:34:14.701Z</time></trkpt><trkpt lat="43.4286567" lon="11.5892033"><ele>306.0</ele><time>2026-04-11T09:34:15.699Z</time></trkpt><trkpt lat="43.4286933" lon="11.5891133"><ele>306.3333333333333</ele><time>2026-04-11T09:34:16.699Z</time></trkpt><trkpt lat="43.4287283" lon="11.589005"><ele>306.6666666666667</ele><time>2026-04-11T09:34:17.699Z</time></trkpt><trkpt lat="43.4287583" lon="11.5888917"><ele>307.0</ele><time>2026-04-11T09:34:18.702Z</time></trkpt><trkpt lat="43.4287883" lon="11.5887933"><ele>307.33333333333337</ele><time>2026-04-11T09:34:19.7Z</time></trkpt><trkpt lat="43.428835" lon="11.5887017"><ele>307.6666666666667</ele><time>2026-04-11T09:34:20.7Z</time></trkpt><trkpt lat="43.4288983" lon="11.58861"><ele>308.0</ele><time>2026-04-11T09:34:21.7Z</time></trkpt><trkpt lat="43.4289733" lon="11.5885233"><ele>310.2</ele><time>2026-04-11T09:34:22.699Z</time></trkpt><trkpt lat="43.429055" lon="11.5884467"><ele>312.4</ele><time>2026-04-11T09:34:23.699Z</time></trkpt><trkpt lat="43.4291417" lon="11.5883683"><ele>314.59999999999997</ele><time>2026-04-11T09:34:24.7Z</time></trkpt><trkpt lat="43.4292267" lon="11.5882917"><ele>316.8</ele><time>2026-04-11T09:34:25.7Z</time></trkpt><trkpt lat="43.4292933" lon="11.58822"><ele>319.0</ele><time>2026-04-11T09:34:26.701Z</time></trkpt><trkpt lat="43.4293467" lon="11.5881333"><ele>319.0</ele><time>2026-04-11T09:34:27.702Z</time></trkpt><trkpt lat="43.4293933" lon="11.588035"><ele>319.0</ele><time>2026-04-11T09:34:28.701Z</time></trkpt><trkpt lat="43.4294433" lon="11.587945"><ele>319.0</ele><time>2026-04-11T09:34:29.699Z</time></trkpt><trkpt lat="43.4294933" lon="11.5878517"><ele>319.0</ele><time>2026-04-11T09:34:30.699Z</time></trkpt><trkpt lat="43.4295367" lon="11.587755"><ele>319.0</ele><time>2026-04-11T09:34:31.699Z</time></trkpt><trkpt lat="43.429585" lon="11.587665"><ele>319.0</ele><time>2026-04-11T09:34:32.7Z</time></trkpt><trkpt lat="43.4296417" lon="11.587585"><ele>319.0</ele><time>2026-04-11T09:34:33.701Z</time></trkpt><trkpt lat="43.4297067" lon="11.5875067"><ele>319.0</ele><time>2026-04-11T09:34:34.699Z</time></trkpt><trkpt lat="43.4297633" lon="11.58743"><ele>319.0</ele><time>2026-04-11T09:34:35.699Z</time></trkpt><trkpt lat="43.429815" lon="11.5873583"><ele>319.0</ele><time>2026-04-11T09:34:36.7Z</time></trkpt><trkpt lat="43.4298617" lon="11.58729"><ele>319.0</ele><time>2026-04-11T09:34:37.699Z</time></trkpt><trkpt lat="43.4299033" lon="11.5871633"><ele>319.0</ele><time>2026-04-11T09:34:39.699Z</time></trkpt><trkpt lat="43.42987" lon="11.5870367"><ele>317.8</ele><time>2026-04-11T09:34:41.7Z</time></trkpt><trkpt lat="43.42975" lon="11.5869667"><ele>316.59999999999997</ele><time>2026-04-11T09:34:43.697Z</time></trkpt><trkpt lat="43.429685" lon="11.58694"><ele>315.4</ele><time>2026-04-11T09:34:44.701Z</time></trkpt><trkpt lat="43.4295783" lon="11.58687"><ele>314.2</ele><time>2026-04-11T09:34:46.7Z</time></trkpt><trkpt lat="43.429525" lon="11.5867533"><ele>313.0</ele><time>2026-04-11T09:34:48.701Z</time></trkpt><trkpt lat="43.42952" lon="11.5866667"><ele>313.0</ele><time>2026-04-11T09:34:49.702Z</time></trkpt><trkpt lat="43.429545" lon="11.58657"><ele>313.0</ele><time>2026-04-11T09:34:50.701Z</time></trkpt><trkpt lat="43.429585" lon="11.5864667"><ele>313.0</ele><time>2026-04-11T09:34:51.701Z</time></trkpt><trkpt lat="43.4296283" lon="11.5863617"><ele>313.0</ele><time>2026-04-11T09:34:52.699Z</time></trkpt><trkpt lat="43.42967" lon="11.5862633"><ele>313.0</ele><time>2026-04-11T09:34:53.7Z</time></trkpt><trkpt lat="43.4297017" lon="11.586175"><ele>313.0</ele><time>2026-04-11T09:34:54.7Z</time></trkpt><trkpt lat="43.429735" lon="11.586025"><ele>312.6</ele><time>2026-04-11T09:34:56.701Z</time></trkpt><trkpt lat="43.4297083" lon="11.58588"><ele>312.20000000000005</ele><time>2026-04-11T09:34:58.699Z</time></trkpt><trkpt lat="43.42968" lon="11.585715"><ele>311.8</ele><time>2026-04-11T09:35:00.699Z</time></trkpt><trkpt lat="43.4296783" lon="11.58561"><ele>311.40000000000003</ele><time>2026-04-11T09:35:01.699Z</time></trkpt><trkpt lat="43.4296683" lon="11.5855117"><ele>311.0</ele><time>2026-04-11T09:35:02.7Z</time></trkpt><trkpt lat="43.429625" lon="11.5853633"><ele>312.2</ele><time>2026-04-11T09:35:04.699Z</time></trkpt><trkpt lat="43.4295883" lon="11.5851883"><ele>313.40000000000003</ele><time>2026-04-11T09:35:06.7Z</time></trkpt><trkpt lat="43.4295867" lon="11.5850883"><ele>314.6</ele><time>2026-04-11T09:35:07.699Z</time></trkpt><trkpt lat="43.4296017" lon="11.5849733"><ele>315.8</ele><time>2026-04-11T09:35:08.7Z</time></trkpt><trkpt lat="43.42961" lon="11.58486"><ele>317.0</ele><time>2026-04-11T09:35:09.701Z</time></trkpt><trkpt lat="43.42961" lon="11.584745"><ele>317.0</ele><time>2026-04-11T09:35:10.699Z</time></trkpt><trkpt lat="43.4296117" lon="11.5846167"><ele>317.0</ele><time>2026-04-11T09:35:11.7Z</time></trkpt><trkpt lat="43.4296083" lon="11.5844783"><ele>317.0</ele><time>2026-04-11T09:35:12.7Z</time></trkpt><trkpt lat="43.42961" lon="11.5843433"><ele>317.0</ele><time>2026-04-11T09:35:13.7Z</time></trkpt><trkpt lat="43.429625" lon="11.5842067"><ele>317.0</ele><time>2026-04-11T09:35:14.699Z</time></trkpt><trkpt lat="43.429635" lon="11.5840683"><ele>317.0</ele><time>2026-04-11T09:35:15.701Z</time></trkpt><trkpt lat="43.42965" lon="11.5839283"><ele>317.0</ele><time>2026-04-11T09:35:16.699Z</time></trkpt><trkpt lat="43.42966" lon="11.583785"><ele>317.0</ele><time>2026-04-11T09:35:17.7Z</time></trkpt><trkpt lat="43.4296733" lon="11.58365"><ele>317.0</ele><time>2026-04-11T09:35:18.7Z</time></trkpt><trkpt lat="43.4296933" lon="11.5835217"><ele>317.0</ele><time>2026-04-11T09:35:19.7Z</time></trkpt><trkpt lat="43.4297233" lon="11.5834"><ele>318.6666666666667</ele><time>2026-04-11T09:35:20.701Z</time></trkpt><trkpt lat="43.429755" lon="11.5832983"><ele>320.33333333333337</ele><time>2026-04-11T09:35:21.701Z</time></trkpt><trkpt lat="43.4297867" lon="11.58319"><ele>322.0</ele><time>2026-04-11T09:35:22.702Z</time></trkpt><trkpt lat="43.4298167" lon="11.5830767"><ele>323.6666666666667</ele><time>2026-04-11T09:35:23.702Z</time></trkpt><trkpt lat="43.4298467" lon="11.582965"><ele>325.3333333333333</ele><time>2026-04-11T09:35:24.701Z</time></trkpt><trkpt lat="43.4298767" lon="11.5828717"><ele>327.0</ele><time>2026-04-11T09:35:25.701Z</time></trkpt><trkpt lat="43.4299067" lon="11.5827883"><ele>329.1666666666667</ele><time>2026-04-11T09:35:26.701Z</time></trkpt><trkpt lat="43.4299217" lon="11.5826967"><ele>331.3333333333333</ele><time>2026-04-11T09:35:27.7Z</time></trkpt><trkpt lat="43.4299317" lon="11.5825983"><ele>333.5</ele><time>2026-04-11T09:35:28.701Z</time></trkpt><trkpt lat="43.4299517" lon="11.582495"><ele>335.66666666666663</ele><time>2026-04-11T09:35:29.699Z</time></trkpt><trkpt lat="43.4299617" lon="11.5823967"><ele>337.8333333333333</ele><time>2026-04-11T09:35:30.701Z</time></trkpt><trkpt lat="43.4299667" lon="11.5823033"><ele>340.0</ele><time>2026-04-11T09:35:31.701Z</time></trkpt><trkpt lat="43.4299383" lon="11.5821383"><ele>340.0</ele><time>2026-04-11T09:35:33.702Z</time></trkpt><trkpt lat="43.4299317" lon="11.582045"><ele>340.0</ele><time>2026-04-11T09:35:34.701Z</time></trkpt><trkpt lat="43.429925" lon="11.581955"><ele>340.0</ele><time>2026-04-11T09:35:35.699Z</time></trkpt><trkpt lat="43.4299067" lon="11.5818167"><ele>340.0</ele><time>2026-04-11T09:35:37.698Z</time></trkpt><trkpt lat="43.4298267" lon="11.5817783"><ele>340.0</ele><time>2026-04-11T09:35:40.701Z</time></trkpt><trkpt lat="43.4297117" lon="11.581765"><ele>340.0</ele><time>2026-04-11T09:35:42.7Z</time></trkpt><trkpt lat="43.42965" lon="11.58171"><ele>342.0</ele><time>2026-04-11T09:35:43.7Z</time></trkpt><trkpt lat="43.4295917" lon="11.5816367"><ele>344.0</ele><time>2026-04-11T09:35:44.701Z</time></trkpt><trkpt lat="43.4295283" lon="11.5815717"><ele>346.0</ele><time>2026-04-11T09:35:45.7Z</time></trkpt><trkpt lat="43.42947" lon="11.5814933"><ele>348.0</ele><time>2026-04-11T09:35:46.7Z</time></trkpt><trkpt lat="43.42941" lon="11.5814083"><ele>350.0</ele><time>2026-04-11T09:35:47.7Z</time></trkpt><trkpt lat="43.4293483" lon="11.5813267"><ele>352.0</ele><time>2026-04-11T09:35:48.7Z</time></trkpt><trkpt lat="43.4292833" lon="11.5812483"><ele>353.5</ele><time>2026-04-11T09:35:49.701Z</time></trkpt><trkpt lat="43.4292067" lon="11.5811717"><ele>355.0</ele><time>2026-04-11T09:35:50.701Z</time></trkpt><trkpt lat="43.429135" lon="11.5811"><ele>356.5</ele><time>2026-04-11T09:35:51.701Z</time></trkpt><trkpt lat="43.4290683" lon="11.5810317"><ele>358.0</ele><time>2026-04-11T09:35:52.7Z</time></trkpt><trkpt lat="43.429" lon="11.5809683"><ele>359.5</ele><time>2026-04-11T09:35:53.699Z</time></trkpt><trkpt lat="43.4289367" lon="11.5809133"><ele>361.0</ele><time>2026-04-11T09:35:54.701Z</time></trkpt><trkpt lat="43.4288467" lon="11.5808333"><ele>362.0</ele><time>2026-04-11T09:35:56.7Z</time></trkpt><trkpt lat="43.42877" lon="11.5808633"><ele>363.0</ele><time>2026-04-11T09:35:58.7Z</time></trkpt><trkpt lat="43.4287" lon="11.5810133"><ele>364.0</ele><time>2026-04-11T09:36:00.7Z</time></trkpt><trkpt lat="43.4286783" lon="11.5811083"><ele>365.0</ele><time>2026-04-11T09:36:01.699Z</time></trkpt><trkpt lat="43.4286567" lon="11.5812217"><ele>366.0</ele><time>2026-04-11T09:36:02.7Z</time></trkpt><trkpt lat="43.4286383" lon="11.58133"><ele>367.0</ele><time>2026-04-11T09:36:03.7Z</time></trkpt><trkpt lat="43.428615" lon="11.5814283"><ele>367.0</ele><time>2026-04-11T09:36:04.699Z</time></trkpt><trkpt lat="43.42859" lon="11.5815217"><ele>367.0</ele><time>2026-04-11T09:36:05.701Z</time></trkpt><trkpt lat="43.4285667" lon="11.5816033"><ele>367.0</ele><time>2026-04-11T09:36:06.701Z</time></trkpt><trkpt lat="43.428545" lon="11.58169"><ele>367.0</ele><time>2026-04-11T09:36:07.7Z</time></trkpt><trkpt lat="43.4285217" lon="11.5817883"><ele>367.0</ele><time>2026-04-11T09:36:08.7Z</time></trkpt><trkpt lat="43.4284867" lon="11.5818983"><ele>367.0</ele><time>2026-04-11T09:36:09.7Z</time></trkpt><trkpt lat="43.4284533" lon="11.582"><ele>367.0</ele><time>2026-04-11T09:36:10.699Z</time></trkpt><trkpt lat="43.4284183" lon="11.58209"><ele>365.0</ele><time>2026-04-11T09:36:11.7Z</time></trkpt><trkpt lat="43.4283767" lon="11.582165"><ele>363.0</ele><time>2026-04-11T09:36:12.702Z</time></trkpt><trkpt lat="43.42828" lon="11.58224"><ele>361.0</ele><time>2026-04-11T09:36:14.7Z</time></trkpt><trkpt lat="43.4281783" lon="11.5821433"><ele>359.0</ele><time>2026-04-11T09:36:16.699Z</time></trkpt><trkpt lat="43.4280983" lon="11.5820317"><ele>357.0</ele><time>2026-04-11T09:36:18.701Z</time></trkpt><trkpt lat="43.4279767" lon="11.5820467"><ele>358.5</ele><time>2026-04-11T09:36:20.701Z</time></trkpt><trkpt lat="43.4279" lon="11.5820617"><ele>360.0</ele><time>2026-04-11T09:36:21.7Z</time></trkpt><trkpt lat="43.4278183" lon="11.5820633"><ele>361.5</ele><time>2026-04-11T09:36:22.699Z</time></trkpt><trkpt lat="43.427735" lon="11.5820567"><ele>363.0</ele><time>2026-04-11T09:36:23.699Z</time></trkpt><trkpt lat="43.4276617" lon="11.5820483"><ele>364.5</ele><time>2026-04-11T09:36:24.702Z</time></trkpt><trkpt lat="43.4275917" lon="11.582045"><ele>366.0</ele><time>2026-04-11T09:36:25.7Z</time></trkpt><trkpt lat="43.4275167" lon="11.5820533"><ele>366.0</ele><time>2026-04-11T09:36:26.701Z</time></trkpt><trkpt lat="43.427435" lon="11.5820567"><ele>366.0</ele><time>2026-04-11T09:36:27.699Z</time></trkpt><trkpt lat="43.4273533" lon="11.5820583"><ele>366.0</ele><time>2026-04-11T09:36:28.7Z</time></trkpt><trkpt lat="43.4272783" lon="11.582075"><ele>366.0</ele><time>2026-04-11T09:36:29.699Z</time></trkpt><trkpt lat="43.4272017" lon="11.5821083"><ele>366.0</ele><time>2026-04-11T09:36:30.699Z</time></trkpt><trkpt lat="43.42713" lon="11.58213"><ele>366.0</ele><time>2026-04-11T09:36:31.7Z</time></trkpt><trkpt lat="43.4270533" lon="11.5821383"><ele>367.0</ele><time>2026-04-11T09:36:32.703Z</time></trkpt><trkpt lat="43.4269783" lon="11.5821333"><ele>368.0</ele><time>2026-04-11T09:36:33.7Z</time></trkpt><trkpt lat="43.4269017" lon="11.582105"><ele>369.0</ele><time>2026-04-11T09:36:34.7Z</time></trkpt><trkpt lat="43.4268283" lon="11.5820733"><ele>370.0</ele><time>2026-04-11T09:36:35.699Z</time></trkpt><trkpt lat="43.4267583" lon="11.5820583"><ele>371.0</ele><time>2026-04-11T09:36:36.702Z</time></trkpt><trkpt lat="43.4266733" lon="11.58215"><ele>372.0</ele><time>2026-04-11T09:36:38.705Z</time></trkpt><trkpt lat="43.4266467" lon="11.5822367"><ele>372.0</ele><time>2026-04-11T09:36:39.701Z</time></trkpt><trkpt lat="43.4266067" lon="11.5823117"><ele>372.0</ele><time>2026-04-11T09:36:40.701Z</time></trkpt><trkpt lat="43.4265517" lon="11.5823717"><ele>372.0</ele><time>2026-04-11T09:36:41.7Z</time></trkpt><trkpt lat="43.4264733" lon="11.5824"><ele>372.0</ele><time>2026-04-11T09:36:42.701Z</time></trkpt><trkpt lat="43.42638" lon="11.5824017"><ele>372.0</ele><time>2026-04-11T09:36:43.699Z</time></trkpt><trkpt lat="43.4262833" lon="11.5823833"><ele>372.0</ele><time>2026-04-11T09:36:44.701Z</time></trkpt><trkpt lat="43.4261983" lon="11.5823567"><ele>371.5</ele><time>2026-04-11T09:36:45.7Z</time></trkpt><trkpt lat="43.42613" lon="11.58232"><ele>371.0</ele><time>2026-04-11T09:36:46.699Z</time></trkpt><trkpt lat="43.4260667" lon="11.58227"><ele>370.5</ele><time>2026-04-11T09:36:47.697Z</time></trkpt><trkpt lat="43.4259933" lon="11.5822083"><ele>370.0</ele><time>2026-04-11T09:36:48.695Z</time></trkpt><trkpt lat="43.4259233" lon="11.582145"><ele>369.5</ele><time>2026-04-11T09:36:49.7Z</time></trkpt><trkpt lat="43.4258567" lon="11.5820883"><ele>369.0</ele><time>2026-04-11T09:36:50.701Z</time></trkpt><trkpt lat="43.42579" lon="11.5820467"><ele>369.0</ele><time>2026-04-11T09:36:51.7Z</time></trkpt><trkpt lat="43.4257133" lon="11.5820267"><ele>369.0</ele><time>2026-04-11T09:36:52.7Z</time></trkpt><trkpt lat="43.4256267" lon="11.5820217"><ele>369.0</ele><time>2026-04-11T09:36:53.696Z</time></trkpt><trkpt lat="43.4255383" lon="11.5820317"><ele>369.0</ele><time>2026-04-11T09:36:54.699Z</time></trkpt><trkpt lat="43.42545" lon="11.5820617"><ele>369.0</ele><time>2026-04-11T09:36:55.699Z</time></trkpt><trkpt lat="43.4253717" lon="11.5820917"><ele>369.0</ele><time>2026-04-11T09:36:56.701Z</time></trkpt><trkpt lat="43.4253033" lon="11.5821267"><ele>371.1666666666667</ele><time>2026-04-11T09:36:57.7Z</time></trkpt><trkpt lat="43.4252467" lon="11.582175"><ele>373.3333333333333</ele><time>2026-04-11T09:36:58.699Z</time></trkpt><trkpt lat="43.4252017" lon="11.5822467"><ele>375.5</ele><time>2026-04-11T09:36:59.7Z</time></trkpt><trkpt lat="43.425155" lon="11.582335"><ele>377.66666666666663</ele><time>2026-04-11T09:37:00.701Z</time></trkpt><trkpt lat="43.42511" lon="11.5824367"><ele>379.8333333333333</ele><time>2026-04-11T09:37:01.699Z</time></trkpt><trkpt lat="43.4250517" lon="11.5825517"><ele>382.0</ele><time>2026-04-11T09:37:02.701Z</time></trkpt><trkpt lat="43.42499" lon="11.5826867"><ele>382.0</ele><time>2026-04-11T09:37:03.7Z</time></trkpt><trkpt lat="43.4249267" lon="11.582835"><ele>382.0</ele><time>2026-04-11T09:37:04.7Z</time></trkpt><trkpt lat="43.42486" lon="11.582975"><ele>382.0</ele><time>2026-04-11T09:37:05.699Z</time></trkpt><trkpt lat="43.4248" lon="11.58309"><ele>382.0</ele><time>2026-04-11T09:37:06.701Z</time></trkpt><trkpt lat="43.4247417" lon="11.583185"><ele>382.0</ele><time>2026-04-11T09:37:07.699Z</time></trkpt><trkpt lat="43.4246783" lon="11.5832667"><ele>381.8</ele><time>2026-04-11T09:37:08.701Z</time></trkpt><trkpt lat="43.4246" lon="11.58334"><ele>381.6</ele><time>2026-04-11T09:37:09.7Z</time></trkpt><trkpt lat="43.4245067" lon="11.5834117"><ele>381.40000000000003</ele><time>2026-04-11T09:37:10.699Z</time></trkpt><trkpt lat="43.4244217" lon="11.5834767"><ele>381.20000000000005</ele><time>2026-04-11T09:37:11.7Z</time></trkpt><trkpt lat="43.4243467" lon="11.5835283"><ele>381.0</ele><time>2026-04-11T09:37:12.699Z</time></trkpt><trkpt lat="43.4242517" lon="11.5835567"><ele>381.0</ele><time>2026-04-11T09:37:13.698Z</time></trkpt><trkpt lat="43.42415" lon="11.5835517"><ele>381.0</ele><time>2026-04-11T09:37:14.701Z</time></trkpt><trkpt lat="43.4240417" lon="11.5835233"><ele>381.0</ele><time>2026-04-11T09:37:15.704Z</time></trkpt><trkpt lat="43.4239283" lon="11.5834833"><ele>381.0</ele><time>2026-04-11T09:37:16.699Z</time></trkpt><trkpt lat="43.4238217" lon="11.5834333"><ele>381.0</ele><time>2026-04-11T09:37:17.7Z</time></trkpt><trkpt lat="43.423725" lon="11.5833833"><ele>381.3333333333333</ele><time>2026-04-11T09:37:18.702Z</time></trkpt><trkpt lat="43.423645" lon="11.5833333"><ele>381.6666666666667</ele><time>2026-04-11T09:37:19.7Z</time></trkpt><trkpt lat="43.4235683" lon="11.5833067"><ele>382.0</ele><time>2026-04-11T09:37:20.702Z</time></trkpt><trkpt lat="43.4234967" lon="11.583315"><ele>382.33333333333337</ele><time>2026-04-11T09:37:21.701Z</time></trkpt><trkpt lat="43.4234233" lon="11.583355"><ele>382.6666666666667</ele><time>2026-04-11T09:37:22.701Z</time></trkpt><trkpt lat="43.4233317" lon="11.5834167"><ele>383.0</ele><time>2026-04-11T09:37:23.701Z</time></trkpt><trkpt lat="43.4232433" lon="11.5834733"><ele>383.0</ele><time>2026-04-11T09:37:24.699Z</time></trkpt><trkpt lat="43.4231567" lon="11.5835283"><ele>383.0</ele><time>2026-04-11T09:37:25.7Z</time></trkpt><trkpt lat="43.423075" lon="11.5835667"><ele>383.0</ele><time>2026-04-11T09:37:26.701Z</time></trkpt><trkpt lat="43.422985" lon="11.5836"><ele>383.0</ele><time>2026-04-11T09:37:27.7Z</time></trkpt><trkpt lat="43.4228883" lon="11.5836117"><ele>383.0</ele><time>2026-04-11T09:37:28.699Z</time></trkpt><trkpt lat="43.4227833" lon="11.58361"><ele>382.83333333333337</ele><time>2026-04-11T09:37:29.698Z</time></trkpt><trkpt lat="43.4226933" lon="11.5836033"><ele>382.6666666666667</ele><time>2026-04-11T09:37:30.699Z</time></trkpt><trkpt lat="43.42261" lon="11.5836117"><ele>382.5</ele><time>2026-04-11T09:37:31.7Z</time></trkpt><trkpt lat="43.4225317" lon="11.58364"><ele>382.3333333333333</ele><time>2026-04-11T09:37:32.702Z</time></trkpt><trkpt lat="43.4224633" lon="11.5836883"><ele>382.16666666666663</ele><time>2026-04-11T09:37:33.699Z</time></trkpt><trkpt lat="43.4224067" lon="11.5837567"><ele>382.0</ele><time>2026-04-11T09:37:34.7Z</time></trkpt><trkpt lat="43.422345" lon="11.583835"><ele>380.5</ele><time>2026-04-11T09:37:35.699Z</time></trkpt><trkpt lat="43.4222817" lon="11.5839083"><ele>379.0</ele><time>2026-04-11T09:37:36.701Z</time></trkpt><trkpt lat="43.42223" lon="11.583965"><ele>377.5</ele><time>2026-04-11T09:37:37.701Z</time></trkpt><trkpt lat="43.4221683" lon="11.5840467"><ele>376.0</ele><time>2026-04-11T09:37:39.7Z</time></trkpt><trkpt lat="43.4221083" lon="11.5839267"><ele>374.5</ele><time>2026-04-11T09:38:16.698Z</time></trkpt><trkpt lat="43.4221083" lon="11.5838033"><ele>373.0</ele><time>2026-04-11T09:38:17.699Z</time></trkpt><trkpt lat="43.42211" lon="11.5836767"><ele>372.16666666666663</ele><time>2026-04-11T09:38:18.699Z</time></trkpt><trkpt lat="43.4221133" lon="11.583565"><ele>371.3333333333333</ele><time>2026-04-11T09:38:19.699Z</time></trkpt><trkpt lat="43.4221067" lon="11.5834667"><ele>370.5</ele><time>2026-04-11T09:38:20.7Z</time></trkpt><trkpt lat="43.422095" lon="11.5833683"><ele>369.6666666666667</ele><time>2026-04-11T09:38:21.699Z</time></trkpt><trkpt lat="43.4220683" lon="11.5832633"><ele>368.83333333333337</ele><time>2026-04-11T09:38:22.699Z</time></trkpt><trkpt lat="43.4220067" lon="11.5831583"><ele>368.0</ele><time>2026-04-11T09:38:23.699Z</time></trkpt><trkpt lat="43.4219433" lon="11.583065"><ele>368.0</ele><time>2026-04-11T09:38:24.701Z</time></trkpt><trkpt lat="43.4218783" lon="11.582975"><ele>368.0</ele><time>2026-04-11T09:38:25.699Z</time></trkpt><trkpt lat="43.4218067" lon="11.5828983"><ele>368.0</ele><time>2026-04-11T09:38:26.701Z</time></trkpt><trkpt lat="43.4217367" lon="11.5828233"><ele>368.0</ele><time>2026-04-11T09:38:27.7Z</time></trkpt><trkpt lat="43.42168" lon="11.5827467"><ele>368.0</ele><time>2026-04-11T09:38:28.699Z</time></trkpt><trkpt lat="43.42162" lon="11.5826717"><ele>368.0</ele><time>2026-04-11T09:38:29.701Z</time></trkpt><trkpt lat="43.4215617" lon="11.5825967"><ele>369.5</ele><time>2026-04-11T09:38:30.701Z</time></trkpt><trkpt lat="43.421505" lon="11.5825183"><ele>371.0</ele><time>2026-04-11T09:38:31.7Z</time></trkpt><trkpt lat="43.421455" lon="11.5824367"><ele>372.5</ele><time>2026-04-11T09:38:32.7Z</time></trkpt><trkpt lat="43.421405" lon="11.5823767"><ele>374.0</ele><time>2026-04-11T09:38:33.7Z</time></trkpt><trkpt lat="43.4213283" lon="11.5823017"><ele>375.5</ele><time>2026-04-11T09:38:35.699Z</time></trkpt><trkpt lat="43.42128" lon="11.5822217"><ele>377.0</ele><time>2026-04-11T09:38:38.699Z</time></trkpt><trkpt lat="43.4212533" lon="11.5821067"><ele>375.40000000000003</ele><time>2026-04-11T09:38:40.7Z</time></trkpt><trkpt lat="43.4212267" lon="11.5820233"><ele>373.8</ele><time>2026-04-11T09:38:41.7Z</time></trkpt><trkpt lat="43.421185" lon="11.5819233"><ele>372.2</ele><time>2026-04-11T09:38:42.699Z</time></trkpt><trkpt lat="43.4211467" lon="11.5818"><ele>370.6</ele><time>2026-04-11T09:38:43.701Z</time></trkpt><trkpt lat="43.4211117" lon="11.5816633"><ele>369.0</ele><time>2026-04-11T09:38:44.702Z</time></trkpt><trkpt lat="43.4210717" lon="11.581525"><ele>369.0</ele><time>2026-04-11T09:38:45.701Z</time></trkpt><trkpt lat="43.4210183" lon="11.58139"><ele>369.0</ele><time>2026-04-11T09:38:46.7Z</time></trkpt><trkpt lat="43.420945" lon="11.5812633"><ele>369.0</ele><time>2026-04-11T09:38:47.7Z</time></trkpt><trkpt lat="43.420865" lon="11.5811383"><ele>369.0</ele><time>2026-04-11T09:38:48.701Z</time></trkpt><trkpt lat="43.42079" lon="11.5810217"><ele>371.75</ele><time>2026-04-11T09:38:49.696Z</time></trkpt><trkpt lat="43.420715" lon="11.580905"><ele>374.5</ele><time>2026-04-11T09:38:50.701Z</time></trkpt><trkpt lat="43.4206383" lon="11.58078"><ele>377.25</ele><time>2026-04-11T09:38:51.7Z</time></trkpt><trkpt lat="43.42057" lon="11.5806483"><ele>380.0</ele><time>2026-04-11T09:38:52.699Z</time></trkpt><trkpt lat="43.4205033" lon="11.5805083"><ele>379.75</ele><time>2026-04-11T09:38:53.701Z</time></trkpt><trkpt lat="43.420435" lon="11.5803667"><ele>379.5</ele><time>2026-04-11T09:38:54.701Z</time></trkpt><trkpt lat="43.420365" lon="11.58023"><ele>379.25</ele><time>2026-04-11T09:38:55.701Z</time></trkpt><trkpt lat="43.4202933" lon="11.5800983"><ele>379.0</ele><time>2026-04-11T09:38:56.701Z</time></trkpt><trkpt lat="43.4202183" lon="11.5799683"><ele>379.0</ele><time>2026-04-11T09:38:57.701Z</time></trkpt><trkpt lat="43.4201483" lon="11.579855"><ele>379.0</ele><time>2026-04-11T09:38:58.699Z</time></trkpt><trkpt lat="43.4200917" lon="11.5797633"><ele>379.0</ele><time>2026-04-11T09:38:59.701Z</time></trkpt><trkpt lat="43.4200467" lon="11.57968"><ele>379.0</ele><time>2026-04-11T09:39:00.701Z</time></trkpt><trkpt lat="43.4200167" lon="11.5795917"><ele>379.0</ele><time>2026-04-11T09:39:01.701Z</time></trkpt><trkpt lat="43.4200067" lon="11.5794833"><ele>379.0</ele><time>2026-04-11T09:39:02.701Z</time></trkpt><trkpt lat="43.420015" lon="11.5793467"><ele>379.75</ele><time>2026-04-11T09:39:03.701Z</time></trkpt><trkpt lat="43.4200267" lon="11.579195"><ele>380.5</ele><time>2026-04-11T09:39:04.7Z</time></trkpt><trkpt lat="43.4200417" lon="11.5790383"><ele>381.25</ele><time>2026-04-11T09:39:05.701Z</time></trkpt><trkpt lat="43.4200583" lon="11.5788833"><ele>382.0</ele><time>2026-04-11T09:39:06.699Z</time></trkpt><trkpt lat="43.4200733" lon="11.5787283"><ele>382.20000000000005</ele><time>2026-04-11T09:39:07.699Z</time></trkpt><trkpt lat="43.4200833" lon="11.5785817"><ele>382.4</ele><time>2026-04-11T09:39:08.701Z</time></trkpt><trkpt lat="43.4200883" lon="11.57844"><ele>382.6</ele><time>2026-04-11T09:39:09.697Z</time></trkpt><trkpt lat="43.420085" lon="11.578315"><ele>382.79999999999995</ele><time>2026-04-11T09:39:10.7Z</time></trkpt><trkpt lat="43.42007" lon="11.5782083"><ele>383.0</ele><time>2026-04-11T09:39:11.701Z</time></trkpt><trkpt lat="43.4200367" lon="11.578105"><ele>383.0</ele><time>2026-04-11T09:39:12.702Z</time></trkpt><trkpt lat="43.4200017" lon="11.5780033"><ele>383.0</ele><time>2026-04-11T09:39:13.701Z</time></trkpt><trkpt lat="43.4199883" lon="11.5779117"><ele>383.0</ele><time>2026-04-11T09:39:14.701Z</time></trkpt><trkpt lat="43.4200233" lon="11.57775"><ele>383.0</ele><time>2026-04-11T09:39:16.699Z</time></trkpt><trkpt lat="43.42008" lon="11.5776683"><ele>383.0</ele><time>2026-04-11T09:39:17.7Z</time></trkpt><trkpt lat="43.42016" lon="11.5775783"><ele>383.25</ele><time>2026-04-11T09:39:18.701Z</time></trkpt><trkpt lat="43.42025" lon="11.5774717"><ele>383.5</ele><time>2026-04-11T09:39:19.701Z</time></trkpt><trkpt lat="43.420335" lon="11.577365"><ele>383.75</ele><time>2026-04-11T09:39:20.702Z</time></trkpt><trkpt lat="43.4204183" lon="11.5772483"><ele>384.0</ele><time>2026-04-11T09:39:21.7Z</time></trkpt><trkpt lat="43.420495" lon="11.5771283"><ele>384.79999999999995</ele><time>2026-04-11T09:39:22.701Z</time></trkpt><trkpt lat="43.420565" lon="11.5770183"><ele>385.59999999999997</ele><time>2026-04-11T09:39:23.701Z</time></trkpt><trkpt lat="43.4206333" lon="11.5769167"><ele>386.4</ele><time>2026-04-11T09:39:24.701Z</time></trkpt><trkpt lat="43.4206967" lon="11.5768167"><ele>387.2</ele><time>2026-04-11T09:39:25.701Z</time></trkpt><trkpt lat="43.4207533" lon="11.5767217"><ele>388.0</ele><time>2026-04-11T09:39:26.702Z</time></trkpt><trkpt lat="43.4208133" lon="11.5766417"><ele>388.00000000000006</ele><time>2026-04-11T09:39:27.7Z</time></trkpt><trkpt lat="43.4208833" lon="11.5765767"><ele>388.0</ele><time>2026-04-11T09:39:28.701Z</time></trkpt><trkpt lat="43.420955" lon="11.5765233"><ele>388.0</ele><time>2026-04-11T09:39:29.701Z</time></trkpt><trkpt lat="43.42102" lon="11.576465"><ele>388.0</ele><time>2026-04-11T09:39:30.702Z</time></trkpt><trkpt lat="43.4210683" lon="11.5763983"><ele>388.00000000000006</ele><time>2026-04-11T09:39:31.699Z</time></trkpt><trkpt lat="43.4210983" lon="11.57624"><ele>388.0</ele><time>2026-04-11T09:39:33.699Z</time></trkpt><trkpt lat="43.421025" lon="11.5760917"><ele>387.83333333333337</ele><time>2026-04-11T09:39:35.7Z</time></trkpt><trkpt lat="43.42097" lon="11.5760117"><ele>387.6666666666667</ele><time>2026-04-11T09:39:36.7Z</time></trkpt><trkpt lat="43.4209183" lon="11.5759117"><ele>387.5</ele><time>2026-04-11T09:39:37.702Z</time></trkpt><trkpt lat="43.4208733" lon="11.5758033"><ele>387.33333333333337</ele><time>2026-04-11T09:39:38.701Z</time></trkpt><trkpt lat="43.42084" lon="11.5756967"><ele>387.1666666666667</ele><time>2026-04-11T09:39:39.699Z</time></trkpt><trkpt lat="43.420815" lon="11.5756083"><ele>387.0</ele><time>2026-04-11T09:39:40.701Z</time></trkpt><trkpt lat="43.4208117" lon="11.5754917"><ele>387.0</ele><time>2026-04-11T09:39:42.7Z</time></trkpt><trkpt lat="43.4208483" lon="11.5754133"><ele>387.0</ele><time>2026-04-11T09:39:44.7Z</time></trkpt><trkpt lat="43.4208817" lon="11.5753283"><ele>387.0</ele><time>2026-04-11T09:39:46.701Z</time></trkpt><trkpt lat="43.4208817" lon="11.5752067"><ele>387.0</ele><time>2026-04-11T09:39:48.701Z</time></trkpt><trkpt lat="43.420855" lon="11.5750333"><ele>387.0</ele><time>2026-04-11T09:39:50.701Z</time></trkpt><trkpt lat="43.4208333" lon="11.5749417"><ele>387.0</ele><time>2026-04-11T09:39:51.7Z</time></trkpt><trkpt lat="43.420805" lon="11.5748583"><ele>388.5</ele><time>2026-04-11T09:39:52.702Z</time></trkpt><trkpt lat="43.4207667" lon="11.5747767"><ele>390.0</ele><time>2026-04-11T09:39:53.701Z</time></trkpt><trkpt lat="43.4207267" lon="11.5746917"><ele>391.5</ele><time>2026-04-11T09:39:54.701Z</time></trkpt><trkpt lat="43.4206917" lon="11.5745933"><ele>393.0</ele><time>2026-04-11T09:39:55.703Z</time></trkpt><trkpt lat="43.420665" lon="11.5744883"><ele>394.5</ele><time>2026-04-11T09:39:56.701Z</time></trkpt><trkpt lat="43.4206367" lon="11.574375"><ele>396.0</ele><time>2026-04-11T09:39:57.701Z</time></trkpt><trkpt lat="43.4205983" lon="11.5742483"><ele>396.8</ele><time>2026-04-11T09:39:58.7Z</time></trkpt><trkpt lat="43.42055" lon="11.5741217"><ele>397.6</ele><time>2026-04-11T09:39:59.7Z</time></trkpt><trkpt lat="43.4204983" lon="11.574005"><ele>398.4</ele><time>2026-04-11T09:40:00.699Z</time></trkpt><trkpt lat="43.4204533" lon="11.5739"><ele>399.2</ele><time>2026-04-11T09:40:01.7Z</time></trkpt><trkpt lat="43.420425" lon="11.5737883"><ele>400.0</ele><time>2026-04-11T09:40:02.701Z</time></trkpt><trkpt lat="43.42041" lon="11.573665"><ele>398.6</ele><time>2026-04-11T09:40:03.701Z</time></trkpt><trkpt lat="43.4204183" lon="11.573535"><ele>397.2</ele><time>2026-04-11T09:40:04.699Z</time></trkpt><trkpt lat="43.4204467" lon="11.5733883"><ele>395.79999999999995</ele><time>2026-04-11T09:40:05.699Z</time></trkpt><trkpt lat="43.420475" lon="11.5732467"><ele>394.4</ele><time>2026-04-11T09:40:06.7Z</time></trkpt><trkpt lat="43.4205017" lon="11.5731183"><ele>393.0</ele><time>2026-04-11T09:40:07.7Z</time></trkpt><trkpt lat="43.4205217" lon="11.5729983"><ele>393.0</ele><time>2026-04-11T09:40:08.701Z</time></trkpt><trkpt lat="43.4205433" lon="11.5728867"><ele>393.0</ele><time>2026-04-11T09:40:09.702Z</time></trkpt><trkpt lat="43.420575" lon="11.5727917"><ele>393.0</ele><time>2026-04-11T09:40:10.7Z</time></trkpt><trkpt lat="43.420615" lon="11.57272"><ele>393.0</ele><time>2026-04-11T09:40:11.701Z</time></trkpt><trkpt lat="43.4206917" lon="11.5726367"><ele>393.0</ele><time>2026-04-11T09:40:13.7Z</time></trkpt><trkpt lat="43.4206733" lon="11.5725483"><ele>393.0</ele><time>2026-04-11T09:40:17.699Z</time></trkpt><trkpt lat="43.4205817" lon="11.5725933"><ele>391.59999999999997</ele><time>2026-04-11T09:40:19.701Z</time></trkpt><trkpt lat="43.4204883" lon="11.572665"><ele>390.2</ele><time>2026-04-11T09:40:21.699Z</time></trkpt><trkpt lat="43.420405" lon="11.5727583"><ele>388.8</ele><time>2026-04-11T09:40:23.702Z</time></trkpt><trkpt lat="43.4203" lon="11.5727933"><ele>387.4</ele><time>2026-04-11T09:40:25.7Z</time></trkpt><trkpt lat="43.420225" lon="11.5727517"><ele>386.0</ele><time>2026-04-11T09:40:26.7Z</time></trkpt><trkpt lat="43.4201583" lon="11.57273"><ele>385.49999999999994</ele><time>2026-04-11T09:40:27.7Z</time></trkpt><trkpt lat="43.4200867" lon="11.5727333"><ele>385.0</ele><time>2026-04-11T09:40:28.701Z</time></trkpt><trkpt lat="43.4200117" lon="11.57276"><ele>384.5</ele><time>2026-04-11T09:40:29.699Z</time></trkpt><trkpt lat="43.41993" lon="11.5727967"><ele>384.0</ele><time>2026-04-11T09:40:30.7Z</time></trkpt><trkpt lat="43.419845" lon="11.57283"><ele>383.5</ele><time>2026-04-11T09:40:31.698Z</time></trkpt><trkpt lat="43.4197533" lon="11.5728467"><ele>383.0</ele><time>2026-04-11T09:40:32.7Z</time></trkpt><trkpt lat="43.41966" lon="11.572865"><ele>384.0</ele><time>2026-04-11T09:40:33.699Z</time></trkpt><trkpt lat="43.41958" lon="11.5728833"><ele>385.0</ele><time>2026-04-11T09:40:34.699Z</time></trkpt><trkpt lat="43.4194767" lon="11.572915"><ele>386.0</ele><time>2026-04-11T09:40:36.701Z</time></trkpt><trkpt lat="43.4194017" lon="11.5729"><ele>387.0</ele><time>2026-04-11T09:40:47.701Z</time></trkpt><trkpt lat="43.4193817" lon="11.5727817"><ele>387.99999999999994</ele><time>2026-04-11T09:40:49.7Z</time></trkpt><trkpt lat="43.41936" lon="11.5726517"><ele>389.0</ele><time>2026-04-11T09:40:51.7Z</time></trkpt><trkpt lat="43.4193683" lon="11.5725567"><ele>388.99999999999994</ele><time>2026-04-11T09:40:53.7Z</time></trkpt><trkpt lat="43.4194267" lon="11.572495"><ele>389.0</ele><time>2026-04-11T09:40:55.7Z</time></trkpt><trkpt lat="43.41946" lon="11.57241"><ele>389.0</ele><time>2026-04-11T09:40:57.701Z</time></trkpt><trkpt lat="43.4194417" lon="11.5723083"><ele>389.0</ele><time>2026-04-11T09:40:59.701Z</time></trkpt><trkpt lat="43.4194617" lon="11.5721883"><ele>388.99999999999994</ele><time>2026-04-11T09:41:02.702Z</time></trkpt><trkpt lat="43.4195267" lon="11.5721383"><ele>389.0</ele><time>2026-04-11T09:41:04.699Z</time></trkpt><trkpt lat="43.4196067" lon="11.572095"><ele>391.49999999999994</ele><time>2026-04-11T09:41:07.701Z</time></trkpt><trkpt lat="43.41964" lon="11.5719933"><ele>394.0</ele><time>2026-04-11T09:41:10.7Z</time></trkpt><trkpt lat="43.4196733" lon="11.5719067"><ele>396.5</ele><time>2026-04-11T09:41:12.7Z</time></trkpt><trkpt lat="43.41971" lon="11.571805"><ele>399.0</ele><time>2026-04-11T09:41:14.702Z</time></trkpt><trkpt lat="43.4197333" lon="11.5717233"><ele>401.49999999999994</ele><time>2026-04-11T09:41:16.701Z</time></trkpt><trkpt lat="43.4198083" lon="11.5716533"><ele>404.0</ele><time>2026-04-11T09:41:19.701Z</time></trkpt><trkpt lat="43.4198533" lon="11.5715633"><ele>403.99999999999994</ele><time>2026-04-11T09:41:22.699Z</time></trkpt><trkpt lat="43.41986" lon="11.57146"><ele>404.0</ele><time>2026-04-11T09:41:39.701Z</time></trkpt><trkpt lat="43.4198717" lon="11.5713"><ele>404.0</ele><time>2026-04-11T09:41:41.701Z</time></trkpt><trkpt lat="43.4198883" lon="11.5712017"><ele>404.0</ele><time>2026-04-11T09:41:42.701Z</time></trkpt><trkpt lat="43.41991" lon="11.5711017"><ele>403.99999999999994</ele><time>2026-04-11T09:41:43.702Z</time></trkpt><trkpt lat="43.41993" lon="11.5710083"><ele>404.0</ele><time>2026-04-11T09:41:44.702Z</time></trkpt><trkpt lat="43.4199733" lon="11.5708633"><ele>406.49999999999994</ele><time>2026-04-11T09:41:46.702Z</time></trkpt><trkpt lat="43.4200033" lon="11.5707083"><ele>409.0</ele><time>2026-04-11T09:41:48.702Z</time></trkpt><trkpt lat="43.4200183" lon="11.570575"><ele>411.5</ele><time>2026-04-11T09:41:50.703Z</time></trkpt><trkpt lat="43.4200383" lon="11.57049"><ele>414.0</ele><time>2026-04-11T09:41:52.702Z</time></trkpt><trkpt lat="43.4200633" lon="11.570405"><ele>416.49999999999994</ele><time>2026-04-11T09:41:55.701Z</time></trkpt><trkpt lat="43.4200933" lon="11.5702983"><ele>419.0</ele><time>2026-04-11T09:41:57.7Z</time></trkpt><trkpt lat="43.420135" lon="11.5701783"><ele>422.4</ele><time>2026-04-11T09:41:59.702Z</time></trkpt><trkpt lat="43.4201867" lon="11.570055"><ele>425.79999999999995</ele><time>2026-04-11T09:42:01.7Z</time></trkpt><trkpt lat="43.420225" lon="11.569885"><ele>429.20000000000005</ele><time>2026-04-11T09:42:03.701Z</time></trkpt><trkpt lat="43.4202483" lon="11.5697967"><ele>432.6</ele><time>2026-04-11T09:42:04.7Z</time></trkpt><trkpt lat="43.420295" lon="11.569675"><ele>436.0</ele><time>2026-04-11T09:42:06.7Z</time></trkpt><trkpt lat="43.420325" lon="11.569565"><ele>438.50000000000006</ele><time>2026-04-11T09:42:08.702Z</time></trkpt><trkpt lat="43.4203633" lon="11.5694567"><ele>441.0</ele><time>2026-04-11T09:42:10.7Z</time></trkpt><trkpt lat="43.420415" lon="11.5693483"><ele>443.5</ele><time>2026-04-11T09:42:12.7Z</time></trkpt><trkpt lat="43.4204883" lon="11.5692417"><ele>446.0</ele><time>2026-04-11T09:42:14.701Z</time></trkpt><trkpt lat="43.4205517" lon="11.5691517"><ele>448.50000000000006</ele><time>2026-04-11T09:42:16.702Z</time></trkpt><trkpt lat="43.420595" lon="11.5690767"><ele>451.0</ele><time>2026-04-11T09:42:18.701Z</time></trkpt><trkpt lat="43.42061" lon="11.5689783"><ele>452.6666666666667</ele><time>2026-04-11T09:42:20.701Z</time></trkpt><trkpt lat="43.42063" lon="11.5688617"><ele>454.33333333333337</ele><time>2026-04-11T09:42:22.701Z</time></trkpt><trkpt lat="43.4206567" lon="11.5687533"><ele>456.0</ele><time>2026-04-11T09:42:24.701Z</time></trkpt><trkpt lat="43.4206983" lon="11.5686333"><ele>457.66666666666663</ele><time>2026-04-11T09:42:26.7Z</time></trkpt><trkpt lat="43.42073" lon="11.568505"><ele>459.3333333333333</ele><time>2026-04-11T09:42:28.701Z</time></trkpt><trkpt lat="43.4207567" lon="11.568405"><ele>461.0</ele><time>2026-04-11T09:42:30.701Z</time></trkpt><trkpt lat="43.42082" lon="11.5683233"><ele>465.49999999999994</ele><time>2026-04-11T09:42:32.701Z</time></trkpt><trkpt lat="43.4209017" lon="11.5682633"><ele>470.0</ele><time>2026-04-11T09:42:34.7Z</time></trkpt><trkpt lat="43.4209517" lon="11.56821"><ele>474.5</ele><time>2026-04-11T09:42:36.7Z</time></trkpt><trkpt lat="43.4209933" lon="11.5681367"><ele>479.0</ele><time>2026-04-11T09:42:38.701Z</time></trkpt><trkpt lat="43.421035" lon="11.5680517"><ele>483.49999999999994</ele><time>2026-04-11T09:42:41.7Z</time></trkpt><trkpt lat="43.4210267" lon="11.5679317"><ele>488.0</ele><time>2026-04-11T09:42:44.7Z</time></trkpt><trkpt lat="43.421025" lon="11.5678233"><ele>491.66666666666663</ele><time>2026-04-11T09:42:46.702Z</time></trkpt><trkpt lat="43.4210067" lon="11.5677267"><ele>495.3333333333333</ele><time>2026-04-11T09:42:48.699Z</time></trkpt><trkpt lat="43.4209483" lon="11.567605"><ele>499.0</ele><time>2026-04-11T09:42:50.701Z</time></trkpt><trkpt lat="43.420905" lon="11.567505"><ele>502.66666666666663</ele><time>2026-04-11T09:42:52.7Z</time></trkpt><trkpt lat="43.4209033" lon="11.5674017"><ele>506.3333333333333</ele><time>2026-04-11T09:42:55.7Z</time></trkpt><trkpt lat="43.420915" lon="11.5673133"><ele>510.0</ele><time>2026-04-11T09:42:57.7Z</time></trkpt><trkpt lat="43.420965" lon="11.5671917"><ele>510.0</ele><time>2026-04-11T09:43:00.701Z</time></trkpt><trkpt lat="43.421" lon="11.5671133"><ele>510.0</ele><time>2026-04-11T09:43:02.702Z</time></trkpt><trkpt lat="43.4210633" lon="11.5670467"><ele>510.0</ele><time>2026-04-11T09:43:07.699Z</time></trkpt><trkpt lat="43.421135" lon="11.5670317"><ele>510.0</ele><time>2026-04-11T09:43:10.7Z</time></trkpt><trkpt lat="43.421235" lon="11.56702"><ele>510.0</ele><time>2026-04-11T09:43:22.7Z</time></trkpt><trkpt lat="43.4213067" lon="11.5669983"><ele>510.0</ele><time>2026-04-11T09:43:25.701Z</time></trkpt><trkpt lat="43.4214333" lon="11.5670067"><ele>515.8</ele><time>2026-04-11T09:45:28.7Z</time></trkpt><trkpt lat="43.42153" lon="11.567"><ele>521.6</ele><time>2026-04-11T09:45:31.7Z</time></trkpt><trkpt lat="43.4216433" lon="11.5670033"><ele>527.4</ele><time>2026-04-11T09:45:33.699Z</time></trkpt><trkpt lat="43.421755" lon="11.566985"><ele>533.2</ele><time>2026-04-11T09:45:35.699Z</time></trkpt><trkpt lat="43.421815" lon="11.5669567"><ele>539.0</ele><time>2026-04-11T09:45:36.699Z</time></trkpt><trkpt lat="43.4218717" lon="11.5669117"><ele>539.0</ele><time>2026-04-11T09:45:37.701Z</time></trkpt><trkpt lat="43.421975" lon="11.5668283"><ele>539.0</ele><time>2026-04-11T09:45:39.7Z</time></trkpt><trkpt lat="43.42207" lon="11.5668117"><ele>539.0</ele><time>2026-04-11T09:45:41.699Z</time></trkpt><trkpt lat="43.4221317" lon="11.5669017"><ele>539.0</ele><time>2026-04-11T09:45:43.7Z</time></trkpt><trkpt lat="43.4221733" lon="11.5670433"><ele>539.0</ele><time>2026-04-11T09:45:45.7Z</time></trkpt><trkpt lat="43.42224" lon="11.5671317"><ele>540.0</ele><time>2026-04-11T09:45:47.7Z</time></trkpt><trkpt lat="43.4223167" lon="11.5671633"><ele>541.0</ele><time>2026-04-11T09:45:49.701Z</time></trkpt><trkpt lat="43.422415" lon="11.56712"><ele>542.0</ele><time>2026-04-11T09:45:51.7Z</time></trkpt><trkpt lat="43.4224767" lon="11.5670833"><ele>543.0</ele><time>2026-04-11T09:45:52.699Z</time></trkpt><trkpt lat="43.4225433" lon="11.56704"><ele>544.0</ele><time>2026-04-11T09:45:53.699Z</time></trkpt><trkpt lat="43.4226017" lon="11.5670017"><ele>545.0</ele><time>2026-04-11T09:45:54.7Z</time></trkpt><trkpt lat="43.42269" lon="11.5669417"><ele>545.0</ele><time>2026-04-11T09:45:56.701Z</time></trkpt><trkpt lat="43.4227767" lon="11.5669067"><ele>545.0</ele><time>2026-04-11T09:45:58.7Z</time></trkpt><trkpt lat="43.4228867" lon="11.566875"><ele>545.0</ele><time>2026-04-11T09:46:00.701Z</time></trkpt><trkpt lat="43.42295" lon="11.566855"><ele>545.0</ele><time>2026-04-11T09:46:01.701Z</time></trkpt><trkpt lat="43.4230467" lon="11.5668033"><ele>545.0</ele><time>2026-04-11T09:46:03.699Z</time></trkpt><trkpt lat="43.4231133" lon="11.5667333"><ele>546.6</ele><time>2026-04-11T09:46:05.7Z</time></trkpt><trkpt lat="43.4231983" lon="11.5666867"><ele>548.2</ele><time>2026-04-11T09:46:07.7Z</time></trkpt><trkpt lat="43.4232733" lon="11.56672"><ele>549.8</ele><time>2026-04-11T09:46:09.7Z</time></trkpt><trkpt lat="43.423355" lon="11.5668"><ele>551.4</ele><time>2026-04-11T09:46:11.701Z</time></trkpt><trkpt lat="43.423455" lon="11.566865"><ele>553.0</ele><time>2026-04-11T09:46:13.7Z</time></trkpt><trkpt lat="43.4235617" lon="11.5669017"><ele>553.0</ele><time>2026-04-11T09:46:15.699Z</time></trkpt><trkpt lat="43.4236683" lon="11.5669333"><ele>553.0</ele><time>2026-04-11T09:46:17.7Z</time></trkpt><trkpt lat="43.4237617" lon="11.5669183"><ele>553.0</ele><time>2026-04-11T09:46:19.7Z</time></trkpt><trkpt lat="43.4238617" lon="11.5668233"><ele>553.0</ele><time>2026-04-11T09:46:21.699Z</time></trkpt><trkpt lat="43.42392" lon="11.56675"><ele>553.0</ele><time>2026-04-11T09:46:22.7Z</time></trkpt><trkpt lat="43.4239717" lon="11.56668"><ele>553.6</ele><time>2026-04-11T09:46:23.699Z</time></trkpt><trkpt lat="43.4240183" lon="11.5666217"><ele>554.1999999999999</ele><time>2026-04-11T09:46:24.7Z</time></trkpt><trkpt lat="43.4241183" lon="11.5665517"><ele>554.8</ele><time>2026-04-11T09:46:26.7Z</time></trkpt><trkpt lat="43.4242467" lon="11.5665617"><ele>555.4</ele><time>2026-04-11T09:46:28.699Z</time></trkpt><trkpt lat="43.42431" lon="11.566575"><ele>556.0</ele><time>2026-04-11T09:46:29.7Z</time></trkpt><trkpt lat="43.4244433" lon="11.5665633"><ele>556.0</ele><time>2026-04-11T09:46:31.7Z</time></trkpt><trkpt lat="43.4245167" lon="11.5665617"><ele>556.0</ele><time>2026-04-11T09:46:32.702Z</time></trkpt><trkpt lat="43.42459" lon="11.5665717"><ele>556.0</ele><time>2026-04-11T09:46:33.699Z</time></trkpt><trkpt lat="43.4246617" lon="11.5665717"><ele>556.0</ele><time>2026-04-11T09:46:34.698Z</time></trkpt><trkpt lat="43.42473" lon="11.5665567"><ele>556.0</ele><time>2026-04-11T09:46:35.699Z</time></trkpt><trkpt lat="43.4247983" lon="11.56654"><ele>556.0</ele><time>2026-04-11T09:46:36.7Z</time></trkpt><trkpt lat="43.4248733" lon="11.5665467"><ele>556.0</ele><time>2026-04-11T09:46:37.699Z</time></trkpt><trkpt lat="43.424955" lon="11.5665667"><ele>556.4285714285714</ele><time>2026-04-11T09:46:38.701Z</time></trkpt><trkpt lat="43.4250283" lon="11.566605"><ele>556.8571428571429</ele><time>2026-04-11T09:46:39.7Z</time></trkpt><trkpt lat="43.4250983" lon="11.5666533"><ele>557.2857142857143</ele><time>2026-04-11T09:46:40.7Z</time></trkpt><trkpt lat="43.425165" lon="11.5666883"><ele>557.7142857142858</ele><time>2026-04-11T09:46:41.699Z</time></trkpt><trkpt lat="43.425225" lon="11.5667367"><ele>558.1428571428572</ele><time>2026-04-11T09:46:42.7Z</time></trkpt><trkpt lat="43.4252883" lon="11.5667783"><ele>558.5714285714286</ele><time>2026-04-11T09:46:43.7Z</time></trkpt><trkpt lat="43.4253517" lon="11.5668067"><ele>559.0</ele><time>2026-04-11T09:46:44.702Z</time></trkpt><trkpt lat="43.4254233" lon="11.566815"><ele>558.6666666666667</ele><time>2026-04-11T09:46:45.701Z</time></trkpt><trkpt lat="43.4254967" lon="11.5668183"><ele>558.3333333333334</ele><time>2026-04-11T09:46:46.7Z</time></trkpt><trkpt lat="43.425565" lon="11.56682"><ele>558.0</ele><time>2026-04-11T09:46:47.7Z</time></trkpt><trkpt lat="43.4256833" lon="11.566795"><ele>557.6666666666666</ele><time>2026-04-11T09:46:49.695Z</time></trkpt><trkpt lat="43.4257417" lon="11.56676"><ele>557.3333333333333</ele><time>2026-04-11T09:46:50.695Z</time></trkpt><trkpt lat="43.4258433" lon="11.566695"><ele>557.0</ele><time>2026-04-11T09:46:52.699Z</time></trkpt><trkpt lat="43.425915" lon="11.56668"><ele>557.0</ele><time>2026-04-11T09:46:54.701Z</time></trkpt><trkpt lat="43.426" lon="11.5667167"><ele>557.0</ele><time>2026-04-11T09:46:56.695Z</time></trkpt><trkpt lat="43.4260667" lon="11.5667483"><ele>557.0</ele><time>2026-04-11T09:46:58.698Z</time></trkpt><trkpt lat="43.426125" lon="11.566785"><ele>557.0</ele><time>2026-04-11T09:47:00.697Z</time></trkpt><trkpt lat="43.4261933" lon="11.5668033"><ele>557.0</ele><time>2026-04-11T09:47:02.701Z</time></trkpt><trkpt lat="43.4262967" lon="11.5668433"><ele>557.0</ele><time>2026-04-11T09:47:04.701Z</time></trkpt><trkpt lat="43.42639" lon="11.56688"><ele>556.6666666666666</ele><time>2026-04-11T09:47:06.702Z</time></trkpt><trkpt lat="43.4264783" lon="11.5668783"><ele>556.3333333333333</ele><time>2026-04-11T09:47:09.699Z</time></trkpt><trkpt lat="43.4265383" lon="11.5668167"><ele>556.0</ele><time>2026-04-11T09:47:12.699Z</time></trkpt><trkpt lat="43.4265983" lon="11.56671"><ele>555.6666666666666</ele><time>2026-04-11T09:47:14.701Z</time></trkpt><trkpt lat="43.4266433" lon="11.56664"><ele>555.3333333333334</ele><time>2026-04-11T09:47:15.7Z</time></trkpt><trkpt lat="43.426735" lon="11.5665383"><ele>555.0</ele><time>2026-04-11T09:47:17.701Z</time></trkpt><trkpt lat="43.4268467" lon="11.5665017"><ele>555.0</ele><time>2026-04-11T09:47:19.7Z</time></trkpt><trkpt lat="43.4269383" lon="11.566475"><ele>555.0</ele><time>2026-04-11T09:47:21.699Z</time></trkpt><trkpt lat="43.4270267" lon="11.5664033"><ele>555.0</ele><time>2026-04-11T09:47:23.701Z</time></trkpt><trkpt lat="43.4270517" lon="11.5663233"><ele>555.0</ele><time>2026-04-11T09:47:25.701Z</time></trkpt><trkpt lat="43.4269783" lon="11.5662383"><ele>555.0</ele><time>2026-04-11T09:47:27.699Z</time></trkpt><trkpt lat="43.4269133" lon="11.566195"><ele>555.0</ele><time>2026-04-11T09:47:28.699Z</time></trkpt><trkpt lat="43.4268483" lon="11.5661583"><ele>558.3333333333334</ele><time>2026-04-11T09:47:29.698Z</time></trkpt><trkpt lat="43.42679" lon="11.5661233"><ele>561.6666666666666</ele><time>2026-04-11T09:47:30.701Z</time></trkpt><trkpt lat="43.4267417" lon="11.5660267"><ele>565.0</ele><time>2026-04-11T09:47:32.701Z</time></trkpt><trkpt lat="43.4267833" lon="11.5659167"><ele>568.3333333333333</ele><time>2026-04-11T09:47:34.699Z</time></trkpt><trkpt lat="43.4268233" lon="11.565805"><ele>571.6666666666666</ele><time>2026-04-11T09:47:36.7Z</time></trkpt><trkpt lat="43.4267667" lon="11.5657167"><ele>575.0</ele><time>2026-04-11T09:47:38.701Z</time></trkpt><trkpt lat="43.4266567" lon="11.5656367"><ele>575.0</ele><time>2026-04-11T09:47:40.7Z</time></trkpt><trkpt lat="43.42658" lon="11.5656033"><ele>575.0</ele><time>2026-04-11T09:47:41.7Z</time></trkpt><trkpt lat="43.4264967" lon="11.5655617"><ele>575.0</ele><time>2026-04-11T09:47:42.7Z</time></trkpt><trkpt lat="43.42642" lon="11.5655283"><ele>575.0</ele><time>2026-04-11T09:47:43.7Z</time></trkpt><trkpt lat="43.426345" lon="11.5655"><ele>575.0</ele><time>2026-04-11T09:47:44.701Z</time></trkpt><trkpt lat="43.426255" lon="11.5654367"><ele>575.0</ele><time>2026-04-11T09:47:46.7Z</time></trkpt><trkpt lat="43.4262383" lon="11.56532"><ele>578.5</ele><time>2026-04-11T09:47:49.703Z</time></trkpt><trkpt lat="43.4262817" lon="11.56525"><ele>582.0</ele><time>2026-04-11T09:47:51.702Z</time></trkpt><trkpt lat="43.4263167" lon="11.565175"><ele>585.5</ele><time>2026-04-11T09:47:53.7Z</time></trkpt><trkpt lat="43.4262733" lon="11.5650983"><ele>589.0</ele><time>2026-04-11T09:47:55.7Z</time></trkpt><trkpt lat="43.4262033" lon="11.5650617"><ele>592.5</ele><time>2026-04-11T09:47:57.7Z</time></trkpt><trkpt lat="43.4260933" lon="11.5650933"><ele>596.0</ele><time>2026-04-11T09:47:59.699Z</time></trkpt><trkpt lat="43.4259783" lon="11.565095"><ele>596.1666666666666</ele><time>2026-04-11T09:48:01.701Z</time></trkpt><trkpt lat="43.4259183" lon="11.5650567"><ele>596.3333333333333</ele><time>2026-04-11T09:48:03.7Z</time></trkpt><trkpt lat="43.4258483" lon="11.5650233"><ele>596.5</ele><time>2026-04-11T09:48:06.701Z</time></trkpt><trkpt lat="43.4257733" lon="11.5650433"><ele>596.6666666666666</ele><time>2026-04-11T09:48:09.7Z</time></trkpt><trkpt lat="43.4256733" lon="11.56505"><ele>596.8333333333334</ele><time>2026-04-11T09:48:11.696Z</time></trkpt><trkpt lat="43.4255967" lon="11.5650417"><ele>597.0</ele><time>2026-04-11T09:48:12.701Z</time></trkpt><trkpt lat="43.425505" lon="11.5650317"><ele>597.2</ele><time>2026-04-11T09:48:13.701Z</time></trkpt><trkpt lat="43.4254067" lon="11.5650217"><ele>597.4000000000001</ele><time>2026-04-11T09:48:14.7Z</time></trkpt><trkpt lat="43.425305" lon="11.5649983"><ele>597.5999999999999</ele><time>2026-04-11T09:48:15.7Z</time></trkpt><trkpt lat="43.4251883" lon="11.56496"><ele>597.8</ele><time>2026-04-11T09:48:16.699Z</time></trkpt><trkpt lat="43.4250717" lon="11.5649067"><ele>598.0</ele><time>2026-04-11T09:48:17.699Z</time></trkpt><trkpt lat="43.4249517" lon="11.564855"><ele>598.0</ele><time>2026-04-11T09:48:18.702Z</time></trkpt><trkpt lat="43.4248283" lon="11.5648083"><ele>598.0</ele><time>2026-04-11T09:48:19.7Z</time></trkpt><trkpt lat="43.4247183" lon="11.56477"><ele>598.0</ele><time>2026-04-11T09:48:20.701Z</time></trkpt><trkpt lat="43.4246233" lon="11.5647317"><ele>598.0</ele><time>2026-04-11T09:48:21.701Z</time></trkpt><trkpt lat="43.4245383" lon="11.5646733"><ele>598.0</ele><time>2026-04-11T09:48:22.701Z</time></trkpt><trkpt lat="43.4244633" lon="11.5645933"><ele>598.1666666666667</ele><time>2026-04-11T09:48:23.7Z</time></trkpt><trkpt lat="43.42439" lon="11.564515"><ele>598.3333333333334</ele><time>2026-04-11T09:48:24.699Z</time></trkpt><trkpt lat="43.424315" lon="11.5644633"><ele>598.5</ele><time>2026-04-11T09:48:25.701Z</time></trkpt><trkpt lat="43.42424" lon="11.5644217"><ele>598.6666666666666</ele><time>2026-04-11T09:48:26.701Z</time></trkpt><trkpt lat="43.4241517" lon="11.5644183"><ele>598.8333333333333</ele><time>2026-04-11T09:48:27.699Z</time></trkpt><trkpt lat="43.42405" lon="11.5644367"><ele>599.0</ele><time>2026-04-11T09:48:28.701Z</time></trkpt><trkpt lat="43.4239433" lon="11.5644733"><ele>599.0</ele><time>2026-04-11T09:48:29.699Z</time></trkpt><trkpt lat="43.4238383" lon="11.5645067"><ele>599.0</ele><time>2026-04-11T09:48:30.7Z</time></trkpt><trkpt lat="43.42373" lon="11.5645133"><ele>599.0</ele><time>2026-04-11T09:48:31.7Z</time></trkpt><trkpt lat="43.423605" lon="11.564505"><ele>599.0</ele><time>2026-04-11T09:48:32.702Z</time></trkpt><trkpt lat="43.4234733" lon="11.5644867"><ele>599.25</ele><time>2026-04-11T09:48:33.7Z</time></trkpt><trkpt lat="43.4233417" lon="11.5644667"><ele>599.5</ele><time>2026-04-11T09:48:34.7Z</time></trkpt><trkpt lat="43.423215" lon="11.5644467"><ele>599.75</ele><time>2026-04-11T09:48:35.7Z</time></trkpt><trkpt lat="43.42309" lon="11.564425"><ele>600.0</ele><time>2026-04-11T09:48:36.7Z</time></trkpt><trkpt lat="43.422975" lon="11.5643967"><ele>599.4</ele><time>2026-04-11T09:48:37.7Z</time></trkpt><trkpt lat="43.42287" lon="11.56436"><ele>598.8</ele><time>2026-04-11T09:48:38.7Z</time></trkpt><trkpt lat="43.422775" lon="11.5643283"><ele>598.2</ele><time>2026-04-11T09:48:39.7Z</time></trkpt><trkpt lat="43.4226883" lon="11.564315"><ele>597.6</ele><time>2026-04-11T09:48:40.699Z</time></trkpt><trkpt lat="43.422595" lon="11.5643167"><ele>597.0</ele><time>2026-04-11T09:48:41.7Z</time></trkpt><trkpt lat="43.4224967" lon="11.5643383"><ele>597.0</ele><time>2026-04-11T09:48:42.703Z</time></trkpt><trkpt lat="43.4224" lon="11.5643617"><ele>597.0</ele><time>2026-04-11T09:48:43.699Z</time></trkpt><trkpt lat="43.42231" lon="11.5643767"><ele>597.0</ele><time>2026-04-11T09:48:44.702Z</time></trkpt><trkpt lat="43.4222133" lon="11.5643883"><ele>597.0</ele><time>2026-04-11T09:48:45.699Z</time></trkpt><trkpt lat="43.42211" lon="11.564395"><ele>597.0</ele><time>2026-04-11T09:48:46.699Z</time></trkpt><trkpt lat="43.422005" lon="11.564395"><ele>594.8000000000001</ele><time>2026-04-11T09:48:47.701Z</time></trkpt><trkpt lat="43.4218967" lon="11.56439"><ele>592.6</ele><time>2026-04-11T09:48:48.701Z</time></trkpt><trkpt lat="43.4217867" lon="11.5643783"><ele>590.4000000000001</ele><time>2026-04-11T09:48:49.706Z</time></trkpt><trkpt lat="43.4216767" lon="11.5643617"><ele>588.2</ele><time>2026-04-11T09:48:50.702Z</time></trkpt><trkpt lat="43.4215683" lon="11.564345"><ele>586.0</ele><time>2026-04-11T09:48:51.699Z</time></trkpt><trkpt lat="43.4214617" lon="11.5643417"><ele>586.0</ele><time>2026-04-11T09:48:52.699Z</time></trkpt><trkpt lat="43.42136" lon="11.5643533"><ele>586.0</ele><time>2026-04-11T09:48:53.698Z</time></trkpt><trkpt lat="43.42126" lon="11.5643817"><ele>586.0</ele><time>2026-04-11T09:48:54.699Z</time></trkpt><trkpt lat="43.421165" lon="11.5644267"><ele>586.0</ele><time>2026-04-11T09:48:55.7Z</time></trkpt><trkpt lat="43.42108" lon="11.5644833"><ele>586.0</ele><time>2026-04-11T09:48:56.706Z</time></trkpt><trkpt lat="43.42101" lon="11.56454"><ele>583.1666666666667</ele><time>2026-04-11T09:48:57.701Z</time></trkpt><trkpt lat="43.420955" lon="11.5645917"><ele>580.3333333333334</ele><time>2026-04-11T09:48:58.7Z</time></trkpt><trkpt lat="43.4208883" lon="11.564725"><ele>577.5</ele><time>2026-04-11T09:49:00.701Z</time></trkpt><trkpt lat="43.4208533" lon="11.5648083"><ele>574.6666666666666</ele><time>2026-04-11T09:49:01.7Z</time></trkpt><trkpt lat="43.4208117" lon="11.5648917"><ele>571.8333333333333</ele><time>2026-04-11T09:49:02.701Z</time></trkpt><trkpt lat="43.4207667" lon="11.56497"><ele>569.0</ele><time>2026-04-11T09:49:03.7Z</time></trkpt><trkpt lat="43.4207183" lon="11.5650383"><ele>569.0</ele><time>2026-04-11T09:49:04.7Z</time></trkpt><trkpt lat="43.4206483" lon="11.5651"><ele>569.0</ele><time>2026-04-11T09:49:05.702Z</time></trkpt><trkpt lat="43.4205667" lon="11.5651533"><ele>569.0</ele><time>2026-04-11T09:49:06.7Z</time></trkpt><trkpt lat="43.42047" lon="11.5652017"><ele>569.0</ele><time>2026-04-11T09:49:07.701Z</time></trkpt><trkpt lat="43.420365" lon="11.56524"><ele>569.0</ele><time>2026-04-11T09:49:08.7Z</time></trkpt><trkpt lat="43.420245" lon="11.56526"><ele>566.5</ele><time>2026-04-11T09:49:09.699Z</time></trkpt><trkpt lat="43.4201133" lon="11.5652717"><ele>564.0</ele><time>2026-04-11T09:49:10.7Z</time></trkpt><trkpt lat="43.4199667" lon="11.5652667"><ele>561.5</ele><time>2026-04-11T09:49:11.701Z</time></trkpt><trkpt lat="43.419815" lon="11.5652467"><ele>559.0</ele><time>2026-04-11T09:49:12.7Z</time></trkpt><trkpt lat="43.4196633" lon="11.5652133"><ele>557.0</ele><time>2026-04-11T09:49:13.701Z</time></trkpt><trkpt lat="43.4195083" lon="11.5651667"><ele>555.0</ele><time>2026-04-11T09:49:14.701Z</time></trkpt><trkpt lat="43.419355" lon="11.5651133"><ele>553.0</ele><time>2026-04-11T09:49:15.7Z</time></trkpt><trkpt lat="43.41921" lon="11.5650433"><ele>553.0</ele><time>2026-04-11T09:49:16.701Z</time></trkpt><trkpt lat="43.41907" lon="11.5649517"><ele>553.0</ele><time>2026-04-11T09:49:17.7Z</time></trkpt><trkpt lat="43.418935" lon="11.56485"><ele>553.0</ele><time>2026-04-11T09:49:18.701Z</time></trkpt><trkpt lat="43.4188133" lon="11.5647583"><ele>553.0</ele><time>2026-04-11T09:49:19.7Z</time></trkpt><trkpt lat="43.4186883" lon="11.5646817"><ele>555.0</ele><time>2026-04-11T09:49:20.702Z</time></trkpt><trkpt lat="43.4185667" lon="11.5646283"><ele>557.0</ele><time>2026-04-11T09:49:21.701Z</time></trkpt><trkpt lat="43.41844" lon="11.564605"><ele>559.0</ele><time>2026-04-11T09:49:22.699Z</time></trkpt><trkpt lat="43.4183117" lon="11.56461"><ele>561.0</ele><time>2026-04-11T09:49:23.701Z</time></trkpt><trkpt lat="43.418195" lon="11.5646317"><ele>561.0</ele><time>2026-04-11T09:49:24.701Z</time></trkpt><trkpt lat="43.4181083" lon="11.5646583"><ele>561.0</ele><time>2026-04-11T09:49:25.7Z</time></trkpt><trkpt lat="43.4180417" lon="11.5646717"><ele>561.0</ele><time>2026-04-11T09:49:26.703Z</time></trkpt><trkpt lat="43.4179783" lon="11.5646733"><ele>561.0</ele><time>2026-04-11T09:49:28.701Z</time></trkpt><trkpt lat="43.4180067" lon="11.5648183"><ele>561.0</ele><time>2026-04-11T09:49:44.701Z</time></trkpt><trkpt lat="43.4180617" lon="11.56496"><ele>561.0</ele><time>2026-04-11T09:49:46.7Z</time></trkpt><trkpt lat="43.4180717" lon="11.5650467"><ele>561.0</ele><time>2026-04-11T09:49:47.7Z</time></trkpt><trkpt lat="43.4180667" lon="11.5651433"><ele>561.0</ele><time>2026-04-11T09:49:48.702Z</time></trkpt><trkpt lat="43.4180533" lon="11.5652367"><ele>561.0</ele><time>2026-04-11T09:49:49.699Z</time></trkpt><trkpt lat="43.4180333" lon="11.56532"><ele>561.0</ele><time>2026-04-11T09:49:50.701Z</time></trkpt><trkpt lat="43.4180167" lon="11.5654583"><ele>561.0</ele><time>2026-04-11T09:49:52.7Z</time></trkpt><trkpt lat="43.418075" lon="11.56556"><ele>561.0</ele><time>2026-04-11T09:49:54.702Z</time></trkpt><trkpt lat="43.4181617" lon="11.5656483"><ele>558.6</ele><time>2026-04-11T09:49:56.702Z</time></trkpt><trkpt lat="43.4182283" lon="11.5657567"><ele>556.2</ele><time>2026-04-11T09:49:58.701Z</time></trkpt><trkpt lat="43.4182267" lon="11.5659167"><ele>553.8</ele><time>2026-04-11T09:50:00.699Z</time></trkpt><trkpt lat="43.4182083" lon="11.5660033"><ele>551.4</ele><time>2026-04-11T09:50:01.7Z</time></trkpt><trkpt lat="43.418175" lon="11.5661567"><ele>549.0</ele><time>2026-04-11T09:50:03.7Z</time></trkpt><trkpt lat="43.41812" lon="11.566275"><ele>546.0</ele><time>2026-04-11T09:50:05.699Z</time></trkpt><trkpt lat="43.4180133" lon="11.5663433"><ele>543.0</ele><time>2026-04-11T09:50:07.7Z</time></trkpt><trkpt lat="43.4179083" lon="11.56637"><ele>540.0</ele><time>2026-04-11T09:50:09.701Z</time></trkpt><trkpt lat="43.4178317" lon="11.566385"><ele>537.0</ele><time>2026-04-11T09:50:11.701Z</time></trkpt><trkpt lat="43.4177567" lon="11.566405"><ele>534.0</ele><time>2026-04-11T09:50:14.701Z</time></trkpt><trkpt lat="43.4176683" lon="11.56651"><ele>533.6666666666666</ele><time>2026-04-11T09:50:22.699Z</time></trkpt><trkpt lat="43.4176617" lon="11.56662"><ele>533.3333333333334</ele><time>2026-04-11T09:50:26.7Z</time></trkpt><trkpt lat="43.4176783" lon="11.5667117"><ele>533.0</ele><time>2026-04-11T09:50:29.699Z</time></trkpt><trkpt lat="43.417715" lon="11.5667917"><ele>532.6666666666667</ele><time>2026-04-11T09:50:31.699Z</time></trkpt><trkpt lat="43.4177683" lon="11.566865"><ele>532.3333333333334</ele><time>2026-04-11T09:50:34.7Z</time></trkpt><trkpt lat="43.4178167" lon="11.5669483"><ele>532.0</ele><time>2026-04-11T09:50:37.7Z</time></trkpt><trkpt lat="43.4178633" lon="11.56705"><ele>529.3333333333334</ele><time>2026-04-11T09:50:40.699Z</time></trkpt><trkpt lat="43.4179367" lon="11.5671233"><ele>526.6666666666667</ele><time>2026-04-11T09:50:42.7Z</time></trkpt><trkpt lat="43.418005" lon="11.5672383"><ele>524.0</ele><time>2026-04-11T09:50:44.703Z</time></trkpt><trkpt lat="43.4180767" lon="11.5673183"><ele>521.3333333333334</ele><time>2026-04-11T09:50:46.699Z</time></trkpt><trkpt lat="43.4181133" lon="11.5673917"><ele>518.6666666666666</ele><time>2026-04-11T09:50:48.7Z</time></trkpt><trkpt lat="43.41816" lon="11.5674817"><ele>516.0</ele><time>2026-04-11T09:50:50.702Z</time></trkpt><trkpt lat="43.418215" lon="11.5675717"><ele>516.0</ele><time>2026-04-11T09:50:52.699Z</time></trkpt><trkpt lat="43.4182683" lon="11.5676783"><ele>516.0</ele><time>2026-04-11T09:50:54.699Z</time></trkpt><trkpt lat="43.4183033" lon="11.567795"><ele>516.0</ele><time>2026-04-11T09:50:56.701Z</time></trkpt><trkpt lat="43.418275" lon="11.5679217"><ele>516.0</ele><time>2026-04-11T09:50:58.7Z</time></trkpt><trkpt lat="43.4182017" lon="11.5680317"><ele>516.0</ele><time>2026-04-11T09:51:00.701Z</time></trkpt><trkpt lat="43.4180933" lon="11.568095"><ele>512.1666666666666</ele><time>2026-04-11T09:51:02.702Z</time></trkpt><trkpt lat="43.41803" lon="11.5681117"><ele>508.33333333333337</ele><time>2026-04-11T09:51:03.7Z</time></trkpt><trkpt lat="43.417965" lon="11.5681217"><ele>504.5</ele><time>2026-04-11T09:51:04.701Z</time></trkpt><trkpt lat="43.41787" lon="11.5681283"><ele>500.6666666666667</ele><time>2026-04-11T09:51:06.7Z</time></trkpt><trkpt lat="43.41777" lon="11.5681583"><ele>496.83333333333337</ele><time>2026-04-11T09:51:08.702Z</time></trkpt><trkpt lat="43.4176533" lon="11.5681883"><ele>493.0</ele><time>2026-04-11T09:51:10.699Z</time></trkpt><trkpt lat="43.4175833" lon="11.56819"><ele>493.00000000000006</ele><time>2026-04-11T09:51:11.701Z</time></trkpt><trkpt lat="43.4175017" lon="11.568175"><ele>493.0</ele><time>2026-04-11T09:51:12.7Z</time></trkpt><trkpt lat="43.4174217" lon="11.568165"><ele>493.0</ele><time>2026-04-11T09:51:13.7Z</time></trkpt><trkpt lat="43.4173467" lon="11.568145"><ele>493.0</ele><time>2026-04-11T09:51:14.701Z</time></trkpt><trkpt lat="43.4172783" lon="11.5680967"><ele>493.00000000000006</ele><time>2026-04-11T09:51:15.7Z</time></trkpt><trkpt lat="43.4172233" lon="11.5680133"><ele>493.0</ele><time>2026-04-11T09:51:16.7Z</time></trkpt><trkpt lat="43.4171767" lon="11.5679167"><ele>495.00000000000006</ele><time>2026-04-11T09:51:17.699Z</time></trkpt><trkpt lat="43.41712" lon="11.567795"><ele>497.0</ele><time>2026-04-11T09:51:18.701Z</time></trkpt><trkpt lat="43.4170667" lon="11.5676917"><ele>499.0</ele><time>2026-04-11T09:51:19.7Z</time></trkpt><trkpt lat="43.4170217" lon="11.5675983"><ele>501.0</ele><time>2026-04-11T09:51:20.701Z</time></trkpt><trkpt lat="43.41698" lon="11.5675017"><ele>503.00000000000006</ele><time>2026-04-11T09:51:21.701Z</time></trkpt><trkpt lat="43.4169317" lon="11.567405"><ele>505.0</ele><time>2026-04-11T09:51:22.7Z</time></trkpt><trkpt lat="43.4168817" lon="11.5673217"><ele>505.0</ele><time>2026-04-11T09:51:23.7Z</time></trkpt><trkpt lat="43.4168267" lon="11.5672533"><ele>505.0</ele><time>2026-04-11T09:51:24.702Z</time></trkpt><trkpt lat="43.4167733" lon="11.5671933"><ele>505.0</ele><time>2026-04-11T09:51:25.7Z</time></trkpt><trkpt lat="43.4166717" lon="11.5671317"><ele>505.0</ele><time>2026-04-11T09:51:27.701Z</time></trkpt><trkpt lat="43.416555" lon="11.5672317"><ele>505.0</ele><time>2026-04-11T09:51:29.701Z</time></trkpt><trkpt lat="43.4165033" lon="11.5673117"><ele>505.00000000000006</ele><time>2026-04-11T09:51:30.699Z</time></trkpt><trkpt lat="43.4164467" lon="11.5673983"><ele>505.0</ele><time>2026-04-11T09:51:31.7Z</time></trkpt><trkpt lat="43.4163833" lon="11.5674717"><ele>505.0</ele><time>2026-04-11T09:51:32.702Z</time></trkpt><trkpt lat="43.41631" lon="11.5675333"><ele>505.0</ele><time>2026-04-11T09:51:33.699Z</time></trkpt><trkpt lat="43.4162217" lon="11.5675867"><ele>505.00000000000006</ele><time>2026-04-11T09:51:34.699Z</time></trkpt><trkpt lat="43.4161383" lon="11.5676267"><ele>505.0</ele><time>2026-04-11T09:51:35.699Z</time></trkpt><trkpt lat="43.4160733" lon="11.5676617"><ele>505.6666666666667</ele><time>2026-04-11T09:51:36.699Z</time></trkpt><trkpt lat="43.41601" lon="11.567705"><ele>506.33333333333337</ele><time>2026-04-11T09:51:38.701Z</time></trkpt><trkpt lat="43.4159183" lon="11.5677133"><ele>507.0</ele><time>2026-04-11T09:52:15.7Z</time></trkpt><trkpt lat="43.4158533" lon="11.5677283"><ele>507.66666666666663</ele><time>2026-04-11T09:52:16.698Z</time></trkpt><trkpt lat="43.415735" lon="11.5678067"><ele>508.3333333333333</ele><time>2026-04-11T09:52:18.702Z</time></trkpt><trkpt lat="43.4156833" lon="11.5678783"><ele>509.0</ele><time>2026-04-11T09:52:19.699Z</time></trkpt><trkpt lat="43.415625" lon="11.5679983"><ele>510.4</ele><time>2026-04-11T09:52:21.7Z</time></trkpt><trkpt lat="43.415555" lon="11.568045"><ele>511.79999999999995</ele><time>2026-04-11T09:52:23.7Z</time></trkpt><trkpt lat="43.4154167" lon="11.5679767"><ele>513.2</ele><time>2026-04-11T09:52:25.7Z</time></trkpt><trkpt lat="43.4153433" lon="11.5679"><ele>514.6</ele><time>2026-04-11T09:52:26.701Z</time></trkpt><trkpt lat="43.4152883" lon="11.5678367"><ele>516.0</ele><time>2026-04-11T09:52:27.701Z</time></trkpt><trkpt lat="43.4152017" lon="11.567815"><ele>511.4</ele><time>2026-04-11T09:52:29.701Z</time></trkpt><trkpt lat="43.4151067" lon="11.5678833"><ele>506.8</ele><time>2026-04-11T09:52:31.7Z</time></trkpt><trkpt lat="43.4150267" lon="11.56795"><ele>502.19999999999993</ele><time>2026-04-11T09:52:32.701Z</time></trkpt><trkpt lat="43.4149333" lon="11.5679967"><ele>497.59999999999997</ele><time>2026-04-11T09:52:33.699Z</time></trkpt><trkpt lat="43.414825" lon="11.5680283"><ele>493.0</ele><time>2026-04-11T09:52:34.699Z</time></trkpt><trkpt lat="43.4147133" lon="11.568035"><ele>494.25</ele><time>2026-04-11T09:52:35.701Z</time></trkpt><trkpt lat="43.4146017" lon="11.5680317"><ele>495.5</ele><time>2026-04-11T09:52:36.701Z</time></trkpt><trkpt lat="43.4144817" lon="11.5680317"><ele>496.75</ele><time>2026-04-11T09:52:37.7Z</time></trkpt><trkpt lat="43.4143617" lon="11.5680367"><ele>498.0</ele><time>2026-04-11T09:52:38.701Z</time></trkpt><trkpt lat="43.414245" lon="11.5680483"><ele>498.0</ele><time>2026-04-11T09:52:39.7Z</time></trkpt><trkpt lat="43.4141283" lon="11.56806"><ele>497.99999999999994</ele><time>2026-04-11T09:52:40.7Z</time></trkpt><trkpt lat="43.4140167" lon="11.568065"><ele>497.99999999999994</ele><time>2026-04-11T09:52:41.699Z</time></trkpt><trkpt lat="43.4139117" lon="11.5680633"><ele>498.0</ele><time>2026-04-11T09:52:42.7Z</time></trkpt><trkpt lat="43.4138233" lon="11.5680517"><ele>498.0</ele><time>2026-04-11T09:52:43.698Z</time></trkpt><trkpt lat="43.4137417" lon="11.5680133"><ele>497.79999999999995</ele><time>2026-04-11T09:52:44.7Z</time></trkpt><trkpt lat="43.413655" lon="11.5679517"><ele>497.59999999999997</ele><time>2026-04-11T09:52:45.701Z</time></trkpt><trkpt lat="43.41356" lon="11.5678817"><ele>497.40000000000003</ele><time>2026-04-11T09:52:46.701Z</time></trkpt><trkpt lat="43.4134667" lon="11.567815"><ele>497.20000000000005</ele><time>2026-04-11T09:52:47.7Z</time></trkpt><trkpt lat="43.4133833" lon="11.5677583"><ele>497.0</ele><time>2026-04-11T09:52:48.699Z</time></trkpt><trkpt lat="43.4133183" lon="11.5677167"><ele>497.0</ele><time>2026-04-11T09:52:49.699Z</time></trkpt><trkpt lat="43.4132533" lon="11.5676967"><ele>497.00000000000006</ele><time>2026-04-11T09:52:50.699Z</time></trkpt><trkpt lat="43.4131917" lon="11.567725"><ele>497.00000000000006</ele><time>2026-04-11T09:52:51.7Z</time></trkpt><trkpt lat="43.4131" lon="11.5678167"><ele>497.0</ele><time>2026-04-11T09:52:53.699Z</time></trkpt><trkpt lat="43.4130533" lon="11.567945"><ele>497.0</ele><time>2026-04-11T09:52:54.702Z</time></trkpt><trkpt lat="43.4129917" lon="11.568075"><ele>499.20000000000005</ele><time>2026-04-11T09:52:55.701Z</time></trkpt><trkpt lat="43.41294" lon="11.568195"><ele>501.40000000000003</ele><time>2026-04-11T09:52:56.701Z</time></trkpt><trkpt lat="43.4128817" lon="11.56829"><ele>503.59999999999997</ele><time>2026-04-11T09:52:57.701Z</time></trkpt><trkpt lat="43.412815" lon="11.568365"><ele>505.79999999999995</ele><time>2026-04-11T09:52:58.7Z</time></trkpt><trkpt lat="43.4127333" lon="11.5684217"><ele>508.0</ele><time>2026-04-11T09:52:59.7Z</time></trkpt><trkpt lat="43.4126233" lon="11.5684667"><ele>508.0</ele><time>2026-04-11T09:53:00.701Z</time></trkpt><trkpt lat="43.412505" lon="11.5685133"><ele>508.0</ele><time>2026-04-11T09:53:01.7Z</time></trkpt><trkpt lat="43.412385" lon="11.568555"><ele>508.0</ele><time>2026-04-11T09:53:02.7Z</time></trkpt><trkpt lat="43.4122733" lon="11.568585"><ele>508.0</ele><time>2026-04-11T09:53:03.697Z</time></trkpt><trkpt lat="43.4121767" lon="11.5686"><ele>508.4</ele><time>2026-04-11T09:53:04.698Z</time></trkpt><trkpt lat="43.41209" lon="11.5686217"><ele>508.79999999999995</ele><time>2026-04-11T09:53:05.699Z</time></trkpt><trkpt lat="43.4120133" lon="11.5686667"><ele>509.2</ele><time>2026-04-11T09:53:06.699Z</time></trkpt><trkpt lat="43.41195" lon="11.568775"><ele>509.6</ele><time>2026-04-11T09:53:07.701Z</time></trkpt><trkpt lat="43.4118917" lon="11.5688883"><ele>510.0</ele><time>2026-04-11T09:53:08.701Z</time></trkpt><trkpt lat="43.4118317" lon="11.5689717"><ele>507.4</ele><time>2026-04-11T09:53:09.701Z</time></trkpt><trkpt lat="43.411765" lon="11.5690133"><ele>504.8</ele><time>2026-04-11T09:53:10.7Z</time></trkpt><trkpt lat="43.4116867" lon="11.5690167"><ele>502.20000000000005</ele><time>2026-04-11T09:53:11.7Z</time></trkpt><trkpt lat="43.4116033" lon="11.5689833"><ele>499.6</ele><time>2026-04-11T09:53:12.701Z</time></trkpt><trkpt lat="43.411505" lon="11.5689317"><ele>497.0</ele><time>2026-04-11T09:53:13.7Z</time></trkpt><trkpt lat="43.4113933" lon="11.5688467"><ele>497.25</ele><time>2026-04-11T09:53:14.7Z</time></trkpt><trkpt lat="43.4112817" lon="11.5687683"><ele>497.5</ele><time>2026-04-11T09:53:15.699Z</time></trkpt><trkpt lat="43.411175" lon="11.568685"><ele>497.75</ele><time>2026-04-11T09:53:16.7Z</time></trkpt><trkpt lat="43.411065" lon="11.5686017"><ele>498.0</ele><time>2026-04-11T09:53:17.7Z</time></trkpt><trkpt lat="43.4109683" lon="11.56853"><ele>499.5</ele><time>2026-04-11T09:53:18.7Z</time></trkpt><trkpt lat="43.410895" lon="11.56848"><ele>501.0</ele><time>2026-04-11T09:53:19.699Z</time></trkpt><trkpt lat="43.4108417" lon="11.5684217"><ele>502.5</ele><time>2026-04-11T09:53:21.7Z</time></trkpt><trkpt lat="43.410845" lon="11.5683183"><ele>504.0</ele><time>2026-04-11T09:54:29.699Z</time></trkpt><trkpt lat="43.4109183" lon="11.5682417"><ele>505.5</ele><time>2026-04-11T09:54:32.702Z</time></trkpt><trkpt lat="43.41099" lon="11.568215"><ele>507.0</ele><time>2026-04-11T09:54:34.7Z</time></trkpt><trkpt lat="43.4110783" lon="11.5682317"><ele>507.0</ele><time>2026-04-11T09:54:36.699Z</time></trkpt><trkpt lat="43.4111933" lon="11.568225"><ele>507.0</ele><time>2026-04-11T09:54:38.701Z</time></trkpt><trkpt lat="43.4112483" lon="11.5681783"><ele>507.0</ele><time>2026-04-11T09:54:39.702Z</time></trkpt><trkpt lat="43.4112967" lon="11.5681117"><ele>507.0</ele><time>2026-04-11T09:54:40.699Z</time></trkpt><trkpt lat="43.4113517" lon="11.568055"><ele>507.0</ele><time>2026-04-11T09:54:41.7Z</time></trkpt><trkpt lat="43.41142" lon="11.5680217"><ele>507.0</ele><time>2026-04-11T09:54:42.7Z</time></trkpt><trkpt lat="43.4115033" lon="11.567995"><ele>507.6</ele><time>2026-04-11T09:54:43.698Z</time></trkpt><trkpt lat="43.4115917" lon="11.56796"><ele>508.20000000000005</ele><time>2026-04-11T09:54:44.697Z</time></trkpt><trkpt lat="43.4116867" lon="11.5679"><ele>508.8</ele><time>2026-04-11T09:54:45.699Z</time></trkpt><trkpt lat="43.4117867" lon="11.5678283"><ele>509.4</ele><time>2026-04-11T09:54:46.699Z</time></trkpt><trkpt lat="43.4118883" lon="11.5677533"><ele>510.0</ele><time>2026-04-11T09:54:47.7Z</time></trkpt><trkpt lat="43.4119933" lon="11.567675"><ele>513.25</ele><time>2026-04-11T09:54:48.698Z</time></trkpt><trkpt lat="43.4121017" lon="11.5675967"><ele>516.5</ele><time>2026-04-11T09:54:49.699Z</time></trkpt><trkpt lat="43.4122083" lon="11.5675183"><ele>519.75</ele><time>2026-04-11T09:54:50.701Z</time></trkpt><trkpt lat="43.4123083" lon="11.5674417"><ele>523.0</ele><time>2026-04-11T09:54:51.7Z</time></trkpt><trkpt lat="43.412405" lon="11.5673733"><ele>523.6666666666667</ele><time>2026-04-11T09:54:52.699Z</time></trkpt><trkpt lat="43.41249" lon="11.567315"><ele>524.3333333333334</ele><time>2026-04-11T09:54:53.7Z</time></trkpt><trkpt lat="43.41256" lon="11.5672583"><ele>525.0</ele><time>2026-04-11T09:54:54.7Z</time></trkpt><trkpt lat="43.41261" lon="11.5671417"><ele>525.6666666666666</ele><time>2026-04-11T09:54:56.7Z</time></trkpt><trkpt lat="43.4125683" lon="11.56701"><ele>526.3333333333333</ele><time>2026-04-11T09:54:58.7Z</time></trkpt><trkpt lat="43.41252" lon="11.56695"><ele>527.0</ele><time>2026-04-11T09:54:59.7Z</time></trkpt><trkpt lat="43.4124683" lon="11.5668783"><ele>528.6666666666666</ele><time>2026-04-11T09:55:00.7Z</time></trkpt><trkpt lat="43.4124033" lon="11.5668017"><ele>530.3333333333333</ele><time>2026-04-11T09:55:01.699Z</time></trkpt><trkpt lat="43.4123383" lon="11.5667217"><ele>532.0</ele><time>2026-04-11T09:55:02.699Z</time></trkpt><trkpt lat="43.41228" lon="11.5666217"><ele>533.6666666666666</ele><time>2026-04-11T09:55:03.699Z</time></trkpt><trkpt lat="43.4122433" lon="11.5665133"><ele>535.3333333333334</ele><time>2026-04-11T09:55:04.699Z</time></trkpt><trkpt lat="43.412225" lon="11.5664"><ele>537.0</ele><time>2026-04-11T09:55:05.701Z</time></trkpt><trkpt lat="43.41222" lon="11.566275"><ele>539.0</ele><time>2026-04-11T09:55:06.699Z</time></trkpt><trkpt lat="43.4122417" lon="11.5661383"><ele>541.0</ele><time>2026-04-11T09:55:07.699Z</time></trkpt><trkpt lat="43.412275" lon="11.5660133"><ele>543.0</ele><time>2026-04-11T09:55:08.701Z</time></trkpt><trkpt lat="43.4123033" lon="11.5658967"><ele>545.0</ele><time>2026-04-11T09:55:09.697Z</time></trkpt><trkpt lat="43.4123267" lon="11.565785"><ele>547.0</ele><time>2026-04-11T09:55:10.699Z</time></trkpt><trkpt lat="43.4123617" lon="11.56569"><ele>549.0</ele><time>2026-04-11T09:55:11.699Z</time></trkpt><trkpt lat="43.412415" lon="11.5656183"><ele>549.0</ele><time>2026-04-11T09:55:12.7Z</time></trkpt><trkpt lat="43.4124533" lon="11.565545"><ele>549.0</ele><time>2026-04-11T09:55:13.699Z</time></trkpt><trkpt lat="43.4124617" lon="11.5653783"><ele>549.0</ele><time>2026-04-11T09:55:15.701Z</time></trkpt><trkpt lat="43.4124333" lon="11.56529"><ele>549.0</ele><time>2026-04-11T09:55:16.699Z</time></trkpt><trkpt lat="43.412395" lon="11.56518"><ele>549.0</ele><time>2026-04-11T09:55:17.699Z</time></trkpt><trkpt lat="43.4123717" lon="11.56505"><ele>549.0</ele><time>2026-04-11T09:55:18.699Z</time></trkpt><trkpt lat="43.4123517" lon="11.56493"><ele>549.1666666666666</ele><time>2026-04-11T09:55:19.699Z</time></trkpt><trkpt lat="43.4123417" lon="11.5648267"><ele>549.3333333333334</ele><time>2026-04-11T09:55:20.701Z</time></trkpt><trkpt lat="43.4123383" lon="11.564715"><ele>549.5</ele><time>2026-04-11T09:55:22.699Z</time></trkpt><trkpt lat="43.4123333" lon="11.564585"><ele>549.6666666666667</ele><time>2026-04-11T09:55:26.7Z</time></trkpt><trkpt lat="43.4123717" lon="11.564455"><ele>549.8333333333334</ele><time>2026-04-11T09:55:28.699Z</time></trkpt><trkpt lat="43.4124067" lon="11.5643633"><ele>550.0</ele><time>2026-04-11T09:55:29.699Z</time></trkpt><trkpt lat="43.4124483" lon="11.5642667"><ele>550.0</ele><time>2026-04-11T09:55:30.699Z</time></trkpt><trkpt lat="43.4125017" lon="11.5641767"><ele>550.0</ele><time>2026-04-11T09:55:31.7Z</time></trkpt><trkpt lat="43.41255" lon="11.5640933"><ele>550.0</ele><time>2026-04-11T09:55:32.7Z</time></trkpt><trkpt lat="43.4125933" lon="11.564005"><ele>550.0</ele><time>2026-04-11T09:55:33.701Z</time></trkpt><trkpt lat="43.4126367" lon="11.5639167"><ele>550.0</ele><time>2026-04-11T09:55:34.699Z</time></trkpt><trkpt lat="43.41269" lon="11.5638317"><ele>550.0</ele><time>2026-04-11T09:55:35.701Z</time></trkpt><trkpt lat="43.4127467" lon="11.5637517"><ele>548.6666666666667</ele><time>2026-04-11T09:55:36.7Z</time></trkpt><trkpt lat="43.4127967" lon="11.563665"><ele>547.3333333333334</ele><time>2026-04-11T09:55:37.699Z</time></trkpt><trkpt lat="43.4128467" lon="11.563575"><ele>546.0</ele><time>2026-04-11T09:55:38.7Z</time></trkpt><trkpt lat="43.4129017" lon="11.5634967"><ele>544.6666666666666</ele><time>2026-04-11T09:55:39.695Z</time></trkpt><trkpt lat="43.41296" lon="11.56343"><ele>543.3333333333333</ele><time>2026-04-11T09:55:40.7Z</time></trkpt><trkpt lat="43.413005" lon="11.5633617"><ele>542.0</ele><time>2026-04-11T09:55:41.7Z</time></trkpt><trkpt lat="43.4130167" lon="11.5632733"><ele>542.0</ele><time>2026-04-11T09:55:42.701Z</time></trkpt><trkpt lat="43.41301" lon="11.5631733"><ele>542.0</ele><time>2026-04-11T09:55:43.7Z</time></trkpt><trkpt lat="43.413" lon="11.5630733"><ele>542.0</ele><time>2026-04-11T09:55:44.701Z</time></trkpt><trkpt lat="43.4129967" lon="11.5629367"><ele>542.0</ele><time>2026-04-11T09:55:46.7Z</time></trkpt><trkpt lat="43.4129083" lon="11.56293"><ele>542.0</ele><time>2026-04-11T09:55:50.7Z</time></trkpt><trkpt lat="43.4128233" lon="11.563025"><ele>542.0</ele><time>2026-04-11T09:55:52.7Z</time></trkpt><trkpt lat="43.41275" lon="11.563075"><ele>542.0</ele><time>2026-04-11T09:55:54.7Z</time></trkpt><trkpt lat="43.4126633" lon="11.5630967"><ele>542.0</ele><time>2026-04-11T09:55:56.699Z</time></trkpt><trkpt lat="43.41258" lon="11.5631833"><ele>542.0</ele><time>2026-04-11T09:55:58.699Z</time></trkpt><trkpt lat="43.41249" lon="11.5632483"><ele>542.0</ele><time>2026-04-11T09:56:00.699Z</time></trkpt><trkpt lat="43.412395" lon="11.5632283"><ele>542.0</ele><time>2026-04-11T09:56:02.7Z</time></trkpt><trkpt lat="43.4123367" lon="11.5631767"><ele>542.0</ele><time>2026-04-11T09:56:04.699Z</time></trkpt><trkpt lat="43.41231" lon="11.5630917"><ele>542.0</ele><time>2026-04-11T09:56:06.7Z</time></trkpt><trkpt lat="43.4122583" lon="11.5630017"><ele>542.0</ele><time>2026-04-11T09:56:09.701Z</time></trkpt><trkpt lat="43.4121767" lon="11.5630433"><ele>542.0</ele><time>2026-04-11T09:56:11.7Z</time></trkpt><trkpt lat="43.4120683" lon="11.5631117"><ele>542.0</ele><time>2026-04-11T09:56:13.7Z</time></trkpt><trkpt lat="43.412015" lon="11.5631617"><ele>542.0</ele><time>2026-04-11T09:56:14.7Z</time></trkpt><trkpt lat="43.411965" lon="11.56322"><ele>538.0</ele><time>2026-04-11T09:56:15.7Z</time></trkpt><trkpt lat="43.4119133" lon="11.563275"><ele>534.0</ele><time>2026-04-11T09:56:16.699Z</time></trkpt><trkpt lat="43.4118183" lon="11.5633883"><ele>530.0</ele><time>2026-04-11T09:56:18.7Z</time></trkpt><trkpt lat="43.4117217" lon="11.56348"><ele>526.0</ele><time>2026-04-11T09:56:20.7Z</time></trkpt><trkpt lat="43.4116567" lon="11.5634933"><ele>522.0</ele><time>2026-04-11T09:56:21.7Z</time></trkpt><trkpt lat="43.4115883" lon="11.5634917"><ele>518.0</ele><time>2026-04-11T09:56:22.699Z</time></trkpt><trkpt lat="43.411515" lon="11.56349"><ele>518.0</ele><time>2026-04-11T09:56:23.7Z</time></trkpt><trkpt lat="43.4114383" lon="11.563485"><ele>518.0</ele><time>2026-04-11T09:56:24.7Z</time></trkpt><trkpt lat="43.4113633" lon="11.5634767"><ele>518.0</ele><time>2026-04-11T09:56:25.699Z</time></trkpt><trkpt lat="43.4112917" lon="11.56347"><ele>518.0</ele><time>2026-04-11T09:56:26.7Z</time></trkpt><trkpt lat="43.4112133" lon="11.563475"><ele>518.0</ele><time>2026-04-11T09:56:27.7Z</time></trkpt><trkpt lat="43.4111283" lon="11.5634933"><ele>518.0</ele><time>2026-04-11T09:56:28.698Z</time></trkpt><trkpt lat="43.411035" lon="11.56353"><ele>515.0</ele><time>2026-04-11T09:56:29.7Z</time></trkpt><trkpt lat="43.410945" lon="11.56358"><ele>512.0</ele><time>2026-04-11T09:56:30.699Z</time></trkpt><trkpt lat="43.4108633" lon="11.563625"><ele>509.0</ele><time>2026-04-11T09:56:31.701Z</time></trkpt><trkpt lat="43.4107917" lon="11.5636517"><ele>506.0</ele><time>2026-04-11T09:56:32.701Z</time></trkpt><trkpt lat="43.41072" lon="11.56366"><ele>502.99999999999994</ele><time>2026-04-11T09:56:33.7Z</time></trkpt><trkpt lat="43.4106433" lon="11.5636533"><ele>500.0</ele><time>2026-04-11T09:56:34.699Z</time></trkpt><trkpt lat="43.4105733" lon="11.5636233"><ele>499.99999999999994</ele><time>2026-04-11T09:56:35.7Z</time></trkpt><trkpt lat="43.4105067" lon="11.5635867"><ele>500.0</ele><time>2026-04-11T09:56:36.701Z</time></trkpt><trkpt lat="43.41044" lon="11.5635683"><ele>500.0</ele><time>2026-04-11T09:56:37.699Z</time></trkpt><trkpt lat="43.4103733" lon="11.5635633"><ele>500.0</ele><time>2026-04-11T09:56:38.701Z</time></trkpt><trkpt lat="43.4102667" lon="11.5635933"><ele>499.99999999999994</ele><time>2026-04-11T09:56:40.699Z</time></trkpt><trkpt lat="43.4101833" lon="11.5636867"><ele>500.0</ele><time>2026-04-11T09:56:42.701Z</time></trkpt><trkpt lat="43.4100967" lon="11.5638033"><ele>498.0</ele><time>2026-04-11T09:56:44.701Z</time></trkpt><trkpt lat="43.4100133" lon="11.56388"><ele>496.0</ele><time>2026-04-11T09:56:46.7Z</time></trkpt><trkpt lat="43.4098933" lon="11.563905"><ele>494.0</ele><time>2026-04-11T09:56:48.7Z</time></trkpt><trkpt lat="43.4098167" lon="11.5639267"><ele>492.0</ele><time>2026-04-11T09:56:49.7Z</time></trkpt><trkpt lat="43.4097317" lon="11.5639583"><ele>490.0</ele><time>2026-04-11T09:56:50.701Z</time></trkpt><trkpt lat="43.40965" lon="11.56399"><ele>488.1666666666667</ele><time>2026-04-11T09:56:51.699Z</time></trkpt><trkpt lat="43.4095783" lon="11.5640283"><ele>486.33333333333337</ele><time>2026-04-11T09:56:52.699Z</time></trkpt><trkpt lat="43.40952" lon="11.5640717"><ele>484.5</ele><time>2026-04-11T09:56:53.699Z</time></trkpt><trkpt lat="43.4093967" lon="11.56412"><ele>482.66666666666663</ele><time>2026-04-11T09:56:55.701Z</time></trkpt><trkpt lat="43.40932" lon="11.5641117"><ele>480.8333333333333</ele><time>2026-04-11T09:56:56.7Z</time></trkpt><trkpt lat="43.4092433" lon="11.5640983"><ele>479.0</ele><time>2026-04-11T09:56:57.7Z</time></trkpt><trkpt lat="43.4091717" lon="11.5641"><ele>478.99999999999994</ele><time>2026-04-11T09:56:58.7Z</time></trkpt><trkpt lat="43.4091033" lon="11.5641183"><ele>479.0</ele><time>2026-04-11T09:56:59.7Z</time></trkpt><trkpt lat="43.4090267" lon="11.564165"><ele>479.0</ele><time>2026-04-11T09:57:00.703Z</time></trkpt><trkpt lat="43.4089483" lon="11.5642183"><ele>479.0</ele><time>2026-04-11T09:57:01.7Z</time></trkpt><trkpt lat="43.40886" lon="11.5642667"><ele>478.99999999999994</ele><time>2026-04-11T09:57:02.701Z</time></trkpt><trkpt lat="43.40876" lon="11.5643283"><ele>479.0</ele><time>2026-04-11T09:57:03.7Z</time></trkpt><trkpt lat="43.4086617" lon="11.5643967"><ele>477.2</ele><time>2026-04-11T09:57:04.7Z</time></trkpt><trkpt lat="43.4085733" lon="11.56446"><ele>475.4</ele><time>2026-04-11T09:57:05.701Z</time></trkpt><trkpt lat="43.4084917" lon="11.5645367"><ele>473.6</ele><time>2026-04-11T09:57:06.701Z</time></trkpt><trkpt lat="43.4084133" lon="11.5646167"><ele>471.8</ele><time>2026-04-11T09:57:07.701Z</time></trkpt><trkpt lat="43.4083283" lon="11.564675"><ele>470.0</ele><time>2026-04-11T09:57:08.7Z</time></trkpt><trkpt lat="43.4082183" lon="11.564715"><ele>470.0</ele><time>2026-04-11T09:57:09.7Z</time></trkpt><trkpt lat="43.4080983" lon="11.56475"><ele>470.0</ele><time>2026-04-11T09:57:10.701Z</time></trkpt><trkpt lat="43.4079983" lon="11.5647667"><ele>470.0</ele><time>2026-04-11T09:57:11.701Z</time></trkpt><trkpt lat="43.4079167" lon="11.5647617"><ele>470.0</ele><time>2026-04-11T09:57:12.701Z</time></trkpt><trkpt lat="43.407825" lon="11.56473"><ele>470.0</ele><time>2026-04-11T09:57:14.702Z</time></trkpt><trkpt lat="43.407755" lon="11.5647167"><ele>468.99999999999994</ele><time>2026-04-11T09:57:37.701Z</time></trkpt><trkpt lat="43.407685" lon="11.5647"><ele>468.0</ele><time>2026-04-11T09:57:40.701Z</time></trkpt><trkpt lat="43.40762" lon="11.5646767"><ele>467.0</ele><time>2026-04-11T09:57:43.699Z</time></trkpt><trkpt lat="43.4074967" lon="11.5646367"><ele>466.0</ele><time>2026-04-11T09:57:45.701Z</time></trkpt><trkpt lat="43.4074117" lon="11.5646133"><ele>464.99999999999994</ele><time>2026-04-11T09:57:46.707Z</time></trkpt><trkpt lat="43.4073233" lon="11.5645883"><ele>464.0</ele><time>2026-04-11T09:57:47.701Z</time></trkpt><trkpt lat="43.407235" lon="11.5645667"><ele>461.16666666666663</ele><time>2026-04-11T09:57:48.7Z</time></trkpt><trkpt lat="43.4071433" lon="11.5645483"><ele>458.3333333333333</ele><time>2026-04-11T09:57:49.7Z</time></trkpt><trkpt lat="43.40705" lon="11.56453"><ele>455.5</ele><time>2026-04-11T09:57:50.701Z</time></trkpt><trkpt lat="43.406965" lon="11.5645117"><ele>452.66666666666663</ele><time>2026-04-11T09:57:51.7Z</time></trkpt><trkpt lat="43.4068883" lon="11.5644917"><ele>449.8333333333333</ele><time>2026-04-11T09:57:52.699Z</time></trkpt><trkpt lat="43.4068117" lon="11.56447"><ele>447.0</ele><time>2026-04-11T09:57:53.699Z</time></trkpt><trkpt lat="43.4067417" lon="11.5644533"><ele>447.0</ele><time>2026-04-11T09:57:54.699Z</time></trkpt><trkpt lat="43.4066717" lon="11.564435"><ele>447.0</ele><time>2026-04-11T09:57:55.701Z</time></trkpt><trkpt lat="43.4066033" lon="11.5644017"><ele>447.0</ele><time>2026-04-11T09:57:56.701Z</time></trkpt><trkpt lat="43.4065367" lon="11.564355"><ele>447.0</ele><time>2026-04-11T09:57:57.701Z</time></trkpt><trkpt lat="43.4064733" lon="11.564305"><ele>447.0</ele><time>2026-04-11T09:57:58.701Z</time></trkpt><trkpt lat="43.4064" lon="11.56427"><ele>447.0</ele><time>2026-04-11T09:57:59.701Z</time></trkpt><trkpt lat="43.4063217" lon="11.5642417"><ele>444.6666666666667</ele><time>2026-04-11T09:58:00.7Z</time></trkpt><trkpt lat="43.4062383" lon="11.5642117"><ele>442.33333333333337</ele><time>2026-04-11T09:58:01.701Z</time></trkpt><trkpt lat="43.4061583" lon="11.5641733"><ele>440.0</ele><time>2026-04-11T09:58:02.7Z</time></trkpt><trkpt lat="43.4060817" lon="11.5641283"><ele>437.6666666666667</ele><time>2026-04-11T09:58:03.7Z</time></trkpt><trkpt lat="43.4059983" lon="11.56409"><ele>435.33333333333337</ele><time>2026-04-11T09:58:04.699Z</time></trkpt><trkpt lat="43.4059183" lon="11.56405"><ele>433.0</ele><time>2026-04-11T09:58:05.699Z</time></trkpt><trkpt lat="43.4058383" lon="11.56402"><ele>433.00000000000006</ele><time>2026-04-11T09:58:06.7Z</time></trkpt><trkpt lat="43.405765" lon="11.5640067"><ele>433.0</ele><time>2026-04-11T09:58:07.699Z</time></trkpt><trkpt lat="43.4056917" lon="11.5640083"><ele>433.0</ele><time>2026-04-11T09:58:08.7Z</time></trkpt><trkpt lat="43.4056183" lon="11.5640183"><ele>433.0</ele><time>2026-04-11T09:58:09.699Z</time></trkpt><trkpt lat="43.40555" lon="11.5640133"><ele>433.00000000000006</ele><time>2026-04-11T09:58:10.7Z</time></trkpt><trkpt lat="43.4054583" lon="11.5639367"><ele>433.0</ele><time>2026-04-11T09:58:12.7Z</time></trkpt><trkpt lat="43.4053417" lon="11.563875"><ele>430.00000000000006</ele><time>2026-04-11T09:58:14.7Z</time></trkpt><trkpt lat="43.4052717" lon="11.5638667"><ele>427.0</ele><time>2026-04-11T09:58:15.7Z</time></trkpt><trkpt lat="43.4052" lon="11.5638583"><ele>424.0</ele><time>2026-04-11T09:58:17.7Z</time></trkpt><trkpt lat="43.405115" lon="11.5637983"><ele>421.0</ele><time>2026-04-11T09:58:22.7Z</time></trkpt><trkpt lat="43.40505" lon="11.5637683"><ele>418.00000000000006</ele><time>2026-04-11T09:58:23.701Z</time></trkpt><trkpt lat="43.4049767" lon="11.563745"><ele>415.0</ele><time>2026-04-11T09:58:24.699Z</time></trkpt><trkpt lat="43.4049033" lon="11.56372"><ele>414.33333333333337</ele><time>2026-04-11T09:58:25.699Z</time></trkpt><trkpt lat="43.404835" lon="11.5636933"><ele>413.6666666666667</ele><time>2026-04-11T09:58:26.7Z</time></trkpt><trkpt lat="43.4047617" lon="11.5636767"><ele>413.0</ele><time>2026-04-11T09:58:27.699Z</time></trkpt><trkpt lat="43.4046967" lon="11.563675"><ele>412.33333333333337</ele><time>2026-04-11T09:58:28.699Z</time></trkpt><trkpt lat="43.4045917" lon="11.563685"><ele>411.6666666666667</ele><time>2026-04-11T09:58:30.702Z</time></trkpt><trkpt lat="43.4044983" lon="11.563715"><ele>411.0</ele><time>2026-04-11T09:58:32.702Z</time></trkpt><trkpt lat="43.4043967" lon="11.5636633"><ele>408.6666666666667</ele><time>2026-04-11T09:58:34.699Z</time></trkpt><trkpt lat="43.4043483" lon="11.563605"><ele>406.33333333333337</ele><time>2026-04-11T09:58:35.7Z</time></trkpt><trkpt lat="43.4042633" lon="11.563525"><ele>404.0</ele><time>2026-04-11T09:58:37.7Z</time></trkpt><trkpt lat="43.4041717" lon="11.5635183"><ele>401.6666666666667</ele><time>2026-04-11T09:58:39.7Z</time></trkpt><trkpt lat="43.4040833" lon="11.563505"><ele>399.33333333333337</ele><time>2026-04-11T09:58:41.699Z</time></trkpt><trkpt lat="43.4039983" lon="11.563455"><ele>397.0</ele><time>2026-04-11T09:58:43.701Z</time></trkpt><trkpt lat="43.40393" lon="11.5633917"><ele>397.00000000000006</ele><time>2026-04-11T09:58:45.703Z</time></trkpt><trkpt lat="43.4038717" lon="11.5633117"><ele>397.0</ele><time>2026-04-11T09:58:47.7Z</time></trkpt><trkpt lat="43.4038067" lon="11.56324"><ele>397.0</ele><time>2026-04-11T09:58:49.701Z</time></trkpt><trkpt lat="43.4037317" lon="11.563205"><ele>397.0</ele><time>2026-04-11T09:58:51.701Z</time></trkpt><trkpt lat="43.4036683" lon="11.5631783"><ele>397.00000000000006</ele><time>2026-04-11T09:58:53.7Z</time></trkpt><trkpt lat="43.4036" lon="11.5631417"><ele>397.0</ele><time>2026-04-11T09:58:55.7Z</time></trkpt><trkpt lat="43.4035367" lon="11.563115"><ele>394.2857142857143</ele><time>2026-04-11T09:58:57.7Z</time></trkpt><trkpt lat="43.4034817" lon="11.5630567"><ele>391.57142857142856</ele><time>2026-04-11T09:59:00.7Z</time></trkpt><trkpt lat="43.4034283" lon="11.5629767"><ele>388.8571428571429</ele><time>2026-04-11T09:59:03.697Z</time></trkpt><trkpt lat="43.403385" lon="11.5628983"><ele>386.1428571428571</ele><time>2026-04-11T09:59:06.699Z</time></trkpt><trkpt lat="43.4033483" lon="11.562805"><ele>383.42857142857144</ele><time>2026-04-11T09:59:09.7Z</time></trkpt><trkpt lat="43.40328" lon="11.5628383"><ele>380.7142857142857</ele><time>2026-04-11T09:59:32.7Z</time></trkpt><trkpt lat="43.403215" lon="11.5628433"><ele>378.0</ele><time>2026-04-11T09:59:35.699Z</time></trkpt><trkpt lat="43.4031783" lon="11.5627567"><ele>377.3333333333333</ele><time>2026-04-11T09:59:38.7Z</time></trkpt><trkpt lat="43.4032017" lon="11.5626483"><ele>376.6666666666667</ele><time>2026-04-11T10:00:03.698Z</time></trkpt><trkpt lat="43.403265" lon="11.5625883"><ele>376.0</ele><time>2026-04-11T10:00:07.699Z</time></trkpt><trkpt lat="43.4033033" lon="11.562505"><ele>375.33333333333337</ele><time>2026-04-11T10:00:10.699Z</time></trkpt><trkpt lat="43.4033017" lon="11.5624167"><ele>374.6666666666667</ele><time>2026-04-11T10:06:45.699Z</time></trkpt><trkpt lat="43.4031967" lon="11.562415"><ele>374.0</ele><time>2026-04-11T10:08:18.7Z</time></trkpt><trkpt lat="43.4031267" lon="11.5623767"><ele>374.0</ele><time>2026-04-11T10:08:20.701Z</time></trkpt><trkpt lat="43.4030567" lon="11.5623"><ele>374.0</ele><time>2026-04-11T10:08:22.699Z</time></trkpt><trkpt lat="43.4029583" lon="11.5622033"><ele>374.0</ele><time>2026-04-11T10:08:24.7Z</time></trkpt><trkpt lat="43.4029083" lon="11.5621417"><ele>374.0</ele><time>2026-04-11T10:08:25.7Z</time></trkpt><trkpt lat="43.402845" lon="11.5620117"><ele>374.0</ele><time>2026-04-11T10:08:27.701Z</time></trkpt><trkpt lat="43.4027917" lon="11.5618867"><ele>372.2</ele><time>2026-04-11T10:08:29.701Z</time></trkpt><trkpt lat="43.4027533" lon="11.5617433"><ele>370.4</ele><time>2026-04-11T10:08:31.699Z</time></trkpt><trkpt lat="43.40272" lon="11.561645"><ele>368.6</ele><time>2026-04-11T10:08:33.701Z</time></trkpt><trkpt lat="43.4026333" lon="11.561595"><ele>366.8</ele><time>2026-04-11T10:08:35.7Z</time></trkpt><trkpt lat="43.4025233" lon="11.5616067"><ele>365.0</ele><time>2026-04-11T10:08:37.698Z</time></trkpt><trkpt lat="43.4024267" lon="11.5616317"><ele>365.0</ele><time>2026-04-11T10:08:39.697Z</time></trkpt><trkpt lat="43.40235" lon="11.5616333"><ele>365.0</ele><time>2026-04-11T10:08:41.699Z</time></trkpt><trkpt lat="43.40229" lon="11.56158"><ele>365.0</ele><time>2026-04-11T10:08:43.699Z</time></trkpt><trkpt lat="43.4022283" lon="11.561485"><ele>365.0</ele><time>2026-04-11T10:08:45.699Z</time></trkpt><trkpt lat="43.4021783" lon="11.5614167"><ele>365.0</ele><time>2026-04-11T10:08:47.699Z</time></trkpt><trkpt lat="43.4021183" lon="11.561365"><ele>365.0</ele><time>2026-04-11T10:08:49.699Z</time></trkpt><trkpt lat="43.402055" lon="11.5613133"><ele>365.6666666666667</ele><time>2026-04-11T10:08:51.701Z</time></trkpt><trkpt lat="43.4019767" lon="11.5612567"><ele>366.33333333333337</ele><time>2026-04-11T10:08:53.699Z</time></trkpt><trkpt lat="43.4018833" lon="11.5611833"><ele>367.0</ele><time>2026-04-11T10:08:55.699Z</time></trkpt><trkpt lat="43.4017983" lon="11.5611167"><ele>367.6666666666667</ele><time>2026-04-11T10:08:57.699Z</time></trkpt><trkpt lat="43.4017317" lon="11.5610633"><ele>368.3333333333333</ele><time>2026-04-11T10:08:59.699Z</time></trkpt><trkpt lat="43.4016767" lon="11.5610117"><ele>369.0</ele><time>2026-04-11T10:09:02.701Z</time></trkpt><trkpt lat="43.401625" lon="11.560955"><ele>367.0</ele><time>2026-04-11T10:09:23.699Z</time></trkpt><trkpt lat="43.4016067" lon="11.5608483"><ele>365.0</ele><time>2026-04-11T10:14:39.7Z</time></trkpt><trkpt lat="43.4015483" lon="11.5607483"><ele>363.0</ele><time>2026-04-11T10:15:19.7Z</time></trkpt><trkpt lat="43.40153" lon="11.56063"><ele>361.0</ele><time>2026-04-11T10:15:22.701Z</time></trkpt><trkpt lat="43.4014967" lon="11.5604883"><ele>359.0</ele><time>2026-04-11T10:15:24.701Z</time></trkpt><trkpt lat="43.4014417" lon="11.5603483"><ele>359.0</ele><time>2026-04-11T10:15:26.7Z</time></trkpt><trkpt lat="43.401365" lon="11.5602283"><ele>359.0</ele><time>2026-04-11T10:15:28.699Z</time></trkpt><trkpt lat="43.4012883" lon="11.5601067"><ele>359.0</ele><time>2026-04-11T10:15:30.7Z</time></trkpt><trkpt lat="43.4012133" lon="11.5600017"><ele>359.0</ele><time>2026-04-11T10:15:32.701Z</time></trkpt><trkpt lat="43.40115" lon="11.5598917"><ele>359.0</ele><time>2026-04-11T10:15:34.698Z</time></trkpt><trkpt lat="43.401095" lon="11.5597783"><ele>359.1666666666667</ele><time>2026-04-11T10:15:36.7Z</time></trkpt><trkpt lat="43.4010333" lon="11.5596917"><ele>359.33333333333337</ele><time>2026-04-11T10:15:38.701Z</time></trkpt><trkpt lat="43.40098" lon="11.5596433"><ele>359.5</ele><time>2026-04-11T10:15:40.7Z</time></trkpt><trkpt lat="43.4009367" lon="11.55957"><ele>359.6666666666667</ele><time>2026-04-11T10:15:44.701Z</time></trkpt><trkpt lat="43.400935" lon="11.559475"><ele>359.8333333333333</ele><time>2026-04-11T10:15:46.701Z</time></trkpt><trkpt lat="43.4009233" lon="11.5593717"><ele>360.0</ele><time>2026-04-11T10:15:48.7Z</time></trkpt><trkpt lat="43.400895" lon="11.5592433"><ele>357.8</ele><time>2026-04-11T10:15:51.701Z</time></trkpt><trkpt lat="43.4008533" lon="11.559055"><ele>355.6</ele><time>2026-04-11T10:15:53.701Z</time></trkpt><trkpt lat="43.4008117" lon="11.5589517"><ele>353.4</ele><time>2026-04-11T10:15:54.702Z</time></trkpt><trkpt lat="43.4007567" lon="11.5588567"><ele>351.2</ele><time>2026-04-11T10:15:55.702Z</time></trkpt><trkpt lat="43.4006933" lon="11.5587483"><ele>349.0</ele><time>2026-04-11T10:15:56.701Z</time></trkpt><trkpt lat="43.40062" lon="11.55866"><ele>349.0</ele><time>2026-04-11T10:15:57.699Z</time></trkpt><trkpt lat="43.4005617" lon="11.558585"><ele>349.0</ele><time>2026-04-11T10:15:58.7Z</time></trkpt><trkpt lat="43.4004783" lon="11.5585017"><ele>349.0</ele><time>2026-04-11T10:16:00.701Z</time></trkpt><trkpt lat="43.4003317" lon="11.5584383"><ele>349.0</ele><time>2026-04-11T10:16:02.702Z</time></trkpt><trkpt lat="43.400235" lon="11.5583967"><ele>349.0</ele><time>2026-04-11T10:16:03.7Z</time></trkpt><trkpt lat="43.40014" lon="11.5583417"><ele>347.5</ele><time>2026-04-11T10:16:04.7Z</time></trkpt><trkpt lat="43.4000467" lon="11.5582567"><ele>346.0</ele><time>2026-04-11T10:16:05.7Z</time></trkpt><trkpt lat="43.3999433" lon="11.55816"><ele>344.5</ele><time>2026-04-11T10:16:06.697Z</time></trkpt><trkpt lat="43.3998433" lon="11.5580617"><ele>343.0</ele><time>2026-04-11T10:16:07.7Z</time></trkpt><trkpt lat="43.3997433" lon="11.5579533"><ele>341.25</ele><time>2026-04-11T10:16:08.703Z</time></trkpt><trkpt lat="43.3996467" lon="11.5578467"><ele>339.5</ele><time>2026-04-11T10:16:09.7Z</time></trkpt><trkpt lat="43.39955" lon="11.5577417"><ele>337.75</ele><time>2026-04-11T10:16:10.699Z</time></trkpt><trkpt lat="43.3994617" lon="11.5576267"><ele>336.0</ele><time>2026-04-11T10:16:11.701Z</time></trkpt><trkpt lat="43.3993817" lon="11.5574983"><ele>336.0</ele><time>2026-04-11T10:16:12.701Z</time></trkpt><trkpt lat="43.399295" lon="11.5573733"><ele>336.0</ele><time>2026-04-11T10:16:13.7Z</time></trkpt><trkpt lat="43.3992" lon="11.5572467"><ele>336.0</ele><time>2026-04-11T10:16:14.701Z</time></trkpt><trkpt lat="43.399095" lon="11.5571083"><ele>336.0</ele><time>2026-04-11T10:16:15.7Z</time></trkpt><trkpt lat="43.3989933" lon="11.556965"><ele>335.5</ele><time>2026-04-11T10:16:16.7Z</time></trkpt><trkpt lat="43.398895" lon="11.5568267"><ele>335.0</ele><time>2026-04-11T10:16:17.701Z</time></trkpt><trkpt lat="43.398795" lon="11.5566967"><ele>334.5</ele><time>2026-04-11T10:16:18.701Z</time></trkpt><trkpt lat="43.3987" lon="11.5565783"><ele>334.0</ele><time>2026-04-11T10:16:19.701Z</time></trkpt><trkpt lat="43.398605" lon="11.5564617"><ele>334.0</ele><time>2026-04-11T10:16:20.702Z</time></trkpt><trkpt lat="43.3985083" lon="11.5563483"><ele>334.0</ele><time>2026-04-11T10:16:21.702Z</time></trkpt><trkpt lat="43.3984317" lon="11.5562567"><ele>334.0</ele><time>2026-04-11T10:16:22.7Z</time></trkpt><trkpt lat="43.398365" lon="11.5562017"><ele>334.0</ele><time>2026-04-11T10:16:23.7Z</time></trkpt><trkpt lat="43.3982767" lon="11.5561433"><ele>334.0</ele><time>2026-04-11T10:16:25.7Z</time></trkpt><trkpt lat="43.3982333" lon="11.5560467"><ele>333.8333333333333</ele><time>2026-04-11T10:17:18.701Z</time></trkpt><trkpt lat="43.3982333" lon="11.555955"><ele>333.66666666666663</ele><time>2026-04-11T10:17:21.701Z</time></trkpt><trkpt lat="43.39829" lon="11.5558933"><ele>333.5</ele><time>2026-04-11T10:17:23.699Z</time></trkpt><trkpt lat="43.3983867" lon="11.55581"><ele>333.3333333333333</ele><time>2026-04-11T10:17:25.701Z</time></trkpt><trkpt lat="43.3984617" lon="11.5557317"><ele>333.1666666666667</ele><time>2026-04-11T10:17:27.7Z</time></trkpt><trkpt lat="43.398545" lon="11.5556583"><ele>333.0</ele><time>2026-04-11T10:17:29.701Z</time></trkpt><trkpt lat="43.398645" lon="11.5555983"><ele>333.0</ele><time>2026-04-11T10:17:31.701Z</time></trkpt><trkpt lat="43.398735" lon="11.5555417"><ele>333.0</ele><time>2026-04-11T10:17:33.701Z</time></trkpt><trkpt lat="43.398805" lon="11.5554983"><ele>333.0</ele><time>2026-04-11T10:17:35.699Z</time></trkpt><trkpt lat="43.39886" lon="11.555445"><ele>333.0</ele><time>2026-04-11T10:17:40.7Z</time></trkpt><trkpt lat="43.3988967" lon="11.55555"><ele>333.0</ele><time>2026-04-11T10:18:44.7Z</time></trkpt><trkpt lat="43.3989117" lon="11.5556883"><ele>333.0</ele><time>2026-04-11T10:18:46.7Z</time></trkpt><trkpt lat="43.398965" lon="11.555825"><ele>336.0</ele><time>2026-04-11T10:18:48.699Z</time></trkpt><trkpt lat="43.3990467" lon="11.5558767"><ele>339.0</ele><time>2026-04-11T10:18:50.701Z</time></trkpt><trkpt lat="43.399135" lon="11.5558283"><ele>342.0</ele><time>2026-04-11T10:18:52.701Z</time></trkpt><trkpt lat="43.3991867" lon="11.555775"><ele>345.0</ele><time>2026-04-11T10:18:53.696Z</time></trkpt><trkpt lat="43.3992433" lon="11.555715"><ele>348.0</ele><time>2026-04-11T10:18:54.703Z</time></trkpt><trkpt lat="43.399305" lon="11.5556667"><ele>351.0</ele><time>2026-04-11T10:18:55.7Z</time></trkpt><trkpt lat="43.3993733" lon="11.5556333"><ele>351.0</ele><time>2026-04-11T10:18:56.702Z</time></trkpt><trkpt lat="43.3994433" lon="11.5556117"><ele>351.0</ele><time>2026-04-11T10:18:57.698Z</time></trkpt><trkpt lat="43.3995167" lon="11.555615"><ele>351.0</ele><time>2026-04-11T10:18:58.699Z</time></trkpt><trkpt lat="43.3995933" lon="11.55563"><ele>351.0</ele><time>2026-04-11T10:18:59.695Z</time></trkpt><trkpt lat="43.3996733" lon="11.5556583"><ele>351.0</ele><time>2026-04-11T10:19:00.7Z</time></trkpt><trkpt lat="43.3997567" lon="11.55568"><ele>351.0</ele><time>2026-04-11T10:19:01.7Z</time></trkpt><trkpt lat="43.3998467" lon="11.5556783"><ele>354.20000000000005</ele><time>2026-04-11T10:19:02.7Z</time></trkpt><trkpt lat="43.3999433" lon="11.5556483"><ele>357.40000000000003</ele><time>2026-04-11T10:19:03.699Z</time></trkpt><trkpt lat="43.4000433" lon="11.5555933"><ele>360.6</ele><time>2026-04-11T10:19:04.699Z</time></trkpt><trkpt lat="43.4001383" lon="11.555515"><ele>363.8</ele><time>2026-04-11T10:19:05.7Z</time></trkpt><trkpt lat="43.4002217" lon="11.5554333"><ele>367.0</ele><time>2026-04-11T10:19:06.7Z</time></trkpt><trkpt lat="43.4003017" lon="11.5553533"><ele>367.0</ele><time>2026-04-11T10:19:07.7Z</time></trkpt><trkpt lat="43.40039" lon="11.5552933"><ele>367.0</ele><time>2026-04-11T10:19:08.701Z</time></trkpt><trkpt lat="43.4004817" lon="11.555255"><ele>367.0</ele><time>2026-04-11T10:19:09.701Z</time></trkpt><trkpt lat="43.4005833" lon="11.5552333"><ele>367.0</ele><time>2026-04-11T10:19:10.701Z</time></trkpt><trkpt lat="43.4006933" lon="11.55522"><ele>367.0</ele><time>2026-04-11T10:19:11.702Z</time></trkpt><trkpt lat="43.4008067" lon="11.55521"><ele>372.5</ele><time>2026-04-11T10:19:12.699Z</time></trkpt><trkpt lat="43.400925" lon="11.5551917"><ele>378.0</ele><time>2026-04-11T10:19:13.701Z</time></trkpt><trkpt lat="43.4010467" lon="11.55516"><ele>383.5</ele><time>2026-04-11T10:19:14.703Z</time></trkpt><trkpt lat="43.4011683" lon="11.5551233"><ele>389.0</ele><time>2026-04-11T10:19:15.701Z</time></trkpt><trkpt lat="43.4012817" lon="11.5550933"><ele>392.6</ele><time>2026-04-11T10:19:16.701Z</time></trkpt><trkpt lat="43.4013883" lon="11.5550767"><ele>396.2</ele><time>2026-04-11T10:19:17.702Z</time></trkpt><trkpt lat="43.4014817" lon="11.555065"><ele>399.8</ele><time>2026-04-11T10:19:18.701Z</time></trkpt><trkpt lat="43.40157" lon="11.5550383"><ele>403.40000000000003</ele><time>2026-04-11T10:19:19.699Z</time></trkpt><trkpt lat="43.4016567" lon="11.5549867"><ele>407.0</ele><time>2026-04-11T10:19:20.703Z</time></trkpt><trkpt lat="43.40174" lon="11.554925"><ele>407.0</ele><time>2026-04-11T10:19:21.701Z</time></trkpt><trkpt lat="43.401825" lon="11.5548667"><ele>407.0</ele><time>2026-04-11T10:19:22.699Z</time></trkpt><trkpt lat="43.4019167" lon="11.55483"><ele>407.0</ele><time>2026-04-11T10:19:23.701Z</time></trkpt><trkpt lat="43.4020267" lon="11.55481"><ele>407.0</ele><time>2026-04-11T10:19:24.701Z</time></trkpt><trkpt lat="43.40213" lon="11.5548133"><ele>407.0</ele><time>2026-04-11T10:19:25.701Z</time></trkpt><trkpt lat="43.4022333" lon="11.55483"><ele>408.8333333333333</ele><time>2026-04-11T10:19:26.701Z</time></trkpt><trkpt lat="43.402325" lon="11.554855"><ele>410.66666666666663</ele><time>2026-04-11T10:19:27.7Z</time></trkpt><trkpt lat="43.4024" lon="11.554895"><ele>412.5</ele><time>2026-04-11T10:19:28.7Z</time></trkpt><trkpt lat="43.402465" lon="11.5549517"><ele>414.33333333333337</ele><time>2026-04-11T10:19:29.7Z</time></trkpt><trkpt lat="43.40252" lon="11.5550133"><ele>416.1666666666667</ele><time>2026-04-11T10:19:30.702Z</time></trkpt><trkpt lat="43.4025733" lon="11.5550633"><ele>418.0</ele><time>2026-04-11T10:19:31.7Z</time></trkpt><trkpt lat="43.402645" lon="11.5550917"><ele>418.0</ele><time>2026-04-11T10:19:32.7Z</time></trkpt><trkpt lat="43.4027317" lon="11.5551017"><ele>418.0</ele><time>2026-04-11T10:19:33.7Z</time></trkpt><trkpt lat="43.4028317" lon="11.555095"><ele>418.0</ele><time>2026-04-11T10:19:34.7Z</time></trkpt><trkpt lat="43.4029433" lon="11.5550833"><ele>418.0</ele><time>2026-04-11T10:19:35.7Z</time></trkpt><trkpt lat="43.4030633" lon="11.555075"><ele>418.0</ele><time>2026-04-11T10:19:36.7Z</time></trkpt><trkpt lat="43.40319" lon="11.555075"><ele>420.0</ele><time>2026-04-11T10:19:37.7Z</time></trkpt><trkpt lat="43.40331" lon="11.5550833"><ele>422.0</ele><time>2026-04-11T10:19:38.702Z</time></trkpt><trkpt lat="43.4034217" lon="11.5550933"><ele>423.99999999999994</ele><time>2026-04-11T10:19:39.7Z</time></trkpt><trkpt lat="43.4035283" lon="11.555105"><ele>426.0</ele><time>2026-04-11T10:19:40.701Z</time></trkpt><trkpt lat="43.4036317" lon="11.5551083"><ele>428.0</ele><time>2026-04-11T10:19:41.701Z</time></trkpt><trkpt lat="43.40374" lon="11.555095"><ele>430.79999999999995</ele><time>2026-04-11T10:19:42.701Z</time></trkpt><trkpt lat="43.4038467" lon="11.5550667"><ele>433.59999999999997</ele><time>2026-04-11T10:19:43.701Z</time></trkpt><trkpt lat="43.4039533" lon="11.55503"><ele>436.40000000000003</ele><time>2026-04-11T10:19:44.701Z</time></trkpt><trkpt lat="43.4040533" lon="11.5549917"><ele>439.20000000000005</ele><time>2026-04-11T10:19:45.7Z</time></trkpt><trkpt lat="43.40415" lon="11.554955"><ele>442.0</ele><time>2026-04-11T10:19:46.7Z</time></trkpt><trkpt lat="43.404235" lon="11.55492"><ele>442.00000000000006</ele><time>2026-04-11T10:19:47.701Z</time></trkpt><trkpt lat="43.404305" lon="11.5548833"><ele>442.0</ele><time>2026-04-11T10:19:48.7Z</time></trkpt><trkpt lat="43.4043683" lon="11.554835"><ele>442.0</ele><time>2026-04-11T10:19:49.702Z</time></trkpt><trkpt lat="43.404425" lon="11.5547733"><ele>442.0</ele><time>2026-04-11T10:19:50.7Z</time></trkpt><trkpt lat="43.4044733" lon="11.5546933"><ele>442.00000000000006</ele><time>2026-04-11T10:19:51.7Z</time></trkpt><trkpt lat="43.40451" lon="11.554595"><ele>442.0</ele><time>2026-04-11T10:19:52.701Z</time></trkpt><trkpt lat="43.4045333" lon="11.5544767"><ele>441.40000000000003</ele><time>2026-04-11T10:19:53.701Z</time></trkpt><trkpt lat="43.4045417" lon="11.55434"><ele>440.80000000000007</ele><time>2026-04-11T10:19:54.701Z</time></trkpt><trkpt lat="43.4045317" lon="11.5541917"><ele>440.2</ele><time>2026-04-11T10:19:55.702Z</time></trkpt><trkpt lat="43.4045133" lon="11.55404"><ele>439.6</ele><time>2026-04-11T10:19:56.702Z</time></trkpt><trkpt lat="43.4044833" lon="11.553885"><ele>439.0</ele><time>2026-04-11T10:19:57.7Z</time></trkpt><trkpt lat="43.4044483" lon="11.5537333"><ele>439.79999999999995</ele><time>2026-04-11T10:19:58.699Z</time></trkpt><trkpt lat="43.4044183" lon="11.5535933"><ele>440.59999999999997</ele><time>2026-04-11T10:19:59.698Z</time></trkpt><trkpt lat="43.4043967" lon="11.5534533"><ele>441.4</ele><time>2026-04-11T10:20:00.699Z</time></trkpt><trkpt lat="43.4043833" lon="11.5533167"><ele>442.2</ele><time>2026-04-11T10:20:01.7Z</time></trkpt><trkpt lat="43.4043667" lon="11.5531867"><ele>443.0</ele><time>2026-04-11T10:20:02.701Z</time></trkpt><trkpt lat="43.404345" lon="11.553075"><ele>442.99999999999994</ele><time>2026-04-11T10:20:03.699Z</time></trkpt><trkpt lat="43.4043183" lon="11.55297"><ele>443.0</ele><time>2026-04-11T10:20:04.701Z</time></trkpt><trkpt lat="43.40429" lon="11.5528683"><ele>443.0</ele><time>2026-04-11T10:20:05.701Z</time></trkpt><trkpt lat="43.4042667" lon="11.5527683"><ele>443.0</ele><time>2026-04-11T10:20:06.701Z</time></trkpt><trkpt lat="43.4042467" lon="11.5526717"><ele>442.99999999999994</ele><time>2026-04-11T10:20:07.702Z</time></trkpt><trkpt lat="43.4042367" lon="11.552575"><ele>443.0</ele><time>2026-04-11T10:20:08.702Z</time></trkpt><trkpt lat="43.4042317" lon="11.5524767"><ele>442.2857142857143</ele><time>2026-04-11T10:20:09.7Z</time></trkpt><trkpt lat="43.4042367" lon="11.5523783"><ele>441.57142857142856</ele><time>2026-04-11T10:20:10.7Z</time></trkpt><trkpt lat="43.4042583" lon="11.55228"><ele>440.8571428571429</ele><time>2026-04-11T10:20:11.701Z</time></trkpt><trkpt lat="43.4042983" lon="11.552195"><ele>440.1428571428571</ele><time>2026-04-11T10:20:12.701Z</time></trkpt><trkpt lat="43.4043483" lon="11.55211"><ele>439.4285714285714</ele><time>2026-04-11T10:20:13.701Z</time></trkpt><trkpt lat="43.4044017" lon="11.55205"><ele>438.7142857142857</ele><time>2026-04-11T10:20:14.701Z</time></trkpt><trkpt lat="43.404465" lon="11.5520117"><ele>438.0</ele><time>2026-04-11T10:20:17.699Z</time></trkpt><trkpt lat="43.4045567" lon="11.5521117"><ele>438.0</ele><time>2026-04-11T10:20:31.7Z</time></trkpt><trkpt lat="43.40462" lon="11.5521967"><ele>438.0</ele><time>2026-04-11T10:20:32.7Z</time></trkpt><trkpt lat="43.4046833" lon="11.55229"><ele>438.0</ele><time>2026-04-11T10:20:33.7Z</time></trkpt><trkpt lat="43.4047433" lon="11.552375"><ele>438.0</ele><time>2026-04-11T10:20:34.699Z</time></trkpt><trkpt lat="43.4048033" lon="11.5524467"><ele>438.0</ele><time>2026-04-11T10:20:35.701Z</time></trkpt><trkpt lat="43.4048583" lon="11.552505"><ele>438.0</ele><time>2026-04-11T10:20:36.7Z</time></trkpt><trkpt lat="43.4049183" lon="11.5525583"><ele>438.0</ele><time>2026-04-11T10:20:37.701Z</time></trkpt><trkpt lat="43.404985" lon="11.5525933"><ele>438.0</ele><time>2026-04-11T10:20:38.703Z</time></trkpt><trkpt lat="43.405065" lon="11.5526017"><ele>438.0</ele><time>2026-04-11T10:20:39.703Z</time></trkpt><trkpt lat="43.4051567" lon="11.5526"><ele>438.0</ele><time>2026-04-11T10:20:40.7Z</time></trkpt><trkpt lat="43.405245" lon="11.552585"><ele>438.0</ele><time>2026-04-11T10:20:41.701Z</time></trkpt><trkpt lat="43.40533" lon="11.55254"><ele>438.0</ele><time>2026-04-11T10:20:42.701Z</time></trkpt><trkpt lat="43.4054017" lon="11.5524667"><ele>438.0</ele><time>2026-04-11T10:20:43.702Z</time></trkpt><trkpt lat="43.4054683" lon="11.55237"><ele>437.99999999999994</ele><time>2026-04-11T10:20:44.702Z</time></trkpt><trkpt lat="43.4055217" lon="11.5522517"><ele>437.99999999999994</ele><time>2026-04-11T10:20:45.701Z</time></trkpt><trkpt lat="43.40557" lon="11.5521267"><ele>438.0</ele><time>2026-04-11T10:20:46.7Z</time></trkpt><trkpt lat="43.40562" lon="11.552015"><ele>438.0</ele><time>2026-04-11T10:20:47.7Z</time></trkpt><trkpt lat="43.405675" lon="11.5519233"><ele>437.2</ele><time>2026-04-11T10:20:48.701Z</time></trkpt><trkpt lat="43.40574" lon="11.55185"><ele>436.4</ele><time>2026-04-11T10:20:49.7Z</time></trkpt><trkpt lat="43.405825" lon="11.551795"><ele>435.59999999999997</ele><time>2026-04-11T10:20:50.7Z</time></trkpt><trkpt lat="43.40592" lon="11.5517367"><ele>434.79999999999995</ele><time>2026-04-11T10:20:51.701Z</time></trkpt><trkpt lat="43.4060183" lon="11.5516783"><ele>434.0</ele><time>2026-04-11T10:20:52.7Z</time></trkpt><trkpt lat="43.4061117" lon="11.55163"><ele>434.0</ele><time>2026-04-11T10:20:53.7Z</time></trkpt><trkpt lat="43.4062017" lon="11.5516117"><ele>434.0</ele><time>2026-04-11T10:20:54.7Z</time></trkpt><trkpt lat="43.4062883" lon="11.5516183"><ele>434.0</ele><time>2026-04-11T10:20:55.7Z</time></trkpt><trkpt lat="43.4063883" lon="11.5516533"><ele>434.0</ele><time>2026-04-11T10:20:56.7Z</time></trkpt><trkpt lat="43.4064817" lon="11.5517"><ele>434.0</ele><time>2026-04-11T10:20:57.7Z</time></trkpt><trkpt lat="43.406575" lon="11.5517367"><ele>438.0</ele><time>2026-04-11T10:20:58.701Z</time></trkpt><trkpt lat="43.4066917" lon="11.551755"><ele>442.0</ele><time>2026-04-11T10:20:59.701Z</time></trkpt><trkpt lat="43.40682" lon="11.5517667"><ele>446.0</ele><time>2026-04-11T10:21:00.701Z</time></trkpt><trkpt lat="43.40695" lon="11.5517783"><ele>450.0</ele><time>2026-04-11T10:21:01.7Z</time></trkpt><trkpt lat="43.4070483" lon="11.551795"><ele>450.0</ele><time>2026-04-11T10:21:02.701Z</time></trkpt><trkpt lat="43.4071183" lon="11.5518017"><ele>450.0</ele><time>2026-04-11T10:21:03.701Z</time></trkpt><trkpt lat="43.4071817" lon="11.5517967"><ele>450.0</ele><time>2026-04-11T10:21:04.7Z</time></trkpt><trkpt lat="43.4072583" lon="11.55177"><ele>450.0</ele><time>2026-04-11T10:21:06.702Z</time></trkpt><trkpt lat="43.407285" lon="11.5516717"><ele>450.0</ele><time>2026-04-11T10:21:08.702Z</time></trkpt><trkpt lat="43.4072317" lon="11.5515383"><ele>450.0</ele><time>2026-04-11T10:21:09.7Z</time></trkpt><trkpt lat="43.40719" lon="11.5514183"><ele>449.2</ele><time>2026-04-11T10:21:10.701Z</time></trkpt><trkpt lat="43.4071617" lon="11.551305"><ele>448.4</ele><time>2026-04-11T10:21:11.7Z</time></trkpt><trkpt lat="43.40714" lon="11.5511783"><ele>447.6</ele><time>2026-04-11T10:21:12.701Z</time></trkpt><trkpt lat="43.4071283" lon="11.5510333"><ele>446.8</ele><time>2026-04-11T10:21:13.701Z</time></trkpt><trkpt lat="43.40713" lon="11.5508667"><ele>446.0</ele><time>2026-04-11T10:21:14.703Z</time></trkpt><trkpt lat="43.4071217" lon="11.5507033"><ele>446.0</ele><time>2026-04-11T10:21:15.701Z</time></trkpt><trkpt lat="43.4071" lon="11.5505617"><ele>446.0</ele><time>2026-04-11T10:21:16.701Z</time></trkpt><trkpt lat="43.40707" lon="11.5504133"><ele>446.0</ele><time>2026-04-11T10:21:17.7Z</time></trkpt><trkpt lat="43.40705" lon="11.5502633"><ele>446.0</ele><time>2026-04-11T10:21:18.701Z</time></trkpt><trkpt lat="43.4070383" lon="11.550095"><ele>449.0</ele><time>2026-04-11T10:21:19.701Z</time></trkpt><trkpt lat="43.4070233" lon="11.5499133"><ele>452.0</ele><time>2026-04-11T10:21:20.702Z</time></trkpt><trkpt lat="43.40701" lon="11.5497367"><ele>455.0</ele><time>2026-04-11T10:21:21.7Z</time></trkpt><trkpt lat="43.406995" lon="11.5495733"><ele>458.0</ele><time>2026-04-11T10:21:22.7Z</time></trkpt><trkpt lat="43.4069717" lon="11.5494183"><ele>460.4</ele><time>2026-04-11T10:21:23.701Z</time></trkpt><trkpt lat="43.4069533" lon="11.549275"><ele>462.79999999999995</ele><time>2026-04-11T10:21:24.701Z</time></trkpt><trkpt lat="43.4069467" lon="11.54915"><ele>465.2</ele><time>2026-04-11T10:21:25.701Z</time></trkpt><trkpt lat="43.4069517" lon="11.5490317"><ele>467.6</ele><time>2026-04-11T10:21:26.701Z</time></trkpt><trkpt lat="43.4069767" lon="11.548915"><ele>470.0</ele><time>2026-04-11T10:21:27.7Z</time></trkpt><trkpt lat="43.4070033" lon="11.5487983"><ele>470.4</ele><time>2026-04-11T10:21:28.7Z</time></trkpt><trkpt lat="43.4070283" lon="11.5486717"><ele>470.8</ele><time>2026-04-11T10:21:29.7Z</time></trkpt><trkpt lat="43.4070517" lon="11.5485283"><ele>471.20000000000005</ele><time>2026-04-11T10:21:30.7Z</time></trkpt><trkpt lat="43.4070817" lon="11.54837"><ele>471.6</ele><time>2026-04-11T10:21:31.701Z</time></trkpt><trkpt lat="43.4071133" lon="11.5482217"><ele>472.0</ele><time>2026-04-11T10:21:32.702Z</time></trkpt><trkpt lat="43.40714" lon="11.5480817"><ele>475.83333333333337</ele><time>2026-04-11T10:21:33.701Z</time></trkpt><trkpt lat="43.4071617" lon="11.5479467"><ele>479.6666666666667</ele><time>2026-04-11T10:21:34.701Z</time></trkpt><trkpt lat="43.40718" lon="11.5478317"><ele>483.5</ele><time>2026-04-11T10:21:35.702Z</time></trkpt><trkpt lat="43.4072033" lon="11.5477333"><ele>487.33333333333337</ele><time>2026-04-11T10:21:36.7Z</time></trkpt><trkpt lat="43.40723" lon="11.5476483"><ele>491.1666666666667</ele><time>2026-04-11T10:21:37.7Z</time></trkpt><trkpt lat="43.4072883" lon="11.5475333"><ele>495.0</ele><time>2026-04-11T10:21:39.7Z</time></trkpt><trkpt lat="43.4073817" lon="11.547425"><ele>495.0</ele><time>2026-04-11T10:22:57.7Z</time></trkpt><trkpt lat="43.4074683" lon="11.54742"><ele>495.0</ele><time>2026-04-11T10:24:01.7Z</time></trkpt><trkpt lat="43.4075433" lon="11.547415"><ele>495.0</ele><time>2026-04-11T10:24:02.705Z</time></trkpt><trkpt lat="43.4076167" lon="11.5473967"><ele>495.0</ele><time>2026-04-11T10:24:03.701Z</time></trkpt><trkpt lat="43.4077383" lon="11.54737"><ele>495.0</ele><time>2026-04-11T10:24:05.702Z</time></trkpt><trkpt lat="43.40785" lon="11.547405"><ele>495.0</ele><time>2026-04-11T10:24:07.7Z</time></trkpt><trkpt lat="43.407905" lon="11.5474517"><ele>495.0</ele><time>2026-04-11T10:24:08.7Z</time></trkpt><trkpt lat="43.4079683" lon="11.5475167"><ele>495.0</ele><time>2026-04-11T10:24:09.701Z</time></trkpt><trkpt lat="43.4080367" lon="11.5475783"><ele>495.0</ele><time>2026-04-11T10:24:10.702Z</time></trkpt><trkpt lat="43.408115" lon="11.547625"><ele>495.0</ele><time>2026-04-11T10:24:11.7Z</time></trkpt><trkpt lat="43.4081967" lon="11.5476667"><ele>495.0</ele><time>2026-04-11T10:24:12.701Z</time></trkpt><trkpt lat="43.4082767" lon="11.5477117"><ele>494.1666666666667</ele><time>2026-04-11T10:24:13.7Z</time></trkpt><trkpt lat="43.4083517" lon="11.547765"><ele>493.33333333333337</ele><time>2026-04-11T10:24:14.701Z</time></trkpt><trkpt lat="43.4084233" lon="11.5478317"><ele>492.5</ele><time>2026-04-11T10:24:15.7Z</time></trkpt><trkpt lat="43.4084833" lon="11.5479183"><ele>491.6666666666667</ele><time>2026-04-11T10:24:16.701Z</time></trkpt><trkpt lat="43.4085367" lon="11.5480183"><ele>490.83333333333337</ele><time>2026-04-11T10:24:17.701Z</time></trkpt><trkpt lat="43.4085867" lon="11.5481217"><ele>490.0</ele><time>2026-04-11T10:24:18.703Z</time></trkpt><trkpt lat="43.4086333" lon="11.54821"><ele>491.00000000000006</ele><time>2026-04-11T10:24:19.701Z</time></trkpt><trkpt lat="43.4086917" lon="11.5482867"><ele>492.0</ele><time>2026-04-11T10:24:20.703Z</time></trkpt><trkpt lat="43.408765" lon="11.5483367"><ele>493.0</ele><time>2026-04-11T10:24:21.701Z</time></trkpt><trkpt lat="43.4088417" lon="11.5483617"><ele>494.0</ele><time>2026-04-11T10:24:22.701Z</time></trkpt><trkpt lat="43.4089167" lon="11.5483683"><ele>495.00000000000006</ele><time>2026-04-11T10:24:23.701Z</time></trkpt><trkpt lat="43.4089967" lon="11.54838"><ele>496.0</ele><time>2026-04-11T10:24:24.701Z</time></trkpt><trkpt lat="43.4090683" lon="11.5484033"><ele>496.00000000000006</ele><time>2026-04-11T10:24:25.701Z</time></trkpt><trkpt lat="43.409185" lon="11.5484467"><ele>496.0</ele><time>2026-04-11T10:24:27.7Z</time></trkpt><trkpt lat="43.409255" lon="11.5484517"><ele>496.0</ele><time>2026-04-11T10:24:28.7Z</time></trkpt><trkpt lat="43.409335" lon="11.548435"><ele>496.0</ele><time>2026-04-11T10:24:29.701Z</time></trkpt><trkpt lat="43.4094117" lon="11.5484"><ele>496.00000000000006</ele><time>2026-04-11T10:24:30.701Z</time></trkpt><trkpt lat="43.40948" lon="11.5483467"><ele>496.0</ele><time>2026-04-11T10:24:31.701Z</time></trkpt><trkpt lat="43.4095367" lon="11.5482767"><ele>496.00000000000006</ele><time>2026-04-11T10:24:32.699Z</time></trkpt><trkpt lat="43.40958" lon="11.5481833"><ele>496.0</ele><time>2026-04-11T10:24:33.702Z</time></trkpt><trkpt lat="43.409625" lon="11.5480883"><ele>496.0</ele><time>2026-04-11T10:24:34.7Z</time></trkpt><trkpt lat="43.409675" lon="11.548015"><ele>496.0</ele><time>2026-04-11T10:24:35.7Z</time></trkpt><trkpt lat="43.409745" lon="11.5479567"><ele>496.00000000000006</ele><time>2026-04-11T10:24:36.701Z</time></trkpt><trkpt lat="43.4098217" lon="11.5479267"><ele>496.0</ele><time>2026-04-11T10:24:37.7Z</time></trkpt><trkpt lat="43.4099017" lon="11.5479283"><ele>497.0</ele><time>2026-04-11T10:24:38.703Z</time></trkpt><trkpt lat="43.4099867" lon="11.54794"><ele>498.0</ele><time>2026-04-11T10:24:39.7Z</time></trkpt><trkpt lat="43.41009" lon="11.547965"><ele>499.0</ele><time>2026-04-11T10:24:40.7Z</time></trkpt><trkpt lat="43.4101917" lon="11.54799"><ele>500.0</ele><time>2026-04-11T10:24:41.7Z</time></trkpt><trkpt lat="43.4102867" lon="11.5480167"><ele>501.0</ele><time>2026-04-11T10:24:42.7Z</time></trkpt><trkpt lat="43.4103817" lon="11.5480383"><ele>501.0</ele><time>2026-04-11T10:24:43.701Z</time></trkpt><trkpt lat="43.41047" lon="11.5480467"><ele>501.0</ele><time>2026-04-11T10:24:44.701Z</time></trkpt><trkpt lat="43.4105567" lon="11.54802"><ele>501.0</ele><time>2026-04-11T10:24:45.701Z</time></trkpt><trkpt lat="43.4106367" lon="11.5479733"><ele>501.0</ele><time>2026-04-11T10:24:46.7Z</time></trkpt><trkpt lat="43.41072" lon="11.547925"><ele>501.0</ele><time>2026-04-11T10:24:47.701Z</time></trkpt><trkpt lat="43.4108017" lon="11.547885"><ele>501.0</ele><time>2026-04-11T10:24:48.7Z</time></trkpt><trkpt lat="43.4108783" lon="11.54785"><ele>498.28571428571433</ele><time>2026-04-11T10:24:49.7Z</time></trkpt><trkpt lat="43.410945" lon="11.5477967"><ele>495.57142857142856</ele><time>2026-04-11T10:24:50.701Z</time></trkpt><trkpt lat="43.411005" lon="11.547745"><ele>492.8571428571429</ele><time>2026-04-11T10:24:51.7Z</time></trkpt><trkpt lat="43.4110633" lon="11.5477117"><ele>490.14285714285717</ele><time>2026-04-11T10:24:52.701Z</time></trkpt><trkpt lat="43.4111283" lon="11.5477033"><ele>487.42857142857144</ele><time>2026-04-11T10:24:53.701Z</time></trkpt><trkpt lat="43.4111967" lon="11.547705"><ele>484.7142857142857</ele><time>2026-04-11T10:24:54.702Z</time></trkpt><trkpt lat="43.4112667" lon="11.5477083"><ele>482.0</ele><time>2026-04-11T10:24:55.7Z</time></trkpt><trkpt lat="43.41134" lon="11.54772"><ele>480.8333333333333</ele><time>2026-04-11T10:24:56.703Z</time></trkpt><trkpt lat="43.4114117" lon="11.5477417"><ele>479.66666666666663</ele><time>2026-04-11T10:24:57.703Z</time></trkpt><trkpt lat="43.4114883" lon="11.54776"><ele>478.5</ele><time>2026-04-11T10:24:58.7Z</time></trkpt><trkpt lat="43.411555" lon="11.5477817"><ele>477.33333333333337</ele><time>2026-04-11T10:24:59.702Z</time></trkpt><trkpt lat="43.4116217" lon="11.5477917"><ele>476.1666666666667</ele><time>2026-04-11T10:25:00.703Z</time></trkpt><trkpt lat="43.4117367" lon="11.5477867"><ele>475.0</ele><time>2026-04-11T10:25:02.701Z</time></trkpt><trkpt lat="43.4118367" lon="11.5477833"><ele>475.0</ele><time>2026-04-11T10:25:04.701Z</time></trkpt><trkpt lat="43.4119167" lon="11.5477633"><ele>475.0</ele><time>2026-04-11T10:25:06.7Z</time></trkpt><trkpt lat="43.4119767" lon="11.5476533"><ele>475.0</ele><time>2026-04-11T10:25:08.703Z</time></trkpt><trkpt lat="43.412" lon="11.5474817"><ele>475.0</ele><time>2026-04-11T10:25:10.7Z</time></trkpt><trkpt lat="43.4120183" lon="11.547385"><ele>475.0</ele><time>2026-04-11T10:25:11.7Z</time></trkpt><trkpt lat="43.4120633" lon="11.5472767"><ele>475.0</ele><time>2026-04-11T10:25:12.701Z</time></trkpt><trkpt lat="43.4121233" lon="11.5471733"><ele>475.0</ele><time>2026-04-11T10:25:13.7Z</time></trkpt><trkpt lat="43.41219" lon="11.5470733"><ele>475.0</ele><time>2026-04-11T10:25:14.702Z</time></trkpt><trkpt lat="43.4122717" lon="11.54697"><ele>475.0</ele><time>2026-04-11T10:25:15.699Z</time></trkpt><trkpt lat="43.4123533" lon="11.546875"><ele>475.0</ele><time>2026-04-11T10:25:16.699Z</time></trkpt><trkpt lat="43.4124283" lon="11.5468033"><ele>473.33333333333337</ele><time>2026-04-11T10:25:17.701Z</time></trkpt><trkpt lat="43.4125" lon="11.5467433"><ele>471.6666666666667</ele><time>2026-04-11T10:25:18.702Z</time></trkpt><trkpt lat="43.4125733" lon="11.5466817"><ele>470.0</ele><time>2026-04-11T10:25:19.702Z</time></trkpt><trkpt lat="43.412635" lon="11.5466167"><ele>468.33333333333337</ele><time>2026-04-11T10:25:20.701Z</time></trkpt><trkpt lat="43.41269" lon="11.5465483"><ele>466.6666666666667</ele><time>2026-04-11T10:25:21.701Z</time></trkpt><trkpt lat="43.412745" lon="11.546485"><ele>465.0</ele><time>2026-04-11T10:25:22.701Z</time></trkpt><trkpt lat="43.41279" lon="11.5464233"><ele>465.0</ele><time>2026-04-11T10:25:23.7Z</time></trkpt><trkpt lat="43.4128633" lon="11.5462983"><ele>465.0</ele><time>2026-04-11T10:25:25.698Z</time></trkpt><trkpt lat="43.412905" lon="11.5462333"><ele>465.0</ele><time>2026-04-11T10:25:26.702Z</time></trkpt><trkpt lat="43.41296" lon="11.5461717"><ele>465.0</ele><time>2026-04-11T10:25:27.702Z</time></trkpt><trkpt lat="43.413025" lon="11.5461283"><ele>465.0</ele><time>2026-04-11T10:25:28.701Z</time></trkpt><trkpt lat="43.4130917" lon="11.5461067"><ele>465.0</ele><time>2026-04-11T10:25:29.7Z</time></trkpt><trkpt lat="43.4131567" lon="11.5460817"><ele>462.6666666666667</ele><time>2026-04-11T10:25:30.702Z</time></trkpt><trkpt lat="43.41321" lon="11.5460233"><ele>460.33333333333337</ele><time>2026-04-11T10:25:31.7Z</time></trkpt><trkpt lat="43.4132667" lon="11.54594"><ele>458.0</ele><time>2026-04-11T10:25:32.701Z</time></trkpt><trkpt lat="43.4133283" lon="11.5458483"><ele>455.6666666666667</ele><time>2026-04-11T10:25:33.7Z</time></trkpt><trkpt lat="43.4133933" lon="11.5457617"><ele>453.33333333333337</ele><time>2026-04-11T10:25:34.701Z</time></trkpt><trkpt lat="43.4134583" lon="11.5456833"><ele>451.0</ele><time>2026-04-11T10:25:35.701Z</time></trkpt><trkpt lat="43.4135283" lon="11.5455983"><ele>451.0</ele><time>2026-04-11T10:25:36.702Z</time></trkpt><trkpt lat="43.4135967" lon="11.5455133"><ele>451.0</ele><time>2026-04-11T10:25:37.7Z</time></trkpt><trkpt lat="43.4136667" lon="11.5454267"><ele>451.0</ele><time>2026-04-11T10:25:38.702Z</time></trkpt><trkpt lat="43.4137367" lon="11.5453433"><ele>451.0</ele><time>2026-04-11T10:25:39.701Z</time></trkpt><trkpt lat="43.4138067" lon="11.545265"><ele>451.0</ele><time>2026-04-11T10:25:40.7Z</time></trkpt><trkpt lat="43.413875" lon="11.5451867"><ele>448.6666666666667</ele><time>2026-04-11T10:25:41.702Z</time></trkpt><trkpt lat="43.413935" lon="11.5451167"><ele>446.33333333333337</ele><time>2026-04-11T10:25:42.701Z</time></trkpt><trkpt lat="43.413985" lon="11.5450367"><ele>444.0</ele><time>2026-04-11T10:25:43.701Z</time></trkpt><trkpt lat="43.41403" lon="11.54495"><ele>441.66666666666663</ele><time>2026-04-11T10:25:44.703Z</time></trkpt><trkpt lat="43.4140767" lon="11.544855"><ele>439.3333333333333</ele><time>2026-04-11T10:25:45.702Z</time></trkpt><trkpt lat="43.4141217" lon="11.5447617"><ele>437.0</ele><time>2026-04-11T10:25:46.703Z</time></trkpt><trkpt lat="43.4141617" lon="11.544665"><ele>436.99999999999994</ele><time>2026-04-11T10:25:47.704Z</time></trkpt><trkpt lat="43.4141883" lon="11.5445733"><ele>437.0</ele><time>2026-04-11T10:25:48.701Z</time></trkpt><trkpt lat="43.41421" lon="11.544475"><ele>437.0</ele><time>2026-04-11T10:25:49.702Z</time></trkpt><trkpt lat="43.414225" lon="11.54436"><ele>437.0</ele><time>2026-04-11T10:25:50.701Z</time></trkpt><trkpt lat="43.4142367" lon="11.544225"><ele>436.99999999999994</ele><time>2026-04-11T10:25:51.696Z</time></trkpt><trkpt lat="43.4142533" lon="11.544095"><ele>437.0</ele><time>2026-04-11T10:25:52.7Z</time></trkpt><trkpt lat="43.41428" lon="11.5439667"><ele>436.16666666666663</ele><time>2026-04-11T10:25:53.7Z</time></trkpt><trkpt lat="43.4143183" lon="11.5438467"><ele>435.3333333333333</ele><time>2026-04-11T10:25:54.701Z</time></trkpt><trkpt lat="43.4143567" lon="11.5437383"><ele>434.5</ele><time>2026-04-11T10:25:55.7Z</time></trkpt><trkpt lat="43.4143967" lon="11.5436367"><ele>433.66666666666663</ele><time>2026-04-11T10:25:56.701Z</time></trkpt><trkpt lat="43.4144417" lon="11.5435317"><ele>432.8333333333333</ele><time>2026-04-11T10:25:57.701Z</time></trkpt><trkpt lat="43.4144883" lon="11.543435"><ele>432.0</ele><time>2026-04-11T10:25:58.7Z</time></trkpt><trkpt lat="43.4145317" lon="11.5433567"><ele>430.20000000000005</ele><time>2026-04-11T10:25:59.7Z</time></trkpt><trkpt lat="43.4146" lon="11.5432367"><ele>428.40000000000003</ele><time>2026-04-11T10:26:01.701Z</time></trkpt><trkpt lat="43.414615" lon="11.543105"><ele>426.6</ele><time>2026-04-11T10:26:03.7Z</time></trkpt><trkpt lat="43.4145667" lon="11.54299"><ele>424.79999999999995</ele><time>2026-04-11T10:26:05.7Z</time></trkpt><trkpt lat="43.4144917" lon="11.542885"><ele>423.0</ele><time>2026-04-11T10:26:07.701Z</time></trkpt><trkpt lat="43.4143983" lon="11.5428"><ele>420.59999999999997</ele><time>2026-04-11T10:26:09.701Z</time></trkpt><trkpt lat="43.4143017" lon="11.54272"><ele>418.2</ele><time>2026-04-11T10:26:11.7Z</time></trkpt><trkpt lat="43.41421" lon="11.5426067"><ele>415.8</ele><time>2026-04-11T10:26:13.7Z</time></trkpt><trkpt lat="43.4141667" lon="11.54254"><ele>413.4</ele><time>2026-04-11T10:26:14.699Z</time></trkpt><trkpt lat="43.4141233" lon="11.5424717"><ele>411.0</ele><time>2026-04-11T10:26:15.701Z</time></trkpt><trkpt lat="43.41407" lon="11.5423267"><ele>411.0</ele><time>2026-04-11T10:26:17.7Z</time></trkpt><trkpt lat="43.414095" lon="11.54218"><ele>411.0</ele><time>2026-04-11T10:26:19.7Z</time></trkpt><trkpt lat="43.41418" lon="11.5420733"><ele>411.0</ele><time>2026-04-11T10:26:21.701Z</time></trkpt><trkpt lat="43.4142417" lon="11.5420433"><ele>411.0</ele><time>2026-04-11T10:26:22.701Z</time></trkpt><trkpt lat="43.4143083" lon="11.5420233"><ele>411.0</ele><time>2026-04-11T10:26:23.7Z</time></trkpt><trkpt lat="43.41441" lon="11.5419483"><ele>408.6666666666667</ele><time>2026-04-11T10:26:25.7Z</time></trkpt><trkpt lat="43.4144717" lon="11.5418433"><ele>406.33333333333337</ele><time>2026-04-11T10:26:27.704Z</time></trkpt><trkpt lat="43.4145117" lon="11.5417517"><ele>404.0</ele><time>2026-04-11T10:26:29.7Z</time></trkpt><trkpt lat="43.4144233" lon="11.5416633"><ele>401.6666666666667</ele><time>2026-04-11T10:26:31.701Z</time></trkpt><trkpt lat="43.4143633" lon="11.5416233"><ele>399.33333333333337</ele><time>2026-04-11T10:26:32.702Z</time></trkpt><trkpt lat="43.414295" lon="11.5415783"><ele>397.0</ele><time>2026-04-11T10:26:33.7Z</time></trkpt><trkpt lat="43.41422" lon="11.5415283"><ele>397.00000000000006</ele><time>2026-04-11T10:26:34.7Z</time></trkpt><trkpt lat="43.4141483" lon="11.54147"><ele>397.0</ele><time>2026-04-11T10:26:35.7Z</time></trkpt><trkpt lat="43.4140817" lon="11.54141"><ele>397.0</ele><time>2026-04-11T10:26:36.699Z</time></trkpt><trkpt lat="43.4140233" lon="11.54135"><ele>397.0</ele><time>2026-04-11T10:26:37.701Z</time></trkpt><trkpt lat="43.4139367" lon="11.5412533"><ele>397.00000000000006</ele><time>2026-04-11T10:26:39.702Z</time></trkpt><trkpt lat="43.4138733" lon="11.541175"><ele>397.0</ele><time>2026-04-11T10:26:42.702Z</time></trkpt><trkpt lat="43.41379" lon="11.541095"><ele>392.50000000000006</ele><time>2026-04-11T10:27:27.701Z</time></trkpt><trkpt lat="43.4137333" lon="11.5410317"><ele>388.0</ele><time>2026-04-11T10:27:35.701Z</time></trkpt><trkpt lat="43.4137033" lon="11.5409317"><ele>383.5</ele><time>2026-04-11T10:27:38.701Z</time></trkpt><trkpt lat="43.4136683" lon="11.5408317"><ele>379.0</ele><time>2026-04-11T10:27:41.702Z</time></trkpt><trkpt lat="43.4136767" lon="11.540715"><ele>374.5</ele><time>2026-04-11T10:27:43.699Z</time></trkpt><trkpt lat="43.4136967" lon="11.5405867"><ele>370.0</ele><time>2026-04-11T10:27:45.7Z</time></trkpt><trkpt lat="43.41372" lon="11.5404683"><ele>368.5</ele><time>2026-04-11T10:27:47.699Z</time></trkpt><trkpt lat="43.4137433" lon="11.5403633"><ele>367.0</ele><time>2026-04-11T10:27:49.702Z</time></trkpt><trkpt lat="43.413775" lon="11.54027"><ele>365.5</ele><time>2026-04-11T10:27:51.703Z</time></trkpt><trkpt lat="43.413815" lon="11.54018"><ele>364.0</ele><time>2026-04-11T10:27:53.701Z</time></trkpt><trkpt lat="43.4138733" lon="11.5400767"><ele>362.5</ele><time>2026-04-11T10:27:55.701Z</time></trkpt><trkpt lat="43.4139533" lon="11.5399983"><ele>361.0</ele><time>2026-04-11T10:27:57.701Z</time></trkpt><trkpt lat="43.41405" lon="11.5399583"><ele>361.0</ele><time>2026-04-11T10:27:59.703Z</time></trkpt><trkpt lat="43.414155" lon="11.539935"><ele>361.0</ele><time>2026-04-11T10:28:01.7Z</time></trkpt><trkpt lat="43.41425" lon="11.539915"><ele>361.0</ele><time>2026-04-11T10:28:03.701Z</time></trkpt><trkpt lat="43.4143467" lon="11.53991"><ele>361.0</ele><time>2026-04-11T10:28:05.699Z</time></trkpt><trkpt lat="43.4144467" lon="11.539905"><ele>361.0</ele><time>2026-04-11T10:28:07.7Z</time></trkpt><trkpt lat="43.414535" lon="11.53989"><ele>361.0</ele><time>2026-04-11T10:28:09.699Z</time></trkpt><trkpt lat="43.414625" lon="11.5398633"><ele>361.0</ele><time>2026-04-11T10:28:11.701Z</time></trkpt><trkpt lat="43.4147033" lon="11.5398383"><ele>361.0</ele><time>2026-04-11T10:28:14.702Z</time></trkpt><trkpt lat="43.4148217" lon="11.5398383"><ele>361.0</ele><time>2026-04-11T10:30:14.703Z</time></trkpt><trkpt lat="43.41492" lon="11.5398667"><ele>361.0</ele><time>2026-04-11T10:30:16.702Z</time></trkpt><trkpt lat="43.415035" lon="11.5398683"><ele>360.8</ele><time>2026-04-11T10:30:18.701Z</time></trkpt><trkpt lat="43.4151117" lon="11.53985"><ele>360.6</ele><time>2026-04-11T10:30:20.701Z</time></trkpt><trkpt lat="43.4151917" lon="11.5398317"><ele>360.4</ele><time>2026-04-11T10:31:04.699Z</time></trkpt><trkpt lat="43.4152933" lon="11.539835"><ele>360.2</ele><time>2026-04-11T10:32:04.701Z</time></trkpt><trkpt lat="43.4154333" lon="11.5398533"><ele>360.0</ele><time>2026-04-11T10:33:15.7Z</time></trkpt><trkpt lat="43.4155667" lon="11.5398633"><ele>358.4</ele><time>2026-04-11T10:33:17.699Z</time></trkpt><trkpt lat="43.4156483" lon="11.5398767"><ele>356.8</ele><time>2026-04-11T10:33:18.699Z</time></trkpt><trkpt lat="43.4157217" lon="11.5399017"><ele>355.20000000000005</ele><time>2026-04-11T10:33:19.699Z</time></trkpt><trkpt lat="43.4157867" lon="11.5399267"><ele>353.6</ele><time>2026-04-11T10:33:20.701Z</time></trkpt><trkpt lat="43.4159017" lon="11.5399867"><ele>352.0</ele><time>2026-04-11T10:33:22.7Z</time></trkpt><trkpt lat="43.41598" lon="11.5400883"><ele>352.0</ele><time>2026-04-11T10:33:24.701Z</time></trkpt><trkpt lat="43.41603" lon="11.540245"><ele>352.0</ele><time>2026-04-11T10:33:26.701Z</time></trkpt><trkpt lat="43.4160583" lon="11.5403233"><ele>352.0</ele><time>2026-04-11T10:33:27.7Z</time></trkpt><trkpt lat="43.4160933" lon="11.5404017"><ele>352.0</ele><time>2026-04-11T10:33:28.699Z</time></trkpt><trkpt lat="43.4161383" lon="11.5404767"><ele>352.0</ele><time>2026-04-11T10:33:29.7Z</time></trkpt><trkpt lat="43.41619" lon="11.540545"><ele>352.0</ele><time>2026-04-11T10:33:30.701Z</time></trkpt><trkpt lat="43.4162417" lon="11.5406067"><ele>351.8333333333333</ele><time>2026-04-11T10:33:31.701Z</time></trkpt><trkpt lat="43.4163" lon="11.54066"><ele>351.66666666666663</ele><time>2026-04-11T10:33:32.702Z</time></trkpt><trkpt lat="43.41639" lon="11.5407683"><ele>351.5</ele><time>2026-04-11T10:33:34.699Z</time></trkpt><trkpt lat="43.4164633" lon="11.5409083"><ele>351.3333333333333</ele><time>2026-04-11T10:33:36.702Z</time></trkpt><trkpt lat="43.4164967" lon="11.5409867"><ele>351.1666666666667</ele><time>2026-04-11T10:33:37.702Z</time></trkpt><trkpt lat="43.416525" lon="11.5410683"><ele>351.0</ele><time>2026-04-11T10:33:38.701Z</time></trkpt><trkpt lat="43.4165467" lon="11.5411633"><ele>352.14285714285717</ele><time>2026-04-11T10:33:39.703Z</time></trkpt><trkpt lat="43.4165633" lon="11.5412667"><ele>353.2857142857143</ele><time>2026-04-11T10:33:40.701Z</time></trkpt><trkpt lat="43.41658" lon="11.541365"><ele>354.42857142857144</ele><time>2026-04-11T10:33:41.701Z</time></trkpt><trkpt lat="43.4165933" lon="11.54146"><ele>355.57142857142856</ele><time>2026-04-11T10:33:42.701Z</time></trkpt><trkpt lat="43.41661" lon="11.5415517"><ele>356.7142857142857</ele><time>2026-04-11T10:33:43.701Z</time></trkpt><trkpt lat="43.4166317" lon="11.5416483"><ele>357.8571428571429</ele><time>2026-04-11T10:33:44.702Z</time></trkpt><trkpt lat="43.41666" lon="11.5417467"><ele>359.0</ele><time>2026-04-11T10:33:45.702Z</time></trkpt><trkpt lat="43.4166867" lon="11.54183"><ele>359.0</ele><time>2026-04-11T10:33:46.701Z</time></trkpt><trkpt lat="43.4167067" lon="11.5419233"><ele>359.0</ele><time>2026-04-11T10:33:47.702Z</time></trkpt><trkpt lat="43.416725" lon="11.5420183"><ele>359.0</ele><time>2026-04-11T10:33:48.703Z</time></trkpt><trkpt lat="43.41675" lon="11.542115"><ele>359.0</ele><time>2026-04-11T10:33:49.702Z</time></trkpt><trkpt lat="43.4167817" lon="11.5422"><ele>359.0</ele><time>2026-04-11T10:33:50.702Z</time></trkpt><trkpt lat="43.416835" lon="11.5423617"><ele>359.0</ele><time>2026-04-11T10:33:52.7Z</time></trkpt><trkpt lat="43.416865" lon="11.54244"><ele>362.2</ele><time>2026-04-11T10:33:53.702Z</time></trkpt><trkpt lat="43.416925" lon="11.5425733"><ele>365.4</ele><time>2026-04-11T10:33:55.701Z</time></trkpt><trkpt lat="43.4169933" lon="11.5427033"><ele>368.6</ele><time>2026-04-11T10:33:57.702Z</time></trkpt><trkpt lat="43.417035" lon="11.5428033"><ele>371.8</ele><time>2026-04-11T10:33:58.701Z</time></trkpt><trkpt lat="43.4170833" lon="11.542895"><ele>375.0</ele><time>2026-04-11T10:33:59.7Z</time></trkpt><trkpt lat="43.4171417" lon="11.5429783"><ele>372.3333333333333</ele><time>2026-04-11T10:34:00.701Z</time></trkpt><trkpt lat="43.4172033" lon="11.5430333"><ele>369.6666666666667</ele><time>2026-04-11T10:34:01.7Z</time></trkpt><trkpt lat="43.4172717" lon="11.5430883"><ele>367.0</ele><time>2026-04-11T10:34:02.701Z</time></trkpt><trkpt lat="43.4173417" lon="11.54314"><ele>364.33333333333337</ele><time>2026-04-11T10:34:03.699Z</time></trkpt><trkpt lat="43.4173967" lon="11.5431967"><ele>361.6666666666667</ele><time>2026-04-11T10:34:04.701Z</time></trkpt><trkpt lat="43.41745" lon="11.5432633"><ele>359.0</ele><time>2026-04-11T10:34:05.701Z</time></trkpt><trkpt lat="43.4175283" lon="11.5434117"><ele>359.0</ele><time>2026-04-11T10:34:07.701Z</time></trkpt><trkpt lat="43.4175717" lon="11.5434883"><ele>359.0</ele><time>2026-04-11T10:34:08.703Z</time></trkpt><trkpt lat="43.417655" lon="11.5436233"><ele>359.0</ele><time>2026-04-11T10:34:10.701Z</time></trkpt><trkpt lat="43.41771" lon="11.5436833"><ele>359.0</ele><time>2026-04-11T10:34:11.701Z</time></trkpt><trkpt lat="43.4177617" lon="11.5437417"><ele>359.0</ele><time>2026-04-11T10:34:12.699Z</time></trkpt><trkpt lat="43.417815" lon="11.5437933"><ele>359.0</ele><time>2026-04-11T10:34:13.701Z</time></trkpt><trkpt lat="43.4178717" lon="11.5438433"><ele>359.0</ele><time>2026-04-11T10:34:14.712Z</time></trkpt><trkpt lat="43.417935" lon="11.5438967"><ele>359.0</ele><time>2026-04-11T10:34:15.701Z</time></trkpt><trkpt lat="43.4179967" lon="11.5439617"><ele>359.0</ele><time>2026-04-11T10:34:16.701Z</time></trkpt><trkpt lat="43.418055" lon="11.5440317"><ele>359.0</ele><time>2026-04-11T10:34:17.703Z</time></trkpt><trkpt lat="43.4181067" lon="11.544115"><ele>359.0</ele><time>2026-04-11T10:34:18.7Z</time></trkpt><trkpt lat="43.4181467" lon="11.5442067"><ele>359.0</ele><time>2026-04-11T10:34:19.701Z</time></trkpt><trkpt lat="43.4181833" lon="11.544285"><ele>359.0</ele><time>2026-04-11T10:34:20.701Z</time></trkpt><trkpt lat="43.4182217" lon="11.5443567"><ele>359.0</ele><time>2026-04-11T10:34:21.7Z</time></trkpt><trkpt lat="43.41831" lon="11.544465"><ele>359.0</ele><time>2026-04-11T10:34:23.7Z</time></trkpt><trkpt lat="43.418405" lon="11.5445367"><ele>359.0</ele><time>2026-04-11T10:34:25.701Z</time></trkpt><trkpt lat="43.4184983" lon="11.5446117"><ele>359.0</ele><time>2026-04-11T10:34:27.701Z</time></trkpt><trkpt lat="43.4185783" lon="11.5446883"><ele>360.0</ele><time>2026-04-11T10:34:29.702Z</time></trkpt><trkpt lat="43.4186667" lon="11.5447583"><ele>361.0</ele><time>2026-04-11T10:34:49.702Z</time></trkpt><trkpt lat="43.4187583" lon="11.544835"><ele>362.0</ele><time>2026-04-11T10:34:51.7Z</time></trkpt><trkpt lat="43.4188383" lon="11.5449183"><ele>363.0</ele><time>2026-04-11T10:34:53.7Z</time></trkpt><trkpt lat="43.4189583" lon="11.5449533"><ele>364.0</ele><time>2026-04-11T10:34:55.7Z</time></trkpt><trkpt lat="43.4190383" lon="11.5449617"><ele>364.0</ele><time>2026-04-11T10:34:56.701Z</time></trkpt><trkpt lat="43.4191133" lon="11.5449783"><ele>364.0</ele><time>2026-04-11T10:34:57.7Z</time></trkpt><trkpt lat="43.4191883" lon="11.5449933"><ele>364.0</ele><time>2026-04-11T10:34:58.7Z</time></trkpt><trkpt lat="43.4192533" lon="11.545015"><ele>364.0</ele><time>2026-04-11T10:34:59.7Z</time></trkpt><trkpt lat="43.4193617" lon="11.5450317"><ele>364.0</ele><time>2026-04-11T10:35:01.701Z</time></trkpt><trkpt lat="43.4194717" lon="11.5450167"><ele>364.0</ele><time>2026-04-11T10:35:03.701Z</time></trkpt><trkpt lat="43.419535" lon="11.54503"><ele>364.0</ele><time>2026-04-11T10:35:04.7Z</time></trkpt><trkpt lat="43.4196033" lon="11.54506"><ele>364.0</ele><time>2026-04-11T10:35:05.701Z</time></trkpt><trkpt lat="43.419675" lon="11.54508"><ele>364.0</ele><time>2026-04-11T10:35:06.701Z</time></trkpt><trkpt lat="43.41975" lon="11.54509"><ele>364.0</ele><time>2026-04-11T10:35:07.702Z</time></trkpt><trkpt lat="43.4198183" lon="11.5450933"><ele>364.0</ele><time>2026-04-11T10:35:08.701Z</time></trkpt><trkpt lat="43.4199417" lon="11.5450967"><ele>364.0</ele><time>2026-04-11T10:35:10.701Z</time></trkpt><trkpt lat="43.42001" lon="11.5450967"><ele>364.2</ele><time>2026-04-11T10:35:11.7Z</time></trkpt><trkpt lat="43.4200767" lon="11.5451"><ele>364.4</ele><time>2026-04-11T10:35:12.702Z</time></trkpt><trkpt lat="43.4201833" lon="11.5451033"><ele>364.6</ele><time>2026-04-11T10:35:14.703Z</time></trkpt><trkpt lat="43.42028" lon="11.545175"><ele>364.8</ele><time>2026-04-11T10:35:16.702Z</time></trkpt><trkpt lat="43.4203883" lon="11.54526"><ele>365.0</ele><time>2026-04-11T10:35:18.701Z</time></trkpt><trkpt lat="43.42046" lon="11.5452967"><ele>365.14285714285717</ele><time>2026-04-11T10:35:19.701Z</time></trkpt><trkpt lat="43.42054" lon="11.5453267"><ele>365.2857142857143</ele><time>2026-04-11T10:35:20.703Z</time></trkpt><trkpt lat="43.42062" lon="11.5453533"><ele>365.42857142857144</ele><time>2026-04-11T10:35:21.702Z</time></trkpt><trkpt lat="43.4206867" lon="11.545385"><ele>365.57142857142856</ele><time>2026-04-11T10:35:22.7Z</time></trkpt><trkpt lat="43.4207417" lon="11.54544"><ele>365.7142857142857</ele><time>2026-04-11T10:35:23.701Z</time></trkpt><trkpt lat="43.4207917" lon="11.5455083"><ele>365.8571428571429</ele><time>2026-04-11T10:35:24.702Z</time></trkpt><trkpt lat="43.4208383" lon="11.545585"><ele>366.0</ele><time>2026-04-11T10:35:25.7Z</time></trkpt><trkpt lat="43.4208833" lon="11.5456583"><ele>366.0</ele><time>2026-04-11T10:35:26.701Z</time></trkpt><trkpt lat="43.4209233" lon="11.5457333"><ele>366.0</ele><time>2026-04-11T10:35:27.701Z</time></trkpt><trkpt lat="43.4209733" lon="11.5458667"><ele>366.0</ele><time>2026-04-11T10:35:29.7Z</time></trkpt><trkpt lat="43.4210083" lon="11.545955"><ele>366.0</ele><time>2026-04-11T10:35:32.7Z</time></trkpt><trkpt lat="43.4210917" lon="11.5460283"><ele>366.0</ele><time>2026-04-11T10:36:16.7Z</time></trkpt><trkpt lat="43.4211733" lon="11.5460683"><ele>366.0</ele><time>2026-04-11T10:36:19.702Z</time></trkpt><trkpt lat="43.4212483" lon="11.5461183"><ele>366.0</ele><time>2026-04-11T10:36:22.701Z</time></trkpt><trkpt lat="43.4213033" lon="11.5461717"><ele>366.0</ele><time>2026-04-11T10:36:24.699Z</time></trkpt><trkpt lat="43.4213717" lon="11.54623"><ele>366.0</ele><time>2026-04-11T10:36:26.701Z</time></trkpt><trkpt lat="43.4214683" lon="11.546265"><ele>366.0</ele><time>2026-04-11T10:36:28.701Z</time></trkpt><trkpt lat="43.4215383" lon="11.54627"><ele>366.0</ele><time>2026-04-11T10:36:29.699Z</time></trkpt><trkpt lat="43.4216233" lon="11.5462767"><ele>366.0</ele><time>2026-04-11T10:36:30.701Z</time></trkpt><trkpt lat="43.4217217" lon="11.546295"><ele>368.0</ele><time>2026-04-11T10:36:31.701Z</time></trkpt><trkpt lat="43.42181" lon="11.5463117"><ele>370.0</ele><time>2026-04-11T10:36:32.701Z</time></trkpt><trkpt lat="43.4219083" lon="11.546335"><ele>372.0</ele><time>2026-04-11T10:36:33.702Z</time></trkpt><trkpt lat="43.4220083" lon="11.5463617"><ele>374.0</ele><time>2026-04-11T10:36:34.701Z</time></trkpt><trkpt lat="43.4221033" lon="11.5463983"><ele>376.0</ele><time>2026-04-11T10:36:35.701Z</time></trkpt><trkpt lat="43.4221917" lon="11.5464317"><ele>376.4</ele><time>2026-04-11T10:36:36.701Z</time></trkpt><trkpt lat="43.42228" lon="11.54645"><ele>376.8</ele><time>2026-04-11T10:36:37.701Z</time></trkpt><trkpt lat="43.4223817" lon="11.54646"><ele>377.2</ele><time>2026-04-11T10:36:38.702Z</time></trkpt><trkpt lat="43.42251" lon="11.5464617"><ele>377.59999999999997</ele><time>2026-04-11T10:36:39.701Z</time></trkpt><trkpt lat="43.4226333" lon="11.5464667"><ele>378.0</ele><time>2026-04-11T10:36:40.701Z</time></trkpt><trkpt lat="43.4227467" lon="11.54646"><ele>378.0</ele><time>2026-04-11T10:36:41.701Z</time></trkpt><trkpt lat="43.4228417" lon="11.5464417"><ele>378.0</ele><time>2026-04-11T10:36:42.701Z</time></trkpt><trkpt lat="43.4229267" lon="11.5464267"><ele>378.0</ele><time>2026-04-11T10:36:43.701Z</time></trkpt><trkpt lat="43.4230083" lon="11.5464117"><ele>378.0</ele><time>2026-04-11T10:36:44.7Z</time></trkpt><trkpt lat="43.4230817" lon="11.5464"><ele>378.0</ele><time>2026-04-11T10:36:45.701Z</time></trkpt><trkpt lat="43.423155" lon="11.546385"><ele>378.0</ele><time>2026-04-11T10:36:46.701Z</time></trkpt><trkpt lat="43.4232283" lon="11.5463717"><ele>378.1666666666667</ele><time>2026-04-11T10:36:47.701Z</time></trkpt><trkpt lat="43.4232967" lon="11.5463733"><ele>378.3333333333333</ele><time>2026-04-11T10:36:48.702Z</time></trkpt><trkpt lat="43.4233983" lon="11.5464017"><ele>378.5</ele><time>2026-04-11T10:36:50.702Z</time></trkpt><trkpt lat="43.42349" lon="11.5464233"><ele>378.66666666666663</ele><time>2026-04-11T10:36:52.702Z</time></trkpt><trkpt lat="43.423575" lon="11.5464383"><ele>378.8333333333333</ele><time>2026-04-11T10:36:54.701Z</time></trkpt><trkpt lat="43.42363" lon="11.546485"><ele>379.0</ele><time>2026-04-11T10:37:06.703Z</time></trkpt><trkpt lat="43.423735" lon="11.5465783"><ele>379.0</ele><time>2026-04-11T10:37:08.702Z</time></trkpt><trkpt lat="43.4238033" lon="11.5466417"><ele>379.0</ele><time>2026-04-11T10:37:09.7Z</time></trkpt><trkpt lat="43.42387" lon="11.5467"><ele>379.0</ele><time>2026-04-11T10:37:10.701Z</time></trkpt><trkpt lat="43.4239333" lon="11.5467433"><ele>379.0</ele><time>2026-04-11T10:37:11.701Z</time></trkpt><trkpt lat="43.424045" lon="11.5467933"><ele>379.0</ele><time>2026-04-11T10:37:13.7Z</time></trkpt><trkpt lat="43.42416" lon="11.5467867"><ele>380.0</ele><time>2026-04-11T10:37:15.701Z</time></trkpt><trkpt lat="43.4242683" lon="11.546765"><ele>381.0</ele><time>2026-04-11T10:37:17.701Z</time></trkpt><trkpt lat="43.4244033" lon="11.54671"><ele>382.0</ele><time>2026-04-11T10:37:19.7Z</time></trkpt><trkpt lat="43.4244883" lon="11.5466717"><ele>383.0</ele><time>2026-04-11T10:37:20.702Z</time></trkpt><trkpt lat="43.4245783" lon="11.5466483"><ele>384.0</ele><time>2026-04-11T10:37:21.701Z</time></trkpt><trkpt lat="43.424665" lon="11.5466767"><ele>384.0</ele><time>2026-04-11T10:37:22.701Z</time></trkpt><trkpt lat="43.42475" lon="11.5467217"><ele>384.0</ele><time>2026-04-11T10:37:23.701Z</time></trkpt><trkpt lat="43.424825" lon="11.54676"><ele>384.0</ele><time>2026-04-11T10:37:24.702Z</time></trkpt><trkpt lat="43.4248967" lon="11.5467867"><ele>384.0</ele><time>2026-04-11T10:37:25.701Z</time></trkpt><trkpt lat="43.4249733" lon="11.5468033"><ele>384.0</ele><time>2026-04-11T10:37:26.701Z</time></trkpt><trkpt lat="43.4250433" lon="11.54681"><ele>384.0</ele><time>2026-04-11T10:37:27.703Z</time></trkpt><trkpt lat="43.42512" lon="11.546805"><ele>384.0</ele><time>2026-04-11T10:37:28.7Z</time></trkpt><trkpt lat="43.4251917" lon="11.5468283"><ele>384.0</ele><time>2026-04-11T10:37:29.7Z</time></trkpt><trkpt lat="43.42526" lon="11.546845"><ele>384.0</ele><time>2026-04-11T10:37:30.701Z</time></trkpt><trkpt lat="43.4253333" lon="11.546835"><ele>384.0</ele><time>2026-04-11T10:37:31.699Z</time></trkpt><trkpt lat="43.4254083" lon="11.5468"><ele>384.0</ele><time>2026-04-11T10:37:32.7Z</time></trkpt><trkpt lat="43.4254833" lon="11.54675"><ele>384.0</ele><time>2026-04-11T10:37:33.701Z</time></trkpt><trkpt lat="43.4255467" lon="11.546695"><ele>384.2</ele><time>2026-04-11T10:37:34.7Z</time></trkpt><trkpt lat="43.425625" lon="11.5466017"><ele>384.4</ele><time>2026-04-11T10:37:36.7Z</time></trkpt><trkpt lat="43.4257083" lon="11.5465433"><ele>384.6</ele><time>2026-04-11T10:37:38.701Z</time></trkpt><trkpt lat="43.425845" lon="11.5465533"><ele>384.8</ele><time>2026-04-11T10:37:40.7Z</time></trkpt><trkpt lat="43.4259333" lon="11.5465733"><ele>385.0</ele><time>2026-04-11T10:37:41.7Z</time></trkpt><trkpt lat="43.4260317" lon="11.5465717"><ele>385.0</ele><time>2026-04-11T10:37:42.7Z</time></trkpt><trkpt lat="43.4261483" lon="11.5465533"><ele>385.0</ele><time>2026-04-11T10:37:43.701Z</time></trkpt><trkpt lat="43.426265" lon="11.5465233"><ele>385.0</ele><time>2026-04-11T10:37:44.703Z</time></trkpt><trkpt lat="43.4263783" lon="11.5464933"><ele>385.0</ele><time>2026-04-11T10:37:45.703Z</time></trkpt><trkpt lat="43.426485" lon="11.546465"><ele>385.50000000000006</ele><time>2026-04-11T10:37:46.701Z</time></trkpt><trkpt lat="43.4265833" lon="11.5464567"><ele>386.0</ele><time>2026-04-11T10:37:47.703Z</time></trkpt><trkpt lat="43.426675" lon="11.5464467"><ele>386.5</ele><time>2026-04-11T10:37:48.702Z</time></trkpt><trkpt lat="43.426755" lon="11.5464317"><ele>387.0</ele><time>2026-04-11T10:37:49.703Z</time></trkpt><trkpt lat="43.4268267" lon="11.5464033"><ele>387.50000000000006</ele><time>2026-04-11T10:37:50.703Z</time></trkpt><trkpt lat="43.4268883" lon="11.5463817"><ele>388.0</ele><time>2026-04-11T10:37:51.702Z</time></trkpt><trkpt lat="43.4270117" lon="11.546365"><ele>388.0</ele><time>2026-04-11T10:37:53.703Z</time></trkpt><trkpt lat="43.42714" lon="11.546335"><ele>388.0</ele><time>2026-04-11T10:37:55.701Z</time></trkpt><trkpt lat="43.427215" lon="11.5463017"><ele>388.0</ele><time>2026-04-11T10:37:56.7Z</time></trkpt><trkpt lat="43.4272983" lon="11.5462683"><ele>388.0</ele><time>2026-04-11T10:37:57.701Z</time></trkpt><trkpt lat="43.427375" lon="11.5462283"><ele>388.0</ele><time>2026-04-11T10:37:58.7Z</time></trkpt><trkpt lat="43.4274483" lon="11.5461867"><ele>389.00000000000006</ele><time>2026-04-11T10:37:59.701Z</time></trkpt><trkpt lat="43.4275217" lon="11.5461533"><ele>390.0</ele><time>2026-04-11T10:38:00.701Z</time></trkpt><trkpt lat="43.4275917" lon="11.5461283"><ele>391.0</ele><time>2026-04-11T10:38:01.701Z</time></trkpt><trkpt lat="43.42766" lon="11.546135"><ele>392.0</ele><time>2026-04-11T10:38:02.701Z</time></trkpt><trkpt lat="43.42776" lon="11.5462017"><ele>393.00000000000006</ele><time>2026-04-11T10:38:04.702Z</time></trkpt><trkpt lat="43.42782" lon="11.5462517"><ele>394.0</ele><time>2026-04-11T10:38:06.701Z</time></trkpt><trkpt lat="43.42791" lon="11.5462183"><ele>394.50000000000006</ele><time>2026-04-11T10:40:57.701Z</time></trkpt><trkpt lat="43.4280333" lon="11.546245"><ele>395.0</ele><time>2026-04-11T10:40:59.7Z</time></trkpt><trkpt lat="43.4281033" lon="11.5462583"><ele>395.5</ele><time>2026-04-11T10:41:00.702Z</time></trkpt><trkpt lat="43.428185" lon="11.54627"><ele>396.0</ele><time>2026-04-11T10:41:01.7Z</time></trkpt><trkpt lat="43.428265" lon="11.5462767"><ele>396.50000000000006</ele><time>2026-04-11T10:41:02.701Z</time></trkpt><trkpt lat="43.4283483" lon="11.5462867"><ele>397.0</ele><time>2026-04-11T10:41:03.7Z</time></trkpt><trkpt lat="43.428425" lon="11.5462867"><ele>397.00000000000006</ele><time>2026-04-11T10:41:04.701Z</time></trkpt><trkpt lat="43.4285017" lon="11.5462767"><ele>397.0</ele><time>2026-04-11T10:41:05.702Z</time></trkpt><trkpt lat="43.4285733" lon="11.5462517"><ele>397.0</ele><time>2026-04-11T10:41:06.702Z</time></trkpt><trkpt lat="43.4286467" lon="11.5462"><ele>397.0</ele><time>2026-04-11T10:41:07.701Z</time></trkpt><trkpt lat="43.42873" lon="11.54612"><ele>397.00000000000006</ele><time>2026-04-11T10:41:08.703Z</time></trkpt><trkpt lat="43.4288183" lon="11.5460417"><ele>397.0</ele><time>2026-04-11T10:41:09.701Z</time></trkpt><trkpt lat="43.428915" lon="11.5459617"><ele>398.0</ele><time>2026-04-11T10:41:10.702Z</time></trkpt><trkpt lat="43.4290233" lon="11.5458783"><ele>399.0</ele><time>2026-04-11T10:41:11.702Z</time></trkpt><trkpt lat="43.4291267" lon="11.5458017"><ele>400.0</ele><time>2026-04-11T10:41:12.702Z</time></trkpt><trkpt lat="43.4292217" lon="11.545735"><ele>401.0</ele><time>2026-04-11T10:41:13.702Z</time></trkpt><trkpt lat="43.4293133" lon="11.5456867"><ele>402.0</ele><time>2026-04-11T10:41:14.702Z</time></trkpt><trkpt lat="43.4294" lon="11.5456533"><ele>402.0</ele><time>2026-04-11T10:41:15.703Z</time></trkpt><trkpt lat="43.42948" lon="11.5456167"><ele>402.0</ele><time>2026-04-11T10:41:16.7Z</time></trkpt><trkpt lat="43.4295483" lon="11.5455717"><ele>402.0</ele><time>2026-04-11T10:41:17.701Z</time></trkpt><trkpt lat="43.4296083" lon="11.5455233"><ele>402.0</ele><time>2026-04-11T10:41:18.703Z</time></trkpt><trkpt lat="43.42967" lon="11.5454783"><ele>402.0</ele><time>2026-04-11T10:41:19.702Z</time></trkpt><trkpt lat="43.4297367" lon="11.5454517"><ele>402.0</ele><time>2026-04-11T10:41:20.703Z</time></trkpt><trkpt lat="43.4298133" lon="11.54543"><ele>402.0</ele><time>2026-04-11T10:41:21.702Z</time></trkpt><trkpt lat="43.4298967" lon="11.545415"><ele>403.0</ele><time>2026-04-11T10:41:22.702Z</time></trkpt><trkpt lat="43.42998" lon="11.545395"><ele>404.0</ele><time>2026-04-11T10:41:23.703Z</time></trkpt><trkpt lat="43.43007" lon="11.5453717"><ele>405.0</ele><time>2026-04-11T10:41:24.702Z</time></trkpt><trkpt lat="43.4301583" lon="11.5453533"><ele>406.0</ele><time>2026-04-11T10:41:25.702Z</time></trkpt><trkpt lat="43.430235" lon="11.54534"><ele>407.0</ele><time>2026-04-11T10:41:26.701Z</time></trkpt><trkpt lat="43.430335" lon="11.545315"><ele>408.0</ele><time>2026-04-11T10:41:28.701Z</time></trkpt><trkpt lat="43.4304167" lon="11.5452383"><ele>408.1666666666667</ele><time>2026-04-11T10:41:30.701Z</time></trkpt><trkpt lat="43.4304683" lon="11.54518"><ele>408.33333333333337</ele><time>2026-04-11T10:41:31.702Z</time></trkpt><trkpt lat="43.43054" lon="11.545115"><ele>408.5</ele><time>2026-04-11T10:41:32.699Z</time></trkpt><trkpt lat="43.4306117" lon="11.5450617"><ele>408.6666666666667</ele><time>2026-04-11T10:41:33.702Z</time></trkpt><trkpt lat="43.430675" lon="11.5450233"><ele>408.83333333333337</ele><time>2026-04-11T10:41:34.701Z</time></trkpt><trkpt lat="43.4308" lon="11.54501"><ele>409.0</ele><time>2026-04-11T10:41:36.702Z</time></trkpt><trkpt lat="43.430865" lon="11.5450117"><ele>409.50000000000006</ele><time>2026-04-11T10:41:37.695Z</time></trkpt><trkpt lat="43.4309767" lon="11.545"><ele>410.0</ele><time>2026-04-11T10:41:39.702Z</time></trkpt><trkpt lat="43.43108" lon="11.5449733"><ele>410.5</ele><time>2026-04-11T10:41:41.7Z</time></trkpt><trkpt lat="43.4311417" lon="11.54493"><ele>411.0</ele><time>2026-04-11T10:41:44.702Z</time></trkpt><trkpt lat="43.4311967" lon="11.5448833"><ele>411.50000000000006</ele><time>2026-04-11T10:41:48.701Z</time></trkpt><trkpt lat="43.43126" lon="11.54488"><ele>412.0</ele><time>2026-04-11T10:41:50.703Z</time></trkpt><trkpt lat="43.43135" lon="11.54488"><ele>412.0</ele><time>2026-04-11T10:41:52.703Z</time></trkpt><trkpt lat="43.4314583" lon="11.544855"><ele>412.0</ele><time>2026-04-11T10:41:54.7Z</time></trkpt><trkpt lat="43.4315667" lon="11.5448183"><ele>412.0</ele><time>2026-04-11T10:41:56.702Z</time></trkpt><trkpt lat="43.4316833" lon="11.5447817"><ele>412.0</ele><time>2026-04-11T10:41:58.7Z</time></trkpt><trkpt lat="43.4317483" lon="11.5447583"><ele>412.0</ele><time>2026-04-11T10:41:59.701Z</time></trkpt><trkpt lat="43.4318217" lon="11.54473"><ele>412.0</ele><time>2026-04-11T10:42:00.701Z</time></trkpt><trkpt lat="43.4318883" lon="11.5446983"><ele>412.0</ele><time>2026-04-11T10:42:01.7Z</time></trkpt><trkpt lat="43.431985" lon="11.5446767"><ele>412.0</ele><time>2026-04-11T10:42:03.701Z</time></trkpt><trkpt lat="43.432065" lon="11.5446433"><ele>412.0</ele><time>2026-04-11T10:42:05.7Z</time></trkpt><trkpt lat="43.432165" lon="11.5445717"><ele>412.0</ele><time>2026-04-11T10:42:07.701Z</time></trkpt><trkpt lat="43.432285" lon="11.5445033"><ele>412.2857142857143</ele><time>2026-04-11T10:42:09.701Z</time></trkpt><trkpt lat="43.4323483" lon="11.54447"><ele>412.57142857142856</ele><time>2026-04-11T10:42:10.701Z</time></trkpt><trkpt lat="43.43241" lon="11.5444333"><ele>412.8571428571429</ele><time>2026-04-11T10:42:11.702Z</time></trkpt><trkpt lat="43.4324733" lon="11.5443967"><ele>413.1428571428571</ele><time>2026-04-11T10:42:12.701Z</time></trkpt><trkpt lat="43.4325417" lon="11.5443633"><ele>413.42857142857144</ele><time>2026-04-11T10:42:13.701Z</time></trkpt><trkpt lat="43.4326017" lon="11.544335"><ele>413.7142857142857</ele><time>2026-04-11T10:42:14.703Z</time></trkpt><trkpt lat="43.4327017" lon="11.5443317"><ele>414.0</ele><time>2026-04-11T10:42:16.701Z</time></trkpt><trkpt lat="43.4327883" lon="11.544405"><ele>414.0</ele><time>2026-04-11T10:42:18.701Z</time></trkpt><trkpt lat="43.4328333" lon="11.5444667"><ele>414.0</ele><time>2026-04-11T10:42:19.701Z</time></trkpt><trkpt lat="43.4328783" lon="11.5445417"><ele>414.0</ele><time>2026-04-11T10:42:20.701Z</time></trkpt><trkpt lat="43.432925" lon="11.5446133"><ele>414.0</ele><time>2026-04-11T10:42:21.702Z</time></trkpt><trkpt lat="43.4330083" lon="11.54473"><ele>414.0</ele><time>2026-04-11T10:42:23.703Z</time></trkpt><trkpt lat="43.4330633" lon="11.5447917"><ele>414.0</ele><time>2026-04-11T10:42:24.701Z</time></trkpt><trkpt lat="43.4331233" lon="11.54485"><ele>416.3333333333333</ele><time>2026-04-11T10:42:25.702Z</time></trkpt><trkpt lat="43.43318" lon="11.5449"><ele>418.66666666666663</ele><time>2026-04-11T10:42:26.702Z</time></trkpt><trkpt lat="43.433285" lon="11.5449817"><ele>421.0</ele><time>2026-04-11T10:42:28.7Z</time></trkpt><trkpt lat="43.4333417" lon="11.5450283"><ele>423.3333333333333</ele><time>2026-04-11T10:42:29.702Z</time></trkpt><trkpt lat="43.4334" lon="11.5450767"><ele>425.66666666666663</ele><time>2026-04-11T10:42:30.702Z</time></trkpt><trkpt lat="43.4334583" lon="11.54513"><ele>428.0</ele><time>2026-04-11T10:42:31.705Z</time></trkpt><trkpt lat="43.43355" lon="11.54523"><ele>428.0</ele><time>2026-04-11T10:42:33.703Z</time></trkpt><trkpt lat="43.4336233" lon="11.5453283"><ele>427.99999999999994</ele><time>2026-04-11T10:42:35.701Z</time></trkpt><trkpt lat="43.433705" lon="11.5454183"><ele>427.99999999999994</ele><time>2026-04-11T10:42:37.702Z</time></trkpt><trkpt lat="43.4338017" lon="11.545505"><ele>428.0</ele><time>2026-04-11T10:42:39.702Z</time></trkpt><trkpt lat="43.4339083" lon="11.545555"><ele>428.0</ele><time>2026-04-11T10:42:41.702Z</time></trkpt><trkpt lat="43.43403" lon="11.5455983"><ele>429.49999999999994</ele><time>2026-04-11T10:42:43.701Z</time></trkpt><trkpt lat="43.43409" lon="11.5456333"><ele>431.0</ele><time>2026-04-11T10:42:44.702Z</time></trkpt><trkpt lat="43.4341583" lon="11.5456567"><ele>432.5</ele><time>2026-04-11T10:42:45.702Z</time></trkpt><trkpt lat="43.4342283" lon="11.545675"><ele>434.0</ele><time>2026-04-11T10:42:46.7Z</time></trkpt><trkpt lat="43.4342983" lon="11.5456883"><ele>435.49999999999994</ele><time>2026-04-11T10:42:47.701Z</time></trkpt><trkpt lat="43.43439" lon="11.5457283"><ele>437.0</ele><time>2026-04-11T10:42:49.703Z</time></trkpt><trkpt lat="43.4344533" lon="11.54586"><ele>436.99999999999994</ele><time>2026-04-11T10:42:51.703Z</time></trkpt><trkpt lat="43.43449" lon="11.5459583"><ele>437.0</ele><time>2026-04-11T10:42:52.701Z</time></trkpt><trkpt lat="43.4345217" lon="11.5460483"><ele>437.0</ele><time>2026-04-11T10:42:53.703Z</time></trkpt><trkpt lat="43.4345583" lon="11.5461283"><ele>437.0</ele><time>2026-04-11T10:42:54.702Z</time></trkpt><trkpt lat="43.4346533" lon="11.5462333"><ele>436.99999999999994</ele><time>2026-04-11T10:42:56.702Z</time></trkpt><trkpt lat="43.4347183" lon="11.5462583"><ele>437.0</ele><time>2026-04-11T10:42:57.701Z</time></trkpt><trkpt lat="43.4347883" lon="11.54628"><ele>437.99999999999994</ele><time>2026-04-11T10:42:58.701Z</time></trkpt><trkpt lat="43.4348633" lon="11.5463067"><ele>439.0</ele><time>2026-04-11T10:42:59.701Z</time></trkpt><trkpt lat="43.4349417" lon="11.5463517"><ele>440.0</ele><time>2026-04-11T10:43:00.702Z</time></trkpt><trkpt lat="43.4350217" lon="11.5464033"><ele>441.0</ele><time>2026-04-11T10:43:01.702Z</time></trkpt><trkpt lat="43.4350933" lon="11.5464667"><ele>441.99999999999994</ele><time>2026-04-11T10:43:02.702Z</time></trkpt><trkpt lat="43.4351567" lon="11.546535"><ele>443.0</ele><time>2026-04-11T10:43:03.703Z</time></trkpt><trkpt lat="43.4352183" lon="11.5466183"><ele>442.99999999999994</ele><time>2026-04-11T10:43:04.701Z</time></trkpt><trkpt lat="43.435265" lon="11.5466883"><ele>443.0</ele><time>2026-04-11T10:43:05.701Z</time></trkpt><trkpt lat="43.43534" lon="11.5467733"><ele>443.0</ele><time>2026-04-11T10:43:07.702Z</time></trkpt><trkpt lat="43.435415" lon="11.5468033"><ele>443.0</ele><time>2026-04-11T10:43:09.701Z</time></trkpt><trkpt lat="43.4355183" lon="11.5468583"><ele>442.99999999999994</ele><time>2026-04-11T10:43:11.702Z</time></trkpt><trkpt lat="43.4355867" lon="11.546905"><ele>443.0</ele><time>2026-04-11T10:43:12.702Z</time></trkpt><trkpt lat="43.4356667" lon="11.5469583"><ele>443.49999999999994</ele><time>2026-04-11T10:43:13.701Z</time></trkpt><trkpt lat="43.4357533" lon="11.5470133"><ele>444.0</ele><time>2026-04-11T10:43:14.703Z</time></trkpt><trkpt lat="43.43584" lon="11.5470617"><ele>444.5</ele><time>2026-04-11T10:43:15.701Z</time></trkpt><trkpt lat="43.435915" lon="11.5471217"><ele>445.0</ele><time>2026-04-11T10:43:16.7Z</time></trkpt><trkpt lat="43.4359833" lon="11.5471683"><ele>445.49999999999994</ele><time>2026-04-11T10:43:17.703Z</time></trkpt><trkpt lat="43.4360433" lon="11.5472017"><ele>446.0</ele><time>2026-04-11T10:43:18.702Z</time></trkpt><trkpt lat="43.4361433" lon="11.547225"><ele>447.16666666666663</ele><time>2026-04-11T10:43:20.702Z</time></trkpt><trkpt lat="43.4362483" lon="11.54724"><ele>448.3333333333333</ele><time>2026-04-11T10:43:22.701Z</time></trkpt><trkpt lat="43.4363483" lon="11.5473083"><ele>449.5</ele><time>2026-04-11T10:43:24.702Z</time></trkpt><trkpt lat="43.436405" lon="11.5473567"><ele>450.66666666666663</ele><time>2026-04-11T10:43:25.701Z</time></trkpt><trkpt lat="43.4364717" lon="11.5474"><ele>451.8333333333333</ele><time>2026-04-11T10:43:26.703Z</time></trkpt><trkpt lat="43.4365383" lon="11.547455"><ele>453.0</ele><time>2026-04-11T10:43:27.702Z</time></trkpt><trkpt lat="43.4366" lon="11.5475183"><ele>454.0</ele><time>2026-04-11T10:43:28.7Z</time></trkpt><trkpt lat="43.4366517" lon="11.5475867"><ele>455.0</ele><time>2026-04-11T10:43:29.701Z</time></trkpt><trkpt lat="43.4367017" lon="11.5476617"><ele>456.0</ele><time>2026-04-11T10:43:30.702Z</time></trkpt><trkpt lat="43.4367533" lon="11.5477367"><ele>457.0</ele><time>2026-04-11T10:43:31.702Z</time></trkpt><trkpt lat="43.4368017" lon="11.5478"><ele>458.0</ele><time>2026-04-11T10:43:32.702Z</time></trkpt><trkpt lat="43.4369133" lon="11.5478567"><ele>459.0</ele><time>2026-04-11T10:43:34.702Z</time></trkpt><trkpt lat="43.4369783" lon="11.5478533"><ele>459.0</ele><time>2026-04-11T10:43:35.701Z</time></trkpt><trkpt lat="43.4370483" lon="11.5478317"><ele>459.0</ele><time>2026-04-11T10:43:36.703Z</time></trkpt><trkpt lat="43.437115" lon="11.5478117"><ele>459.0</ele><time>2026-04-11T10:43:37.701Z</time></trkpt><trkpt lat="43.4371783" lon="11.5478017"><ele>459.0</ele><time>2026-04-11T10:43:38.703Z</time></trkpt><trkpt lat="43.4372483" lon="11.5477883"><ele>459.0</ele><time>2026-04-11T10:43:39.701Z</time></trkpt><trkpt lat="43.4373217" lon="11.54778"><ele>459.0</ele><time>2026-04-11T10:43:40.702Z</time></trkpt><trkpt lat="43.4373917" lon="11.5477617"><ele>459.0</ele><time>2026-04-11T10:43:41.702Z</time></trkpt><trkpt lat="43.4374533" lon="11.5477433"><ele>462.4</ele><time>2026-04-11T10:43:42.702Z</time></trkpt><trkpt lat="43.4375583" lon="11.5477017"><ele>465.79999999999995</ele><time>2026-04-11T10:43:44.704Z</time></trkpt><trkpt lat="43.4376583" lon="11.5476583"><ele>469.20000000000005</ele><time>2026-04-11T10:43:46.699Z</time></trkpt><trkpt lat="43.4377467" lon="11.5476317"><ele>472.6</ele><time>2026-04-11T10:43:48.702Z</time></trkpt><trkpt lat="43.4378433" lon="11.54762"><ele>476.0</ele><time>2026-04-11T10:43:50.702Z</time></trkpt><trkpt lat="43.4379533" lon="11.5475983"><ele>478.20000000000005</ele><time>2026-04-11T10:43:52.702Z</time></trkpt><trkpt lat="43.4380583" lon="11.5475817"><ele>480.40000000000003</ele><time>2026-04-11T10:43:54.702Z</time></trkpt><trkpt lat="43.4381667" lon="11.54756"><ele>482.6</ele><time>2026-04-11T10:43:56.703Z</time></trkpt><trkpt lat="43.4382817" lon="11.5475333"><ele>484.8</ele><time>2026-04-11T10:43:58.701Z</time></trkpt><trkpt lat="43.4383767" lon="11.5474983"><ele>487.0</ele><time>2026-04-11T10:44:00.7Z</time></trkpt><trkpt lat="43.4384717" lon="11.5475133"><ele>487.0</ele><time>2026-04-11T10:44:02.702Z</time></trkpt><trkpt lat="43.43856" lon="11.5475017"><ele>487.00000000000006</ele><time>2026-04-11T10:44:04.7Z</time></trkpt><trkpt lat="43.4386533" lon="11.5474733"><ele>487.00000000000006</ele><time>2026-04-11T10:44:06.702Z</time></trkpt><trkpt lat="43.438755" lon="11.5474633"><ele>487.0</ele><time>2026-04-11T10:44:08.702Z</time></trkpt><trkpt lat="43.4388533" lon="11.5474667"><ele>487.0</ele><time>2026-04-11T10:44:10.701Z</time></trkpt><trkpt lat="43.4389567" lon="11.547485"><ele>489.6</ele><time>2026-04-11T10:44:12.702Z</time></trkpt><trkpt lat="43.4390617" lon="11.5474567"><ele>492.20000000000005</ele><time>2026-04-11T10:44:14.702Z</time></trkpt><trkpt lat="43.4391417" lon="11.5473833"><ele>494.8</ele><time>2026-04-11T10:44:16.702Z</time></trkpt><trkpt lat="43.4392267" lon="11.5473083"><ele>497.4</ele><time>2026-04-11T10:44:18.704Z</time></trkpt><trkpt lat="43.43929" lon="11.5472533"><ele>500.0</ele><time>2026-04-11T10:44:20.702Z</time></trkpt><trkpt lat="43.4392183" lon="11.547185"><ele>500.0</ele><time>2026-04-11T10:44:50.702Z</time></trkpt><trkpt lat="43.4391467" lon="11.547165"><ele>500.0</ele><time>2026-04-11T10:44:53.702Z</time></trkpt><trkpt lat="43.4390617" lon="11.5471083"><ele>500.0</ele><time>2026-04-11T10:45:10.701Z</time></trkpt><trkpt lat="43.4389817" lon="11.5470767"><ele>500.0</ele><time>2026-04-11T10:45:12.703Z</time></trkpt><trkpt lat="43.43889" lon="11.547015"><ele>500.0</ele><time>2026-04-11T10:45:14.702Z</time></trkpt><trkpt lat="43.4388117" lon="11.54691"><ele>501.66666666666663</ele><time>2026-04-11T10:45:16.702Z</time></trkpt><trkpt lat="43.438765" lon="11.5468517"><ele>503.3333333333333</ele><time>2026-04-11T10:45:17.702Z</time></trkpt><trkpt lat="43.4386867" lon="11.54675"><ele>505.0</ele><time>2026-04-11T10:45:19.702Z</time></trkpt><trkpt lat="43.4386017" lon="11.5466467"><ele>506.66666666666663</ele><time>2026-04-11T10:45:21.702Z</time></trkpt><trkpt lat="43.4385467" lon="11.5465933"><ele>508.3333333333333</ele><time>2026-04-11T10:45:22.701Z</time></trkpt><trkpt lat="43.4384817" lon="11.546555"><ele>510.0</ele><time>2026-04-11T10:45:23.701Z</time></trkpt><trkpt lat="43.4383533" lon="11.54653"><ele>510.0</ele><time>2026-04-11T10:45:25.701Z</time></trkpt><trkpt lat="43.438285" lon="11.5465217"><ele>510.0</ele><time>2026-04-11T10:45:26.702Z</time></trkpt><trkpt lat="43.438215" lon="11.546515"><ele>510.0</ele><time>2026-04-11T10:45:27.701Z</time></trkpt><trkpt lat="43.4381" lon="11.5464667"><ele>510.0</ele><time>2026-04-11T10:45:29.701Z</time></trkpt><trkpt lat="43.4380417" lon="11.5463283"><ele>510.0</ele><time>2026-04-11T10:45:31.701Z</time></trkpt><trkpt lat="43.438045" lon="11.546175"><ele>508.5</ele><time>2026-04-11T10:45:33.701Z</time></trkpt><trkpt lat="43.4380517" lon="11.5460867"><ele>507.0</ele><time>2026-04-11T10:45:34.701Z</time></trkpt><trkpt lat="43.4380417" lon="11.5459933"><ele>505.5</ele><time>2026-04-11T10:45:35.701Z</time></trkpt><trkpt lat="43.438025" lon="11.5458883"><ele>504.0</ele><time>2026-04-11T10:45:36.703Z</time></trkpt><trkpt lat="43.4379933" lon="11.5457617"><ele>502.5</ele><time>2026-04-11T10:45:37.702Z</time></trkpt><trkpt lat="43.4379583" lon="11.5456283"><ele>501.0</ele><time>2026-04-11T10:45:38.702Z</time></trkpt><trkpt lat="43.4379183" lon="11.5455067"><ele>501.0</ele><time>2026-04-11T10:45:39.702Z</time></trkpt><trkpt lat="43.4378833" lon="11.5454017"><ele>501.0</ele><time>2026-04-11T10:45:40.701Z</time></trkpt><trkpt lat="43.4378467" lon="11.54532"><ele>501.0</ele><time>2026-04-11T10:45:41.701Z</time></trkpt><trkpt lat="43.4378383" lon="11.5452317"><ele>501.0</ele><time>2026-04-11T10:45:44.702Z</time></trkpt><trkpt lat="43.4379333" lon="11.5451933"><ele>501.0</ele><time>2026-04-11T10:45:46.701Z</time></trkpt><trkpt lat="43.4380333" lon="11.54521"><ele>501.0</ele><time>2026-04-11T10:45:48.701Z</time></trkpt><trkpt lat="43.438075" lon="11.5452917"><ele>505.3333333333333</ele><time>2026-04-11T10:45:49.701Z</time></trkpt><trkpt lat="43.4381217" lon="11.5453833"><ele>509.66666666666663</ele><time>2026-04-11T10:45:50.701Z</time></trkpt><trkpt lat="43.4381817" lon="11.5454583"><ele>514.0</ele><time>2026-04-11T10:45:51.702Z</time></trkpt><trkpt lat="43.4382583" lon="11.5455133"><ele>518.3333333333333</ele><time>2026-04-11T10:45:52.701Z</time></trkpt><trkpt lat="43.4383483" lon="11.5455617"><ele>522.6666666666666</ele><time>2026-04-11T10:45:53.701Z</time></trkpt><trkpt lat="43.43845" lon="11.54559"><ele>527.0</ele><time>2026-04-11T10:45:54.703Z</time></trkpt><trkpt lat="43.438555" lon="11.5455967"><ele>527.0</ele><time>2026-04-11T10:45:55.701Z</time></trkpt><trkpt lat="43.4386433" lon="11.5455983"><ele>527.0</ele><time>2026-04-11T10:45:56.702Z</time></trkpt><trkpt lat="43.4387183" lon="11.545585"><ele>527.0</ele><time>2026-04-11T10:45:57.701Z</time></trkpt><trkpt lat="43.4387817" lon="11.5455617"><ele>527.0</ele><time>2026-04-11T10:45:58.701Z</time></trkpt><trkpt lat="43.4388633" lon="11.5454317"><ele>527.0</ele><time>2026-04-11T10:46:00.702Z</time></trkpt><trkpt lat="43.4389367" lon="11.5453733"><ele>527.0</ele><time>2026-04-11T10:46:02.701Z</time></trkpt><trkpt lat="43.4390067" lon="11.5454533"><ele>529.7142857142858</ele><time>2026-04-11T10:46:04.701Z</time></trkpt><trkpt lat="43.4390717" lon="11.5455"><ele>532.4285714285714</ele><time>2026-04-11T10:46:06.701Z</time></trkpt><trkpt lat="43.4391233" lon="11.5454367"><ele>535.1428571428571</ele><time>2026-04-11T10:46:08.702Z</time></trkpt><trkpt lat="43.43918" lon="11.5453683"><ele>537.8571428571429</ele><time>2026-04-11T10:46:10.702Z</time></trkpt><trkpt lat="43.439255" lon="11.5454133"><ele>540.5714285714286</ele><time>2026-04-11T10:46:12.701Z</time></trkpt><trkpt lat="43.4393083" lon="11.54547"><ele>543.2857142857143</ele><time>2026-04-11T10:46:13.701Z</time></trkpt><trkpt lat="43.4393717" lon="11.5455217"><ele>546.0</ele><time>2026-04-11T10:46:14.701Z</time></trkpt><trkpt lat="43.43945" lon="11.5455617"><ele>546.0</ele><time>2026-04-11T10:46:15.701Z</time></trkpt><trkpt lat="43.439535" lon="11.5455933"><ele>546.0</ele><time>2026-04-11T10:46:16.702Z</time></trkpt><trkpt lat="43.43962" lon="11.5456217"><ele>546.0</ele><time>2026-04-11T10:46:17.702Z</time></trkpt><trkpt lat="43.439715" lon="11.5456467"><ele>546.0</ele><time>2026-04-11T10:46:18.702Z</time></trkpt><trkpt lat="43.4398267" lon="11.545665"><ele>546.0</ele><time>2026-04-11T10:46:19.701Z</time></trkpt><trkpt lat="43.439935" lon="11.54568"><ele>549.0</ele><time>2026-04-11T10:46:20.698Z</time></trkpt><trkpt lat="43.4400383" lon="11.5457"><ele>552.0</ele><time>2026-04-11T10:46:21.701Z</time></trkpt><trkpt lat="43.4401333" lon="11.5457183"><ele>555.0</ele><time>2026-04-11T10:46:22.702Z</time></trkpt><trkpt lat="43.4402167" lon="11.5457367"><ele>558.0</ele><time>2026-04-11T10:46:23.701Z</time></trkpt><trkpt lat="43.4402917" lon="11.545745"><ele>561.0</ele><time>2026-04-11T10:46:24.702Z</time></trkpt><trkpt lat="43.440375" lon="11.54573"><ele>564.0</ele><time>2026-04-11T10:46:25.701Z</time></trkpt><trkpt lat="43.4404617" lon="11.5457033"><ele>566.6666666666666</ele><time>2026-04-11T10:46:26.705Z</time></trkpt><trkpt lat="43.44053" lon="11.545685"><ele>569.3333333333334</ele><time>2026-04-11T10:46:27.702Z</time></trkpt><trkpt lat="43.44062" lon="11.5457117"><ele>572.0</ele><time>2026-04-11T10:46:29.701Z</time></trkpt><trkpt lat="43.4407067" lon="11.5458383"><ele>574.6666666666667</ele><time>2026-04-11T10:46:31.701Z</time></trkpt><trkpt lat="43.44076" lon="11.545905"><ele>577.3333333333334</ele><time>2026-04-11T10:46:32.701Z</time></trkpt><trkpt lat="43.4408283" lon="11.5459617"><ele>580.0</ele><time>2026-04-11T10:46:33.701Z</time></trkpt><trkpt lat="43.4409017" lon="11.54602"><ele>580.0</ele><time>2026-04-11T10:46:34.701Z</time></trkpt><trkpt lat="43.4409883" lon="11.5460767"><ele>580.0</ele><time>2026-04-11T10:46:35.701Z</time></trkpt><trkpt lat="43.4410733" lon="11.54614"><ele>580.0</ele><time>2026-04-11T10:46:36.703Z</time></trkpt><trkpt lat="43.441145" lon="11.546225"><ele>580.0</ele><time>2026-04-11T10:46:37.7Z</time></trkpt><trkpt lat="43.4412117" lon="11.5463133"><ele>580.0</ele><time>2026-04-11T10:46:38.703Z</time></trkpt><trkpt lat="43.4412767" lon="11.54639"><ele>582.8</ele><time>2026-04-11T10:46:39.702Z</time></trkpt><trkpt lat="43.441345" lon="11.546465"><ele>585.6</ele><time>2026-04-11T10:46:40.7Z</time></trkpt><trkpt lat="43.4414283" lon="11.546535"><ele>588.4</ele><time>2026-04-11T10:46:41.701Z</time></trkpt><trkpt lat="43.441525" lon="11.546605"><ele>591.2</ele><time>2026-04-11T10:46:42.702Z</time></trkpt><trkpt lat="43.441615" lon="11.5466817"><ele>594.0</ele><time>2026-04-11T10:46:43.701Z</time></trkpt><trkpt lat="43.441695" lon="11.5467667"><ele>594.0</ele><time>2026-04-11T10:46:44.702Z</time></trkpt><trkpt lat="43.4417583" lon="11.5468667"><ele>594.0</ele><time>2026-04-11T10:46:45.701Z</time></trkpt><trkpt lat="43.4418133" lon="11.5469683"><ele>594.0</ele><time>2026-04-11T10:46:46.701Z</time></trkpt><trkpt lat="43.4418617" lon="11.5470867"><ele>594.0</ele><time>2026-04-11T10:46:47.702Z</time></trkpt><trkpt lat="43.4419083" lon="11.5472133"><ele>594.0</ele><time>2026-04-11T10:46:48.701Z</time></trkpt><trkpt lat="43.4419533" lon="11.54734"><ele>593.6666666666666</ele><time>2026-04-11T10:46:49.701Z</time></trkpt><trkpt lat="43.4419933" lon="11.5474517"><ele>593.3333333333334</ele><time>2026-04-11T10:46:50.703Z</time></trkpt><trkpt lat="43.442035" lon="11.5475467"><ele>593.0</ele><time>2026-04-11T10:46:51.703Z</time></trkpt><trkpt lat="43.442085" lon="11.547635"><ele>592.6666666666667</ele><time>2026-04-11T10:46:52.701Z</time></trkpt><trkpt lat="43.4421383" lon="11.5477117"><ele>592.3333333333334</ele><time>2026-04-11T10:46:53.702Z</time></trkpt><trkpt lat="43.4421833" lon="11.5477783"><ele>592.0</ele><time>2026-04-11T10:46:54.7Z</time></trkpt><trkpt lat="43.4422383" lon="11.54783"><ele>592.0</ele><time>2026-04-11T10:46:56.702Z</time></trkpt><trkpt lat="43.4422517" lon="11.5477283"><ele>592.0</ele><time>2026-04-11T10:47:00.703Z</time></trkpt><trkpt lat="43.4422217" lon="11.5476267"><ele>592.0</ele><time>2026-04-11T10:47:03.702Z</time></trkpt><trkpt lat="43.4421817" lon="11.54751"><ele>592.0</ele><time>2026-04-11T10:47:05.702Z</time></trkpt><trkpt lat="43.4421433" lon="11.54733"><ele>592.0</ele><time>2026-04-11T10:47:07.702Z</time></trkpt><trkpt lat="43.44214" lon="11.5472317"><ele>592.0</ele><time>2026-04-11T10:47:08.703Z</time></trkpt><trkpt lat="43.44216" lon="11.5470783"><ele>592.0</ele><time>2026-04-11T10:47:10.702Z</time></trkpt><trkpt lat="43.4421967" lon="11.54691"><ele>592.0</ele><time>2026-04-11T10:47:12.703Z</time></trkpt><trkpt lat="43.4422233" lon="11.5468183"><ele>592.0</ele><time>2026-04-11T10:47:13.702Z</time></trkpt><trkpt lat="43.44226" lon="11.546735"><ele>592.0</ele><time>2026-04-11T10:47:14.702Z</time></trkpt><trkpt lat="43.4423033" lon="11.54664"><ele>593.5</ele><time>2026-04-11T10:47:15.703Z</time></trkpt><trkpt lat="43.4423483" lon="11.5465517"><ele>595.0</ele><time>2026-04-11T10:47:16.702Z</time></trkpt><trkpt lat="43.4424033" lon="11.54648"><ele>596.5</ele><time>2026-04-11T10:47:17.701Z</time></trkpt><trkpt lat="43.4424617" lon="11.5464217"><ele>598.0</ele><time>2026-04-11T10:47:18.703Z</time></trkpt><trkpt lat="43.4425183" lon="11.5463783"><ele>599.5</ele><time>2026-04-11T10:47:19.703Z</time></trkpt><trkpt lat="43.442635" lon="11.5463017"><ele>601.0</ele><time>2026-04-11T10:47:21.702Z</time></trkpt><trkpt lat="43.4427067" lon="11.5462583"><ele>602.6666666666667</ele><time>2026-04-11T10:47:22.702Z</time></trkpt><trkpt lat="43.44278" lon="11.5462017"><ele>604.3333333333334</ele><time>2026-04-11T10:47:23.696Z</time></trkpt><trkpt lat="43.4428517" lon="11.546125"><ele>606.0</ele><time>2026-04-11T10:47:24.703Z</time></trkpt><trkpt lat="43.4428933" lon="11.54603"><ele>607.6666666666666</ele><time>2026-04-11T10:47:25.702Z</time></trkpt><trkpt lat="43.442925" lon="11.5459333"><ele>609.3333333333333</ele><time>2026-04-11T10:47:26.702Z</time></trkpt><trkpt lat="43.4429317" lon="11.5458283"><ele>611.0</ele><time>2026-04-11T10:47:27.701Z</time></trkpt><trkpt lat="43.4429267" lon="11.5457083"><ele>611.0</ele><time>2026-04-11T10:47:28.7Z</time></trkpt><trkpt lat="43.4429083" lon="11.545595"><ele>611.0</ele><time>2026-04-11T10:47:29.7Z</time></trkpt><trkpt lat="43.4428717" lon="11.5454867"><ele>611.0</ele><time>2026-04-11T10:47:30.703Z</time></trkpt><trkpt lat="43.4428333" lon="11.5453733"><ele>611.0</ele><time>2026-04-11T10:47:31.701Z</time></trkpt><trkpt lat="43.4427933" lon="11.545255"><ele>611.0</ele><time>2026-04-11T10:47:32.702Z</time></trkpt><trkpt lat="43.442755" lon="11.5451317"><ele>609.0</ele><time>2026-04-11T10:47:33.702Z</time></trkpt><trkpt lat="43.4427183" lon="11.54501"><ele>607.0</ele><time>2026-04-11T10:47:34.701Z</time></trkpt><trkpt lat="43.4426667" lon="11.5448883"><ele>605.0</ele><time>2026-04-11T10:47:35.701Z</time></trkpt><trkpt lat="43.4426083" lon="11.5447733"><ele>603.0</ele><time>2026-04-11T10:47:36.702Z</time></trkpt><trkpt lat="43.4425583" lon="11.54467"><ele>601.0</ele><time>2026-04-11T10:47:37.702Z</time></trkpt><trkpt lat="43.44251" lon="11.5445783"><ele>599.1666666666667</ele><time>2026-04-11T10:47:38.703Z</time></trkpt><trkpt lat="43.44246" lon="11.5444933"><ele>597.3333333333334</ele><time>2026-04-11T10:47:39.702Z</time></trkpt><trkpt lat="43.4424117" lon="11.5444117"><ele>595.5</ele><time>2026-04-11T10:47:40.7Z</time></trkpt><trkpt lat="43.4423683" lon="11.544325"><ele>593.6666666666666</ele><time>2026-04-11T10:47:41.703Z</time></trkpt><trkpt lat="43.4423367" lon="11.54423"><ele>591.8333333333333</ele><time>2026-04-11T10:47:42.701Z</time></trkpt><trkpt lat="43.4423083" lon="11.5441167"><ele>590.0</ele><time>2026-04-11T10:47:43.701Z</time></trkpt><trkpt lat="43.44229" lon="11.5440017"><ele>590.0</ele><time>2026-04-11T10:47:44.702Z</time></trkpt><trkpt lat="43.4422683" lon="11.543885"><ele>590.0</ele><time>2026-04-11T10:47:45.702Z</time></trkpt><trkpt lat="43.4422433" lon="11.5437733"><ele>590.0</ele><time>2026-04-11T10:47:46.71Z</time></trkpt><trkpt lat="43.4422233" lon="11.543655"><ele>590.0</ele><time>2026-04-11T10:47:47.701Z</time></trkpt><trkpt lat="43.4422217" lon="11.54353"><ele>590.0</ele><time>2026-04-11T10:47:48.702Z</time></trkpt><trkpt lat="43.4422333" lon="11.5433933"><ele>589.3333333333333</ele><time>2026-04-11T10:47:49.702Z</time></trkpt><trkpt lat="43.4422517" lon="11.543255"><ele>588.6666666666666</ele><time>2026-04-11T10:47:50.703Z</time></trkpt><trkpt lat="43.44228" lon="11.5431217"><ele>588.0</ele><time>2026-04-11T10:47:51.703Z</time></trkpt><trkpt lat="43.4423083" lon="11.5430083"><ele>587.3333333333334</ele><time>2026-04-11T10:47:52.701Z</time></trkpt><trkpt lat="43.4423167" lon="11.5429"><ele>586.6666666666667</ele><time>2026-04-11T10:47:53.703Z</time></trkpt><trkpt lat="43.44231" lon="11.54279"><ele>586.0</ele><time>2026-04-11T10:47:54.702Z</time></trkpt><trkpt lat="43.44228" lon="11.5426867"><ele>585.6</ele><time>2026-04-11T10:47:55.701Z</time></trkpt><trkpt lat="43.4422217" lon="11.5425717"><ele>585.2</ele><time>2026-04-11T10:47:56.702Z</time></trkpt><trkpt lat="43.4421633" lon="11.54245"><ele>584.8</ele><time>2026-04-11T10:47:57.702Z</time></trkpt><trkpt lat="43.4421267" lon="11.542335"><ele>584.4</ele><time>2026-04-11T10:47:58.702Z</time></trkpt><trkpt lat="43.442105" lon="11.5422267"><ele>584.0</ele><time>2026-04-11T10:47:59.702Z</time></trkpt><trkpt lat="43.4420933" lon="11.5421317"><ele>583.8</ele><time>2026-04-11T10:48:00.704Z</time></trkpt><trkpt lat="43.4421033" lon="11.54202"><ele>583.5999999999999</ele><time>2026-04-11T10:48:02.703Z</time></trkpt><trkpt lat="43.4421183" lon="11.54191"><ele>583.4</ele><time>2026-04-11T10:48:04.701Z</time></trkpt><trkpt lat="43.4421267" lon="11.5417633"><ele>583.1999999999999</ele><time>2026-04-11T10:48:06.703Z</time></trkpt><trkpt lat="43.442135" lon="11.54162"><ele>583.0</ele><time>2026-04-11T10:48:08.703Z</time></trkpt><trkpt lat="43.4421217" lon="11.5414833"><ele>585.8</ele><time>2026-04-11T10:48:10.701Z</time></trkpt><trkpt lat="43.4421117" lon="11.541335"><ele>588.5999999999999</ele><time>2026-04-11T10:48:12.703Z</time></trkpt><trkpt lat="43.4420817" lon="11.5411633"><ele>591.4000000000001</ele><time>2026-04-11T10:48:14.702Z</time></trkpt><trkpt lat="43.4420633" lon="11.5410533"><ele>594.2</ele><time>2026-04-11T10:48:15.702Z</time></trkpt><trkpt lat="43.4420483" lon="11.54093"><ele>597.0</ele><time>2026-04-11T10:48:16.702Z</time></trkpt><trkpt lat="43.4420417" lon="11.5408"><ele>599.6666666666666</ele><time>2026-04-11T10:48:17.704Z</time></trkpt><trkpt lat="43.4420367" lon="11.5406633"><ele>602.3333333333334</ele><time>2026-04-11T10:48:18.702Z</time></trkpt><trkpt lat="43.44204" lon="11.5405383"><ele>605.0</ele><time>2026-04-11T10:48:19.702Z</time></trkpt><trkpt lat="43.4420367" lon="11.5404183"><ele>607.6666666666667</ele><time>2026-04-11T10:48:20.703Z</time></trkpt><trkpt lat="43.442035" lon="11.5403067"><ele>610.3333333333334</ele><time>2026-04-11T10:48:21.7Z</time></trkpt><trkpt lat="43.4420267" lon="11.5402"><ele>613.0</ele><time>2026-04-11T10:48:22.701Z</time></trkpt><trkpt lat="43.442015" lon="11.540095"><ele>613.1666666666667</ele><time>2026-04-11T10:48:23.701Z</time></trkpt><trkpt lat="43.441995" lon="11.539985"><ele>613.3333333333334</ele><time>2026-04-11T10:48:24.701Z</time></trkpt><trkpt lat="43.4419683" lon="11.539875"><ele>613.5</ele><time>2026-04-11T10:48:25.703Z</time></trkpt><trkpt lat="43.4419517" lon="11.53976"><ele>613.6666666666666</ele><time>2026-04-11T10:48:26.703Z</time></trkpt><trkpt lat="43.4419517" lon="11.5396267"><ele>613.8333333333333</ele><time>2026-04-11T10:48:27.703Z</time></trkpt><trkpt lat="43.4419583" lon="11.5394933"><ele>614.0</ele><time>2026-04-11T10:48:28.702Z</time></trkpt><trkpt lat="43.44196" lon="11.53937"><ele>613.5</ele><time>2026-04-11T10:48:29.703Z</time></trkpt><trkpt lat="43.441975" lon="11.53925"><ele>613.0</ele><time>2026-04-11T10:48:30.703Z</time></trkpt><trkpt lat="43.44198" lon="11.53914"><ele>612.5</ele><time>2026-04-11T10:48:31.703Z</time></trkpt><trkpt lat="43.4419867" lon="11.5390383"><ele>612.0</ele><time>2026-04-11T10:48:32.704Z</time></trkpt><trkpt lat="43.4419717" lon="11.5389433"><ele>611.5</ele><time>2026-04-11T10:48:33.703Z</time></trkpt><trkpt lat="43.4419283" lon="11.53887"><ele>611.0</ele><time>2026-04-11T10:48:34.7Z</time></trkpt><trkpt lat="43.4418517" lon="11.5388133"><ele>611.0</ele><time>2026-04-11T10:48:36.702Z</time></trkpt><trkpt lat="43.4418233" lon="11.5387333"><ele>611.0</ele><time>2026-04-11T10:48:38.703Z</time></trkpt><trkpt lat="43.4418583" lon="11.53865"><ele>611.0</ele><time>2026-04-11T10:48:40.701Z</time></trkpt><trkpt lat="43.441885" lon="11.5385383"><ele>611.0</ele><time>2026-04-11T10:48:42.702Z</time></trkpt><trkpt lat="43.4418633" lon="11.5384083"><ele>611.0</ele><time>2026-04-11T10:48:44.703Z</time></trkpt><trkpt lat="43.4418417" lon="11.5383083"><ele>611.0</ele><time>2026-04-11T10:48:46.701Z</time></trkpt><trkpt lat="43.4418783" lon="11.538195"><ele>611.0</ele><time>2026-04-11T10:48:48.703Z</time></trkpt><trkpt lat="43.4419167" lon="11.53812"><ele>611.0</ele><time>2026-04-11T10:48:49.706Z</time></trkpt><trkpt lat="43.44194" lon="11.5380333"><ele>611.0</ele><time>2026-04-11T10:48:50.704Z</time></trkpt><trkpt lat="43.4419617" lon="11.537935"><ele>611.0</ele><time>2026-04-11T10:48:51.702Z</time></trkpt><trkpt lat="43.44198" lon="11.53783"><ele>611.0</ele><time>2026-04-11T10:48:52.701Z</time></trkpt><trkpt lat="43.442" lon="11.5376967"><ele>611.0</ele><time>2026-04-11T10:48:53.702Z</time></trkpt><trkpt lat="43.44202" lon="11.537555"><ele>611.5</ele><time>2026-04-11T10:48:54.702Z</time></trkpt><trkpt lat="43.44203" lon="11.5374267"><ele>612.0</ele><time>2026-04-11T10:48:55.702Z</time></trkpt><trkpt lat="43.4420383" lon="11.53733"><ele>612.5</ele><time>2026-04-11T10:48:56.702Z</time></trkpt><trkpt lat="43.4420533" lon="11.537235"><ele>613.0</ele><time>2026-04-11T10:48:57.701Z</time></trkpt><trkpt lat="43.4420717" lon="11.5371267"><ele>613.5</ele><time>2026-04-11T10:48:58.701Z</time></trkpt><trkpt lat="43.4420933" lon="11.537005"><ele>614.0</ele><time>2026-04-11T10:48:59.701Z</time></trkpt><trkpt lat="43.4421067" lon="11.53687"><ele>614.6</ele><time>2026-04-11T10:49:00.702Z</time></trkpt><trkpt lat="43.4421067" lon="11.5367317"><ele>615.2</ele><time>2026-04-11T10:49:01.702Z</time></trkpt><trkpt lat="43.4421017" lon="11.53659"><ele>615.8000000000001</ele><time>2026-04-11T10:49:02.703Z</time></trkpt><trkpt lat="43.4421" lon="11.5364567"><ele>616.4</ele><time>2026-04-11T10:49:03.702Z</time></trkpt><trkpt lat="43.4421" lon="11.5363267"><ele>617.0</ele><time>2026-04-11T10:49:04.702Z</time></trkpt><trkpt lat="43.4421083" lon="11.5362083"><ele>618.0</ele><time>2026-04-11T10:49:05.702Z</time></trkpt><trkpt lat="43.44211" lon="11.5361"><ele>619.0</ele><time>2026-04-11T10:49:06.703Z</time></trkpt><trkpt lat="43.44211" lon="11.5359983"><ele>620.0</ele><time>2026-04-11T10:49:07.703Z</time></trkpt><trkpt lat="43.4421167" lon="11.5358383"><ele>621.0</ele><time>2026-04-11T10:49:09.703Z</time></trkpt><trkpt lat="43.44218" lon="11.5357433"><ele>622.0</ele><time>2026-04-11T10:49:11.702Z</time></trkpt><trkpt lat="43.44225" lon="11.5356283"><ele>623.5</ele><time>2026-04-11T10:49:13.703Z</time></trkpt><trkpt lat="43.4422817" lon="11.5354767"><ele>625.0</ele><time>2026-04-11T10:49:15.702Z</time></trkpt><trkpt lat="43.4422833" lon="11.53537"><ele>626.5</ele><time>2026-04-11T10:49:16.701Z</time></trkpt><trkpt lat="43.4422817" lon="11.5352583"><ele>628.0</ele><time>2026-04-11T10:49:17.702Z</time></trkpt><trkpt lat="43.4422683" lon="11.5351517"><ele>629.5</ele><time>2026-04-11T10:49:18.702Z</time></trkpt><trkpt lat="43.4422567" lon="11.5350533"><ele>631.0</ele><time>2026-04-11T10:49:19.701Z</time></trkpt><trkpt lat="43.4422417" lon="11.5349633"><ele>631.5</ele><time>2026-04-11T10:49:20.702Z</time></trkpt><trkpt lat="43.4422233" lon="11.534875"><ele>632.0</ele><time>2026-04-11T10:49:21.701Z</time></trkpt><trkpt lat="43.442195" lon="11.534795"><ele>632.5</ele><time>2026-04-11T10:49:22.704Z</time></trkpt><trkpt lat="43.4421117" lon="11.534695"><ele>633.0</ele><time>2026-04-11T10:49:24.703Z</time></trkpt><trkpt lat="43.4419867" lon="11.5346583"><ele>633.5</ele><time>2026-04-11T10:49:26.703Z</time></trkpt><trkpt lat="43.4419233" lon="11.534665"><ele>634.0</ele><time>2026-04-11T10:49:27.702Z</time></trkpt><trkpt lat="43.4418167" lon="11.5346167"><ele>636.0</ele><time>2026-04-11T10:49:29.703Z</time></trkpt><trkpt lat="43.4417667" lon="11.53453"><ele>638.0</ele><time>2026-04-11T10:49:30.704Z</time></trkpt><trkpt lat="43.44171" lon="11.5344167"><ele>640.0</ele><time>2026-04-11T10:49:31.702Z</time></trkpt><trkpt lat="43.4416467" lon="11.5343067"><ele>642.0</ele><time>2026-04-11T10:49:32.704Z</time></trkpt><trkpt lat="43.44158" lon="11.5342133"><ele>644.0</ele><time>2026-04-11T10:49:33.702Z</time></trkpt><trkpt lat="43.44153" lon="11.53413"><ele>644.0</ele><time>2026-04-11T10:49:34.701Z</time></trkpt><trkpt lat="43.4415017" lon="11.5340483"><ele>644.0</ele><time>2026-04-11T10:49:35.703Z</time></trkpt><trkpt lat="43.4414933" lon="11.5338767"><ele>644.0</ele><time>2026-04-11T10:49:37.702Z</time></trkpt><trkpt lat="43.4414967" lon="11.5337817"><ele>644.0</ele><time>2026-04-11T10:49:38.704Z</time></trkpt><trkpt lat="43.4414983" lon="11.53369"><ele>644.0</ele><time>2026-04-11T10:49:39.703Z</time></trkpt><trkpt lat="43.441495" lon="11.5335967"><ele>644.0</ele><time>2026-04-11T10:49:40.702Z</time></trkpt><trkpt lat="43.4414917" lon="11.5335067"><ele>644.3333333333333</ele><time>2026-04-11T10:49:41.703Z</time></trkpt><trkpt lat="43.44148" lon="11.533415"><ele>644.6666666666666</ele><time>2026-04-11T10:49:42.702Z</time></trkpt><trkpt lat="43.4414567" lon="11.5333117"><ele>645.0</ele><time>2026-04-11T10:49:43.701Z</time></trkpt><trkpt lat="43.4414317" lon="11.533195"><ele>645.3333333333334</ele><time>2026-04-11T10:49:44.703Z</time></trkpt><trkpt lat="43.441405" lon="11.533075"><ele>645.6666666666667</ele><time>2026-04-11T10:49:45.702Z</time></trkpt><trkpt lat="43.4413783" lon="11.5329633"><ele>646.0</ele><time>2026-04-11T10:49:46.703Z</time></trkpt><trkpt lat="43.4413633" lon="11.5328567"><ele>646.6666666666667</ele><time>2026-04-11T10:49:47.701Z</time></trkpt><trkpt lat="43.4413483" lon="11.5327667"><ele>647.3333333333334</ele><time>2026-04-11T10:49:48.703Z</time></trkpt><trkpt lat="43.4413333" lon="11.5326083"><ele>648.0</ele><time>2026-04-11T10:49:50.703Z</time></trkpt><trkpt lat="43.4413367" lon="11.5325117"><ele>648.6666666666666</ele><time>2026-04-11T10:49:51.702Z</time></trkpt><trkpt lat="43.441345" lon="11.532405"><ele>649.3333333333333</ele><time>2026-04-11T10:49:52.701Z</time></trkpt><trkpt lat="43.441355" lon="11.5322867"><ele>650.0</ele><time>2026-04-11T10:49:53.702Z</time></trkpt><trkpt lat="43.441375" lon="11.5321633"><ele>651.0</ele><time>2026-04-11T10:49:54.703Z</time></trkpt><trkpt lat="43.4413967" lon="11.532035"><ele>652.0</ele><time>2026-04-11T10:49:55.703Z</time></trkpt><trkpt lat="43.4414133" lon="11.53192"><ele>653.0</ele><time>2026-04-11T10:49:56.703Z</time></trkpt><trkpt lat="43.4414183" lon="11.531815"><ele>654.0</ele><time>2026-04-11T10:49:57.702Z</time></trkpt><trkpt lat="43.44141" lon="11.5317067"><ele>655.0</ele><time>2026-04-11T10:49:58.702Z</time></trkpt><trkpt lat="43.441385" lon="11.5316067"><ele>656.0</ele><time>2026-04-11T10:49:59.702Z</time></trkpt><trkpt lat="43.441355" lon="11.5315083"><ele>656.0</ele><time>2026-04-11T10:50:00.701Z</time></trkpt><trkpt lat="43.4413267" lon="11.5314033"><ele>656.0</ele><time>2026-04-11T10:50:01.702Z</time></trkpt><trkpt lat="43.4413017" lon="11.5313067"><ele>656.0</ele><time>2026-04-11T10:50:02.703Z</time></trkpt><trkpt lat="43.44128" lon="11.531225"><ele>656.0</ele><time>2026-04-11T10:50:03.702Z</time></trkpt><trkpt lat="43.44126" lon="11.5311133"><ele>656.0</ele><time>2026-04-11T10:50:05.703Z</time></trkpt><trkpt lat="43.44127" lon="11.5310133"><ele>656.0</ele><time>2026-04-11T10:50:07.703Z</time></trkpt><trkpt lat="43.441275" lon="11.530835"><ele>655.3333333333333</ele><time>2026-04-11T10:50:09.702Z</time></trkpt><trkpt lat="43.4412833" lon="11.5307433"><ele>654.6666666666666</ele><time>2026-04-11T10:50:10.701Z</time></trkpt><trkpt lat="43.441295" lon="11.5305867"><ele>654.0</ele><time>2026-04-11T10:50:12.702Z</time></trkpt><trkpt lat="43.4413183" lon="11.5304567"><ele>653.3333333333334</ele><time>2026-04-11T10:50:14.701Z</time></trkpt><trkpt lat="43.4413483" lon="11.5303417"><ele>652.6666666666667</ele><time>2026-04-11T10:50:16.701Z</time></trkpt><trkpt lat="43.4413517" lon="11.5302333"><ele>652.0</ele><time>2026-04-11T10:50:18.701Z</time></trkpt><trkpt lat="43.441275" lon="11.53017"><ele>648.5</ele><time>2026-04-11T10:50:20.702Z</time></trkpt><trkpt lat="43.44121" lon="11.5301567"><ele>645.0</ele><time>2026-04-11T10:50:21.701Z</time></trkpt><trkpt lat="43.4410833" lon="11.5301317"><ele>641.5</ele><time>2026-04-11T10:50:23.702Z</time></trkpt><trkpt lat="43.44102" lon="11.5301233"><ele>638.0</ele><time>2026-04-11T10:50:24.703Z</time></trkpt><trkpt lat="43.440955" lon="11.530115"><ele>634.5</ele><time>2026-04-11T10:50:25.702Z</time></trkpt><trkpt lat="43.4408617" lon="11.5300667"><ele>631.0</ele><time>2026-04-11T10:50:27.703Z</time></trkpt><trkpt lat="43.440855" lon="11.5299683"><ele>631.0</ele><time>2026-04-11T10:50:29.701Z</time></trkpt><trkpt lat="43.4409383" lon="11.5298933"><ele>631.0</ele><time>2026-04-11T10:50:31.703Z</time></trkpt><trkpt lat="43.4409983" lon="11.529815"><ele>631.0</ele><time>2026-04-11T10:50:33.701Z</time></trkpt><trkpt lat="43.4409583" lon="11.529715"><ele>631.0</ele><time>2026-04-11T10:50:35.706Z</time></trkpt><trkpt lat="43.4408917" lon="11.5296517"><ele>631.0</ele><time>2026-04-11T10:50:37.701Z</time></trkpt><trkpt lat="43.44086" lon="11.52953"><ele>631.0</ele><time>2026-04-11T10:50:39.702Z</time></trkpt><trkpt lat="43.4408517" lon="11.5294033"><ele>629.5</ele><time>2026-04-11T10:50:41.703Z</time></trkpt><trkpt lat="43.4408417" lon="11.52929"><ele>628.0</ele><time>2026-04-11T10:50:43.701Z</time></trkpt><trkpt lat="43.4408267" lon="11.5291483"><ele>626.5</ele><time>2026-04-11T10:51:12.704Z</time></trkpt><trkpt lat="43.4408333" lon="11.529025"><ele>625.0</ele><time>2026-04-11T10:51:14.702Z</time></trkpt><trkpt lat="43.4408333" lon="11.5289183"><ele>623.5</ele><time>2026-04-11T10:51:15.702Z</time></trkpt><trkpt lat="43.4408433" lon="11.528805"><ele>622.0</ele><time>2026-04-11T10:51:16.701Z</time></trkpt><trkpt lat="43.4408583" lon="11.5286867"><ele>622.0</ele><time>2026-04-11T10:51:17.701Z</time></trkpt><trkpt lat="43.4408833" lon="11.52855"><ele>622.0</ele><time>2026-04-11T10:51:18.702Z</time></trkpt><trkpt lat="43.44093" lon="11.528405"><ele>622.0</ele><time>2026-04-11T10:51:19.702Z</time></trkpt><trkpt lat="43.440985" lon="11.5282617"><ele>622.0</ele><time>2026-04-11T10:51:20.703Z</time></trkpt><trkpt lat="43.441045" lon="11.5281267"><ele>622.0</ele><time>2026-04-11T10:51:21.702Z</time></trkpt><trkpt lat="43.4411033" lon="11.528005"><ele>622.0</ele><time>2026-04-11T10:51:22.701Z</time></trkpt><trkpt lat="43.4411683" lon="11.527885"><ele>622.0</ele><time>2026-04-11T10:51:23.703Z</time></trkpt><trkpt lat="43.44124" lon="11.52777"><ele>622.0</ele><time>2026-04-11T10:51:24.703Z</time></trkpt><trkpt lat="43.44132" lon="11.5276617"><ele>622.0</ele><time>2026-04-11T10:51:25.703Z</time></trkpt><trkpt lat="43.4414033" lon="11.5275767"><ele>619.5</ele><time>2026-04-11T10:51:26.702Z</time></trkpt><trkpt lat="43.4414983" lon="11.527505"><ele>617.0</ele><time>2026-04-11T10:51:27.702Z</time></trkpt><trkpt lat="43.4415983" lon="11.52744"><ele>614.5</ele><time>2026-04-11T10:51:28.702Z</time></trkpt><trkpt lat="43.441705" lon="11.52737"><ele>612.0</ele><time>2026-04-11T10:51:29.702Z</time></trkpt><trkpt lat="43.441815" lon="11.5272983"><ele>612.0</ele><time>2026-04-11T10:51:30.701Z</time></trkpt><trkpt lat="43.4419283" lon="11.527225"><ele>612.0</ele><time>2026-04-11T10:51:31.701Z</time></trkpt><trkpt lat="43.44203" lon="11.527165"><ele>612.0</ele><time>2026-04-11T10:51:32.702Z</time></trkpt><trkpt lat="43.4421283" lon="11.5271383"><ele>612.0</ele><time>2026-04-11T10:51:33.702Z</time></trkpt><trkpt lat="43.442235" lon="11.527135"><ele>612.0</ele><time>2026-04-11T10:51:34.701Z</time></trkpt><trkpt lat="43.4423483" lon="11.527145"><ele>611.4</ele><time>2026-04-11T10:51:35.702Z</time></trkpt><trkpt lat="43.442455" lon="11.52716"><ele>610.8000000000001</ele><time>2026-04-11T10:51:36.702Z</time></trkpt><trkpt lat="43.4425617" lon="11.527175"><ele>610.2</ele><time>2026-04-11T10:51:37.702Z</time></trkpt><trkpt lat="43.44267" lon="11.5271783"><ele>609.6</ele><time>2026-04-11T10:51:38.703Z</time></trkpt><trkpt lat="43.4427733" lon="11.5271717"><ele>609.0</ele><time>2026-04-11T10:51:39.701Z</time></trkpt><trkpt lat="43.4428683" lon="11.5271467"><ele>609.0</ele><time>2026-04-11T10:51:40.7Z</time></trkpt><trkpt lat="43.4429467" lon="11.5270917"><ele>609.0</ele><time>2026-04-11T10:51:41.697Z</time></trkpt><trkpt lat="43.4430183" lon="11.5270083"><ele>609.0</ele><time>2026-04-11T10:51:42.7Z</time></trkpt><trkpt lat="43.4430717" lon="11.526885"><ele>609.0</ele><time>2026-04-11T10:51:43.701Z</time></trkpt><trkpt lat="43.4431267" lon="11.5267567"><ele>609.0</ele><time>2026-04-11T10:51:44.702Z</time></trkpt><trkpt lat="43.4431683" lon="11.526625"><ele>610.75</ele><time>2026-04-11T10:51:45.7Z</time></trkpt><trkpt lat="43.443185" lon="11.5264817"><ele>612.5</ele><time>2026-04-11T10:51:46.701Z</time></trkpt><trkpt lat="43.44318" lon="11.5263267"><ele>614.25</ele><time>2026-04-11T10:51:47.702Z</time></trkpt><trkpt lat="43.44315" lon="11.5261683"><ele>616.0</ele><time>2026-04-11T10:51:48.703Z</time></trkpt><trkpt lat="43.44311" lon="11.5259967"><ele>616.0</ele><time>2026-04-11T10:51:49.701Z</time></trkpt><trkpt lat="43.44306" lon="11.5258133"><ele>616.0</ele><time>2026-04-11T10:51:50.703Z</time></trkpt><trkpt lat="43.44301" lon="11.5256333"><ele>616.0</ele><time>2026-04-11T10:51:51.697Z</time></trkpt><trkpt lat="43.44296" lon="11.5254633"><ele>616.0</ele><time>2026-04-11T10:51:52.702Z</time></trkpt><trkpt lat="43.4429017" lon="11.5252933"><ele>617.0</ele><time>2026-04-11T10:51:53.703Z</time></trkpt><trkpt lat="43.4428417" lon="11.5251267"><ele>618.0</ele><time>2026-04-11T10:51:54.698Z</time></trkpt><trkpt lat="43.4427917" lon="11.524975"><ele>619.0</ele><time>2026-04-11T10:51:55.703Z</time></trkpt><trkpt lat="43.4427283" lon="11.5248383"><ele>620.0</ele><time>2026-04-11T10:51:56.703Z</time></trkpt><trkpt lat="43.4426583" lon="11.52472"><ele>620.0</ele><time>2026-04-11T10:51:57.701Z</time></trkpt><trkpt lat="43.4425783" lon="11.5246183"><ele>620.0</ele><time>2026-04-11T10:51:58.702Z</time></trkpt><trkpt lat="43.4424967" lon="11.5245233"><ele>620.0</ele><time>2026-04-11T10:51:59.702Z</time></trkpt><trkpt lat="43.4424183" lon="11.5244317"><ele>620.0</ele><time>2026-04-11T10:52:00.701Z</time></trkpt><trkpt lat="43.44235" lon="11.524335"><ele>620.0</ele><time>2026-04-11T10:52:01.701Z</time></trkpt><trkpt lat="43.4423133" lon="11.524225"><ele>623.2</ele><time>2026-04-11T10:52:02.702Z</time></trkpt><trkpt lat="43.442305" lon="11.5240967"><ele>626.4</ele><time>2026-04-11T10:52:03.704Z</time></trkpt><trkpt lat="43.4423033" lon="11.52398"><ele>629.6</ele><time>2026-04-11T10:52:04.702Z</time></trkpt><trkpt lat="43.4423017" lon="11.5238783"><ele>632.8</ele><time>2026-04-11T10:52:05.703Z</time></trkpt><trkpt lat="43.4422333" lon="11.5237333"><ele>636.0</ele><time>2026-04-11T10:52:07.702Z</time></trkpt><trkpt lat="43.4421617" lon="11.52369"><ele>637.25</ele><time>2026-04-11T10:52:08.702Z</time></trkpt><trkpt lat="43.4420683" lon="11.5236333"><ele>638.5</ele><time>2026-04-11T10:52:09.702Z</time></trkpt><trkpt lat="43.441945" lon="11.52355"><ele>639.75</ele><time>2026-04-11T10:52:10.703Z</time></trkpt><trkpt lat="43.4418267" lon="11.52346"><ele>641.0</ele><time>2026-04-11T10:52:11.704Z</time></trkpt><trkpt lat="43.4417117" lon="11.5233833"><ele>641.0</ele><time>2026-04-11T10:52:12.702Z</time></trkpt><trkpt lat="43.4416067" lon="11.523325"><ele>641.0</ele><time>2026-04-11T10:52:13.703Z</time></trkpt><trkpt lat="43.441525" lon="11.5232717"><ele>641.0</ele><time>2026-04-11T10:52:14.702Z</time></trkpt><trkpt lat="43.4414567" lon="11.5232233"><ele>641.0</ele><time>2026-04-11T10:52:15.701Z</time></trkpt><trkpt lat="43.4413967" lon="11.5230883"><ele>641.0</ele><time>2026-04-11T10:52:17.701Z</time></trkpt><trkpt lat="43.44142" lon="11.52299"><ele>642.4</ele><time>2026-04-11T10:52:18.701Z</time></trkpt><trkpt lat="43.4414583" lon="11.5228867"><ele>643.8</ele><time>2026-04-11T10:52:19.702Z</time></trkpt><trkpt lat="43.4415" lon="11.52276"><ele>645.1999999999999</ele><time>2026-04-11T10:52:20.702Z</time></trkpt><trkpt lat="43.4415433" lon="11.52262"><ele>646.5999999999999</ele><time>2026-04-11T10:52:21.701Z</time></trkpt><trkpt lat="43.4415767" lon="11.52248"><ele>648.0</ele><time>2026-04-11T10:52:22.703Z</time></trkpt><trkpt lat="43.4416167" lon="11.5223533"><ele>648.0</ele><time>2026-04-11T10:52:23.702Z</time></trkpt><trkpt lat="43.4416567" lon="11.5222417"><ele>648.0</ele><time>2026-04-11T10:52:24.703Z</time></trkpt><trkpt lat="43.4417117" lon="11.5221517"><ele>648.0</ele><time>2026-04-11T10:52:25.701Z</time></trkpt><trkpt lat="43.44179" lon="11.522075"><ele>648.0</ele><time>2026-04-11T10:52:26.702Z</time></trkpt><trkpt lat="43.4418833" lon="11.521995"><ele>648.0</ele><time>2026-04-11T10:52:27.703Z</time></trkpt><trkpt lat="43.4419883" lon="11.5219"><ele>649.0</ele><time>2026-04-11T10:52:28.701Z</time></trkpt><trkpt lat="43.4420983" lon="11.5218"><ele>650.0</ele><time>2026-04-11T10:52:29.701Z</time></trkpt><trkpt lat="43.4422133" lon="11.5217"><ele>651.0</ele><time>2026-04-11T10:52:30.701Z</time></trkpt><trkpt lat="43.4423283" lon="11.521585"><ele>652.0</ele><time>2026-04-11T10:52:31.703Z</time></trkpt><trkpt lat="43.4424267" lon="11.521475"><ele>652.0</ele><time>2026-04-11T10:52:32.696Z</time></trkpt><trkpt lat="43.4425067" lon="11.5213733"><ele>652.0</ele><time>2026-04-11T10:52:33.698Z</time></trkpt><trkpt lat="43.44258" lon="11.5212617"><ele>652.0</ele><time>2026-04-11T10:52:34.7Z</time></trkpt><trkpt lat="43.4426533" lon="11.5211233"><ele>652.0</ele><time>2026-04-11T10:52:35.7Z</time></trkpt><trkpt lat="43.4427267" lon="11.5209533"><ele>652.25</ele><time>2026-04-11T10:52:36.702Z</time></trkpt><trkpt lat="43.4427883" lon="11.5207667"><ele>652.5</ele><time>2026-04-11T10:52:37.702Z</time></trkpt><trkpt lat="43.4428517" lon="11.520585"><ele>652.75</ele><time>2026-04-11T10:52:38.701Z</time></trkpt><trkpt lat="43.4429133" lon="11.5204267"><ele>653.0</ele><time>2026-04-11T10:52:39.698Z</time></trkpt><trkpt lat="43.4429717" lon="11.520285"><ele>653.0</ele><time>2026-04-11T10:52:40.701Z</time></trkpt><trkpt lat="43.4430233" lon="11.52016"><ele>653.0</ele><time>2026-04-11T10:52:41.701Z</time></trkpt><trkpt lat="43.4430683" lon="11.5200617"><ele>653.0</ele><time>2026-04-11T10:52:42.698Z</time></trkpt><trkpt lat="43.4431083" lon="11.519975"><ele>653.0</ele><time>2026-04-11T10:52:43.701Z</time></trkpt><trkpt lat="43.4431567" lon="11.51987"><ele>653.0</ele><time>2026-04-11T10:52:45.699Z</time></trkpt><trkpt lat="43.4430917" lon="11.5198217"><ele>653.0</ele><time>2026-04-11T10:52:50.704Z</time></trkpt><trkpt lat="43.4429967" lon="11.5197433"><ele>653.0000000000001</ele><time>2026-04-11T10:52:52.702Z</time></trkpt><trkpt lat="43.44295" lon="11.5196833"><ele>653.0</ele><time>2026-04-11T10:52:53.704Z</time></trkpt><trkpt lat="43.4429033" lon="11.519615"><ele>653.0</ele><time>2026-04-11T10:52:54.702Z</time></trkpt><trkpt lat="43.44285" lon="11.51954"><ele>653.0</ele><time>2026-04-11T10:52:55.702Z</time></trkpt><trkpt lat="43.44281" lon="11.5194617"><ele>653.0</ele><time>2026-04-11T10:52:56.703Z</time></trkpt><trkpt lat="43.4427833" lon="11.5193733"><ele>653.0000000000001</ele><time>2026-04-11T10:52:57.7Z</time></trkpt><trkpt lat="43.4427733" lon="11.51927"><ele>653.0</ele><time>2026-04-11T10:52:58.699Z</time></trkpt><trkpt lat="43.4427817" lon="11.519155"><ele>653.0000000000001</ele><time>2026-04-11T10:52:59.706Z</time></trkpt><trkpt lat="43.4427917" lon="11.519045"><ele>653.0</ele><time>2026-04-11T10:53:00.699Z</time></trkpt><trkpt lat="43.4428017" lon="11.5189283"><ele>653.0</ele><time>2026-04-11T10:53:01.701Z</time></trkpt><trkpt lat="43.4428133" lon="11.5188283"><ele>653.0</ele><time>2026-04-11T10:53:02.702Z</time></trkpt><trkpt lat="43.4428233" lon="11.5187417"><ele>653.0</ele><time>2026-04-11T10:53:03.699Z</time></trkpt><trkpt lat="43.44284" lon="11.518655"><ele>653.0000000000001</ele><time>2026-04-11T10:53:04.702Z</time></trkpt><trkpt lat="43.4428583" lon="11.518565"><ele>653.0</ele><time>2026-04-11T10:53:05.701Z</time></trkpt><trkpt lat="43.4428817" lon="11.5184633"><ele>653.6666666666666</ele><time>2026-04-11T10:53:06.697Z</time></trkpt><trkpt lat="43.4429067" lon="11.5183567"><ele>654.3333333333333</ele><time>2026-04-11T10:53:07.701Z</time></trkpt><trkpt lat="43.4429283" lon="11.5182483"><ele>655.0</ele><time>2026-04-11T10:53:08.702Z</time></trkpt><trkpt lat="43.4429433" lon="11.5181333"><ele>655.6666666666666</ele><time>2026-04-11T10:53:09.701Z</time></trkpt><trkpt lat="43.442965" lon="11.5180183"><ele>656.3333333333334</ele><time>2026-04-11T10:53:10.702Z</time></trkpt><trkpt lat="43.4429983" lon="11.5179083"><ele>657.0</ele><time>2026-04-11T10:53:11.701Z</time></trkpt><trkpt lat="43.4430317" lon="11.517795"><ele>660.5</ele><time>2026-04-11T10:53:12.701Z</time></trkpt><trkpt lat="43.4430567" lon="11.51768"><ele>664.0</ele><time>2026-04-11T10:53:13.701Z</time></trkpt><trkpt lat="43.44307" lon="11.51757"><ele>667.5</ele><time>2026-04-11T10:53:14.701Z</time></trkpt><trkpt lat="43.4430783" lon="11.5174567"><ele>671.0</ele><time>2026-04-11T10:53:15.701Z</time></trkpt><trkpt lat="43.443085" lon="11.5173483"><ele>674.5</ele><time>2026-04-11T10:53:16.701Z</time></trkpt><trkpt lat="43.44308" lon="11.5172417"><ele>678.0</ele><time>2026-04-11T10:53:17.699Z</time></trkpt><trkpt lat="43.4430617" lon="11.5171383"><ele>679.5</ele><time>2026-04-11T10:53:18.703Z</time></trkpt><trkpt lat="43.4430383" lon="11.5170367"><ele>681.0</ele><time>2026-04-11T10:53:19.702Z</time></trkpt><trkpt lat="43.4430133" lon="11.5169283"><ele>682.5</ele><time>2026-04-11T10:53:20.702Z</time></trkpt><trkpt lat="43.4429833" lon="11.51682"><ele>684.0</ele><time>2026-04-11T10:53:21.699Z</time></trkpt><trkpt lat="43.44295" lon="11.516705"><ele>685.5</ele><time>2026-04-11T10:53:22.701Z</time></trkpt><trkpt lat="43.4429133" lon="11.5165967"><ele>687.0</ele><time>2026-04-11T10:53:23.702Z</time></trkpt><trkpt lat="43.4428867" lon="11.5164983"><ele>685.1666666666666</ele><time>2026-04-11T10:53:24.702Z</time></trkpt><trkpt lat="43.4428667" lon="11.5163983"><ele>683.3333333333334</ele><time>2026-04-11T10:53:25.702Z</time></trkpt><trkpt lat="43.4428533" lon="11.5162933"><ele>681.5</ele><time>2026-04-11T10:53:26.701Z</time></trkpt><trkpt lat="43.4428333" lon="11.51618"><ele>679.6666666666667</ele><time>2026-04-11T10:53:27.701Z</time></trkpt><trkpt lat="43.4428233" lon="11.5160633"><ele>677.8333333333334</ele><time>2026-04-11T10:53:28.703Z</time></trkpt><trkpt lat="43.44283" lon="11.51594"><ele>676.0</ele><time>2026-04-11T10:53:29.702Z</time></trkpt><trkpt lat="43.442845" lon="11.5158217"><ele>676.0</ele><time>2026-04-11T10:53:30.701Z</time></trkpt><trkpt lat="43.4428633" lon="11.51572"><ele>676.0</ele><time>2026-04-11T10:53:31.701Z</time></trkpt><trkpt lat="43.442885" lon="11.5156217"><ele>676.0</ele><time>2026-04-11T10:53:32.702Z</time></trkpt><trkpt lat="43.4429417" lon="11.5154933"><ele>676.0</ele><time>2026-04-11T10:53:34.701Z</time></trkpt><trkpt lat="43.44306" lon="11.5154483"><ele>676.0</ele><time>2026-04-11T10:53:36.701Z</time></trkpt><trkpt lat="43.4431233" lon="11.5154383"><ele>676.0</ele><time>2026-04-11T10:53:37.7Z</time></trkpt><trkpt lat="43.4431867" lon="11.5154383"><ele>678.1666666666667</ele><time>2026-04-11T10:53:38.702Z</time></trkpt><trkpt lat="43.4432567" lon="11.5154367"><ele>680.3333333333334</ele><time>2026-04-11T10:53:39.7Z</time></trkpt><trkpt lat="43.4433417" lon="11.5154283"><ele>682.5</ele><time>2026-04-11T10:53:40.702Z</time></trkpt><trkpt lat="43.4434317" lon="11.515415"><ele>684.6666666666666</ele><time>2026-04-11T10:53:41.701Z</time></trkpt><trkpt lat="43.44351" lon="11.5153983"><ele>686.8333333333333</ele><time>2026-04-11T10:53:42.701Z</time></trkpt><trkpt lat="43.443595" lon="11.5153733"><ele>689.0</ele><time>2026-04-11T10:53:43.701Z</time></trkpt><trkpt lat="43.4436967" lon="11.5153333"><ele>689.0</ele><time>2026-04-11T10:53:44.702Z</time></trkpt><trkpt lat="43.4437967" lon="11.515285"><ele>689.0</ele><time>2026-04-11T10:53:45.7Z</time></trkpt><trkpt lat="43.4438883" lon="11.51523"><ele>689.0</ele><time>2026-04-11T10:53:46.703Z</time></trkpt><trkpt lat="43.4439633" lon="11.51518"><ele>689.0</ele><time>2026-04-11T10:53:47.702Z</time></trkpt><trkpt lat="43.4440667" lon="11.51511"><ele>689.0</ele><time>2026-04-11T10:53:49.703Z</time></trkpt><trkpt lat="43.444105" lon="11.5150367"><ele>692.3333333333333</ele><time>2026-04-11T10:53:50.702Z</time></trkpt><trkpt lat="43.4441317" lon="11.51494"><ele>695.6666666666666</ele><time>2026-04-11T10:53:51.702Z</time></trkpt><trkpt lat="43.4441517" lon="11.5148283"><ele>699.0</ele><time>2026-04-11T10:53:52.702Z</time></trkpt><trkpt lat="43.4441617" lon="11.5147117"><ele>702.3333333333334</ele><time>2026-04-11T10:53:53.701Z</time></trkpt><trkpt lat="43.444155" lon="11.5145983"><ele>705.6666666666667</ele><time>2026-04-11T10:53:54.701Z</time></trkpt><trkpt lat="43.444145" lon="11.5145033"><ele>709.0</ele><time>2026-04-11T10:53:55.701Z</time></trkpt><trkpt lat="43.4441483" lon="11.51438"><ele>709.2</ele><time>2026-04-11T10:53:57.702Z</time></trkpt><trkpt lat="43.4441633" lon="11.5142733"><ele>709.4000000000001</ele><time>2026-04-11T10:54:01.702Z</time></trkpt><trkpt lat="43.44417" lon="11.51414"><ele>709.6</ele><time>2026-04-11T10:54:03.702Z</time></trkpt><trkpt lat="43.4441717" lon="11.514025"><ele>709.8</ele><time>2026-04-11T10:54:04.702Z</time></trkpt><trkpt lat="43.4441633" lon="11.5138983"><ele>710.0</ele><time>2026-04-11T10:54:05.7Z</time></trkpt><trkpt lat="43.4441483" lon="11.5137583"><ele>710.0</ele><time>2026-04-11T10:54:06.701Z</time></trkpt><trkpt lat="43.444135" lon="11.5136217"><ele>710.0</ele><time>2026-04-11T10:54:07.701Z</time></trkpt><trkpt lat="43.4441267" lon="11.5134967"><ele>710.0</ele><time>2026-04-11T10:54:08.703Z</time></trkpt><trkpt lat="43.4441267" lon="11.513395"><ele>710.0</ele><time>2026-04-11T10:54:09.701Z</time></trkpt><trkpt lat="43.4441467" lon="11.513305"><ele>710.0</ele><time>2026-04-11T10:54:10.7Z</time></trkpt><trkpt lat="43.4442133" lon="11.5131667"><ele>710.0</ele><time>2026-04-11T10:54:12.703Z</time></trkpt><trkpt lat="43.4442667" lon="11.5130933"><ele>710.0</ele><time>2026-04-11T10:54:13.701Z</time></trkpt><trkpt lat="43.4443233" lon="11.5130333"><ele>710.0</ele><time>2026-04-11T10:54:14.703Z</time></trkpt><trkpt lat="43.4443783" lon="11.5129733"><ele>710.0</ele><time>2026-04-11T10:54:15.701Z</time></trkpt><trkpt lat="43.4444383" lon="11.5129083"><ele>710.0</ele><time>2026-04-11T10:54:16.7Z</time></trkpt><trkpt lat="43.4445" lon="11.512825"><ele>710.0</ele><time>2026-04-11T10:54:17.702Z</time></trkpt><trkpt lat="43.4445567" lon="11.5127333"><ele>708.3333333333333</ele><time>2026-04-11T10:54:18.702Z</time></trkpt><trkpt lat="43.444615" lon="11.51264"><ele>706.6666666666666</ele><time>2026-04-11T10:54:19.702Z</time></trkpt><trkpt lat="43.44468" lon="11.5125467"><ele>705.0</ele><time>2026-04-11T10:54:20.703Z</time></trkpt><trkpt lat="43.4447533" lon="11.5124733"><ele>703.3333333333334</ele><time>2026-04-11T10:54:21.702Z</time></trkpt><trkpt lat="43.44482" lon="11.5123967"><ele>701.6666666666667</ele><time>2026-04-11T10:54:22.702Z</time></trkpt><trkpt lat="43.4448867" lon="11.5123333"><ele>700.0</ele><time>2026-04-11T10:54:23.702Z</time></trkpt><trkpt lat="43.44496" lon="11.5122767"><ele>701.6666666666667</ele><time>2026-04-11T10:54:24.704Z</time></trkpt><trkpt lat="43.4450367" lon="11.5122367"><ele>703.3333333333334</ele><time>2026-04-11T10:54:25.702Z</time></trkpt><trkpt lat="43.4451233" lon="11.512215"><ele>705.0</ele><time>2026-04-11T10:54:26.703Z</time></trkpt><trkpt lat="43.4452183" lon="11.5122"><ele>706.6666666666666</ele><time>2026-04-11T10:54:27.701Z</time></trkpt><trkpt lat="43.44531" lon="11.51218"><ele>708.3333333333333</ele><time>2026-04-11T10:54:28.701Z</time></trkpt><trkpt lat="43.4453883" lon="11.512155"><ele>710.0</ele><time>2026-04-11T10:54:29.701Z</time></trkpt><trkpt lat="43.44548" lon="11.5121283"><ele>711.6</ele><time>2026-04-11T10:54:31.697Z</time></trkpt><trkpt lat="43.445545" lon="11.5120233"><ele>713.2</ele><time>2026-04-11T10:54:34.701Z</time></trkpt><trkpt lat="43.4455617" lon="11.5118633"><ele>714.8</ele><time>2026-04-11T10:54:36.7Z</time></trkpt><trkpt lat="43.4455617" lon="11.5117583"><ele>716.4</ele><time>2026-04-11T10:54:37.701Z</time></trkpt><trkpt lat="43.4455683" lon="11.511635"><ele>718.0</ele><time>2026-04-11T10:54:38.701Z</time></trkpt><trkpt lat="43.44558" lon="11.5114933"><ele>718.0</ele><time>2026-04-11T10:54:39.7Z</time></trkpt><trkpt lat="43.4455867" lon="11.511335"><ele>718.0</ele><time>2026-04-11T10:54:40.701Z</time></trkpt><trkpt lat="43.44559" lon="11.5111667"><ele>718.0</ele><time>2026-04-11T10:54:41.701Z</time></trkpt><trkpt lat="43.4455917" lon="11.5110017"><ele>718.0</ele><time>2026-04-11T10:54:42.701Z</time></trkpt><trkpt lat="43.4455783" lon="11.5108383"><ele>721.25</ele><time>2026-04-11T10:54:43.701Z</time></trkpt><trkpt lat="43.4455467" lon="11.51068"><ele>724.5</ele><time>2026-04-11T10:54:44.702Z</time></trkpt><trkpt lat="43.4455117" lon="11.5105267"><ele>727.75</ele><time>2026-04-11T10:54:45.699Z</time></trkpt><trkpt lat="43.4454767" lon="11.5103767"><ele>731.0</ele><time>2026-04-11T10:54:46.7Z</time></trkpt><trkpt lat="43.4454467" lon="11.5102283"><ele>731.1999999999999</ele><time>2026-04-11T10:54:47.701Z</time></trkpt><trkpt lat="43.4454183" lon="11.5100783"><ele>731.4</ele><time>2026-04-11T10:54:48.702Z</time></trkpt><trkpt lat="43.44539" lon="11.50993"><ele>731.6</ele><time>2026-04-11T10:54:49.7Z</time></trkpt><trkpt lat="43.44536" lon="11.5097817"><ele>731.8</ele><time>2026-04-11T10:54:50.702Z</time></trkpt><trkpt lat="43.4453283" lon="11.5096317"><ele>732.0</ele><time>2026-04-11T10:54:51.701Z</time></trkpt><trkpt lat="43.4452833" lon="11.5094867"><ele>738.0</ele><time>2026-04-11T10:54:52.702Z</time></trkpt><trkpt lat="43.44522" lon="11.50935"><ele>744.0</ele><time>2026-04-11T10:54:53.703Z</time></trkpt><trkpt lat="43.4451583" lon="11.5092117"><ele>750.0</ele><time>2026-04-11T10:54:54.702Z</time></trkpt><trkpt lat="43.445095" lon="11.5090633"><ele>756.0</ele><time>2026-04-11T10:54:55.701Z</time></trkpt><trkpt lat="43.4450283" lon="11.508905"><ele>756.0</ele><time>2026-04-11T10:54:56.703Z</time></trkpt><trkpt lat="43.4449583" lon="11.5087617"><ele>756.0</ele><time>2026-04-11T10:54:57.702Z</time></trkpt><trkpt lat="43.44488" lon="11.5086367"><ele>756.0</ele><time>2026-04-11T10:54:58.701Z</time></trkpt><trkpt lat="43.4447867" lon="11.5085433"><ele>756.0</ele><time>2026-04-11T10:54:59.701Z</time></trkpt><trkpt lat="43.4446717" lon="11.5084867"><ele>762.75</ele><time>2026-04-11T10:55:00.702Z</time></trkpt><trkpt lat="43.4445483" lon="11.5084417"><ele>769.5</ele><time>2026-04-11T10:55:01.702Z</time></trkpt><trkpt lat="43.4443933" lon="11.5084517"><ele>776.25</ele><time>2026-04-11T10:55:02.701Z</time></trkpt><trkpt lat="43.444245" lon="11.5084567"><ele>783.0</ele><time>2026-04-11T10:55:03.703Z</time></trkpt><trkpt lat="43.4441017" lon="11.5084633"><ele>783.0</ele><time>2026-04-11T10:55:04.701Z</time></trkpt><trkpt lat="43.44397" lon="11.5084383"><ele>783.0</ele><time>2026-04-11T10:55:05.697Z</time></trkpt><trkpt lat="43.4438533" lon="11.50836"><ele>783.0</ele><time>2026-04-11T10:55:06.698Z</time></trkpt><trkpt lat="43.44374" lon="11.5082617"><ele>783.0</ele><time>2026-04-11T10:55:07.701Z</time></trkpt><trkpt lat="43.44362" lon="11.50818"><ele>780.5</ele><time>2026-04-11T10:55:08.703Z</time></trkpt><trkpt lat="43.4434783" lon="11.508135"><ele>778.0</ele><time>2026-04-11T10:55:09.702Z</time></trkpt><trkpt lat="43.44334" lon="11.5081317"><ele>775.5</ele><time>2026-04-11T10:55:10.701Z</time></trkpt><trkpt lat="43.4432167" lon="11.5081"><ele>773.0</ele><time>2026-04-11T10:55:11.703Z</time></trkpt><trkpt lat="43.4431017" lon="11.5080233"><ele>773.0</ele><time>2026-04-11T10:55:12.702Z</time></trkpt><trkpt lat="43.4430067" lon="11.507915"><ele>773.0</ele><time>2026-04-11T10:55:13.703Z</time></trkpt><trkpt lat="43.4429467" lon="11.5077517"><ele>773.0</ele><time>2026-04-11T10:55:14.703Z</time></trkpt><trkpt lat="43.4429" lon="11.507595"><ele>773.0</ele><time>2026-04-11T10:55:15.702Z</time></trkpt><trkpt lat="43.442865" lon="11.5074333"><ele>776.2</ele><time>2026-04-11T10:55:16.702Z</time></trkpt><trkpt lat="43.4428233" lon="11.5072783"><ele>779.4</ele><time>2026-04-11T10:55:17.702Z</time></trkpt><trkpt lat="43.442795" lon="11.507125"><ele>782.6</ele><time>2026-04-11T10:55:18.703Z</time></trkpt><trkpt lat="43.442775" lon="11.5069933"><ele>785.8000000000001</ele><time>2026-04-11T10:55:19.702Z</time></trkpt><trkpt lat="43.4427667" lon="11.5068767"><ele>789.0</ele><time>2026-04-11T10:55:20.703Z</time></trkpt><trkpt lat="43.442765" lon="11.5067583"><ele>790.4000000000001</ele><time>2026-04-11T10:55:21.702Z</time></trkpt><trkpt lat="43.4427717" lon="11.5066467"><ele>791.8</ele><time>2026-04-11T10:55:22.702Z</time></trkpt><trkpt lat="43.4427883" lon="11.5065583"><ele>793.2</ele><time>2026-04-11T10:55:23.702Z</time></trkpt><trkpt lat="43.44288" lon="11.50638"><ele>794.5999999999999</ele><time>2026-04-11T10:55:25.701Z</time></trkpt><trkpt lat="43.442955" lon="11.50639"><ele>796.0</ele><time>2026-04-11T10:55:29.702Z</time></trkpt><trkpt lat="43.44301" lon="11.5064683"><ele>796.6666666666666</ele><time>2026-04-11T10:55:32.702Z</time></trkpt><trkpt lat="43.4430533" lon="11.5065333"><ele>797.3333333333333</ele><time>2026-04-11T10:55:36.702Z</time></trkpt><trkpt lat="43.4430217" lon="11.506625"><ele>798.0</ele><time>2026-04-11T10:55:40.701Z</time></trkpt><trkpt lat="43.443055" lon="11.50676"><ele>798.6666666666667</ele><time>2026-04-11T10:56:15.703Z</time></trkpt><trkpt lat="43.4429717" lon="11.5067083"><ele>799.3333333333334</ele><time>2026-04-11T10:57:23.705Z</time></trkpt><trkpt lat="43.4430433" lon="11.5067633"><ele>800.0</ele><time>2026-04-11T11:07:05.702Z</time></trkpt><trkpt lat="43.4429717" lon="11.5068117"><ele>800.0</ele><time>2026-04-11T11:08:05.695Z</time></trkpt><trkpt lat="43.4429083" lon="11.5068367"><ele>796.0</ele><time>2026-04-11T11:08:13.696Z</time></trkpt></trkseg></trk></gpx>